<?xml version="1.0" encoding="UTF-8" standalone="no" ?>
<gpx xmlns="http://www.topografix.com/GPX/1/1" xmlns:xsi="http://www.w3.org/2001/XMLSchema-instance" xsi:schemaLocation="http://www.topografix.com/GPX/1/1 http://www.topografix.com/GPX/1/1/gpx.xsd" version="1.1" creator="VisuGPX - https://www.visugpx.com">
  <metadata>
    <name>3- Cucq - Hardelot</name>
  </metadata>
  <trk>
    <name><![CDATA[15-MAI-24 04:53:16 PM]]></name>
    <trkseg>
      <trkpt lat="50.50961" lon="1.62481">
        <ele>22.25</ele>
        <time>2024-05-15T05:22:39Z</time>
      </trkpt>
      <trkpt lat="50.50961" lon="1.6248">
        <ele>22.25</ele>
        <time>2024-05-15T05:22:40Z</time>
      </trkpt>
      <trkpt lat="50.50959" lon="1.62482">
        <ele>18.4</ele>
        <time>2024-05-15T05:22:49Z</time>
      </trkpt>
      <trkpt lat="50.50959" lon="1.62486">
        <ele>16.96</ele>
        <time>2024-05-15T05:22:52Z</time>
      </trkpt>
      <trkpt lat="50.50957" lon="1.62493">
        <ele>13.6</ele>
        <time>2024-05-15T05:23:00Z</time>
      </trkpt>
      <trkpt lat="50.50956" lon="1.62492">
        <ele>12.63</ele>
        <time>2024-05-15T05:23:17Z</time>
      </trkpt>
      <trkpt lat="50.50947" lon="1.62494">
        <ele>12.63</ele>
        <time>2024-05-15T05:23:31Z</time>
      </trkpt>
      <trkpt lat="50.50945" lon="1.62487">
        <ele>12.63</ele>
        <time>2024-05-15T05:23:42Z</time>
      </trkpt>
      <trkpt lat="50.50943" lon="1.6247">
        <ele>13.12</ele>
        <time>2024-05-15T05:23:56Z</time>
      </trkpt>
      <trkpt lat="50.50943" lon="1.62469">
        <ele>9.75</ele>
        <time>2024-05-15T05:23:57Z</time>
      </trkpt>
      <trkpt lat="50.50943" lon="1.62468">
        <ele>13.12</ele>
        <time>2024-05-15T05:23:58Z</time>
      </trkpt>
      <trkpt lat="50.50943" lon="1.62458">
        <ele>13.12</ele>
        <time>2024-05-15T05:24:10Z</time>
      </trkpt>
      <trkpt lat="50.50944" lon="1.62449">
        <ele>8.79</ele>
        <time>2024-05-15T05:24:17Z</time>
      </trkpt>
      <trkpt lat="50.50944" lon="1.62447">
        <ele>13.6</ele>
        <time>2024-05-15T05:24:18Z</time>
      </trkpt>
      <trkpt lat="50.50944" lon="1.62446">
        <ele>12.63</ele>
        <time>2024-05-15T05:24:19Z</time>
      </trkpt>
      <trkpt lat="50.50946" lon="1.62419">
        <ele>13.6</ele>
        <time>2024-05-15T05:24:36Z</time>
      </trkpt>
      <trkpt lat="50.50947" lon="1.62398">
        <ele>9.75</ele>
        <time>2024-05-15T05:24:50Z</time>
      </trkpt>
      <trkpt lat="50.50947" lon="1.62397">
        <ele>14.08</ele>
        <time>2024-05-15T05:24:51Z</time>
      </trkpt>
      <trkpt lat="50.50948" lon="1.6239">
        <ele>12.63</ele>
        <time>2024-05-15T05:24:55Z</time>
      </trkpt>
      <trkpt lat="50.5095" lon="1.62381">
        <ele>16</ele>
        <time>2024-05-15T05:25:00Z</time>
      </trkpt>
      <trkpt lat="50.5095" lon="1.62376">
        <ele>14.08</ele>
        <time>2024-05-15T05:25:03Z</time>
      </trkpt>
      <trkpt lat="50.50951" lon="1.6235">
        <ele>15.04</ele>
        <time>2024-05-15T05:25:19Z</time>
      </trkpt>
      <trkpt lat="50.50951" lon="1.62345">
        <ele>11.67</ele>
        <time>2024-05-15T05:25:22Z</time>
      </trkpt>
      <trkpt lat="50.5095" lon="1.62318">
        <ele>13.12</ele>
        <time>2024-05-15T05:25:37Z</time>
      </trkpt>
      <trkpt lat="50.50951" lon="1.62293">
        <ele>14.08</ele>
        <time>2024-05-15T05:25:50Z</time>
      </trkpt>
      <trkpt lat="50.50953" lon="1.62263">
        <ele>13.12</ele>
        <time>2024-05-15T05:26:06Z</time>
      </trkpt>
      <trkpt lat="50.50954" lon="1.62237">
        <ele>13.6</ele>
        <time>2024-05-15T05:26:19Z</time>
      </trkpt>
      <trkpt lat="50.50953" lon="1.62217">
        <ele>13.6</ele>
        <time>2024-05-15T05:26:29Z</time>
      </trkpt>
      <trkpt lat="50.50955" lon="1.62209">
        <ele>13.6</ele>
        <time>2024-05-15T05:26:34Z</time>
      </trkpt>
      <trkpt lat="50.50961" lon="1.62188">
        <ele>13.6</ele>
        <time>2024-05-15T05:26:48Z</time>
      </trkpt>
      <trkpt lat="50.50963" lon="1.62184">
        <ele>13.12</ele>
        <time>2024-05-15T05:26:51Z</time>
      </trkpt>
      <trkpt lat="50.50964" lon="1.62178">
        <ele>13.6</ele>
        <time>2024-05-15T05:26:54Z</time>
      </trkpt>
      <trkpt lat="50.50972" lon="1.62159">
        <ele>13.12</ele>
        <time>2024-05-15T05:27:07Z</time>
      </trkpt>
      <trkpt lat="50.50972" lon="1.62151">
        <ele>13.12</ele>
        <time>2024-05-15T05:27:13Z</time>
      </trkpt>
      <trkpt lat="50.5097" lon="1.62146">
        <ele>12.63</ele>
        <time>2024-05-15T05:27:17Z</time>
      </trkpt>
      <trkpt lat="50.50963" lon="1.62139">
        <ele>13.12</ele>
        <time>2024-05-15T05:27:24Z</time>
      </trkpt>
      <trkpt lat="50.50955" lon="1.62122">
        <ele>13.6</ele>
        <time>2024-05-15T05:27:39Z</time>
      </trkpt>
      <trkpt lat="50.50956" lon="1.62115">
        <ele>13.12</ele>
        <time>2024-05-15T05:27:43Z</time>
      </trkpt>
      <trkpt lat="50.50955" lon="1.62098">
        <ele>13.12</ele>
        <time>2024-05-15T05:27:51Z</time>
      </trkpt>
      <trkpt lat="50.50956" lon="1.62089">
        <ele>13.12</ele>
        <time>2024-05-15T05:27:55Z</time>
      </trkpt>
      <trkpt lat="50.50956" lon="1.62061">
        <ele>13.6</ele>
        <time>2024-05-15T05:28:09Z</time>
      </trkpt>
      <trkpt lat="50.50958" lon="1.62043">
        <ele>13.12</ele>
        <time>2024-05-15T05:28:21Z</time>
      </trkpt>
      <trkpt lat="50.50954" lon="1.62029">
        <ele>13.12</ele>
        <time>2024-05-15T05:28:29Z</time>
      </trkpt>
      <trkpt lat="50.50954" lon="1.62019">
        <ele>12.63</ele>
        <time>2024-05-15T05:28:40Z</time>
      </trkpt>
      <trkpt lat="50.50956" lon="1.61991">
        <ele>12.63</ele>
        <time>2024-05-15T05:28:56Z</time>
      </trkpt>
      <trkpt lat="50.50955" lon="1.61971">
        <ele>12.63</ele>
        <time>2024-05-15T05:29:12Z</time>
      </trkpt>
      <trkpt lat="50.50947" lon="1.61948">
        <ele>13.12</ele>
        <time>2024-05-15T05:29:27Z</time>
      </trkpt>
      <trkpt lat="50.50947" lon="1.61926">
        <ele>13.12</ele>
        <time>2024-05-15T05:29:41Z</time>
      </trkpt>
      <trkpt lat="50.50942" lon="1.61889">
        <ele>13.12</ele>
        <time>2024-05-15T05:29:57Z</time>
      </trkpt>
      <trkpt lat="50.50941" lon="1.61881">
        <ele>13.12</ele>
        <time>2024-05-15T05:30:00Z</time>
      </trkpt>
      <trkpt lat="50.50938" lon="1.61856">
        <ele>12.63</ele>
        <time>2024-05-15T05:30:12Z</time>
      </trkpt>
      <trkpt lat="50.50934" lon="1.61831">
        <ele>13.12</ele>
        <time>2024-05-15T05:30:27Z</time>
      </trkpt>
      <trkpt lat="50.50933" lon="1.6182">
        <ele>13.12</ele>
        <time>2024-05-15T05:30:35Z</time>
      </trkpt>
      <trkpt lat="50.50929" lon="1.61786">
        <ele>13.6</ele>
        <time>2024-05-15T05:30:50Z</time>
      </trkpt>
      <trkpt lat="50.50925" lon="1.61759">
        <ele>13.12</ele>
        <time>2024-05-15T05:31:05Z</time>
      </trkpt>
      <trkpt lat="50.50919" lon="1.6173">
        <ele>13.12</ele>
        <time>2024-05-15T05:31:19Z</time>
      </trkpt>
      <trkpt lat="50.50916" lon="1.61713">
        <ele>13.12</ele>
        <time>2024-05-15T05:31:30Z</time>
      </trkpt>
      <trkpt lat="50.50915" lon="1.61703">
        <ele>13.12</ele>
        <time>2024-05-15T05:31:35Z</time>
      </trkpt>
      <trkpt lat="50.50907" lon="1.61675">
        <ele>13.6</ele>
        <time>2024-05-15T05:31:50Z</time>
      </trkpt>
      <trkpt lat="50.50901" lon="1.61646">
        <ele>13.6</ele>
        <time>2024-05-15T05:32:04Z</time>
      </trkpt>
      <trkpt lat="50.50892" lon="1.6162">
        <ele>13.6</ele>
        <time>2024-05-15T05:32:20Z</time>
      </trkpt>
      <trkpt lat="50.50888" lon="1.61596">
        <ele>13.6</ele>
        <time>2024-05-15T05:32:35Z</time>
      </trkpt>
      <trkpt lat="50.50885" lon="1.61588">
        <ele>14.08</ele>
        <time>2024-05-15T05:32:40Z</time>
      </trkpt>
      <trkpt lat="50.5088" lon="1.6157">
        <ele>21.77</ele>
        <time>2024-05-15T05:32:47Z</time>
      </trkpt>
      <trkpt lat="50.5088" lon="1.61568">
        <ele>14.56</ele>
        <time>2024-05-15T05:32:48Z</time>
      </trkpt>
      <trkpt lat="50.50878" lon="1.61563">
        <ele>0.62</ele>
        <time>2024-05-15T05:32:51Z</time>
      </trkpt>
      <trkpt lat="50.50878" lon="1.61561">
        <ele>16.48</ele>
        <time>2024-05-15T05:32:52Z</time>
      </trkpt>
      <trkpt lat="50.50877" lon="1.61559">
        <ele>6.87</ele>
        <time>2024-05-15T05:32:53Z</time>
      </trkpt>
      <trkpt lat="50.50877" lon="1.61557">
        <ele>18.4</ele>
        <time>2024-05-15T05:32:54Z</time>
      </trkpt>
      <trkpt lat="50.50877" lon="1.61556">
        <ele>14.08</ele>
        <time>2024-05-15T05:32:55Z</time>
      </trkpt>
      <trkpt lat="50.50874" lon="1.61545">
        <ele>-2.75</ele>
        <time>2024-05-15T05:33:01Z</time>
      </trkpt>
      <trkpt lat="50.50873" lon="1.61543">
        <ele>17.44</ele>
        <time>2024-05-15T05:33:02Z</time>
      </trkpt>
      <trkpt lat="50.50872" lon="1.61541">
        <ele>14.56</ele>
        <time>2024-05-15T05:33:03Z</time>
      </trkpt>
      <trkpt lat="50.50871" lon="1.61538">
        <ele>-1.79</ele>
        <time>2024-05-15T05:33:05Z</time>
      </trkpt>
      <trkpt lat="50.50871" lon="1.61537">
        <ele>25.61</ele>
        <time>2024-05-15T05:33:06Z</time>
      </trkpt>
      <trkpt lat="50.5087" lon="1.61535">
        <ele>15.04</ele>
        <time>2024-05-15T05:33:07Z</time>
      </trkpt>
      <trkpt lat="50.5087" lon="1.61533">
        <ele>18.88</ele>
        <time>2024-05-15T05:33:08Z</time>
      </trkpt>
      <trkpt lat="50.50869" lon="1.61528">
        <ele>14.56</ele>
        <time>2024-05-15T05:33:11Z</time>
      </trkpt>
      <trkpt lat="50.50867" lon="1.61521">
        <ele>14.56</ele>
        <time>2024-05-15T05:33:15Z</time>
      </trkpt>
      <trkpt lat="50.50866" lon="1.61517">
        <ele>4.94</ele>
        <time>2024-05-15T05:33:17Z</time>
      </trkpt>
      <trkpt lat="50.50866" lon="1.61515">
        <ele>16</ele>
        <time>2024-05-15T05:33:18Z</time>
      </trkpt>
      <trkpt lat="50.5086" lon="1.61488">
        <ele>14.56</ele>
        <time>2024-05-15T05:33:32Z</time>
      </trkpt>
      <trkpt lat="50.50858" lon="1.61477">
        <ele>24.17</ele>
        <time>2024-05-15T05:33:38Z</time>
      </trkpt>
      <trkpt lat="50.50857" lon="1.61475">
        <ele>15.04</ele>
        <time>2024-05-15T05:33:39Z</time>
      </trkpt>
      <trkpt lat="50.50852" lon="1.61442">
        <ele>15.52</ele>
        <time>2024-05-15T05:33:57Z</time>
      </trkpt>
      <trkpt lat="50.50852" lon="1.61439">
        <ele>15.04</ele>
        <time>2024-05-15T05:33:59Z</time>
      </trkpt>
      <trkpt lat="50.50847" lon="1.61408">
        <ele>14.08</ele>
        <time>2024-05-15T05:34:15Z</time>
      </trkpt>
      <trkpt lat="50.50841" lon="1.61378">
        <ele>14.56</ele>
        <time>2024-05-15T05:34:30Z</time>
      </trkpt>
      <trkpt lat="50.50836" lon="1.61345">
        <ele>15.04</ele>
        <time>2024-05-15T05:34:48Z</time>
      </trkpt>
      <trkpt lat="50.50834" lon="1.61311">
        <ele>15.04</ele>
        <time>2024-05-15T05:35:07Z</time>
      </trkpt>
      <trkpt lat="50.5083" lon="1.61272">
        <ele>15.04</ele>
        <time>2024-05-15T05:35:25Z</time>
      </trkpt>
      <trkpt lat="50.50827" lon="1.61241">
        <ele>15.04</ele>
        <time>2024-05-15T05:35:43Z</time>
      </trkpt>
      <trkpt lat="50.50827" lon="1.61209">
        <ele>15.04</ele>
        <time>2024-05-15T05:36:02Z</time>
      </trkpt>
      <trkpt lat="50.50827" lon="1.61205">
        <ele>15.04</ele>
        <time>2024-05-15T05:36:04Z</time>
      </trkpt>
      <trkpt lat="50.50824" lon="1.61168">
        <ele>15.04</ele>
        <time>2024-05-15T05:36:20Z</time>
      </trkpt>
      <trkpt lat="50.50831" lon="1.61136">
        <ele>14.56</ele>
        <time>2024-05-15T05:36:35Z</time>
      </trkpt>
      <trkpt lat="50.50839" lon="1.61111">
        <ele>15.04</ele>
        <time>2024-05-15T05:36:48Z</time>
      </trkpt>
      <trkpt lat="50.5084" lon="1.61103">
        <ele>15.04</ele>
        <time>2024-05-15T05:37:03Z</time>
      </trkpt>
      <trkpt lat="50.5084" lon="1.61103">
        <ele>14.56</ele>
        <time>2024-05-15T05:37:06Z</time>
      </trkpt>
      <trkpt lat="50.50835" lon="1.61089">
        <ele>14.56</ele>
        <time>2024-05-15T05:37:22Z</time>
      </trkpt>
      <trkpt lat="50.50837" lon="1.61076">
        <ele>14.56</ele>
        <time>2024-05-15T05:37:36Z</time>
      </trkpt>
      <trkpt lat="50.50838" lon="1.61074">
        <ele>14.56</ele>
        <time>2024-05-15T05:37:37Z</time>
      </trkpt>
      <trkpt lat="50.50838" lon="1.6107">
        <ele>15.04</ele>
        <time>2024-05-15T05:37:39Z</time>
      </trkpt>
      <trkpt lat="50.50838" lon="1.61068">
        <ele>15.04</ele>
        <time>2024-05-15T05:37:41Z</time>
      </trkpt>
      <trkpt lat="50.50847" lon="1.61055">
        <ele>15.04</ele>
        <time>2024-05-15T05:37:53Z</time>
      </trkpt>
      <trkpt lat="50.50868" lon="1.61026">
        <ele>15.04</ele>
        <time>2024-05-15T05:38:11Z</time>
      </trkpt>
      <trkpt lat="50.50876" lon="1.61011">
        <ele>14.08</ele>
        <time>2024-05-15T05:38:23Z</time>
      </trkpt>
      <trkpt lat="50.50895" lon="1.60982">
        <ele>13.6</ele>
        <time>2024-05-15T05:38:40Z</time>
      </trkpt>
      <trkpt lat="50.50905" lon="1.60962">
        <ele>13.6</ele>
        <time>2024-05-15T05:38:52Z</time>
      </trkpt>
      <trkpt lat="50.50913" lon="1.60949">
        <ele>13.6</ele>
        <time>2024-05-15T05:39:03Z</time>
      </trkpt>
      <trkpt lat="50.50924" lon="1.60935">
        <ele>14.08</ele>
        <time>2024-05-15T05:39:14Z</time>
      </trkpt>
      <trkpt lat="50.5094" lon="1.60907">
        <ele>14.08</ele>
        <time>2024-05-15T05:39:31Z</time>
      </trkpt>
      <trkpt lat="50.50951" lon="1.60888">
        <ele>14.08</ele>
        <time>2024-05-15T05:39:47Z</time>
      </trkpt>
      <trkpt lat="50.50958" lon="1.60878">
        <ele>13.6</ele>
        <time>2024-05-15T05:39:55Z</time>
      </trkpt>
      <trkpt lat="50.50969" lon="1.60861">
        <ele>13.12</ele>
        <time>2024-05-15T05:40:09Z</time>
      </trkpt>
      <trkpt lat="50.50977" lon="1.60847">
        <ele>13.6</ele>
        <time>2024-05-15T05:40:20Z</time>
      </trkpt>
      <trkpt lat="50.50996" lon="1.6082">
        <ele>13.12</ele>
        <time>2024-05-15T05:40:38Z</time>
      </trkpt>
      <trkpt lat="50.51013" lon="1.60797">
        <ele>13.12</ele>
        <time>2024-05-15T05:40:53Z</time>
      </trkpt>
      <trkpt lat="50.51027" lon="1.60781">
        <ele>13.12</ele>
        <time>2024-05-15T05:41:06Z</time>
      </trkpt>
      <trkpt lat="50.51042" lon="1.60753">
        <ele>13.12</ele>
        <time>2024-05-15T05:41:25Z</time>
      </trkpt>
      <trkpt lat="50.51063" lon="1.60732">
        <ele>12.63</ele>
        <time>2024-05-15T05:41:43Z</time>
      </trkpt>
      <trkpt lat="50.51067" lon="1.60728">
        <ele>13.12</ele>
        <time>2024-05-15T05:41:47Z</time>
      </trkpt>
      <trkpt lat="50.51077" lon="1.60718">
        <ele>12.63</ele>
        <time>2024-05-15T05:41:57Z</time>
      </trkpt>
      <trkpt lat="50.51092" lon="1.60693">
        <ele>12.63</ele>
        <time>2024-05-15T05:42:13Z</time>
      </trkpt>
      <trkpt lat="50.51109" lon="1.60669">
        <ele>12.63</ele>
        <time>2024-05-15T05:42:29Z</time>
      </trkpt>
      <trkpt lat="50.51121" lon="1.60651">
        <ele>12.63</ele>
        <time>2024-05-15T05:42:45Z</time>
      </trkpt>
      <trkpt lat="50.51135" lon="1.60629">
        <ele>13.12</ele>
        <time>2024-05-15T05:43:02Z</time>
      </trkpt>
      <trkpt lat="50.51137" lon="1.60626">
        <ele>13.12</ele>
        <time>2024-05-15T05:43:12Z</time>
      </trkpt>
      <trkpt lat="50.51146" lon="1.60619">
        <ele>12.63</ele>
        <time>2024-05-15T05:43:26Z</time>
      </trkpt>
      <trkpt lat="50.51159" lon="1.60617">
        <ele>12.63</ele>
        <time>2024-05-15T05:43:39Z</time>
      </trkpt>
      <trkpt lat="50.51163" lon="1.60609">
        <ele>13.12</ele>
        <time>2024-05-15T05:43:43Z</time>
      </trkpt>
      <trkpt lat="50.51181" lon="1.60582">
        <ele>12.63</ele>
        <time>2024-05-15T05:44:02Z</time>
      </trkpt>
      <trkpt lat="50.51194" lon="1.60562">
        <ele>12.15</ele>
        <time>2024-05-15T05:44:16Z</time>
      </trkpt>
      <trkpt lat="50.51207" lon="1.60544">
        <ele>12.15</ele>
        <time>2024-05-15T05:44:32Z</time>
      </trkpt>
      <trkpt lat="50.51223" lon="1.60526">
        <ele>12.63</ele>
        <time>2024-05-15T05:44:47Z</time>
      </trkpt>
      <trkpt lat="50.51246" lon="1.60501">
        <ele>12.63</ele>
        <time>2024-05-15T05:45:05Z</time>
      </trkpt>
      <trkpt lat="50.51262" lon="1.60478">
        <ele>12.63</ele>
        <time>2024-05-15T05:45:19Z</time>
      </trkpt>
      <trkpt lat="50.51276" lon="1.60459">
        <ele>12.63</ele>
        <time>2024-05-15T05:45:33Z</time>
      </trkpt>
      <trkpt lat="50.51289" lon="1.60438">
        <ele>12.63</ele>
        <time>2024-05-15T05:45:50Z</time>
      </trkpt>
      <trkpt lat="50.51301" lon="1.60424">
        <ele>12.63</ele>
        <time>2024-05-15T05:46:03Z</time>
      </trkpt>
      <trkpt lat="50.5132" lon="1.60396">
        <ele>12.63</ele>
        <time>2024-05-15T05:46:19Z</time>
      </trkpt>
      <trkpt lat="50.51333" lon="1.60377">
        <ele>12.15</ele>
        <time>2024-05-15T05:46:33Z</time>
      </trkpt>
      <trkpt lat="50.51335" lon="1.60374">
        <ele>12.63</ele>
        <time>2024-05-15T05:46:35Z</time>
      </trkpt>
      <trkpt lat="50.51339" lon="1.60369">
        <ele>12.63</ele>
        <time>2024-05-15T05:46:39Z</time>
      </trkpt>
      <trkpt lat="50.51357" lon="1.60345">
        <ele>12.15</ele>
        <time>2024-05-15T05:46:58Z</time>
      </trkpt>
      <trkpt lat="50.51373" lon="1.60326">
        <ele>12.15</ele>
        <time>2024-05-15T05:47:13Z</time>
      </trkpt>
      <trkpt lat="50.5139" lon="1.60301">
        <ele>12.63</ele>
        <time>2024-05-15T05:47:29Z</time>
      </trkpt>
      <trkpt lat="50.51407" lon="1.60278">
        <ele>12.15</ele>
        <time>2024-05-15T05:47:46Z</time>
      </trkpt>
      <trkpt lat="50.51414" lon="1.60268">
        <ele>12.15</ele>
        <time>2024-05-15T05:47:53Z</time>
      </trkpt>
      <trkpt lat="50.51418" lon="1.60262">
        <ele>12.15</ele>
        <time>2024-05-15T05:47:58Z</time>
      </trkpt>
      <trkpt lat="50.51423" lon="1.60256">
        <ele>11.67</ele>
        <time>2024-05-15T05:48:02Z</time>
      </trkpt>
      <trkpt lat="50.51439" lon="1.60232">
        <ele>12.15</ele>
        <time>2024-05-15T05:48:18Z</time>
      </trkpt>
      <trkpt lat="50.51448" lon="1.60217">
        <ele>8.79</ele>
        <time>2024-05-15T05:48:28Z</time>
      </trkpt>
      <trkpt lat="50.51448" lon="1.60217">
        <ele>12.63</ele>
        <time>2024-05-15T05:48:29Z</time>
      </trkpt>
      <trkpt lat="50.51463" lon="1.60189">
        <ele>12.15</ele>
        <time>2024-05-15T05:48:46Z</time>
      </trkpt>
      <trkpt lat="50.5148" lon="1.60161">
        <ele>12.15</ele>
        <time>2024-05-15T05:49:03Z</time>
      </trkpt>
      <trkpt lat="50.51485" lon="1.6015">
        <ele>12.15</ele>
        <time>2024-05-15T05:49:10Z</time>
      </trkpt>
      <trkpt lat="50.51498" lon="1.60129">
        <ele>12.15</ele>
        <time>2024-05-15T05:49:28Z</time>
      </trkpt>
      <trkpt lat="50.51506" lon="1.60113">
        <ele>12.15</ele>
        <time>2024-05-15T05:49:37Z</time>
      </trkpt>
      <trkpt lat="50.51522" lon="1.60085">
        <ele>12.15</ele>
        <time>2024-05-15T05:49:55Z</time>
      </trkpt>
      <trkpt lat="50.5154" lon="1.60057">
        <ele>9.27</ele>
        <time>2024-05-15T05:50:12Z</time>
      </trkpt>
      <trkpt lat="50.51542" lon="1.60056">
        <ele>13.6</ele>
        <time>2024-05-15T05:50:13Z</time>
      </trkpt>
      <trkpt lat="50.51553" lon="1.60033">
        <ele>11.67</ele>
        <time>2024-05-15T05:50:28Z</time>
      </trkpt>
      <trkpt lat="50.51569" lon="1.60016">
        <ele>11.19</ele>
        <time>2024-05-15T05:50:44Z</time>
      </trkpt>
      <trkpt lat="50.51585" lon="1.6001">
        <ele>10.71</ele>
        <time>2024-05-15T05:50:58Z</time>
      </trkpt>
      <trkpt lat="50.51592" lon="1.60011">
        <ele>10.71</ele>
        <time>2024-05-15T05:51:09Z</time>
      </trkpt>
      <trkpt lat="50.51608" lon="1.60027">
        <ele>10.71</ele>
        <time>2024-05-15T05:51:24Z</time>
      </trkpt>
      <trkpt lat="50.51619" lon="1.60042">
        <ele>11.19</ele>
        <time>2024-05-15T05:51:39Z</time>
      </trkpt>
      <trkpt lat="50.51636" lon="1.60052">
        <ele>6.87</ele>
        <time>2024-05-15T05:51:49Z</time>
      </trkpt>
      <trkpt lat="50.51638" lon="1.60052">
        <ele>11.67</ele>
        <time>2024-05-15T05:51:50Z</time>
      </trkpt>
      <trkpt lat="50.51641" lon="1.60056">
        <ele>10.23</ele>
        <time>2024-05-15T05:51:53Z</time>
      </trkpt>
      <trkpt lat="50.51642" lon="1.60058">
        <ele>10.23</ele>
        <time>2024-05-15T05:51:54Z</time>
      </trkpt>
      <trkpt lat="50.51656" lon="1.60071">
        <ele>10.23</ele>
        <time>2024-05-15T05:52:10Z</time>
      </trkpt>
      <trkpt lat="50.51676" lon="1.60083">
        <ele>10.23</ele>
        <time>2024-05-15T05:52:27Z</time>
      </trkpt>
      <trkpt lat="50.51681" lon="1.60078">
        <ele>10.23</ele>
        <time>2024-05-15T05:52:33Z</time>
      </trkpt>
      <trkpt lat="50.51697" lon="1.60047">
        <ele>9.75</ele>
        <time>2024-05-15T05:52:49Z</time>
      </trkpt>
      <trkpt lat="50.51703" lon="1.60029">
        <ele>9.75</ele>
        <time>2024-05-15T05:52:59Z</time>
      </trkpt>
      <trkpt lat="50.51708" lon="1.60015">
        <ele>9.75</ele>
        <time>2024-05-15T05:53:08Z</time>
      </trkpt>
      <trkpt lat="50.51717" lon="1.59985">
        <ele>9.75</ele>
        <time>2024-05-15T05:53:25Z</time>
      </trkpt>
      <trkpt lat="50.51724" lon="1.59962">
        <ele>9.75</ele>
        <time>2024-05-15T05:53:40Z</time>
      </trkpt>
      <trkpt lat="50.51727" lon="1.59958">
        <ele>9.75</ele>
        <time>2024-05-15T05:53:44Z</time>
      </trkpt>
      <trkpt lat="50.51733" lon="1.5995">
        <ele>9.27</ele>
        <time>2024-05-15T05:53:53Z</time>
      </trkpt>
      <trkpt lat="50.5174" lon="1.59935">
        <ele>9.27</ele>
        <time>2024-05-15T05:54:01Z</time>
      </trkpt>
      <trkpt lat="50.51745" lon="1.59918">
        <ele>9.75</ele>
        <time>2024-05-15T05:54:08Z</time>
      </trkpt>
      <trkpt lat="50.51751" lon="1.59898">
        <ele>6.39</ele>
        <time>2024-05-15T05:54:19Z</time>
      </trkpt>
      <trkpt lat="50.51752" lon="1.59896">
        <ele>9.75</ele>
        <time>2024-05-15T05:54:20Z</time>
      </trkpt>
      <trkpt lat="50.51754" lon="1.59888">
        <ele>4.94</ele>
        <time>2024-05-15T05:54:25Z</time>
      </trkpt>
      <trkpt lat="50.51755" lon="1.59886">
        <ele>9.75</ele>
        <time>2024-05-15T05:54:26Z</time>
      </trkpt>
      <trkpt lat="50.51761" lon="1.59859">
        <ele>9.27</ele>
        <time>2024-05-15T05:54:41Z</time>
      </trkpt>
      <trkpt lat="50.51764" lon="1.59847">
        <ele>9.75</ele>
        <time>2024-05-15T05:54:47Z</time>
      </trkpt>
      <trkpt lat="50.51774" lon="1.59819">
        <ele>8.79</ele>
        <time>2024-05-15T05:55:03Z</time>
      </trkpt>
      <trkpt lat="50.51777" lon="1.59808">
        <ele>9.27</ele>
        <time>2024-05-15T05:55:08Z</time>
      </trkpt>
      <trkpt lat="50.51786" lon="1.59784">
        <ele>9.27</ele>
        <time>2024-05-15T05:55:24Z</time>
      </trkpt>
      <trkpt lat="50.51796" lon="1.59758">
        <ele>8.79</ele>
        <time>2024-05-15T05:55:39Z</time>
      </trkpt>
      <trkpt lat="50.51801" lon="1.59739">
        <ele>8.79</ele>
        <time>2024-05-15T05:55:53Z</time>
      </trkpt>
      <trkpt lat="50.51807" lon="1.59717">
        <ele>8.79</ele>
        <time>2024-05-15T05:56:08Z</time>
      </trkpt>
      <trkpt lat="50.51812" lon="1.5969">
        <ele>8.79</ele>
        <time>2024-05-15T05:56:22Z</time>
      </trkpt>
      <trkpt lat="50.51814" lon="1.59685">
        <ele>8.31</ele>
        <time>2024-05-15T05:56:26Z</time>
      </trkpt>
      <trkpt lat="50.51824" lon="1.59658">
        <ele>8.31</ele>
        <time>2024-05-15T05:56:40Z</time>
      </trkpt>
      <trkpt lat="50.5183" lon="1.59628">
        <ele>8.31</ele>
        <time>2024-05-15T05:56:55Z</time>
      </trkpt>
      <trkpt lat="50.51837" lon="1.59605">
        <ele>8.79</ele>
        <time>2024-05-15T05:57:10Z</time>
      </trkpt>
      <trkpt lat="50.51844" lon="1.59574">
        <ele>8.31</ele>
        <time>2024-05-15T05:57:24Z</time>
      </trkpt>
      <trkpt lat="50.51849" lon="1.59549">
        <ele>8.79</ele>
        <time>2024-05-15T05:57:40Z</time>
      </trkpt>
      <trkpt lat="50.51849" lon="1.59549">
        <ele>8.79</ele>
        <time>2024-05-15T05:57:44Z</time>
      </trkpt>
      <trkpt lat="50.51835" lon="1.59534">
        <ele>8.79</ele>
        <time>2024-05-15T05:57:59Z</time>
      </trkpt>
      <trkpt lat="50.51831" lon="1.59533">
        <ele>8.79</ele>
        <time>2024-05-15T05:58:13Z</time>
      </trkpt>
      <trkpt lat="50.51834" lon="1.59528">
        <ele>8.79</ele>
        <time>2024-05-15T05:58:31Z</time>
      </trkpt>
      <trkpt lat="50.51835" lon="1.59524">
        <ele>8.79</ele>
        <time>2024-05-15T05:58:33Z</time>
      </trkpt>
      <trkpt lat="50.51836" lon="1.59519">
        <ele>8.79</ele>
        <time>2024-05-15T05:58:35Z</time>
      </trkpt>
      <trkpt lat="50.51843" lon="1.59503">
        <ele>8.79</ele>
        <time>2024-05-15T05:58:47Z</time>
      </trkpt>
      <trkpt lat="50.51842" lon="1.59502">
        <ele>8.31</ele>
        <time>2024-05-15T05:59:01Z</time>
      </trkpt>
      <trkpt lat="50.51841" lon="1.59507">
        <ele>7.83</ele>
        <time>2024-05-15T05:59:05Z</time>
      </trkpt>
      <trkpt lat="50.51835" lon="1.59527">
        <ele>8.79</ele>
        <time>2024-05-15T05:59:19Z</time>
      </trkpt>
      <trkpt lat="50.51835" lon="1.59527">
        <ele>8.79</ele>
        <time>2024-05-15T05:59:32Z</time>
      </trkpt>
      <trkpt lat="50.51834" lon="1.59525">
        <ele>8.31</ele>
        <time>2024-05-15T05:59:55Z</time>
      </trkpt>
      <trkpt lat="50.51834" lon="1.59522">
        <ele>8.31</ele>
        <time>2024-05-15T06:00:05Z</time>
      </trkpt>
      <trkpt lat="50.5183" lon="1.59507">
        <ele>8.31</ele>
        <time>2024-05-15T06:00:19Z</time>
      </trkpt>
      <trkpt lat="50.5183" lon="1.59491">
        <ele>8.31</ele>
        <time>2024-05-15T06:00:27Z</time>
      </trkpt>
      <trkpt lat="50.51833" lon="1.59476">
        <ele>8.31</ele>
        <time>2024-05-15T06:00:33Z</time>
      </trkpt>
      <trkpt lat="50.51851" lon="1.59455">
        <ele>7.83</ele>
        <time>2024-05-15T06:00:50Z</time>
      </trkpt>
      <trkpt lat="50.5187" lon="1.59458">
        <ele>7.83</ele>
        <time>2024-05-15T06:01:05Z</time>
      </trkpt>
      <trkpt lat="50.51873" lon="1.59457">
        <ele>7.83</ele>
        <time>2024-05-15T06:01:09Z</time>
      </trkpt>
      <trkpt lat="50.51882" lon="1.59447">
        <ele>8.31</ele>
        <time>2024-05-15T06:01:18Z</time>
      </trkpt>
      <trkpt lat="50.51888" lon="1.5944">
        <ele>4.94</ele>
        <time>2024-05-15T06:01:23Z</time>
      </trkpt>
      <trkpt lat="50.5189" lon="1.59437">
        <ele>8.31</ele>
        <time>2024-05-15T06:01:25Z</time>
      </trkpt>
      <trkpt lat="50.51894" lon="1.59433">
        <ele>4.94</ele>
        <time>2024-05-15T06:01:29Z</time>
      </trkpt>
      <trkpt lat="50.51895" lon="1.59432">
        <ele>11.19</ele>
        <time>2024-05-15T06:01:30Z</time>
      </trkpt>
      <trkpt lat="50.51896" lon="1.59431">
        <ele>8.31</ele>
        <time>2024-05-15T06:01:31Z</time>
      </trkpt>
      <trkpt lat="50.51898" lon="1.59428">
        <ele>7.83</ele>
        <time>2024-05-15T06:01:33Z</time>
      </trkpt>
      <trkpt lat="50.51918" lon="1.59403">
        <ele>7.83</ele>
        <time>2024-05-15T06:01:51Z</time>
      </trkpt>
      <trkpt lat="50.5192" lon="1.59394">
        <ele>7.83</ele>
        <time>2024-05-15T06:02:05Z</time>
      </trkpt>
      <trkpt lat="50.5192" lon="1.59394">
        <ele>7.83</ele>
        <time>2024-05-15T06:02:21Z</time>
      </trkpt>
      <trkpt lat="50.51922" lon="1.59393">
        <ele>8.31</ele>
        <time>2024-05-15T06:02:36Z</time>
      </trkpt>
      <trkpt lat="50.51922" lon="1.59392">
        <ele>7.35</ele>
        <time>2024-05-15T06:02:39Z</time>
      </trkpt>
      <trkpt lat="50.51925" lon="1.59389">
        <ele>7.35</ele>
        <time>2024-05-15T06:02:42Z</time>
      </trkpt>
      <trkpt lat="50.51925" lon="1.59378">
        <ele>7.35</ele>
        <time>2024-05-15T06:02:47Z</time>
      </trkpt>
      <trkpt lat="50.51924" lon="1.5937">
        <ele>7.83</ele>
        <time>2024-05-15T06:03:03Z</time>
      </trkpt>
      <trkpt lat="50.51924" lon="1.5937">
        <ele>7.35</ele>
        <time>2024-05-15T06:03:25Z</time>
      </trkpt>
      <trkpt lat="50.51924" lon="1.5937">
        <ele>6.87</ele>
        <time>2024-05-15T06:03:28Z</time>
      </trkpt>
      <trkpt lat="50.51931" lon="1.5937">
        <ele>7.35</ele>
        <time>2024-05-15T06:03:33Z</time>
      </trkpt>
      <trkpt lat="50.51947" lon="1.59359">
        <ele>7.35</ele>
        <time>2024-05-15T06:03:43Z</time>
      </trkpt>
      <trkpt lat="50.51951" lon="1.59357">
        <ele>7.35</ele>
        <time>2024-05-15T06:03:48Z</time>
      </trkpt>
      <trkpt lat="50.51955" lon="1.59353">
        <ele>6.87</ele>
        <time>2024-05-15T06:03:53Z</time>
      </trkpt>
      <trkpt lat="50.51969" lon="1.59341">
        <ele>7.35</ele>
        <time>2024-05-15T06:04:09Z</time>
      </trkpt>
      <trkpt lat="50.51969" lon="1.59341">
        <ele>7.35</ele>
        <time>2024-05-15T06:04:13Z</time>
      </trkpt>
      <trkpt lat="50.51971" lon="1.59338">
        <ele>6.87</ele>
        <time>2024-05-15T06:04:15Z</time>
      </trkpt>
      <trkpt lat="50.51977" lon="1.5933">
        <ele>7.35</ele>
        <time>2024-05-15T06:04:19Z</time>
      </trkpt>
      <trkpt lat="50.51979" lon="1.59328">
        <ele>-1.79</ele>
        <time>2024-05-15T06:04:21Z</time>
      </trkpt>
      <trkpt lat="50.51981" lon="1.59327">
        <ele>8.79</ele>
        <time>2024-05-15T06:04:22Z</time>
      </trkpt>
      <trkpt lat="50.51985" lon="1.59323">
        <ele>-1.3</ele>
        <time>2024-05-15T06:04:25Z</time>
      </trkpt>
      <trkpt lat="50.51987" lon="1.59322">
        <ele>14.56</ele>
        <time>2024-05-15T06:04:26Z</time>
      </trkpt>
      <trkpt lat="50.51988" lon="1.59321">
        <ele>12.15</ele>
        <time>2024-05-15T06:04:27Z</time>
      </trkpt>
      <trkpt lat="50.51989" lon="1.59319">
        <ele>7.83</ele>
        <time>2024-05-15T06:04:28Z</time>
      </trkpt>
      <trkpt lat="50.52008" lon="1.59305">
        <ele>7.35</ele>
        <time>2024-05-15T06:04:43Z</time>
      </trkpt>
      <trkpt lat="50.52014" lon="1.59303">
        <ele>6.87</ele>
        <time>2024-05-15T06:04:50Z</time>
      </trkpt>
      <trkpt lat="50.52019" lon="1.59297">
        <ele>6.87</ele>
        <time>2024-05-15T06:04:55Z</time>
      </trkpt>
      <trkpt lat="50.52029" lon="1.59268">
        <ele>6.87</ele>
        <time>2024-05-15T06:05:11Z</time>
      </trkpt>
      <trkpt lat="50.52029" lon="1.59238">
        <ele>6.87</ele>
        <time>2024-05-15T06:05:25Z</time>
      </trkpt>
      <trkpt lat="50.52031" lon="1.5922">
        <ele>7.35</ele>
        <time>2024-05-15T06:05:35Z</time>
      </trkpt>
      <trkpt lat="50.52033" lon="1.59202">
        <ele>7.83</ele>
        <time>2024-05-15T06:05:45Z</time>
      </trkpt>
      <trkpt lat="50.52034" lon="1.59181">
        <ele>7.35</ele>
        <time>2024-05-15T06:05:52Z</time>
      </trkpt>
      <trkpt lat="50.52037" lon="1.5915">
        <ele>7.83</ele>
        <time>2024-05-15T06:06:07Z</time>
      </trkpt>
      <trkpt lat="50.52038" lon="1.59138">
        <ele>7.83</ele>
        <time>2024-05-15T06:06:14Z</time>
      </trkpt>
      <trkpt lat="50.52036" lon="1.59121">
        <ele>7.83</ele>
        <time>2024-05-15T06:06:21Z</time>
      </trkpt>
      <trkpt lat="50.52035" lon="1.59109">
        <ele>7.83</ele>
        <time>2024-05-15T06:06:28Z</time>
      </trkpt>
      <trkpt lat="50.52034" lon="1.59102">
        <ele>7.83</ele>
        <time>2024-05-15T06:06:33Z</time>
      </trkpt>
      <trkpt lat="50.52033" lon="1.59095">
        <ele>7.83</ele>
        <time>2024-05-15T06:06:37Z</time>
      </trkpt>
      <trkpt lat="50.52031" lon="1.59064">
        <ele>7.83</ele>
        <time>2024-05-15T06:06:52Z</time>
      </trkpt>
      <trkpt lat="50.52031" lon="1.5906">
        <ele>7.83</ele>
        <time>2024-05-15T06:06:54Z</time>
      </trkpt>
      <trkpt lat="50.52032" lon="1.59047">
        <ele>7.35</ele>
        <time>2024-05-15T06:07:02Z</time>
      </trkpt>
      <trkpt lat="50.52037" lon="1.59038">
        <ele>7.35</ele>
        <time>2024-05-15T06:07:07Z</time>
      </trkpt>
      <trkpt lat="50.52041" lon="1.59028">
        <ele>6.87</ele>
        <time>2024-05-15T06:07:13Z</time>
      </trkpt>
      <trkpt lat="50.52055" lon="1.58998">
        <ele>7.35</ele>
        <time>2024-05-15T06:07:28Z</time>
      </trkpt>
      <trkpt lat="50.52056" lon="1.58992">
        <ele>-3.23</ele>
        <time>2024-05-15T06:07:31Z</time>
      </trkpt>
      <trkpt lat="50.52057" lon="1.58991">
        <ele>10.23</ele>
        <time>2024-05-15T06:07:32Z</time>
      </trkpt>
      <trkpt lat="50.52058" lon="1.58982">
        <ele>7.35</ele>
        <time>2024-05-15T06:07:37Z</time>
      </trkpt>
      <trkpt lat="50.5206" lon="1.58977">
        <ele>7.35</ele>
        <time>2024-05-15T06:07:39Z</time>
      </trkpt>
      <trkpt lat="50.52061" lon="1.58968">
        <ele>6.87</ele>
        <time>2024-05-15T06:07:43Z</time>
      </trkpt>
      <trkpt lat="50.52061" lon="1.58963">
        <ele>6.87</ele>
        <time>2024-05-15T06:07:45Z</time>
      </trkpt>
      <trkpt lat="50.52062" lon="1.58952">
        <ele>7.35</ele>
        <time>2024-05-15T06:07:51Z</time>
      </trkpt>
      <trkpt lat="50.52063" lon="1.58946">
        <ele>7.35</ele>
        <time>2024-05-15T06:07:53Z</time>
      </trkpt>
      <trkpt lat="50.52064" lon="1.58932">
        <ele>7.35</ele>
        <time>2024-05-15T06:08:01Z</time>
      </trkpt>
      <trkpt lat="50.52066" lon="1.58915">
        <ele>6.87</ele>
        <time>2024-05-15T06:08:10Z</time>
      </trkpt>
      <trkpt lat="50.52067" lon="1.58912">
        <ele>7.35</ele>
        <time>2024-05-15T06:08:12Z</time>
      </trkpt>
      <trkpt lat="50.52066" lon="1.58906">
        <ele>6.87</ele>
        <time>2024-05-15T06:08:15Z</time>
      </trkpt>
      <trkpt lat="50.52069" lon="1.58883">
        <ele>7.35</ele>
        <time>2024-05-15T06:08:26Z</time>
      </trkpt>
      <trkpt lat="50.52068" lon="1.58878">
        <ele>6.87</ele>
        <time>2024-05-15T06:08:29Z</time>
      </trkpt>
      <trkpt lat="50.52072" lon="1.58862">
        <ele>7.35</ele>
        <time>2024-05-15T06:08:36Z</time>
      </trkpt>
      <trkpt lat="50.52074" lon="1.58843">
        <ele>7.35</ele>
        <time>2024-05-15T06:08:47Z</time>
      </trkpt>
      <trkpt lat="50.52076" lon="1.58834">
        <ele>7.35</ele>
        <time>2024-05-15T06:08:52Z</time>
      </trkpt>
      <trkpt lat="50.52077" lon="1.58822">
        <ele>7.35</ele>
        <time>2024-05-15T06:08:57Z</time>
      </trkpt>
      <trkpt lat="50.52077" lon="1.58821">
        <ele>7.35</ele>
        <time>2024-05-15T06:08:58Z</time>
      </trkpt>
      <trkpt lat="50.52084" lon="1.58795">
        <ele>7.35</ele>
        <time>2024-05-15T06:09:11Z</time>
      </trkpt>
      <trkpt lat="50.52087" lon="1.58771">
        <ele>8.31</ele>
        <time>2024-05-15T06:09:23Z</time>
      </trkpt>
      <trkpt lat="50.52087" lon="1.58766">
        <ele>7.35</ele>
        <time>2024-05-15T06:09:26Z</time>
      </trkpt>
      <trkpt lat="50.52087" lon="1.58736">
        <ele>7.83</ele>
        <time>2024-05-15T06:09:41Z</time>
      </trkpt>
      <trkpt lat="50.52092" lon="1.58712">
        <ele>7.83</ele>
        <time>2024-05-15T06:09:52Z</time>
      </trkpt>
      <trkpt lat="50.52094" lon="1.58686">
        <ele>7.83</ele>
        <time>2024-05-15T06:10:06Z</time>
      </trkpt>
      <trkpt lat="50.52092" lon="1.58668">
        <ele>8.31</ele>
        <time>2024-05-15T06:10:20Z</time>
      </trkpt>
      <trkpt lat="50.5209" lon="1.58666">
        <ele>8.31</ele>
        <time>2024-05-15T06:10:22Z</time>
      </trkpt>
      <trkpt lat="50.52082" lon="1.58663">
        <ele>8.79</ele>
        <time>2024-05-15T06:10:29Z</time>
      </trkpt>
      <trkpt lat="50.52077" lon="1.58663">
        <ele>8.31</ele>
        <time>2024-05-15T06:10:33Z</time>
      </trkpt>
      <trkpt lat="50.52062" lon="1.58664">
        <ele>8.79</ele>
        <time>2024-05-15T06:10:45Z</time>
      </trkpt>
      <trkpt lat="50.52057" lon="1.58663">
        <ele>9.27</ele>
        <time>2024-05-15T06:10:52Z</time>
      </trkpt>
      <trkpt lat="50.52052" lon="1.58661">
        <ele>8.79</ele>
        <time>2024-05-15T06:10:56Z</time>
      </trkpt>
      <trkpt lat="50.52036" lon="1.58654">
        <ele>9.27</ele>
        <time>2024-05-15T06:11:11Z</time>
      </trkpt>
      <trkpt lat="50.52029" lon="1.58651">
        <ele>8.31</ele>
        <time>2024-05-15T06:11:17Z</time>
      </trkpt>
      <trkpt lat="50.52025" lon="1.5867">
        <ele>8.79</ele>
        <time>2024-05-15T06:11:32Z</time>
      </trkpt>
      <trkpt lat="50.52026" lon="1.58676">
        <ele>8.31</ele>
        <time>2024-05-15T06:11:38Z</time>
      </trkpt>
      <trkpt lat="50.52035" lon="1.58696">
        <ele>9.27</ele>
        <time>2024-05-15T06:11:56Z</time>
      </trkpt>
      <trkpt lat="50.52035" lon="1.58697">
        <ele>9.27</ele>
        <time>2024-05-15T06:11:58Z</time>
      </trkpt>
      <trkpt lat="50.52024" lon="1.58678">
        <ele>8.31</ele>
        <time>2024-05-15T06:12:12Z</time>
      </trkpt>
      <trkpt lat="50.52018" lon="1.58677">
        <ele>8.31</ele>
        <time>2024-05-15T06:12:16Z</time>
      </trkpt>
      <trkpt lat="50.52015" lon="1.58676">
        <ele>8.31</ele>
        <time>2024-05-15T06:12:30Z</time>
      </trkpt>
      <trkpt lat="50.52008" lon="1.58672">
        <ele>8.31</ele>
        <time>2024-05-15T06:12:41Z</time>
      </trkpt>
      <trkpt lat="50.5201" lon="1.58674">
        <ele>8.31</ele>
        <time>2024-05-15T06:13:02Z</time>
      </trkpt>
      <trkpt lat="50.52023" lon="1.58681">
        <ele>8.31</ele>
        <time>2024-05-15T06:13:15Z</time>
      </trkpt>
      <trkpt lat="50.52025" lon="1.58682">
        <ele>8.31</ele>
        <time>2024-05-15T06:13:17Z</time>
      </trkpt>
      <trkpt lat="50.5203" lon="1.58681">
        <ele>8.31</ele>
        <time>2024-05-15T06:13:23Z</time>
      </trkpt>
      <trkpt lat="50.52036" lon="1.58681">
        <ele>8.31</ele>
        <time>2024-05-15T06:13:35Z</time>
      </trkpt>
      <trkpt lat="50.52028" lon="1.58673">
        <ele>7.83</ele>
        <time>2024-05-15T06:13:44Z</time>
      </trkpt>
      <trkpt lat="50.5201" lon="1.5866">
        <ele>7.83</ele>
        <time>2024-05-15T06:13:55Z</time>
      </trkpt>
      <trkpt lat="50.52006" lon="1.58656">
        <ele>8.79</ele>
        <time>2024-05-15T06:13:59Z</time>
      </trkpt>
      <trkpt lat="50.52002" lon="1.58651">
        <ele>8.31</ele>
        <time>2024-05-15T06:14:16Z</time>
      </trkpt>
      <trkpt lat="50.52005" lon="1.58646">
        <ele>8.31</ele>
        <time>2024-05-15T06:14:31Z</time>
      </trkpt>
      <trkpt lat="50.52005" lon="1.58643">
        <ele>8.31</ele>
        <time>2024-05-15T06:14:41Z</time>
      </trkpt>
      <trkpt lat="50.52018" lon="1.58609">
        <ele>8.31</ele>
        <time>2024-05-15T06:14:59Z</time>
      </trkpt>
      <trkpt lat="50.52019" lon="1.58593">
        <ele>8.79</ele>
        <time>2024-05-15T06:15:08Z</time>
      </trkpt>
      <trkpt lat="50.5202" lon="1.58583">
        <ele>9.27</ele>
        <time>2024-05-15T06:15:13Z</time>
      </trkpt>
      <trkpt lat="50.5202" lon="1.58578">
        <ele>9.27</ele>
        <time>2024-05-15T06:15:16Z</time>
      </trkpt>
      <trkpt lat="50.52025" lon="1.58558">
        <ele>9.27</ele>
        <time>2024-05-15T06:15:30Z</time>
      </trkpt>
      <trkpt lat="50.52029" lon="1.58557">
        <ele>9.75</ele>
        <time>2024-05-15T06:15:43Z</time>
      </trkpt>
      <trkpt lat="50.52032" lon="1.58548">
        <ele>10.23</ele>
        <time>2024-05-15T06:15:57Z</time>
      </trkpt>
      <trkpt lat="50.52035" lon="1.58511">
        <ele>10.23</ele>
        <time>2024-05-15T06:16:13Z</time>
      </trkpt>
      <trkpt lat="50.52034" lon="1.58506">
        <ele>10.71</ele>
        <time>2024-05-15T06:16:16Z</time>
      </trkpt>
      <trkpt lat="50.52036" lon="1.58481">
        <ele>11.19</ele>
        <time>2024-05-15T06:16:32Z</time>
      </trkpt>
      <trkpt lat="50.52036" lon="1.58474">
        <ele>10.71</ele>
        <time>2024-05-15T06:16:47Z</time>
      </trkpt>
      <trkpt lat="50.52036" lon="1.58467">
        <ele>11.19</ele>
        <time>2024-05-15T06:16:50Z</time>
      </trkpt>
      <trkpt lat="50.52036" lon="1.5846">
        <ele>11.19</ele>
        <time>2024-05-15T06:16:56Z</time>
      </trkpt>
      <trkpt lat="50.52039" lon="1.58432">
        <ele>11.67</ele>
        <time>2024-05-15T06:17:11Z</time>
      </trkpt>
      <trkpt lat="50.52035" lon="1.5842">
        <ele>12.15</ele>
        <time>2024-05-15T06:17:25Z</time>
      </trkpt>
      <trkpt lat="50.52034" lon="1.58419">
        <ele>12.15</ele>
        <time>2024-05-15T06:17:42Z</time>
      </trkpt>
      <trkpt lat="50.52031" lon="1.58418">
        <ele>12.15</ele>
        <time>2024-05-15T06:17:45Z</time>
      </trkpt>
      <trkpt lat="50.52029" lon="1.58416">
        <ele>11.67</ele>
        <time>2024-05-15T06:17:48Z</time>
      </trkpt>
      <trkpt lat="50.52027" lon="1.58412">
        <ele>12.15</ele>
        <time>2024-05-15T06:17:51Z</time>
      </trkpt>
      <trkpt lat="50.52022" lon="1.58406">
        <ele>12.15</ele>
        <time>2024-05-15T06:17:57Z</time>
      </trkpt>
      <trkpt lat="50.5202" lon="1.58404">
        <ele>12.15</ele>
        <time>2024-05-15T06:17:59Z</time>
      </trkpt>
      <trkpt lat="50.52018" lon="1.584">
        <ele>11.67</ele>
        <time>2024-05-15T06:18:02Z</time>
      </trkpt>
      <trkpt lat="50.52016" lon="1.58392">
        <ele>12.63</ele>
        <time>2024-05-15T06:18:06Z</time>
      </trkpt>
      <trkpt lat="50.52016" lon="1.58391">
        <ele>12.15</ele>
        <time>2024-05-15T06:18:08Z</time>
      </trkpt>
      <trkpt lat="50.52012" lon="1.58383">
        <ele>11.67</ele>
        <time>2024-05-15T06:18:27Z</time>
      </trkpt>
      <trkpt lat="50.52011" lon="1.58361">
        <ele>12.15</ele>
        <time>2024-05-15T06:18:38Z</time>
      </trkpt>
      <trkpt lat="50.52009" lon="1.58335">
        <ele>11.67</ele>
        <time>2024-05-15T06:18:55Z</time>
      </trkpt>
      <trkpt lat="50.52028" lon="1.58333">
        <ele>12.15</ele>
        <time>2024-05-15T06:19:08Z</time>
      </trkpt>
      <trkpt lat="50.52037" lon="1.58335">
        <ele>11.67</ele>
        <time>2024-05-15T06:19:18Z</time>
      </trkpt>
      <trkpt lat="50.52041" lon="1.58327">
        <ele>11.67</ele>
        <time>2024-05-15T06:19:26Z</time>
      </trkpt>
      <trkpt lat="50.52042" lon="1.58318">
        <ele>12.15</ele>
        <time>2024-05-15T06:19:41Z</time>
      </trkpt>
      <trkpt lat="50.5205" lon="1.5831">
        <ele>12.15</ele>
        <time>2024-05-15T06:19:56Z</time>
      </trkpt>
      <trkpt lat="50.52052" lon="1.58306">
        <ele>12.15</ele>
        <time>2024-05-15T06:20:00Z</time>
      </trkpt>
      <trkpt lat="50.52058" lon="1.58277">
        <ele>12.15</ele>
        <time>2024-05-15T06:20:18Z</time>
      </trkpt>
      <trkpt lat="50.52067" lon="1.58244">
        <ele>12.15</ele>
        <time>2024-05-15T06:20:34Z</time>
      </trkpt>
      <trkpt lat="50.52074" lon="1.58211">
        <ele>12.15</ele>
        <time>2024-05-15T06:20:50Z</time>
      </trkpt>
      <trkpt lat="50.52077" lon="1.58206">
        <ele>12.15</ele>
        <time>2024-05-15T06:20:53Z</time>
      </trkpt>
      <trkpt lat="50.52077" lon="1.58184">
        <ele>11.67</ele>
        <time>2024-05-15T06:21:04Z</time>
      </trkpt>
      <trkpt lat="50.52075" lon="1.5815">
        <ele>11.67</ele>
        <time>2024-05-15T06:21:20Z</time>
      </trkpt>
      <trkpt lat="50.52078" lon="1.5813">
        <ele>12.15</ele>
        <time>2024-05-15T06:21:34Z</time>
      </trkpt>
      <trkpt lat="50.5208" lon="1.58112">
        <ele>12.15</ele>
        <time>2024-05-15T06:21:52Z</time>
      </trkpt>
      <trkpt lat="50.52085" lon="1.58084">
        <ele>11.19</ele>
        <time>2024-05-15T06:22:06Z</time>
      </trkpt>
      <trkpt lat="50.52086" lon="1.58078">
        <ele>10.71</ele>
        <time>2024-05-15T06:22:13Z</time>
      </trkpt>
      <trkpt lat="50.52087" lon="1.58074">
        <ele>11.19</ele>
        <time>2024-05-15T06:22:17Z</time>
      </trkpt>
      <trkpt lat="50.52089" lon="1.58061">
        <ele>11.19</ele>
        <time>2024-05-15T06:22:22Z</time>
      </trkpt>
      <trkpt lat="50.52089" lon="1.58057">
        <ele>9.75</ele>
        <time>2024-05-15T06:22:24Z</time>
      </trkpt>
      <trkpt lat="50.52086" lon="1.58047">
        <ele>10.23</ele>
        <time>2024-05-15T06:22:28Z</time>
      </trkpt>
      <trkpt lat="50.52084" lon="1.58031">
        <ele>9.75</ele>
        <time>2024-05-15T06:22:34Z</time>
      </trkpt>
      <trkpt lat="50.52083" lon="1.58018">
        <ele>10.23</ele>
        <time>2024-05-15T06:22:47Z</time>
      </trkpt>
      <trkpt lat="50.52083" lon="1.58018">
        <ele>10.23</ele>
        <time>2024-05-15T06:22:56Z</time>
      </trkpt>
      <trkpt lat="50.52086" lon="1.58011">
        <ele>9.75</ele>
        <time>2024-05-15T06:23:03Z</time>
      </trkpt>
      <trkpt lat="50.52092" lon="1.58006">
        <ele>9.27</ele>
        <time>2024-05-15T06:23:16Z</time>
      </trkpt>
      <trkpt lat="50.52094" lon="1.58003">
        <ele>9.27</ele>
        <time>2024-05-15T06:23:30Z</time>
      </trkpt>
      <trkpt lat="50.52094" lon="1.58003">
        <ele>9.27</ele>
        <time>2024-05-15T06:23:44Z</time>
      </trkpt>
      <trkpt lat="50.52094" lon="1.58003">
        <ele>9.75</ele>
        <time>2024-05-15T06:23:45Z</time>
      </trkpt>
      <trkpt lat="50.521" lon="1.5798">
        <ele>8.79</ele>
        <time>2024-05-15T06:23:58Z</time>
      </trkpt>
      <trkpt lat="50.52101" lon="1.57979">
        <ele>8.79</ele>
        <time>2024-05-15T06:24:06Z</time>
      </trkpt>
      <trkpt lat="50.52094" lon="1.57969">
        <ele>8.79</ele>
        <time>2024-05-15T06:24:13Z</time>
      </trkpt>
      <trkpt lat="50.52096" lon="1.5796">
        <ele>7.35</ele>
        <time>2024-05-15T06:24:19Z</time>
      </trkpt>
      <trkpt lat="50.52096" lon="1.57947">
        <ele>7.35</ele>
        <time>2024-05-15T06:24:28Z</time>
      </trkpt>
      <trkpt lat="50.52096" lon="1.5794">
        <ele>7.35</ele>
        <time>2024-05-15T06:24:32Z</time>
      </trkpt>
      <trkpt lat="50.52098" lon="1.57931">
        <ele>6.87</ele>
        <time>2024-05-15T06:24:40Z</time>
      </trkpt>
      <trkpt lat="50.52099" lon="1.57928">
        <ele>6.87</ele>
        <time>2024-05-15T06:24:42Z</time>
      </trkpt>
      <trkpt lat="50.521" lon="1.57917">
        <ele>6.87</ele>
        <time>2024-05-15T06:24:48Z</time>
      </trkpt>
      <trkpt lat="50.52103" lon="1.57887">
        <ele>7.35</ele>
        <time>2024-05-15T06:25:04Z</time>
      </trkpt>
      <trkpt lat="50.52108" lon="1.57873">
        <ele>6.87</ele>
        <time>2024-05-15T06:25:17Z</time>
      </trkpt>
      <trkpt lat="50.52108" lon="1.57873">
        <ele>7.35</ele>
        <time>2024-05-15T06:25:40Z</time>
      </trkpt>
      <trkpt lat="50.52107" lon="1.57873">
        <ele>6.87</ele>
        <time>2024-05-15T06:26:02Z</time>
      </trkpt>
      <trkpt lat="50.52108" lon="1.57871">
        <ele>7.35</ele>
        <time>2024-05-15T06:26:06Z</time>
      </trkpt>
      <trkpt lat="50.52115" lon="1.57872">
        <ele>7.35</ele>
        <time>2024-05-15T06:26:18Z</time>
      </trkpt>
      <trkpt lat="50.52121" lon="1.57871">
        <ele>7.35</ele>
        <time>2024-05-15T06:26:33Z</time>
      </trkpt>
      <trkpt lat="50.52129" lon="1.57873">
        <ele>7.35</ele>
        <time>2024-05-15T06:26:46Z</time>
      </trkpt>
      <trkpt lat="50.52129" lon="1.57873">
        <ele>7.35</ele>
        <time>2024-05-15T06:26:59Z</time>
      </trkpt>
      <trkpt lat="50.52126" lon="1.57873">
        <ele>7.35</ele>
        <time>2024-05-15T06:27:17Z</time>
      </trkpt>
      <trkpt lat="50.52126" lon="1.57873">
        <ele>7.35</ele>
        <time>2024-05-15T06:27:45Z</time>
      </trkpt>
      <trkpt lat="50.52126" lon="1.57873">
        <ele>7.35</ele>
        <time>2024-05-15T06:28:08Z</time>
      </trkpt>
      <trkpt lat="50.52126" lon="1.57874">
        <ele>7.83</ele>
        <time>2024-05-15T06:28:26Z</time>
      </trkpt>
      <trkpt lat="50.52126" lon="1.57874">
        <ele>7.35</ele>
        <time>2024-05-15T06:28:46Z</time>
      </trkpt>
      <trkpt lat="50.52126" lon="1.57874">
        <ele>7.83</ele>
        <time>2024-05-15T06:29:00Z</time>
      </trkpt>
      <trkpt lat="50.52129" lon="1.57875">
        <ele>7.35</ele>
        <time>2024-05-15T06:29:04Z</time>
      </trkpt>
      <trkpt lat="50.52138" lon="1.57876">
        <ele>7.83</ele>
        <time>2024-05-15T06:29:15Z</time>
      </trkpt>
      <trkpt lat="50.52155" lon="1.57881">
        <ele>7.35</ele>
        <time>2024-05-15T06:29:29Z</time>
      </trkpt>
      <trkpt lat="50.52173" lon="1.57884">
        <ele>7.35</ele>
        <time>2024-05-15T06:29:44Z</time>
      </trkpt>
      <trkpt lat="50.52193" lon="1.57887">
        <ele>6.87</ele>
        <time>2024-05-15T06:30:00Z</time>
      </trkpt>
      <trkpt lat="50.52209" lon="1.57888">
        <ele>7.35</ele>
        <time>2024-05-15T06:30:13Z</time>
      </trkpt>
      <trkpt lat="50.52228" lon="1.57892">
        <ele>7.35</ele>
        <time>2024-05-15T06:30:28Z</time>
      </trkpt>
      <trkpt lat="50.52247" lon="1.57895">
        <ele>7.35</ele>
        <time>2024-05-15T06:30:43Z</time>
      </trkpt>
      <trkpt lat="50.52251" lon="1.57897">
        <ele>12.15</ele>
        <time>2024-05-15T06:30:47Z</time>
      </trkpt>
      <trkpt lat="50.52253" lon="1.57897">
        <ele>7.83</ele>
        <time>2024-05-15T06:30:48Z</time>
      </trkpt>
      <trkpt lat="50.52259" lon="1.579">
        <ele>7.35</ele>
        <time>2024-05-15T06:30:53Z</time>
      </trkpt>
      <trkpt lat="50.52271" lon="1.57905">
        <ele>10.71</ele>
        <time>2024-05-15T06:31:02Z</time>
      </trkpt>
      <trkpt lat="50.52272" lon="1.57905">
        <ele>8.79</ele>
        <time>2024-05-15T06:31:03Z</time>
      </trkpt>
      <trkpt lat="50.52273" lon="1.57906">
        <ele>-0.34</ele>
        <time>2024-05-15T06:31:04Z</time>
      </trkpt>
      <trkpt lat="50.52274" lon="1.57906">
        <ele>9.75</ele>
        <time>2024-05-15T06:31:05Z</time>
      </trkpt>
      <trkpt lat="50.52293" lon="1.57913">
        <ele>7.83</ele>
        <time>2024-05-15T06:31:20Z</time>
      </trkpt>
      <trkpt lat="50.52314" lon="1.5792">
        <ele>8.31</ele>
        <time>2024-05-15T06:31:37Z</time>
      </trkpt>
      <trkpt lat="50.52332" lon="1.57929">
        <ele>7.83</ele>
        <time>2024-05-15T06:31:53Z</time>
      </trkpt>
      <trkpt lat="50.5235" lon="1.57935">
        <ele>7.83</ele>
        <time>2024-05-15T06:32:07Z</time>
      </trkpt>
      <trkpt lat="50.52373" lon="1.57944">
        <ele>7.83</ele>
        <time>2024-05-15T06:32:25Z</time>
      </trkpt>
      <trkpt lat="50.52391" lon="1.57959">
        <ele>7.35</ele>
        <time>2024-05-15T06:32:41Z</time>
      </trkpt>
      <trkpt lat="50.52399" lon="1.57993">
        <ele>6.87</ele>
        <time>2024-05-15T06:32:59Z</time>
      </trkpt>
      <trkpt lat="50.52399" lon="1.58033">
        <ele>7.35</ele>
        <time>2024-05-15T06:33:18Z</time>
      </trkpt>
      <trkpt lat="50.524" lon="1.58064">
        <ele>7.83</ele>
        <time>2024-05-15T06:33:37Z</time>
      </trkpt>
      <trkpt lat="50.52422" lon="1.58074">
        <ele>7.83</ele>
        <time>2024-05-15T06:33:56Z</time>
      </trkpt>
      <trkpt lat="50.52444" lon="1.58084">
        <ele>8.79</ele>
        <time>2024-05-15T06:34:12Z</time>
      </trkpt>
      <trkpt lat="50.52445" lon="1.58085">
        <ele>8.79</ele>
        <time>2024-05-15T06:34:14Z</time>
      </trkpt>
      <trkpt lat="50.52453" lon="1.58084">
        <ele>8.31</ele>
        <time>2024-05-15T06:34:28Z</time>
      </trkpt>
      <trkpt lat="50.52451" lon="1.58086">
        <ele>8.31</ele>
        <time>2024-05-15T06:34:49Z</time>
      </trkpt>
      <trkpt lat="50.5245" lon="1.58086">
        <ele>8.79</ele>
        <time>2024-05-15T06:35:06Z</time>
      </trkpt>
      <trkpt lat="50.52451" lon="1.58086">
        <ele>8.79</ele>
        <time>2024-05-15T06:35:18Z</time>
      </trkpt>
      <trkpt lat="50.52454" lon="1.58087">
        <ele>8.31</ele>
        <time>2024-05-15T06:35:24Z</time>
      </trkpt>
      <trkpt lat="50.52458" lon="1.58089">
        <ele>8.79</ele>
        <time>2024-05-15T06:35:28Z</time>
      </trkpt>
      <trkpt lat="50.52465" lon="1.58091">
        <ele>8.31</ele>
        <time>2024-05-15T06:35:33Z</time>
      </trkpt>
      <trkpt lat="50.52469" lon="1.58093">
        <ele>8.79</ele>
        <time>2024-05-15T06:35:37Z</time>
      </trkpt>
      <trkpt lat="50.52484" lon="1.58099">
        <ele>8.31</ele>
        <time>2024-05-15T06:35:48Z</time>
      </trkpt>
      <trkpt lat="50.52503" lon="1.58108">
        <ele>8.79</ele>
        <time>2024-05-15T06:36:02Z</time>
      </trkpt>
      <trkpt lat="50.52521" lon="1.58118">
        <ele>8.31</ele>
        <time>2024-05-15T06:36:18Z</time>
      </trkpt>
      <trkpt lat="50.52538" lon="1.58124">
        <ele>8.79</ele>
        <time>2024-05-15T06:36:33Z</time>
      </trkpt>
      <trkpt lat="50.52554" lon="1.58133">
        <ele>8.79</ele>
        <time>2024-05-15T06:36:47Z</time>
      </trkpt>
      <trkpt lat="50.52572" lon="1.58142">
        <ele>8.79</ele>
        <time>2024-05-15T06:37:01Z</time>
      </trkpt>
      <trkpt lat="50.52577" lon="1.58143">
        <ele>8.79</ele>
        <time>2024-05-15T06:37:04Z</time>
      </trkpt>
      <trkpt lat="50.52595" lon="1.58149">
        <ele>8.79</ele>
        <time>2024-05-15T06:37:20Z</time>
      </trkpt>
      <trkpt lat="50.52601" lon="1.5815">
        <ele>9.27</ele>
        <time>2024-05-15T06:37:37Z</time>
      </trkpt>
      <trkpt lat="50.52609" lon="1.58154">
        <ele>8.31</ele>
        <time>2024-05-15T06:37:50Z</time>
      </trkpt>
      <trkpt lat="50.52624" lon="1.5816">
        <ele>8.79</ele>
        <time>2024-05-15T06:38:02Z</time>
      </trkpt>
      <trkpt lat="50.52629" lon="1.58163">
        <ele>8.31</ele>
        <time>2024-05-15T06:38:07Z</time>
      </trkpt>
      <trkpt lat="50.5263" lon="1.58171">
        <ele>8.31</ele>
        <time>2024-05-15T06:38:19Z</time>
      </trkpt>
      <trkpt lat="50.5263" lon="1.58171">
        <ele>8.79</ele>
        <time>2024-05-15T06:38:43Z</time>
      </trkpt>
      <trkpt lat="50.52631" lon="1.58171">
        <ele>8.79</ele>
        <time>2024-05-15T06:39:09Z</time>
      </trkpt>
      <trkpt lat="50.52631" lon="1.58171">
        <ele>7.83</ele>
        <time>2024-05-15T06:39:20Z</time>
      </trkpt>
      <trkpt lat="50.52636" lon="1.58172">
        <ele>8.31</ele>
        <time>2024-05-15T06:39:24Z</time>
      </trkpt>
      <trkpt lat="50.52646" lon="1.58177">
        <ele>1.58</ele>
        <time>2024-05-15T06:39:32Z</time>
      </trkpt>
      <trkpt lat="50.52647" lon="1.58177">
        <ele>9.27</ele>
        <time>2024-05-15T06:39:33Z</time>
      </trkpt>
      <trkpt lat="50.52651" lon="1.58179">
        <ele>8.79</ele>
        <time>2024-05-15T06:39:36Z</time>
      </trkpt>
      <trkpt lat="50.52665" lon="1.58187">
        <ele>8.31</ele>
        <time>2024-05-15T06:39:47Z</time>
      </trkpt>
      <trkpt lat="50.52683" lon="1.58196">
        <ele>8.79</ele>
        <time>2024-05-15T06:40:02Z</time>
      </trkpt>
      <trkpt lat="50.52698" lon="1.58203">
        <ele>8.79</ele>
        <time>2024-05-15T06:40:14Z</time>
      </trkpt>
      <trkpt lat="50.52705" lon="1.58209">
        <ele>8.31</ele>
        <time>2024-05-15T06:40:20Z</time>
      </trkpt>
      <trkpt lat="50.52723" lon="1.5822">
        <ele>8.79</ele>
        <time>2024-05-15T06:40:34Z</time>
      </trkpt>
      <trkpt lat="50.5274" lon="1.58232">
        <ele>8.31</ele>
        <time>2024-05-15T06:40:49Z</time>
      </trkpt>
      <trkpt lat="50.52756" lon="1.5824">
        <ele>8.31</ele>
        <time>2024-05-15T06:41:03Z</time>
      </trkpt>
      <trkpt lat="50.52758" lon="1.5824">
        <ele>8.31</ele>
        <time>2024-05-15T06:41:20Z</time>
      </trkpt>
      <trkpt lat="50.52761" lon="1.58233">
        <ele>8.31</ele>
        <time>2024-05-15T06:41:30Z</time>
      </trkpt>
      <trkpt lat="50.52761" lon="1.58232">
        <ele>8.31</ele>
        <time>2024-05-15T06:41:31Z</time>
      </trkpt>
      <trkpt lat="50.52763" lon="1.58228">
        <ele>8.31</ele>
        <time>2024-05-15T06:41:34Z</time>
      </trkpt>
      <trkpt lat="50.52766" lon="1.58215">
        <ele>8.79</ele>
        <time>2024-05-15T06:41:42Z</time>
      </trkpt>
      <trkpt lat="50.52778" lon="1.58192">
        <ele>8.79</ele>
        <time>2024-05-15T06:41:56Z</time>
      </trkpt>
      <trkpt lat="50.5278" lon="1.58178">
        <ele>9.27</ele>
        <time>2024-05-15T06:42:03Z</time>
      </trkpt>
      <trkpt lat="50.52785" lon="1.58151">
        <ele>9.27</ele>
        <time>2024-05-15T06:42:20Z</time>
      </trkpt>
      <trkpt lat="50.52781" lon="1.58169">
        <ele>8.79</ele>
        <time>2024-05-15T06:42:34Z</time>
      </trkpt>
      <trkpt lat="50.52773" lon="1.58202">
        <ele>9.75</ele>
        <time>2024-05-15T06:42:52Z</time>
      </trkpt>
      <trkpt lat="50.52766" lon="1.58214">
        <ele>7.83</ele>
        <time>2024-05-15T06:43:00Z</time>
      </trkpt>
      <trkpt lat="50.52766" lon="1.58219">
        <ele>8.31</ele>
        <time>2024-05-15T06:43:03Z</time>
      </trkpt>
      <trkpt lat="50.52774" lon="1.58224">
        <ele>8.79</ele>
        <time>2024-05-15T06:43:12Z</time>
      </trkpt>
      <trkpt lat="50.52791" lon="1.58223">
        <ele>8.79</ele>
        <time>2024-05-15T06:43:26Z</time>
      </trkpt>
      <trkpt lat="50.52799" lon="1.58216">
        <ele>8.79</ele>
        <time>2024-05-15T06:43:32Z</time>
      </trkpt>
      <trkpt lat="50.52799" lon="1.58209">
        <ele>11.67</ele>
        <time>2024-05-15T06:43:35Z</time>
      </trkpt>
      <trkpt lat="50.528" lon="1.58205">
        <ele>1.58</ele>
        <time>2024-05-15T06:43:37Z</time>
      </trkpt>
      <trkpt lat="50.528" lon="1.58203">
        <ele>11.67</ele>
        <time>2024-05-15T06:43:38Z</time>
      </trkpt>
      <trkpt lat="50.52801" lon="1.58202">
        <ele>5.42</ele>
        <time>2024-05-15T06:43:39Z</time>
      </trkpt>
      <trkpt lat="50.52801" lon="1.582">
        <ele>14.56</ele>
        <time>2024-05-15T06:43:40Z</time>
      </trkpt>
      <trkpt lat="50.52802" lon="1.58198">
        <ele>10.71</ele>
        <time>2024-05-15T06:43:41Z</time>
      </trkpt>
      <trkpt lat="50.52803" lon="1.58195">
        <ele>9.27</ele>
        <time>2024-05-15T06:43:43Z</time>
      </trkpt>
      <trkpt lat="50.52809" lon="1.5818">
        <ele>9.75</ele>
        <time>2024-05-15T06:43:54Z</time>
      </trkpt>
      <trkpt lat="50.52811" lon="1.58175">
        <ele>10.23</ele>
        <time>2024-05-15T06:43:57Z</time>
      </trkpt>
      <trkpt lat="50.52831" lon="1.58172">
        <ele>11.19</ele>
        <time>2024-05-15T06:44:13Z</time>
      </trkpt>
      <trkpt lat="50.52845" lon="1.58162">
        <ele>12.15</ele>
        <time>2024-05-15T06:44:28Z</time>
      </trkpt>
      <trkpt lat="50.52846" lon="1.5816">
        <ele>12.15</ele>
        <time>2024-05-15T06:44:29Z</time>
      </trkpt>
      <trkpt lat="50.5285" lon="1.58161">
        <ele>12.15</ele>
        <time>2024-05-15T06:44:34Z</time>
      </trkpt>
      <trkpt lat="50.52868" lon="1.58177">
        <ele>13.12</ele>
        <time>2024-05-15T06:44:52Z</time>
      </trkpt>
      <trkpt lat="50.52873" lon="1.58182">
        <ele>13.12</ele>
        <time>2024-05-15T06:44:57Z</time>
      </trkpt>
      <trkpt lat="50.52877" lon="1.58186">
        <ele>17.92</ele>
        <time>2024-05-15T06:45:00Z</time>
      </trkpt>
      <trkpt lat="50.52879" lon="1.58187">
        <ele>17.44</ele>
        <time>2024-05-15T06:45:01Z</time>
      </trkpt>
      <trkpt lat="50.52882" lon="1.5819">
        <ele>14.08</ele>
        <time>2024-05-15T06:45:04Z</time>
      </trkpt>
      <trkpt lat="50.52898" lon="1.58203">
        <ele>13.6</ele>
        <time>2024-05-15T06:45:18Z</time>
      </trkpt>
      <trkpt lat="50.52912" lon="1.58215">
        <ele>14.56</ele>
        <time>2024-05-15T06:45:32Z</time>
      </trkpt>
      <trkpt lat="50.5292" lon="1.58221">
        <ele>14.56</ele>
        <time>2024-05-15T06:45:39Z</time>
      </trkpt>
      <trkpt lat="50.52935" lon="1.58233">
        <ele>15.04</ele>
        <time>2024-05-15T06:45:52Z</time>
      </trkpt>
      <trkpt lat="50.52953" lon="1.58244">
        <ele>16</ele>
        <time>2024-05-15T06:46:07Z</time>
      </trkpt>
      <trkpt lat="50.52969" lon="1.58252">
        <ele>16.96</ele>
        <time>2024-05-15T06:46:20Z</time>
      </trkpt>
      <trkpt lat="50.52992" lon="1.58262">
        <ele>15.52</ele>
        <time>2024-05-15T06:46:38Z</time>
      </trkpt>
      <trkpt lat="50.53" lon="1.58265">
        <ele>16.48</ele>
        <time>2024-05-15T06:46:45Z</time>
      </trkpt>
      <trkpt lat="50.53013" lon="1.58269">
        <ele>15.52</ele>
        <time>2024-05-15T06:46:53Z</time>
      </trkpt>
      <trkpt lat="50.53018" lon="1.5827">
        <ele>16</ele>
        <time>2024-05-15T06:46:56Z</time>
      </trkpt>
      <trkpt lat="50.53024" lon="1.58273">
        <ele>16</ele>
        <time>2024-05-15T06:47:01Z</time>
      </trkpt>
      <trkpt lat="50.53029" lon="1.58276">
        <ele>16</ele>
        <time>2024-05-15T06:47:05Z</time>
      </trkpt>
      <trkpt lat="50.53046" lon="1.58282">
        <ele>15.52</ele>
        <time>2024-05-15T06:47:19Z</time>
      </trkpt>
      <trkpt lat="50.53067" lon="1.58291">
        <ele>15.52</ele>
        <time>2024-05-15T06:47:34Z</time>
      </trkpt>
      <trkpt lat="50.53068" lon="1.58292">
        <ele>15.52</ele>
        <time>2024-05-15T06:47:35Z</time>
      </trkpt>
      <trkpt lat="50.5309" lon="1.583">
        <ele>15.52</ele>
        <time>2024-05-15T06:47:51Z</time>
      </trkpt>
      <trkpt lat="50.53108" lon="1.58311">
        <ele>15.04</ele>
        <time>2024-05-15T06:48:04Z</time>
      </trkpt>
      <trkpt lat="50.53113" lon="1.58315">
        <ele>14.56</ele>
        <time>2024-05-15T06:48:11Z</time>
      </trkpt>
      <trkpt lat="50.53119" lon="1.58321">
        <ele>15.04</ele>
        <time>2024-05-15T06:48:16Z</time>
      </trkpt>
      <trkpt lat="50.5313" lon="1.58326">
        <ele>14.56</ele>
        <time>2024-05-15T06:48:23Z</time>
      </trkpt>
      <trkpt lat="50.53139" lon="1.58332">
        <ele>15.04</ele>
        <time>2024-05-15T06:48:36Z</time>
      </trkpt>
      <trkpt lat="50.5314" lon="1.58332">
        <ele>14.56</ele>
        <time>2024-05-15T06:48:44Z</time>
      </trkpt>
      <trkpt lat="50.53146" lon="1.58335">
        <ele>14.56</ele>
        <time>2024-05-15T06:48:49Z</time>
      </trkpt>
      <trkpt lat="50.53149" lon="1.58337">
        <ele>14.56</ele>
        <time>2024-05-15T06:48:52Z</time>
      </trkpt>
      <trkpt lat="50.53155" lon="1.58341">
        <ele>14.56</ele>
        <time>2024-05-15T06:48:56Z</time>
      </trkpt>
      <trkpt lat="50.53172" lon="1.5835">
        <ele>14.08</ele>
        <time>2024-05-15T06:49:10Z</time>
      </trkpt>
      <trkpt lat="50.53187" lon="1.5836">
        <ele>14.08</ele>
        <time>2024-05-15T06:49:23Z</time>
      </trkpt>
      <trkpt lat="50.53205" lon="1.58372">
        <ele>14.08</ele>
        <time>2024-05-15T06:49:37Z</time>
      </trkpt>
      <trkpt lat="50.5322" lon="1.58382">
        <ele>13.6</ele>
        <time>2024-05-15T06:49:49Z</time>
      </trkpt>
      <trkpt lat="50.53235" lon="1.58391">
        <ele>13.6</ele>
        <time>2024-05-15T06:50:01Z</time>
      </trkpt>
      <trkpt lat="50.53254" lon="1.58403">
        <ele>13.6</ele>
        <time>2024-05-15T06:50:16Z</time>
      </trkpt>
      <trkpt lat="50.53265" lon="1.5841">
        <ele>13.6</ele>
        <time>2024-05-15T06:50:30Z</time>
      </trkpt>
      <trkpt lat="50.53286" lon="1.58422">
        <ele>12.63</ele>
        <time>2024-05-15T06:50:46Z</time>
      </trkpt>
      <trkpt lat="50.53304" lon="1.58436">
        <ele>13.12</ele>
        <time>2024-05-15T06:51:01Z</time>
      </trkpt>
      <trkpt lat="50.53322" lon="1.58449">
        <ele>13.12</ele>
        <time>2024-05-15T06:51:16Z</time>
      </trkpt>
      <trkpt lat="50.53339" lon="1.5846">
        <ele>12.63</ele>
        <time>2024-05-15T06:51:30Z</time>
      </trkpt>
      <trkpt lat="50.53358" lon="1.58471">
        <ele>12.63</ele>
        <time>2024-05-15T06:51:45Z</time>
      </trkpt>
      <trkpt lat="50.53376" lon="1.58487">
        <ele>12.63</ele>
        <time>2024-05-15T06:52:01Z</time>
      </trkpt>
      <trkpt lat="50.53396" lon="1.58503">
        <ele>12.15</ele>
        <time>2024-05-15T06:52:18Z</time>
      </trkpt>
      <trkpt lat="50.53415" lon="1.58518">
        <ele>12.63</ele>
        <time>2024-05-15T06:52:34Z</time>
      </trkpt>
      <trkpt lat="50.53436" lon="1.58533">
        <ele>11.67</ele>
        <time>2024-05-15T06:52:51Z</time>
      </trkpt>
      <trkpt lat="50.53454" lon="1.58548">
        <ele>12.15</ele>
        <time>2024-05-15T06:53:06Z</time>
      </trkpt>
      <trkpt lat="50.53471" lon="1.58565">
        <ele>11.67</ele>
        <time>2024-05-15T06:53:21Z</time>
      </trkpt>
      <trkpt lat="50.53493" lon="1.58582">
        <ele>11.19</ele>
        <time>2024-05-15T06:53:39Z</time>
      </trkpt>
      <trkpt lat="50.53511" lon="1.586">
        <ele>11.19</ele>
        <time>2024-05-15T06:53:56Z</time>
      </trkpt>
      <trkpt lat="50.53531" lon="1.58619">
        <ele>10.71</ele>
        <time>2024-05-15T06:54:14Z</time>
      </trkpt>
      <trkpt lat="50.53541" lon="1.58629">
        <ele>10.71</ele>
        <time>2024-05-15T06:54:27Z</time>
      </trkpt>
      <trkpt lat="50.53547" lon="1.58633">
        <ele>11.19</ele>
        <time>2024-05-15T06:54:40Z</time>
      </trkpt>
      <trkpt lat="50.53547" lon="1.58633">
        <ele>11.19</ele>
        <time>2024-05-15T06:55:02Z</time>
      </trkpt>
      <trkpt lat="50.53547" lon="1.58633">
        <ele>11.67</ele>
        <time>2024-05-15T06:55:25Z</time>
      </trkpt>
      <trkpt lat="50.53547" lon="1.58633">
        <ele>10.71</ele>
        <time>2024-05-15T06:55:52Z</time>
      </trkpt>
      <trkpt lat="50.53554" lon="1.58636">
        <ele>11.19</ele>
        <time>2024-05-15T06:56:04Z</time>
      </trkpt>
      <trkpt lat="50.53556" lon="1.58638">
        <ele>10.23</ele>
        <time>2024-05-15T06:56:06Z</time>
      </trkpt>
      <trkpt lat="50.53572" lon="1.5865">
        <ele>11.19</ele>
        <time>2024-05-15T06:56:22Z</time>
      </trkpt>
      <trkpt lat="50.53573" lon="1.58651">
        <ele>15.04</ele>
        <time>2024-05-15T06:56:23Z</time>
      </trkpt>
      <trkpt lat="50.53574" lon="1.58652">
        <ele>11.67</ele>
        <time>2024-05-15T06:56:24Z</time>
      </trkpt>
      <trkpt lat="50.53578" lon="1.58655">
        <ele>11.19</ele>
        <time>2024-05-15T06:56:31Z</time>
      </trkpt>
      <trkpt lat="50.53582" lon="1.58659">
        <ele>10.71</ele>
        <time>2024-05-15T06:56:35Z</time>
      </trkpt>
      <trkpt lat="50.53587" lon="1.58661">
        <ele>12.15</ele>
        <time>2024-05-15T06:56:38Z</time>
      </trkpt>
      <trkpt lat="50.53602" lon="1.58675">
        <ele>10.71</ele>
        <time>2024-05-15T06:56:52Z</time>
      </trkpt>
      <trkpt lat="50.53614" lon="1.58683">
        <ele>10.71</ele>
        <time>2024-05-15T06:57:03Z</time>
      </trkpt>
      <trkpt lat="50.53617" lon="1.58686">
        <ele>10.23</ele>
        <time>2024-05-15T06:57:06Z</time>
      </trkpt>
      <trkpt lat="50.53624" lon="1.5869">
        <ele>10.23</ele>
        <time>2024-05-15T06:57:21Z</time>
      </trkpt>
      <trkpt lat="50.53629" lon="1.58697">
        <ele>9.75</ele>
        <time>2024-05-15T06:57:29Z</time>
      </trkpt>
      <trkpt lat="50.53644" lon="1.58709">
        <ele>9.75</ele>
        <time>2024-05-15T06:57:43Z</time>
      </trkpt>
      <trkpt lat="50.53649" lon="1.58713">
        <ele>9.75</ele>
        <time>2024-05-15T06:57:49Z</time>
      </trkpt>
      <trkpt lat="50.53651" lon="1.58714">
        <ele>9.75</ele>
        <time>2024-05-15T06:57:51Z</time>
      </trkpt>
      <trkpt lat="50.53666" lon="1.58719">
        <ele>9.75</ele>
        <time>2024-05-15T06:58:01Z</time>
      </trkpt>
      <trkpt lat="50.53677" lon="1.58728">
        <ele>9.75</ele>
        <time>2024-05-15T06:58:10Z</time>
      </trkpt>
      <trkpt lat="50.53681" lon="1.58733">
        <ele>9.75</ele>
        <time>2024-05-15T06:58:14Z</time>
      </trkpt>
      <trkpt lat="50.53684" lon="1.58734">
        <ele>9.27</ele>
        <time>2024-05-15T06:58:17Z</time>
      </trkpt>
      <trkpt lat="50.53691" lon="1.58743">
        <ele>9.75</ele>
        <time>2024-05-15T06:58:30Z</time>
      </trkpt>
      <trkpt lat="50.53692" lon="1.58743">
        <ele>10.23</ele>
        <time>2024-05-15T06:58:34Z</time>
      </trkpt>
      <trkpt lat="50.53696" lon="1.58747">
        <ele>9.27</ele>
        <time>2024-05-15T06:58:38Z</time>
      </trkpt>
      <trkpt lat="50.53714" lon="1.58755">
        <ele>9.27</ele>
        <time>2024-05-15T06:58:50Z</time>
      </trkpt>
      <trkpt lat="50.53717" lon="1.58756">
        <ele>9.27</ele>
        <time>2024-05-15T06:58:53Z</time>
      </trkpt>
      <trkpt lat="50.53726" lon="1.5876">
        <ele>9.27</ele>
        <time>2024-05-15T06:59:00Z</time>
      </trkpt>
      <trkpt lat="50.53732" lon="1.58763">
        <ele>8.79</ele>
        <time>2024-05-15T06:59:05Z</time>
      </trkpt>
      <trkpt lat="50.53745" lon="1.58774">
        <ele>9.27</ele>
        <time>2024-05-15T06:59:16Z</time>
      </trkpt>
      <trkpt lat="50.5375" lon="1.58779">
        <ele>8.79</ele>
        <time>2024-05-15T06:59:20Z</time>
      </trkpt>
      <trkpt lat="50.53755" lon="1.58785">
        <ele>8.31</ele>
        <time>2024-05-15T06:59:25Z</time>
      </trkpt>
      <trkpt lat="50.53761" lon="1.5879">
        <ele>8.79</ele>
        <time>2024-05-15T06:59:30Z</time>
      </trkpt>
      <trkpt lat="50.53778" lon="1.58802">
        <ele>8.79</ele>
        <time>2024-05-15T06:59:44Z</time>
      </trkpt>
      <trkpt lat="50.53784" lon="1.58809">
        <ele>8.31</ele>
        <time>2024-05-15T06:59:53Z</time>
      </trkpt>
      <trkpt lat="50.53787" lon="1.58816">
        <ele>8.79</ele>
        <time>2024-05-15T06:59:57Z</time>
      </trkpt>
      <trkpt lat="50.53792" lon="1.58821">
        <ele>7.83</ele>
        <time>2024-05-15T07:00:02Z</time>
      </trkpt>
      <trkpt lat="50.53797" lon="1.58826">
        <ele>7.83</ele>
        <time>2024-05-15T07:00:06Z</time>
      </trkpt>
      <trkpt lat="50.53805" lon="1.58838">
        <ele>9.27</ele>
        <time>2024-05-15T07:00:13Z</time>
      </trkpt>
      <trkpt lat="50.53812" lon="1.58839">
        <ele>8.79</ele>
        <time>2024-05-15T07:00:26Z</time>
      </trkpt>
      <trkpt lat="50.53814" lon="1.58837">
        <ele>8.31</ele>
        <time>2024-05-15T07:00:39Z</time>
      </trkpt>
      <trkpt lat="50.53819" lon="1.5883">
        <ele>8.31</ele>
        <time>2024-05-15T07:00:43Z</time>
      </trkpt>
      <trkpt lat="50.53837" lon="1.58821">
        <ele>8.79</ele>
        <time>2024-05-15T07:00:58Z</time>
      </trkpt>
      <trkpt lat="50.5385" lon="1.58821">
        <ele>9.27</ele>
        <time>2024-05-15T07:01:10Z</time>
      </trkpt>
      <trkpt lat="50.5387" lon="1.58823">
        <ele>9.75</ele>
        <time>2024-05-15T07:01:25Z</time>
      </trkpt>
      <trkpt lat="50.53873" lon="1.58823">
        <ele>9.75</ele>
        <time>2024-05-15T07:01:27Z</time>
      </trkpt>
      <trkpt lat="50.53878" lon="1.58821">
        <ele>10.23</ele>
        <time>2024-05-15T07:01:31Z</time>
      </trkpt>
      <trkpt lat="50.53897" lon="1.5881">
        <ele>10.23</ele>
        <time>2024-05-15T07:01:45Z</time>
      </trkpt>
      <trkpt lat="50.53904" lon="1.588">
        <ele>11.19</ele>
        <time>2024-05-15T07:01:58Z</time>
      </trkpt>
      <trkpt lat="50.53904" lon="1.588">
        <ele>10.71</ele>
        <time>2024-05-15T07:02:15Z</time>
      </trkpt>
      <trkpt lat="50.53904" lon="1.588">
        <ele>14.08</ele>
        <time>2024-05-15T07:02:28Z</time>
      </trkpt>
      <trkpt lat="50.53904" lon="1.588">
        <ele>13.6</ele>
        <time>2024-05-15T07:02:50Z</time>
      </trkpt>
      <trkpt lat="50.53904" lon="1.588">
        <ele>13.6</ele>
        <time>2024-05-15T07:03:07Z</time>
      </trkpt>
      <trkpt lat="50.53905" lon="1.588">
        <ele>13.6</ele>
        <time>2024-05-15T07:03:27Z</time>
      </trkpt>
      <trkpt lat="50.53903" lon="1.58799">
        <ele>13.6</ele>
        <time>2024-05-15T07:03:44Z</time>
      </trkpt>
      <trkpt lat="50.53904" lon="1.58799">
        <ele>13.6</ele>
        <time>2024-05-15T07:04:11Z</time>
      </trkpt>
      <trkpt lat="50.53904" lon="1.58799">
        <ele>13.6</ele>
        <time>2024-05-15T07:04:40Z</time>
      </trkpt>
      <trkpt lat="50.53903" lon="1.58799">
        <ele>13.6</ele>
        <time>2024-05-15T07:05:09Z</time>
      </trkpt>
      <trkpt lat="50.53903" lon="1.58799">
        <ele>13.12</ele>
        <time>2024-05-15T07:05:37Z</time>
      </trkpt>
      <trkpt lat="50.53903" lon="1.58799">
        <ele>13.6</ele>
        <time>2024-05-15T07:05:58Z</time>
      </trkpt>
      <trkpt lat="50.53902" lon="1.58796">
        <ele>13.6</ele>
        <time>2024-05-15T07:06:12Z</time>
      </trkpt>
      <trkpt lat="50.53899" lon="1.58803">
        <ele>10.71</ele>
        <time>2024-05-15T07:06:27Z</time>
      </trkpt>
      <trkpt lat="50.53902" lon="1.58802">
        <ele>10.71</ele>
        <time>2024-05-15T07:06:40Z</time>
      </trkpt>
      <trkpt lat="50.53902" lon="1.58802">
        <ele>10.71</ele>
        <time>2024-05-15T07:07:05Z</time>
      </trkpt>
      <trkpt lat="50.53902" lon="1.58802">
        <ele>10.23</ele>
        <time>2024-05-15T07:07:33Z</time>
      </trkpt>
      <trkpt lat="50.53897" lon="1.58808">
        <ele>10.23</ele>
        <time>2024-05-15T07:07:46Z</time>
      </trkpt>
      <trkpt lat="50.53894" lon="1.58809">
        <ele>10.71</ele>
        <time>2024-05-15T07:07:49Z</time>
      </trkpt>
      <trkpt lat="50.53877" lon="1.58819">
        <ele>10.23</ele>
        <time>2024-05-15T07:08:04Z</time>
      </trkpt>
      <trkpt lat="50.53866" lon="1.58821">
        <ele>10.23</ele>
        <time>2024-05-15T07:08:12Z</time>
      </trkpt>
      <trkpt lat="50.53851" lon="1.58822">
        <ele>9.27</ele>
        <time>2024-05-15T07:08:26Z</time>
      </trkpt>
      <trkpt lat="50.53847" lon="1.5882">
        <ele>9.27</ele>
        <time>2024-05-15T07:08:30Z</time>
      </trkpt>
      <trkpt lat="50.53837" lon="1.58821">
        <ele>8.79</ele>
        <time>2024-05-15T07:08:40Z</time>
      </trkpt>
      <trkpt lat="50.53834" lon="1.58819">
        <ele>8.31</ele>
        <time>2024-05-15T07:08:43Z</time>
      </trkpt>
      <trkpt lat="50.53827" lon="1.58823">
        <ele>8.31</ele>
        <time>2024-05-15T07:08:51Z</time>
      </trkpt>
      <trkpt lat="50.5382" lon="1.58831">
        <ele>8.79</ele>
        <time>2024-05-15T07:09:00Z</time>
      </trkpt>
      <trkpt lat="50.53818" lon="1.58832">
        <ele>8.79</ele>
        <time>2024-05-15T07:09:03Z</time>
      </trkpt>
      <trkpt lat="50.53813" lon="1.5884">
        <ele>8.79</ele>
        <time>2024-05-15T07:09:12Z</time>
      </trkpt>
      <trkpt lat="50.53823" lon="1.58857">
        <ele>8.31</ele>
        <time>2024-05-15T07:09:24Z</time>
      </trkpt>
      <trkpt lat="50.53825" lon="1.5886">
        <ele>8.79</ele>
        <time>2024-05-15T07:09:27Z</time>
      </trkpt>
      <trkpt lat="50.53833" lon="1.58876">
        <ele>8.79</ele>
        <time>2024-05-15T07:09:38Z</time>
      </trkpt>
      <trkpt lat="50.53838" lon="1.58883">
        <ele>8.31</ele>
        <time>2024-05-15T07:09:42Z</time>
      </trkpt>
      <trkpt lat="50.53843" lon="1.58902">
        <ele>8.79</ele>
        <time>2024-05-15T07:09:53Z</time>
      </trkpt>
      <trkpt lat="50.53848" lon="1.58919">
        <ele>8.79</ele>
        <time>2024-05-15T07:10:03Z</time>
      </trkpt>
      <trkpt lat="50.5385" lon="1.58921">
        <ele>8.79</ele>
        <time>2024-05-15T07:10:05Z</time>
      </trkpt>
      <trkpt lat="50.53862" lon="1.58933">
        <ele>8.31</ele>
        <time>2024-05-15T07:10:19Z</time>
      </trkpt>
      <trkpt lat="50.53863" lon="1.58933">
        <ele>8.79</ele>
        <time>2024-05-15T07:10:37Z</time>
      </trkpt>
      <trkpt lat="50.53863" lon="1.58933">
        <ele>8.79</ele>
        <time>2024-05-15T07:10:53Z</time>
      </trkpt>
      <trkpt lat="50.53862" lon="1.58933">
        <ele>9.27</ele>
        <time>2024-05-15T07:11:06Z</time>
      </trkpt>
      <trkpt lat="50.53856" lon="1.5893">
        <ele>9.27</ele>
        <time>2024-05-15T07:11:17Z</time>
      </trkpt>
      <trkpt lat="50.53854" lon="1.58932">
        <ele>9.27</ele>
        <time>2024-05-15T07:11:28Z</time>
      </trkpt>
      <trkpt lat="50.53855" lon="1.58931">
        <ele>8.79</ele>
        <time>2024-05-15T07:11:40Z</time>
      </trkpt>
      <trkpt lat="50.53853" lon="1.58934">
        <ele>9.27</ele>
        <time>2024-05-15T07:11:51Z</time>
      </trkpt>
      <trkpt lat="50.53851" lon="1.58936">
        <ele>9.27</ele>
        <time>2024-05-15T07:11:53Z</time>
      </trkpt>
      <trkpt lat="50.5385" lon="1.58953">
        <ele>9.27</ele>
        <time>2024-05-15T07:12:05Z</time>
      </trkpt>
      <trkpt lat="50.5385" lon="1.58955">
        <ele>9.27</ele>
        <time>2024-05-15T07:12:09Z</time>
      </trkpt>
      <trkpt lat="50.5385" lon="1.58961">
        <ele>9.75</ele>
        <time>2024-05-15T07:12:12Z</time>
      </trkpt>
      <trkpt lat="50.5385" lon="1.58973">
        <ele>9.75</ele>
        <time>2024-05-15T07:12:18Z</time>
      </trkpt>
      <trkpt lat="50.53849" lon="1.58983">
        <ele>9.27</ele>
        <time>2024-05-15T07:12:23Z</time>
      </trkpt>
      <trkpt lat="50.53849" lon="1.59002">
        <ele>9.27</ele>
        <time>2024-05-15T07:12:32Z</time>
      </trkpt>
      <trkpt lat="50.53846" lon="1.59017">
        <ele>8.79</ele>
        <time>2024-05-15T07:12:40Z</time>
      </trkpt>
      <trkpt lat="50.53842" lon="1.59036">
        <ele>8.79</ele>
        <time>2024-05-15T07:12:49Z</time>
      </trkpt>
      <trkpt lat="50.5384" lon="1.5904">
        <ele>9.27</ele>
        <time>2024-05-15T07:12:52Z</time>
      </trkpt>
      <trkpt lat="50.53836" lon="1.59049">
        <ele>9.27</ele>
        <time>2024-05-15T07:13:04Z</time>
      </trkpt>
      <trkpt lat="50.53835" lon="1.59051">
        <ele>9.27</ele>
        <time>2024-05-15T07:13:20Z</time>
      </trkpt>
      <trkpt lat="50.5383" lon="1.59067">
        <ele>8.79</ele>
        <time>2024-05-15T07:13:31Z</time>
      </trkpt>
      <trkpt lat="50.53811" lon="1.59098">
        <ele>8.31</ele>
        <time>2024-05-15T07:13:45Z</time>
      </trkpt>
      <trkpt lat="50.53806" lon="1.59116">
        <ele>8.31</ele>
        <time>2024-05-15T07:13:54Z</time>
      </trkpt>
      <trkpt lat="50.53792" lon="1.59134">
        <ele>8.31</ele>
        <time>2024-05-15T07:14:07Z</time>
      </trkpt>
      <trkpt lat="50.53792" lon="1.59147">
        <ele>8.79</ele>
        <time>2024-05-15T07:14:18Z</time>
      </trkpt>
      <trkpt lat="50.53796" lon="1.59144">
        <ele>8.79</ele>
        <time>2024-05-15T07:14:22Z</time>
      </trkpt>
      <trkpt lat="50.53812" lon="1.59132">
        <ele>9.27</ele>
        <time>2024-05-15T07:14:37Z</time>
      </trkpt>
      <trkpt lat="50.53815" lon="1.5913">
        <ele>8.79</ele>
        <time>2024-05-15T07:14:50Z</time>
      </trkpt>
      <trkpt lat="50.53815" lon="1.59131">
        <ele>8.79</ele>
        <time>2024-05-15T07:15:12Z</time>
      </trkpt>
      <trkpt lat="50.53815" lon="1.59129">
        <ele>9.27</ele>
        <time>2024-05-15T07:15:30Z</time>
      </trkpt>
      <trkpt lat="50.53815" lon="1.59129">
        <ele>10.23</ele>
        <time>2024-05-15T07:15:57Z</time>
      </trkpt>
      <trkpt lat="50.53816" lon="1.59127">
        <ele>8.79</ele>
        <time>2024-05-15T07:16:14Z</time>
      </trkpt>
      <trkpt lat="50.53815" lon="1.59128">
        <ele>9.27</ele>
        <time>2024-05-15T07:16:17Z</time>
      </trkpt>
      <trkpt lat="50.53804" lon="1.59148">
        <ele>8.31</ele>
        <time>2024-05-15T07:16:28Z</time>
      </trkpt>
      <trkpt lat="50.53801" lon="1.59155">
        <ele>8.79</ele>
        <time>2024-05-15T07:16:32Z</time>
      </trkpt>
      <trkpt lat="50.53788" lon="1.59186">
        <ele>8.31</ele>
        <time>2024-05-15T07:16:48Z</time>
      </trkpt>
      <trkpt lat="50.5378" lon="1.59202">
        <ele>8.79</ele>
        <time>2024-05-15T07:17:04Z</time>
      </trkpt>
      <trkpt lat="50.5378" lon="1.59202">
        <ele>9.27</ele>
        <time>2024-05-15T07:17:22Z</time>
      </trkpt>
      <trkpt lat="50.5378" lon="1.59202">
        <ele>9.75</ele>
        <time>2024-05-15T07:17:45Z</time>
      </trkpt>
      <trkpt lat="50.53779" lon="1.59199">
        <ele>9.75</ele>
        <time>2024-05-15T07:17:47Z</time>
      </trkpt>
      <trkpt lat="50.53771" lon="1.59179">
        <ele>10.23</ele>
        <time>2024-05-15T07:18:03Z</time>
      </trkpt>
      <trkpt lat="50.53771" lon="1.59179">
        <ele>10.23</ele>
        <time>2024-05-15T07:18:22Z</time>
      </trkpt>
      <trkpt lat="50.5377" lon="1.59175">
        <ele>10.71</ele>
        <time>2024-05-15T07:18:39Z</time>
      </trkpt>
      <trkpt lat="50.53768" lon="1.59167">
        <ele>8.31</ele>
        <time>2024-05-15T07:18:47Z</time>
      </trkpt>
      <trkpt lat="50.53766" lon="1.59171">
        <ele>8.31</ele>
        <time>2024-05-15T07:18:50Z</time>
      </trkpt>
      <trkpt lat="50.53757" lon="1.59201">
        <ele>8.31</ele>
        <time>2024-05-15T07:19:03Z</time>
      </trkpt>
      <trkpt lat="50.53742" lon="1.59224">
        <ele>8.31</ele>
        <time>2024-05-15T07:19:18Z</time>
      </trkpt>
      <trkpt lat="50.53736" lon="1.59231">
        <ele>8.31</ele>
        <time>2024-05-15T07:19:31Z</time>
      </trkpt>
      <trkpt lat="50.53737" lon="1.59236">
        <ele>8.31</ele>
        <time>2024-05-15T07:19:50Z</time>
      </trkpt>
      <trkpt lat="50.53738" lon="1.59237">
        <ele>8.31</ele>
        <time>2024-05-15T07:20:07Z</time>
      </trkpt>
      <trkpt lat="50.53738" lon="1.59237">
        <ele>8.31</ele>
        <time>2024-05-15T07:20:26Z</time>
      </trkpt>
      <trkpt lat="50.53735" lon="1.59238">
        <ele>8.31</ele>
        <time>2024-05-15T07:20:41Z</time>
      </trkpt>
      <trkpt lat="50.53727" lon="1.59238">
        <ele>8.31</ele>
        <time>2024-05-15T07:20:48Z</time>
      </trkpt>
      <trkpt lat="50.53722" lon="1.59246">
        <ele>8.31</ele>
        <time>2024-05-15T07:20:53Z</time>
      </trkpt>
      <trkpt lat="50.53722" lon="1.59251">
        <ele>7.83</ele>
        <time>2024-05-15T07:20:56Z</time>
      </trkpt>
      <trkpt lat="50.53713" lon="1.59268">
        <ele>7.83</ele>
        <time>2024-05-15T07:21:08Z</time>
      </trkpt>
      <trkpt lat="50.53706" lon="1.59268">
        <ele>8.31</ele>
        <time>2024-05-15T07:21:14Z</time>
      </trkpt>
      <trkpt lat="50.53692" lon="1.59265">
        <ele>7.83</ele>
        <time>2024-05-15T07:21:23Z</time>
      </trkpt>
      <trkpt lat="50.53687" lon="1.59262">
        <ele>7.83</ele>
        <time>2024-05-15T07:21:27Z</time>
      </trkpt>
      <trkpt lat="50.53681" lon="1.59263">
        <ele>7.83</ele>
        <time>2024-05-15T07:21:32Z</time>
      </trkpt>
      <trkpt lat="50.53674" lon="1.5926">
        <ele>7.83</ele>
        <time>2024-05-15T07:21:38Z</time>
      </trkpt>
      <trkpt lat="50.53667" lon="1.59257">
        <ele>7.35</ele>
        <time>2024-05-15T07:21:44Z</time>
      </trkpt>
      <trkpt lat="50.53648" lon="1.59253">
        <ele>7.83</ele>
        <time>2024-05-15T07:22:01Z</time>
      </trkpt>
      <trkpt lat="50.53647" lon="1.59253">
        <ele>7.83</ele>
        <time>2024-05-15T07:22:02Z</time>
      </trkpt>
      <trkpt lat="50.53639" lon="1.59259">
        <ele>7.83</ele>
        <time>2024-05-15T07:22:08Z</time>
      </trkpt>
      <trkpt lat="50.53628" lon="1.59284">
        <ele>7.83</ele>
        <time>2024-05-15T07:22:23Z</time>
      </trkpt>
      <trkpt lat="50.53623" lon="1.59297">
        <ele>0.62</ele>
        <time>2024-05-15T07:22:30Z</time>
      </trkpt>
      <trkpt lat="50.53622" lon="1.59298">
        <ele>9.27</ele>
        <time>2024-05-15T07:22:31Z</time>
      </trkpt>
      <trkpt lat="50.53621" lon="1.59302">
        <ele>16</ele>
        <time>2024-05-15T07:22:33Z</time>
      </trkpt>
      <trkpt lat="50.5362" lon="1.59303">
        <ele>4.46</ele>
        <time>2024-05-15T07:22:34Z</time>
      </trkpt>
      <trkpt lat="50.53619" lon="1.59305">
        <ele>11.67</ele>
        <time>2024-05-15T07:22:35Z</time>
      </trkpt>
      <trkpt lat="50.53619" lon="1.59306">
        <ele>7.83</ele>
        <time>2024-05-15T07:22:36Z</time>
      </trkpt>
      <trkpt lat="50.53616" lon="1.59303">
        <ele>8.31</ele>
        <time>2024-05-15T07:22:48Z</time>
      </trkpt>
      <trkpt lat="50.53614" lon="1.59301">
        <ele>8.31</ele>
        <time>2024-05-15T07:22:52Z</time>
      </trkpt>
      <trkpt lat="50.53597" lon="1.5931">
        <ele>8.31</ele>
        <time>2024-05-15T07:23:06Z</time>
      </trkpt>
      <trkpt lat="50.53593" lon="1.59316">
        <ele>7.83</ele>
        <time>2024-05-15T07:23:17Z</time>
      </trkpt>
      <trkpt lat="50.53588" lon="1.59322">
        <ele>7.83</ele>
        <time>2024-05-15T07:23:22Z</time>
      </trkpt>
      <trkpt lat="50.53579" lon="1.59337">
        <ele>7.83</ele>
        <time>2024-05-15T07:23:30Z</time>
      </trkpt>
      <trkpt lat="50.5356" lon="1.59329">
        <ele>7.83</ele>
        <time>2024-05-15T07:23:45Z</time>
      </trkpt>
      <trkpt lat="50.53548" lon="1.59318">
        <ele>7.83</ele>
        <time>2024-05-15T07:23:56Z</time>
      </trkpt>
      <trkpt lat="50.53536" lon="1.5931">
        <ele>-0.82</ele>
        <time>2024-05-15T07:24:07Z</time>
      </trkpt>
      <trkpt lat="50.53535" lon="1.5931">
        <ele>10.71</ele>
        <time>2024-05-15T07:24:08Z</time>
      </trkpt>
      <trkpt lat="50.53535" lon="1.5931">
        <ele>10.23</ele>
        <time>2024-05-15T07:24:09Z</time>
      </trkpt>
      <trkpt lat="50.53535" lon="1.5931">
        <ele>9.27</ele>
        <time>2024-05-15T07:24:16Z</time>
      </trkpt>
      <trkpt lat="50.53534" lon="1.59307">
        <ele>5.91</ele>
        <time>2024-05-15T07:24:18Z</time>
      </trkpt>
      <trkpt lat="50.53531" lon="1.59303">
        <ele>7.83</ele>
        <time>2024-05-15T07:24:21Z</time>
      </trkpt>
      <trkpt lat="50.53526" lon="1.59302">
        <ele>8.31</ele>
        <time>2024-05-15T07:24:37Z</time>
      </trkpt>
      <trkpt lat="50.53526" lon="1.59302">
        <ele>8.31</ele>
        <time>2024-05-15T07:24:59Z</time>
      </trkpt>
      <trkpt lat="50.53526" lon="1.59302">
        <ele>8.31</ele>
        <time>2024-05-15T07:25:03Z</time>
      </trkpt>
      <trkpt lat="50.53524" lon="1.593">
        <ele>8.31</ele>
        <time>2024-05-15T07:25:06Z</time>
      </trkpt>
      <trkpt lat="50.53509" lon="1.59283">
        <ele>7.83</ele>
        <time>2024-05-15T07:25:20Z</time>
      </trkpt>
      <trkpt lat="50.53506" lon="1.59279">
        <ele>7.83</ele>
        <time>2024-05-15T07:25:23Z</time>
      </trkpt>
      <trkpt lat="50.53495" lon="1.5926">
        <ele>7.35</ele>
        <time>2024-05-15T07:25:35Z</time>
      </trkpt>
      <trkpt lat="50.5349" lon="1.59255">
        <ele>7.35</ele>
        <time>2024-05-15T07:25:39Z</time>
      </trkpt>
      <trkpt lat="50.5347" lon="1.59235">
        <ele>7.35</ele>
        <time>2024-05-15T07:25:55Z</time>
      </trkpt>
      <trkpt lat="50.53468" lon="1.59233">
        <ele>7.35</ele>
        <time>2024-05-15T07:25:57Z</time>
      </trkpt>
      <trkpt lat="50.53458" lon="1.5922">
        <ele>7.35</ele>
        <time>2024-05-15T07:26:12Z</time>
      </trkpt>
      <trkpt lat="50.53447" lon="1.59203">
        <ele>6.87</ele>
        <time>2024-05-15T07:26:25Z</time>
      </trkpt>
      <trkpt lat="50.53436" lon="1.59196">
        <ele>6.87</ele>
        <time>2024-05-15T07:26:33Z</time>
      </trkpt>
      <trkpt lat="50.53434" lon="1.59194">
        <ele>7.35</ele>
        <time>2024-05-15T07:26:35Z</time>
      </trkpt>
      <trkpt lat="50.53414" lon="1.59173">
        <ele>6.87</ele>
        <time>2024-05-15T07:26:53Z</time>
      </trkpt>
      <trkpt lat="50.53407" lon="1.59167">
        <ele>7.83</ele>
        <time>2024-05-15T07:27:01Z</time>
      </trkpt>
      <trkpt lat="50.53396" lon="1.59164">
        <ele>7.35</ele>
        <time>2024-05-15T07:27:09Z</time>
      </trkpt>
      <trkpt lat="50.53383" lon="1.59165">
        <ele>7.83</ele>
        <time>2024-05-15T07:27:17Z</time>
      </trkpt>
      <trkpt lat="50.53363" lon="1.59171">
        <ele>7.35</ele>
        <time>2024-05-15T07:27:30Z</time>
      </trkpt>
      <trkpt lat="50.53362" lon="1.59172">
        <ele>7.83</ele>
        <time>2024-05-15T07:27:31Z</time>
      </trkpt>
      <trkpt lat="50.53343" lon="1.59191">
        <ele>7.83</ele>
        <time>2024-05-15T07:27:48Z</time>
      </trkpt>
      <trkpt lat="50.53332" lon="1.592">
        <ele>7.35</ele>
        <time>2024-05-15T07:28:03Z</time>
      </trkpt>
      <trkpt lat="50.53328" lon="1.59206">
        <ele>7.35</ele>
        <time>2024-05-15T07:28:17Z</time>
      </trkpt>
      <trkpt lat="50.53311" lon="1.59219">
        <ele>6.87</ele>
        <time>2024-05-15T07:28:30Z</time>
      </trkpt>
      <trkpt lat="50.53309" lon="1.5922">
        <ele>6.87</ele>
        <time>2024-05-15T07:28:33Z</time>
      </trkpt>
      <trkpt lat="50.53304" lon="1.59228">
        <ele>6.87</ele>
        <time>2024-05-15T07:28:38Z</time>
      </trkpt>
      <trkpt lat="50.53294" lon="1.59233">
        <ele>7.35</ele>
        <time>2024-05-15T07:28:46Z</time>
      </trkpt>
      <trkpt lat="50.53281" lon="1.59248">
        <ele>6.87</ele>
        <time>2024-05-15T07:28:59Z</time>
      </trkpt>
      <trkpt lat="50.53281" lon="1.59248">
        <ele>7.35</ele>
        <time>2024-05-15T07:29:01Z</time>
      </trkpt>
      <trkpt lat="50.53265" lon="1.59264">
        <ele>6.87</ele>
        <time>2024-05-15T07:29:15Z</time>
      </trkpt>
      <trkpt lat="50.53246" lon="1.59279">
        <ele>6.39</ele>
        <time>2024-05-15T07:29:30Z</time>
      </trkpt>
      <trkpt lat="50.53236" lon="1.59287">
        <ele>6.87</ele>
        <time>2024-05-15T07:29:39Z</time>
      </trkpt>
      <trkpt lat="50.5322" lon="1.59301">
        <ele>6.39</ele>
        <time>2024-05-15T07:29:52Z</time>
      </trkpt>
      <trkpt lat="50.53204" lon="1.59315">
        <ele>6.39</ele>
        <time>2024-05-15T07:30:06Z</time>
      </trkpt>
      <trkpt lat="50.53196" lon="1.59323">
        <ele>6.39</ele>
        <time>2024-05-15T07:30:13Z</time>
      </trkpt>
      <trkpt lat="50.53178" lon="1.59335">
        <ele>6.87</ele>
        <time>2024-05-15T07:30:28Z</time>
      </trkpt>
      <trkpt lat="50.53177" lon="1.59335">
        <ele>6.39</ele>
        <time>2024-05-15T07:30:29Z</time>
      </trkpt>
      <trkpt lat="50.53166" lon="1.59343">
        <ele>6.87</ele>
        <time>2024-05-15T07:30:38Z</time>
      </trkpt>
      <trkpt lat="50.53159" lon="1.5935">
        <ele>7.35</ele>
        <time>2024-05-15T07:30:45Z</time>
      </trkpt>
      <trkpt lat="50.53141" lon="1.59367">
        <ele>7.35</ele>
        <time>2024-05-15T07:31:01Z</time>
      </trkpt>
      <trkpt lat="50.53131" lon="1.59373">
        <ele>6.87</ele>
        <time>2024-05-15T07:31:10Z</time>
      </trkpt>
      <trkpt lat="50.53123" lon="1.59377">
        <ele>6.87</ele>
        <time>2024-05-15T07:31:16Z</time>
      </trkpt>
      <trkpt lat="50.53109" lon="1.59389">
        <ele>6.39</ele>
        <time>2024-05-15T07:31:30Z</time>
      </trkpt>
      <trkpt lat="50.53093" lon="1.59401">
        <ele>6.87</ele>
        <time>2024-05-15T07:31:45Z</time>
      </trkpt>
      <trkpt lat="50.53076" lon="1.59414">
        <ele>6.87</ele>
        <time>2024-05-15T07:32:00Z</time>
      </trkpt>
      <trkpt lat="50.53065" lon="1.59422">
        <ele>6.39</ele>
        <time>2024-05-15T07:32:11Z</time>
      </trkpt>
      <trkpt lat="50.53051" lon="1.59431">
        <ele>6.39</ele>
        <time>2024-05-15T07:32:24Z</time>
      </trkpt>
      <trkpt lat="50.53033" lon="1.59443">
        <ele>6.39</ele>
        <time>2024-05-15T07:32:38Z</time>
      </trkpt>
      <trkpt lat="50.53032" lon="1.59443">
        <ele>6.87</ele>
        <time>2024-05-15T07:32:39Z</time>
      </trkpt>
      <trkpt lat="50.53013" lon="1.59455">
        <ele>6.87</ele>
        <time>2024-05-15T07:32:55Z</time>
      </trkpt>
      <trkpt lat="50.52997" lon="1.59461">
        <ele>6.39</ele>
        <time>2024-05-15T07:33:08Z</time>
      </trkpt>
      <trkpt lat="50.52982" lon="1.5947">
        <ele>6.87</ele>
        <time>2024-05-15T07:33:21Z</time>
      </trkpt>
      <trkpt lat="50.52978" lon="1.59472">
        <ele>6.39</ele>
        <time>2024-05-15T07:33:24Z</time>
      </trkpt>
      <trkpt lat="50.52958" lon="1.59485">
        <ele>6.87</ele>
        <time>2024-05-15T07:33:40Z</time>
      </trkpt>
      <trkpt lat="50.5294" lon="1.59493">
        <ele>6.39</ele>
        <time>2024-05-15T07:33:54Z</time>
      </trkpt>
      <trkpt lat="50.52921" lon="1.5951">
        <ele>6.87</ele>
        <time>2024-05-15T07:34:12Z</time>
      </trkpt>
      <trkpt lat="50.52916" lon="1.59514">
        <ele>6.39</ele>
        <time>2024-05-15T07:34:16Z</time>
      </trkpt>
      <trkpt lat="50.52908" lon="1.59522">
        <ele>6.39</ele>
        <time>2024-05-15T07:34:23Z</time>
      </trkpt>
      <trkpt lat="50.52891" lon="1.59538">
        <ele>7.35</ele>
        <time>2024-05-15T07:34:39Z</time>
      </trkpt>
      <trkpt lat="50.5289" lon="1.59539">
        <ele>6.87</ele>
        <time>2024-05-15T07:34:40Z</time>
      </trkpt>
      <trkpt lat="50.5287" lon="1.59549">
        <ele>6.87</ele>
        <time>2024-05-15T07:34:56Z</time>
      </trkpt>
      <trkpt lat="50.52854" lon="1.59564">
        <ele>6.87</ele>
        <time>2024-05-15T07:35:10Z</time>
      </trkpt>
      <trkpt lat="50.52845" lon="1.59578">
        <ele>6.39</ele>
        <time>2024-05-15T07:35:20Z</time>
      </trkpt>
      <trkpt lat="50.52828" lon="1.59584">
        <ele>6.39</ele>
        <time>2024-05-15T07:35:35Z</time>
      </trkpt>
      <trkpt lat="50.52822" lon="1.59587">
        <ele>7.35</ele>
        <time>2024-05-15T07:35:40Z</time>
      </trkpt>
      <trkpt lat="50.52806" lon="1.59598">
        <ele>6.39</ele>
        <time>2024-05-15T07:35:55Z</time>
      </trkpt>
      <trkpt lat="50.52788" lon="1.5961">
        <ele>6.87</ele>
        <time>2024-05-15T07:36:12Z</time>
      </trkpt>
      <trkpt lat="50.52772" lon="1.59624">
        <ele>6.87</ele>
        <time>2024-05-15T07:36:26Z</time>
      </trkpt>
      <trkpt lat="50.5276" lon="1.5964">
        <ele>6.87</ele>
        <time>2024-05-15T07:36:39Z</time>
      </trkpt>
      <trkpt lat="50.52755" lon="1.59644">
        <ele>6.87</ele>
        <time>2024-05-15T07:36:44Z</time>
      </trkpt>
      <trkpt lat="50.52738" lon="1.59658">
        <ele>7.35</ele>
        <time>2024-05-15T07:36:59Z</time>
      </trkpt>
      <trkpt lat="50.52725" lon="1.59674">
        <ele>7.35</ele>
        <time>2024-05-15T07:37:13Z</time>
      </trkpt>
      <trkpt lat="50.52724" lon="1.59676">
        <ele>6.87</ele>
        <time>2024-05-15T07:37:15Z</time>
      </trkpt>
      <trkpt lat="50.52714" lon="1.59693">
        <ele>6.87</ele>
        <time>2024-05-15T07:37:26Z</time>
      </trkpt>
      <trkpt lat="50.52709" lon="1.59698">
        <ele>1.1</ele>
        <time>2024-05-15T07:37:31Z</time>
      </trkpt>
      <trkpt lat="50.52708" lon="1.59699">
        <ele>12.63</ele>
        <time>2024-05-15T07:37:32Z</time>
      </trkpt>
      <trkpt lat="50.52707" lon="1.597">
        <ele>8.31</ele>
        <time>2024-05-15T07:37:33Z</time>
      </trkpt>
      <trkpt lat="50.52704" lon="1.59701">
        <ele>12.15</ele>
        <time>2024-05-15T07:37:38Z</time>
      </trkpt>
      <trkpt lat="50.52703" lon="1.59702">
        <ele>11.19</ele>
        <time>2024-05-15T07:37:39Z</time>
      </trkpt>
      <trkpt lat="50.52702" lon="1.59702">
        <ele>7.83</ele>
        <time>2024-05-15T07:37:40Z</time>
      </trkpt>
      <trkpt lat="50.52701" lon="1.59702">
        <ele>-4.19</ele>
        <time>2024-05-15T07:37:41Z</time>
      </trkpt>
      <trkpt lat="50.527" lon="1.59703">
        <ele>8.79</ele>
        <time>2024-05-15T07:37:42Z</time>
      </trkpt>
      <trkpt lat="50.52699" lon="1.59706">
        <ele>6.87</ele>
        <time>2024-05-15T07:37:45Z</time>
      </trkpt>
      <trkpt lat="50.52683" lon="1.59725">
        <ele>8.79</ele>
        <time>2024-05-15T07:38:03Z</time>
      </trkpt>
      <trkpt lat="50.52684" lon="1.59733">
        <ele>7.35</ele>
        <time>2024-05-15T07:38:16Z</time>
      </trkpt>
      <trkpt lat="50.52684" lon="1.59737">
        <ele>6.87</ele>
        <time>2024-05-15T07:38:20Z</time>
      </trkpt>
      <trkpt lat="50.52696" lon="1.59765">
        <ele>7.83</ele>
        <time>2024-05-15T07:38:37Z</time>
      </trkpt>
      <trkpt lat="50.52697" lon="1.59771">
        <ele>7.83</ele>
        <time>2024-05-15T07:38:41Z</time>
      </trkpt>
      <trkpt lat="50.52705" lon="1.59775">
        <ele>7.83</ele>
        <time>2024-05-15T07:38:47Z</time>
      </trkpt>
      <trkpt lat="50.52708" lon="1.59788">
        <ele>7.83</ele>
        <time>2024-05-15T07:38:54Z</time>
      </trkpt>
      <trkpt lat="50.52723" lon="1.59812">
        <ele>7.35</ele>
        <time>2024-05-15T07:39:10Z</time>
      </trkpt>
      <trkpt lat="50.52723" lon="1.59815">
        <ele>7.83</ele>
        <time>2024-05-15T07:39:12Z</time>
      </trkpt>
      <trkpt lat="50.52718" lon="1.59826">
        <ele>7.35</ele>
        <time>2024-05-15T07:39:19Z</time>
      </trkpt>
      <trkpt lat="50.52704" lon="1.59854">
        <ele>8.31</ele>
        <time>2024-05-15T07:39:37Z</time>
      </trkpt>
      <trkpt lat="50.52692" lon="1.59881">
        <ele>7.83</ele>
        <time>2024-05-15T07:39:53Z</time>
      </trkpt>
      <trkpt lat="50.52684" lon="1.59901">
        <ele>7.35</ele>
        <time>2024-05-15T07:40:05Z</time>
      </trkpt>
      <trkpt lat="50.52675" lon="1.59908">
        <ele>7.35</ele>
        <time>2024-05-15T07:40:16Z</time>
      </trkpt>
      <trkpt lat="50.52672" lon="1.59917">
        <ele>6.87</ele>
        <time>2024-05-15T07:40:30Z</time>
      </trkpt>
      <trkpt lat="50.52671" lon="1.59918">
        <ele>6.87</ele>
        <time>2024-05-15T07:40:36Z</time>
      </trkpt>
      <trkpt lat="50.52671" lon="1.59922">
        <ele>4.46</ele>
        <time>2024-05-15T07:40:38Z</time>
      </trkpt>
      <trkpt lat="50.52675" lon="1.59934">
        <ele>12.63</ele>
        <time>2024-05-15T07:40:44Z</time>
      </trkpt>
      <trkpt lat="50.52676" lon="1.59936">
        <ele>6.87</ele>
        <time>2024-05-15T07:40:45Z</time>
      </trkpt>
      <trkpt lat="50.52678" lon="1.5994">
        <ele>10.23</ele>
        <time>2024-05-15T07:40:48Z</time>
      </trkpt>
      <trkpt lat="50.52678" lon="1.59942">
        <ele>6.87</ele>
        <time>2024-05-15T07:40:49Z</time>
      </trkpt>
      <trkpt lat="50.52692" lon="1.59967">
        <ele>6.39</ele>
        <time>2024-05-15T07:41:04Z</time>
      </trkpt>
      <trkpt lat="50.52702" lon="1.59986">
        <ele>6.87</ele>
        <time>2024-05-15T07:41:17Z</time>
      </trkpt>
      <trkpt lat="50.5271" lon="1.59992">
        <ele>6.39</ele>
        <time>2024-05-15T07:41:28Z</time>
      </trkpt>
      <trkpt lat="50.52715" lon="1.59995">
        <ele>6.39</ele>
        <time>2024-05-15T07:41:34Z</time>
      </trkpt>
      <trkpt lat="50.52721" lon="1.60011">
        <ele>6.39</ele>
        <time>2024-05-15T07:41:43Z</time>
      </trkpt>
      <trkpt lat="50.52726" lon="1.60018">
        <ele>6.87</ele>
        <time>2024-05-15T07:41:48Z</time>
      </trkpt>
      <trkpt lat="50.52739" lon="1.60039">
        <ele>6.87</ele>
        <time>2024-05-15T07:42:02Z</time>
      </trkpt>
      <trkpt lat="50.5275" lon="1.60054">
        <ele>6.87</ele>
        <time>2024-05-15T07:42:14Z</time>
      </trkpt>
      <trkpt lat="50.52763" lon="1.60055">
        <ele>6.87</ele>
        <time>2024-05-15T07:42:27Z</time>
      </trkpt>
      <trkpt lat="50.5278" lon="1.60058">
        <ele>7.83</ele>
        <time>2024-05-15T07:42:40Z</time>
      </trkpt>
      <trkpt lat="50.52787" lon="1.60061">
        <ele>7.83</ele>
        <time>2024-05-15T07:42:49Z</time>
      </trkpt>
      <trkpt lat="50.52794" lon="1.60066">
        <ele>7.35</ele>
        <time>2024-05-15T07:42:54Z</time>
      </trkpt>
      <trkpt lat="50.52803" lon="1.60075">
        <ele>7.83</ele>
        <time>2024-05-15T07:43:02Z</time>
      </trkpt>
      <trkpt lat="50.52813" lon="1.60087">
        <ele>7.83</ele>
        <time>2024-05-15T07:43:13Z</time>
      </trkpt>
      <trkpt lat="50.52825" lon="1.60101">
        <ele>8.31</ele>
        <time>2024-05-15T07:43:26Z</time>
      </trkpt>
      <trkpt lat="50.5284" lon="1.60121">
        <ele>7.83</ele>
        <time>2024-05-15T07:43:39Z</time>
      </trkpt>
      <trkpt lat="50.5285" lon="1.60137">
        <ele>8.31</ele>
        <time>2024-05-15T07:43:51Z</time>
      </trkpt>
      <trkpt lat="50.52851" lon="1.60139">
        <ele>8.31</ele>
        <time>2024-05-15T07:43:54Z</time>
      </trkpt>
      <trkpt lat="50.52857" lon="1.60145">
        <ele>8.31</ele>
        <time>2024-05-15T07:44:00Z</time>
      </trkpt>
      <trkpt lat="50.52865" lon="1.60158">
        <ele>16</ele>
        <time>2024-05-15T07:44:09Z</time>
      </trkpt>
      <trkpt lat="50.52866" lon="1.60159">
        <ele>9.27</ele>
        <time>2024-05-15T07:44:10Z</time>
      </trkpt>
      <trkpt lat="50.52866" lon="1.60161">
        <ele>-1.3</ele>
        <time>2024-05-15T07:44:11Z</time>
      </trkpt>
      <trkpt lat="50.52868" lon="1.60162">
        <ele>10.23</ele>
        <time>2024-05-15T07:44:12Z</time>
      </trkpt>
      <trkpt lat="50.52878" lon="1.60177">
        <ele>7.83</ele>
        <time>2024-05-15T07:44:23Z</time>
      </trkpt>
      <trkpt lat="50.52882" lon="1.60182">
        <ele>8.31</ele>
        <time>2024-05-15T07:44:27Z</time>
      </trkpt>
      <trkpt lat="50.5289" lon="1.60188">
        <ele>7.83</ele>
        <time>2024-05-15T07:44:37Z</time>
      </trkpt>
      <trkpt lat="50.52898" lon="1.60183">
        <ele>5.91</ele>
        <time>2024-05-15T07:44:50Z</time>
      </trkpt>
      <trkpt lat="50.52906" lon="1.60197">
        <ele>6.39</ele>
        <time>2024-05-15T07:45:01Z</time>
      </trkpt>
      <trkpt lat="50.52921" lon="1.60217">
        <ele>6.39</ele>
        <time>2024-05-15T07:45:16Z</time>
      </trkpt>
      <trkpt lat="50.52931" lon="1.60234">
        <ele>5.91</ele>
        <time>2024-05-15T07:45:29Z</time>
      </trkpt>
      <trkpt lat="50.52942" lon="1.6025">
        <ele>6.39</ele>
        <time>2024-05-15T07:45:41Z</time>
      </trkpt>
      <trkpt lat="50.52949" lon="1.60272">
        <ele>6.87</ele>
        <time>2024-05-15T07:45:54Z</time>
      </trkpt>
      <trkpt lat="50.5295" lon="1.60292">
        <ele>6.39</ele>
        <time>2024-05-15T07:46:05Z</time>
      </trkpt>
      <trkpt lat="50.5294" lon="1.6032">
        <ele>6.39</ele>
        <time>2024-05-15T07:46:20Z</time>
      </trkpt>
      <trkpt lat="50.5293" lon="1.60342">
        <ele>6.39</ele>
        <time>2024-05-15T07:46:32Z</time>
      </trkpt>
      <trkpt lat="50.52928" lon="1.60352">
        <ele>5.91</ele>
        <time>2024-05-15T07:46:39Z</time>
      </trkpt>
      <trkpt lat="50.52926" lon="1.60356">
        <ele>5.91</ele>
        <time>2024-05-15T07:46:42Z</time>
      </trkpt>
      <trkpt lat="50.52914" lon="1.60376">
        <ele>6.39</ele>
        <time>2024-05-15T07:46:55Z</time>
      </trkpt>
      <trkpt lat="50.52905" lon="1.60396">
        <ele>7.35</ele>
        <time>2024-05-15T07:47:08Z</time>
      </trkpt>
      <trkpt lat="50.52903" lon="1.60405">
        <ele>12.15</ele>
        <time>2024-05-15T07:47:13Z</time>
      </trkpt>
      <trkpt lat="50.52902" lon="1.60407">
        <ele>5.91</ele>
        <time>2024-05-15T07:47:14Z</time>
      </trkpt>
      <trkpt lat="50.5289" lon="1.60425">
        <ele>5.91</ele>
        <time>2024-05-15T07:47:27Z</time>
      </trkpt>
      <trkpt lat="50.52885" lon="1.60438">
        <ele>5.91</ele>
        <time>2024-05-15T07:47:35Z</time>
      </trkpt>
      <trkpt lat="50.52874" lon="1.6046">
        <ele>5.91</ele>
        <time>2024-05-15T07:47:49Z</time>
      </trkpt>
      <trkpt lat="50.52866" lon="1.60476">
        <ele>5.91</ele>
        <time>2024-05-15T07:48:00Z</time>
      </trkpt>
      <trkpt lat="50.52864" lon="1.60478">
        <ele>5.91</ele>
        <time>2024-05-15T07:48:02Z</time>
      </trkpt>
      <trkpt lat="50.5286" lon="1.60488">
        <ele>5.91</ele>
        <time>2024-05-15T07:48:09Z</time>
      </trkpt>
      <trkpt lat="50.52855" lon="1.60497">
        <ele>5.42</ele>
        <time>2024-05-15T07:48:15Z</time>
      </trkpt>
      <trkpt lat="50.52845" lon="1.60521">
        <ele>5.91</ele>
        <time>2024-05-15T07:48:30Z</time>
      </trkpt>
      <trkpt lat="50.52844" lon="1.60522">
        <ele>5.91</ele>
        <time>2024-05-15T07:48:31Z</time>
      </trkpt>
      <trkpt lat="50.5284" lon="1.60528">
        <ele>5.42</ele>
        <time>2024-05-15T07:48:35Z</time>
      </trkpt>
      <trkpt lat="50.52836" lon="1.60538">
        <ele>5.42</ele>
        <time>2024-05-15T07:48:41Z</time>
      </trkpt>
      <trkpt lat="50.52832" lon="1.60547">
        <ele>5.91</ele>
        <time>2024-05-15T07:48:46Z</time>
      </trkpt>
      <trkpt lat="50.52831" lon="1.60557">
        <ele>5.91</ele>
        <time>2024-05-15T07:48:51Z</time>
      </trkpt>
      <trkpt lat="50.52829" lon="1.60561">
        <ele>6.39</ele>
        <time>2024-05-15T07:48:55Z</time>
      </trkpt>
      <trkpt lat="50.52822" lon="1.60568">
        <ele>5.42</ele>
        <time>2024-05-15T07:49:01Z</time>
      </trkpt>
      <trkpt lat="50.52818" lon="1.60574">
        <ele>5.42</ele>
        <time>2024-05-15T07:49:05Z</time>
      </trkpt>
      <trkpt lat="50.52815" lon="1.60582">
        <ele>5.91</ele>
        <time>2024-05-15T07:49:11Z</time>
      </trkpt>
      <trkpt lat="50.52807" lon="1.60602">
        <ele>5.91</ele>
        <time>2024-05-15T07:49:23Z</time>
      </trkpt>
      <trkpt lat="50.52792" lon="1.60619">
        <ele>5.91</ele>
        <time>2024-05-15T07:49:37Z</time>
      </trkpt>
      <trkpt lat="50.5279" lon="1.60636">
        <ele>5.91</ele>
        <time>2024-05-15T07:49:46Z</time>
      </trkpt>
      <trkpt lat="50.52788" lon="1.60654">
        <ele>5.91</ele>
        <time>2024-05-15T07:49:56Z</time>
      </trkpt>
      <trkpt lat="50.5278" lon="1.60661">
        <ele>5.91</ele>
        <time>2024-05-15T07:50:04Z</time>
      </trkpt>
      <trkpt lat="50.52769" lon="1.6068">
        <ele>5.91</ele>
        <time>2024-05-15T07:50:16Z</time>
      </trkpt>
      <trkpt lat="50.52765" lon="1.60688">
        <ele>5.91</ele>
        <time>2024-05-15T07:50:24Z</time>
      </trkpt>
      <trkpt lat="50.5276" lon="1.60695">
        <ele>5.91</ele>
        <time>2024-05-15T07:50:30Z</time>
      </trkpt>
      <trkpt lat="50.52749" lon="1.6071">
        <ele>5.91</ele>
        <time>2024-05-15T07:50:43Z</time>
      </trkpt>
      <trkpt lat="50.52746" lon="1.60714">
        <ele>5.91</ele>
        <time>2024-05-15T07:50:46Z</time>
      </trkpt>
      <trkpt lat="50.52742" lon="1.60722">
        <ele>5.42</ele>
        <time>2024-05-15T07:50:51Z</time>
      </trkpt>
      <trkpt lat="50.52739" lon="1.6073">
        <ele>6.39</ele>
        <time>2024-05-15T07:50:56Z</time>
      </trkpt>
      <trkpt lat="50.52735" lon="1.60735">
        <ele>5.91</ele>
        <time>2024-05-15T07:51:00Z</time>
      </trkpt>
      <trkpt lat="50.52721" lon="1.60757">
        <ele>6.39</ele>
        <time>2024-05-15T07:51:15Z</time>
      </trkpt>
      <trkpt lat="50.52717" lon="1.60761">
        <ele>6.39</ele>
        <time>2024-05-15T07:51:19Z</time>
      </trkpt>
      <trkpt lat="50.52714" lon="1.6077">
        <ele>6.39</ele>
        <time>2024-05-15T07:51:24Z</time>
      </trkpt>
      <trkpt lat="50.52709" lon="1.60781">
        <ele>6.39</ele>
        <time>2024-05-15T07:51:30Z</time>
      </trkpt>
      <trkpt lat="50.52703" lon="1.60804">
        <ele>6.39</ele>
        <time>2024-05-15T07:51:43Z</time>
      </trkpt>
      <trkpt lat="50.52699" lon="1.60832">
        <ele>7.35</ele>
        <time>2024-05-15T07:51:58Z</time>
      </trkpt>
      <trkpt lat="50.52699" lon="1.60854">
        <ele>7.35</ele>
        <time>2024-05-15T07:52:11Z</time>
      </trkpt>
      <trkpt lat="50.527" lon="1.60883">
        <ele>6.87</ele>
        <time>2024-05-15T07:52:25Z</time>
      </trkpt>
      <trkpt lat="50.52697" lon="1.60907">
        <ele>7.35</ele>
        <time>2024-05-15T07:52:37Z</time>
      </trkpt>
      <trkpt lat="50.52693" lon="1.60933">
        <ele>6.87</ele>
        <time>2024-05-15T07:52:51Z</time>
      </trkpt>
      <trkpt lat="50.5269" lon="1.6094">
        <ele>7.35</ele>
        <time>2024-05-15T07:52:55Z</time>
      </trkpt>
      <trkpt lat="50.52688" lon="1.6095">
        <ele>7.83</ele>
        <time>2024-05-15T07:53:00Z</time>
      </trkpt>
      <trkpt lat="50.52681" lon="1.60961">
        <ele>7.83</ele>
        <time>2024-05-15T07:53:14Z</time>
      </trkpt>
      <trkpt lat="50.5268" lon="1.60961">
        <ele>7.83</ele>
        <time>2024-05-15T07:53:16Z</time>
      </trkpt>
      <trkpt lat="50.52674" lon="1.60972">
        <ele>7.83</ele>
        <time>2024-05-15T07:53:26Z</time>
      </trkpt>
      <trkpt lat="50.5267" lon="1.60977">
        <ele>7.83</ele>
        <time>2024-05-15T07:53:31Z</time>
      </trkpt>
      <trkpt lat="50.5266" lon="1.60994">
        <ele>7.35</ele>
        <time>2024-05-15T07:53:43Z</time>
      </trkpt>
      <trkpt lat="50.52659" lon="1.60996">
        <ele>7.83</ele>
        <time>2024-05-15T07:53:44Z</time>
      </trkpt>
      <trkpt lat="50.52646" lon="1.61017">
        <ele>7.83</ele>
        <time>2024-05-15T07:53:59Z</time>
      </trkpt>
      <trkpt lat="50.5264" lon="1.61029">
        <ele>7.83</ele>
        <time>2024-05-15T07:54:06Z</time>
      </trkpt>
      <trkpt lat="50.5263" lon="1.61043">
        <ele>8.31</ele>
        <time>2024-05-15T07:54:17Z</time>
      </trkpt>
      <trkpt lat="50.52626" lon="1.61049">
        <ele>7.83</ele>
        <time>2024-05-15T07:54:21Z</time>
      </trkpt>
      <trkpt lat="50.52616" lon="1.61068">
        <ele>7.83</ele>
        <time>2024-05-15T07:54:33Z</time>
      </trkpt>
      <trkpt lat="50.52604" lon="1.61087">
        <ele>7.83</ele>
        <time>2024-05-15T07:54:46Z</time>
      </trkpt>
      <trkpt lat="50.52594" lon="1.61102">
        <ele>7.83</ele>
        <time>2024-05-15T07:54:58Z</time>
      </trkpt>
      <trkpt lat="50.52588" lon="1.61111">
        <ele>7.83</ele>
        <time>2024-05-15T07:55:04Z</time>
      </trkpt>
      <trkpt lat="50.52577" lon="1.61133">
        <ele>7.83</ele>
        <time>2024-05-15T07:55:17Z</time>
      </trkpt>
      <trkpt lat="50.52564" lon="1.61154">
        <ele>8.31</ele>
        <time>2024-05-15T07:55:31Z</time>
      </trkpt>
      <trkpt lat="50.52551" lon="1.61173">
        <ele>7.83</ele>
        <time>2024-05-15T07:55:45Z</time>
      </trkpt>
      <trkpt lat="50.52549" lon="1.61175">
        <ele>7.83</ele>
        <time>2024-05-15T07:55:47Z</time>
      </trkpt>
      <trkpt lat="50.52538" lon="1.61194">
        <ele>7.83</ele>
        <time>2024-05-15T07:56:00Z</time>
      </trkpt>
      <trkpt lat="50.52534" lon="1.61201">
        <ele>8.31</ele>
        <time>2024-05-15T07:56:04Z</time>
      </trkpt>
      <trkpt lat="50.52522" lon="1.61223">
        <ele>7.83</ele>
        <time>2024-05-15T07:56:18Z</time>
      </trkpt>
      <trkpt lat="50.52509" lon="1.61245">
        <ele>8.31</ele>
        <time>2024-05-15T07:56:33Z</time>
      </trkpt>
      <trkpt lat="50.52496" lon="1.61266">
        <ele>8.31</ele>
        <time>2024-05-15T07:56:48Z</time>
      </trkpt>
      <trkpt lat="50.52482" lon="1.61292">
        <ele>8.31</ele>
        <time>2024-05-15T07:57:04Z</time>
      </trkpt>
      <trkpt lat="50.52467" lon="1.61317">
        <ele>8.31</ele>
        <time>2024-05-15T07:57:22Z</time>
      </trkpt>
      <trkpt lat="50.52454" lon="1.61339">
        <ele>7.83</ele>
        <time>2024-05-15T07:57:37Z</time>
      </trkpt>
      <trkpt lat="50.52439" lon="1.61362">
        <ele>7.83</ele>
        <time>2024-05-15T07:57:54Z</time>
      </trkpt>
      <trkpt lat="50.52432" lon="1.61371">
        <ele>-9</ele>
        <time>2024-05-15T07:58:01Z</time>
      </trkpt>
      <trkpt lat="50.52432" lon="1.61373">
        <ele>20.81</ele>
        <time>2024-05-15T07:58:02Z</time>
      </trkpt>
      <trkpt lat="50.52431" lon="1.61375">
        <ele>8.79</ele>
        <time>2024-05-15T07:58:03Z</time>
      </trkpt>
      <trkpt lat="50.52425" lon="1.61384">
        <ele>-4.19</ele>
        <time>2024-05-15T07:58:09Z</time>
      </trkpt>
      <trkpt lat="50.52425" lon="1.61385">
        <ele>9.75</ele>
        <time>2024-05-15T07:58:10Z</time>
      </trkpt>
      <trkpt lat="50.52411" lon="1.61405">
        <ele>8.31</ele>
        <time>2024-05-15T07:58:24Z</time>
      </trkpt>
      <trkpt lat="50.52403" lon="1.61418">
        <ele>8.31</ele>
        <time>2024-05-15T07:58:33Z</time>
      </trkpt>
      <trkpt lat="50.52391" lon="1.61436">
        <ele>8.31</ele>
        <time>2024-05-15T07:58:45Z</time>
      </trkpt>
      <trkpt lat="50.52378" lon="1.6146">
        <ele>8.31</ele>
        <time>2024-05-15T07:59:00Z</time>
      </trkpt>
      <trkpt lat="50.52377" lon="1.61461">
        <ele>8.79</ele>
        <time>2024-05-15T07:59:01Z</time>
      </trkpt>
      <trkpt lat="50.52365" lon="1.61484">
        <ele>8.31</ele>
        <time>2024-05-15T07:59:15Z</time>
      </trkpt>
      <trkpt lat="50.52354" lon="1.61502">
        <ele>8.79</ele>
        <time>2024-05-15T07:59:28Z</time>
      </trkpt>
      <trkpt lat="50.52342" lon="1.61519">
        <ele>8.79</ele>
        <time>2024-05-15T07:59:40Z</time>
      </trkpt>
      <trkpt lat="50.52331" lon="1.61539">
        <ele>8.79</ele>
        <time>2024-05-15T07:59:52Z</time>
      </trkpt>
      <trkpt lat="50.5233" lon="1.6154">
        <ele>8.79</ele>
        <time>2024-05-15T07:59:53Z</time>
      </trkpt>
      <trkpt lat="50.52318" lon="1.61557">
        <ele>8.31</ele>
        <time>2024-05-15T08:00:06Z</time>
      </trkpt>
      <trkpt lat="50.52308" lon="1.61577">
        <ele>8.79</ele>
        <time>2024-05-15T08:00:19Z</time>
      </trkpt>
      <trkpt lat="50.52301" lon="1.61587">
        <ele>8.79</ele>
        <time>2024-05-15T08:00:26Z</time>
      </trkpt>
      <trkpt lat="50.52297" lon="1.61593">
        <ele>8.79</ele>
        <time>2024-05-15T08:00:30Z</time>
      </trkpt>
      <trkpt lat="50.52294" lon="1.61601">
        <ele>8.79</ele>
        <time>2024-05-15T08:00:34Z</time>
      </trkpt>
      <trkpt lat="50.52282" lon="1.61619">
        <ele>8.31</ele>
        <time>2024-05-15T08:00:47Z</time>
      </trkpt>
      <trkpt lat="50.52279" lon="1.61625">
        <ele>3.02</ele>
        <time>2024-05-15T08:00:51Z</time>
      </trkpt>
      <trkpt lat="50.52278" lon="1.61626">
        <ele>9.75</ele>
        <time>2024-05-15T08:00:52Z</time>
      </trkpt>
      <trkpt lat="50.5227" lon="1.61639">
        <ele>8.31</ele>
        <time>2024-05-15T08:01:00Z</time>
      </trkpt>
      <trkpt lat="50.52258" lon="1.61662">
        <ele>8.31</ele>
        <time>2024-05-15T08:01:14Z</time>
      </trkpt>
      <trkpt lat="50.52246" lon="1.61681">
        <ele>8.31</ele>
        <time>2024-05-15T08:01:27Z</time>
      </trkpt>
      <trkpt lat="50.52235" lon="1.61699">
        <ele>8.31</ele>
        <time>2024-05-15T08:01:39Z</time>
      </trkpt>
      <trkpt lat="50.52221" lon="1.61721">
        <ele>8.79</ele>
        <time>2024-05-15T08:01:54Z</time>
      </trkpt>
      <trkpt lat="50.52207" lon="1.61745">
        <ele>8.79</ele>
        <time>2024-05-15T08:02:09Z</time>
      </trkpt>
      <trkpt lat="50.52195" lon="1.61764">
        <ele>8.79</ele>
        <time>2024-05-15T08:02:21Z</time>
      </trkpt>
      <trkpt lat="50.52184" lon="1.61782">
        <ele>8.31</ele>
        <time>2024-05-15T08:02:34Z</time>
      </trkpt>
      <trkpt lat="50.52173" lon="1.61802">
        <ele>8.79</ele>
        <time>2024-05-15T08:02:47Z</time>
      </trkpt>
      <trkpt lat="50.5216" lon="1.61825">
        <ele>8.79</ele>
        <time>2024-05-15T08:03:03Z</time>
      </trkpt>
      <trkpt lat="50.52152" lon="1.61836">
        <ele>8.31</ele>
        <time>2024-05-15T08:03:12Z</time>
      </trkpt>
      <trkpt lat="50.52143" lon="1.6185">
        <ele>8.79</ele>
        <time>2024-05-15T08:03:21Z</time>
      </trkpt>
      <trkpt lat="50.52139" lon="1.61858">
        <ele>8.31</ele>
        <time>2024-05-15T08:03:26Z</time>
      </trkpt>
      <trkpt lat="50.52128" lon="1.61875">
        <ele>12.63</ele>
        <time>2024-05-15T08:03:38Z</time>
      </trkpt>
      <trkpt lat="50.52127" lon="1.61876">
        <ele>9.27</ele>
        <time>2024-05-15T08:03:39Z</time>
      </trkpt>
      <trkpt lat="50.52126" lon="1.61878">
        <ele>15.04</ele>
        <time>2024-05-15T08:03:40Z</time>
      </trkpt>
      <trkpt lat="50.52125" lon="1.61879">
        <ele>9.27</ele>
        <time>2024-05-15T08:03:41Z</time>
      </trkpt>
      <trkpt lat="50.52119" lon="1.6189">
        <ele>8.31</ele>
        <time>2024-05-15T08:03:49Z</time>
      </trkpt>
      <trkpt lat="50.52115" lon="1.61895">
        <ele>8.79</ele>
        <time>2024-05-15T08:03:53Z</time>
      </trkpt>
      <trkpt lat="50.52113" lon="1.61902">
        <ele>8.31</ele>
        <time>2024-05-15T08:03:57Z</time>
      </trkpt>
      <trkpt lat="50.52098" lon="1.61923">
        <ele>8.79</ele>
        <time>2024-05-15T08:04:12Z</time>
      </trkpt>
      <trkpt lat="50.52096" lon="1.61927">
        <ele>8.79</ele>
        <time>2024-05-15T08:04:14Z</time>
      </trkpt>
      <trkpt lat="50.5208" lon="1.61948">
        <ele>8.79</ele>
        <time>2024-05-15T08:04:30Z</time>
      </trkpt>
      <trkpt lat="50.52076" lon="1.61955">
        <ele>8.79</ele>
        <time>2024-05-15T08:04:35Z</time>
      </trkpt>
      <trkpt lat="50.52061" lon="1.61981">
        <ele>8.79</ele>
        <time>2024-05-15T08:04:51Z</time>
      </trkpt>
      <trkpt lat="50.52049" lon="1.62002">
        <ele>8.31</ele>
        <time>2024-05-15T08:05:04Z</time>
      </trkpt>
      <trkpt lat="50.52038" lon="1.62017">
        <ele>8.79</ele>
        <time>2024-05-15T08:05:17Z</time>
      </trkpt>
      <trkpt lat="50.52038" lon="1.62017">
        <ele>8.31</ele>
        <time>2024-05-15T08:05:20Z</time>
      </trkpt>
      <trkpt lat="50.52034" lon="1.62023">
        <ele>8.79</ele>
        <time>2024-05-15T08:05:24Z</time>
      </trkpt>
      <trkpt lat="50.52019" lon="1.62052">
        <ele>8.31</ele>
        <time>2024-05-15T08:05:40Z</time>
      </trkpt>
      <trkpt lat="50.52006" lon="1.62073">
        <ele>8.31</ele>
        <time>2024-05-15T08:05:54Z</time>
      </trkpt>
      <trkpt lat="50.51996" lon="1.62091">
        <ele>8.31</ele>
        <time>2024-05-15T08:06:06Z</time>
      </trkpt>
      <trkpt lat="50.51989" lon="1.62103">
        <ele>7.83</ele>
        <time>2024-05-15T08:06:14Z</time>
      </trkpt>
      <trkpt lat="50.51982" lon="1.62116">
        <ele>8.31</ele>
        <time>2024-05-15T08:06:22Z</time>
      </trkpt>
      <trkpt lat="50.51966" lon="1.6214">
        <ele>8.31</ele>
        <time>2024-05-15T08:06:39Z</time>
      </trkpt>
      <trkpt lat="50.51956" lon="1.62152">
        <ele>8.31</ele>
        <time>2024-05-15T08:06:48Z</time>
      </trkpt>
      <trkpt lat="50.51952" lon="1.62157">
        <ele>8.31</ele>
        <time>2024-05-15T08:06:53Z</time>
      </trkpt>
      <trkpt lat="50.51934" lon="1.62173">
        <ele>8.31</ele>
        <time>2024-05-15T08:07:08Z</time>
      </trkpt>
      <trkpt lat="50.51922" lon="1.62196">
        <ele>8.31</ele>
        <time>2024-05-15T08:07:22Z</time>
      </trkpt>
      <trkpt lat="50.51921" lon="1.62198">
        <ele>8.31</ele>
        <time>2024-05-15T08:07:24Z</time>
      </trkpt>
      <trkpt lat="50.51916" lon="1.62209">
        <ele>8.31</ele>
        <time>2024-05-15T08:07:30Z</time>
      </trkpt>
      <trkpt lat="50.51902" lon="1.62229">
        <ele>8.31</ele>
        <time>2024-05-15T08:07:43Z</time>
      </trkpt>
      <trkpt lat="50.51887" lon="1.62249">
        <ele>8.31</ele>
        <time>2024-05-15T08:07:57Z</time>
      </trkpt>
      <trkpt lat="50.51876" lon="1.62267">
        <ele>8.79</ele>
        <time>2024-05-15T08:08:09Z</time>
      </trkpt>
      <trkpt lat="50.51873" lon="1.62274">
        <ele>8.79</ele>
        <time>2024-05-15T08:08:13Z</time>
      </trkpt>
      <trkpt lat="50.5186" lon="1.62294">
        <ele>8.31</ele>
        <time>2024-05-15T08:08:26Z</time>
      </trkpt>
      <trkpt lat="50.51847" lon="1.62315">
        <ele>8.31</ele>
        <time>2024-05-15T08:08:40Z</time>
      </trkpt>
      <trkpt lat="50.51836" lon="1.62334">
        <ele>8.31</ele>
        <time>2024-05-15T08:08:52Z</time>
      </trkpt>
      <trkpt lat="50.5182" lon="1.6236">
        <ele>8.79</ele>
        <time>2024-05-15T08:09:08Z</time>
      </trkpt>
      <trkpt lat="50.51807" lon="1.62381">
        <ele>8.79</ele>
        <time>2024-05-15T08:09:22Z</time>
      </trkpt>
      <trkpt lat="50.51802" lon="1.62392">
        <ele>8.79</ele>
        <time>2024-05-15T08:09:28Z</time>
      </trkpt>
      <trkpt lat="50.51801" lon="1.62393">
        <ele>8.79</ele>
        <time>2024-05-15T08:09:30Z</time>
      </trkpt>
      <trkpt lat="50.51787" lon="1.62418">
        <ele>8.79</ele>
        <time>2024-05-15T08:09:47Z</time>
      </trkpt>
      <trkpt lat="50.51773" lon="1.62435">
        <ele>8.79</ele>
        <time>2024-05-15T08:10:01Z</time>
      </trkpt>
      <trkpt lat="50.51763" lon="1.62453">
        <ele>8.79</ele>
        <time>2024-05-15T08:10:11Z</time>
      </trkpt>
      <trkpt lat="50.5176" lon="1.62459">
        <ele>8.31</ele>
        <time>2024-05-15T08:10:15Z</time>
      </trkpt>
      <trkpt lat="50.51756" lon="1.62466">
        <ele>8.79</ele>
        <time>2024-05-15T08:10:19Z</time>
      </trkpt>
      <trkpt lat="50.51751" lon="1.62475">
        <ele>8.79</ele>
        <time>2024-05-15T08:10:30Z</time>
      </trkpt>
      <trkpt lat="50.51746" lon="1.62484">
        <ele>8.31</ele>
        <time>2024-05-15T08:10:37Z</time>
      </trkpt>
      <trkpt lat="50.51741" lon="1.62493">
        <ele>8.31</ele>
        <time>2024-05-15T08:10:42Z</time>
      </trkpt>
      <trkpt lat="50.5173" lon="1.62507">
        <ele>8.31</ele>
        <time>2024-05-15T08:10:52Z</time>
      </trkpt>
      <trkpt lat="50.51724" lon="1.62516">
        <ele>8.79</ele>
        <time>2024-05-15T08:10:58Z</time>
      </trkpt>
      <trkpt lat="50.51715" lon="1.62531">
        <ele>8.31</ele>
        <time>2024-05-15T08:11:08Z</time>
      </trkpt>
      <trkpt lat="50.51703" lon="1.62552">
        <ele>8.79</ele>
        <time>2024-05-15T08:11:22Z</time>
      </trkpt>
      <trkpt lat="50.5169" lon="1.62574">
        <ele>8.79</ele>
        <time>2024-05-15T08:11:37Z</time>
      </trkpt>
      <trkpt lat="50.51678" lon="1.62593">
        <ele>8.79</ele>
        <time>2024-05-15T08:11:49Z</time>
      </trkpt>
      <trkpt lat="50.51665" lon="1.62614">
        <ele>8.79</ele>
        <time>2024-05-15T08:12:02Z</time>
      </trkpt>
      <trkpt lat="50.51653" lon="1.62633">
        <ele>8.79</ele>
        <time>2024-05-15T08:12:15Z</time>
      </trkpt>
      <trkpt lat="50.51652" lon="1.62636">
        <ele>9.27</ele>
        <time>2024-05-15T08:12:17Z</time>
      </trkpt>
      <trkpt lat="50.51645" lon="1.62647">
        <ele>8.79</ele>
        <time>2024-05-15T08:12:31Z</time>
      </trkpt>
      <trkpt lat="50.51637" lon="1.62661">
        <ele>8.79</ele>
        <time>2024-05-15T08:12:40Z</time>
      </trkpt>
      <trkpt lat="50.51628" lon="1.62671">
        <ele>8.31</ele>
        <time>2024-05-15T08:12:48Z</time>
      </trkpt>
      <trkpt lat="50.51619" lon="1.62686">
        <ele>8.79</ele>
        <time>2024-05-15T08:12:57Z</time>
      </trkpt>
      <trkpt lat="50.51613" lon="1.62693">
        <ele>8.31</ele>
        <time>2024-05-15T08:13:03Z</time>
      </trkpt>
      <trkpt lat="50.51612" lon="1.62696">
        <ele>8.31</ele>
        <time>2024-05-15T08:13:05Z</time>
      </trkpt>
      <trkpt lat="50.51599" lon="1.62722">
        <ele>8.79</ele>
        <time>2024-05-15T08:13:20Z</time>
      </trkpt>
      <trkpt lat="50.51587" lon="1.62741">
        <ele>8.31</ele>
        <time>2024-05-15T08:13:33Z</time>
      </trkpt>
      <trkpt lat="50.51583" lon="1.62746">
        <ele>7.35</ele>
        <time>2024-05-15T08:13:40Z</time>
      </trkpt>
      <trkpt lat="50.51587" lon="1.6274">
        <ele>7.83</ele>
        <time>2024-05-15T08:13:55Z</time>
      </trkpt>
      <trkpt lat="50.51587" lon="1.62742">
        <ele>6.87</ele>
        <time>2024-05-15T08:14:14Z</time>
      </trkpt>
      <trkpt lat="50.51587" lon="1.62746">
        <ele>6.87</ele>
        <time>2024-05-15T08:14:17Z</time>
      </trkpt>
      <trkpt lat="50.51585" lon="1.62756">
        <ele>6.39</ele>
        <time>2024-05-15T08:14:21Z</time>
      </trkpt>
      <trkpt lat="50.51583" lon="1.62759">
        <ele>6.87</ele>
        <time>2024-05-15T08:14:24Z</time>
      </trkpt>
      <trkpt lat="50.51574" lon="1.62778">
        <ele>6.87</ele>
        <time>2024-05-15T08:14:37Z</time>
      </trkpt>
      <trkpt lat="50.51562" lon="1.62791">
        <ele>7.35</ele>
        <time>2024-05-15T08:14:48Z</time>
      </trkpt>
      <trkpt lat="50.51551" lon="1.62809">
        <ele>6.87</ele>
        <time>2024-05-15T08:15:01Z</time>
      </trkpt>
      <trkpt lat="50.51539" lon="1.6283">
        <ele>6.87</ele>
        <time>2024-05-15T08:15:15Z</time>
      </trkpt>
      <trkpt lat="50.51529" lon="1.62846">
        <ele>7.35</ele>
        <time>2024-05-15T08:15:28Z</time>
      </trkpt>
      <trkpt lat="50.51527" lon="1.62852">
        <ele>6.87</ele>
        <time>2024-05-15T08:15:45Z</time>
      </trkpt>
      <trkpt lat="50.51526" lon="1.62854">
        <ele>6.87</ele>
        <time>2024-05-15T08:15:59Z</time>
      </trkpt>
      <trkpt lat="50.51532" lon="1.62845">
        <ele>7.35</ele>
        <time>2024-05-15T08:16:08Z</time>
      </trkpt>
      <trkpt lat="50.51539" lon="1.62833">
        <ele>6.87</ele>
        <time>2024-05-15T08:16:21Z</time>
      </trkpt>
      <trkpt lat="50.51545" lon="1.62822">
        <ele>6.87</ele>
        <time>2024-05-15T08:16:32Z</time>
      </trkpt>
      <trkpt lat="50.51554" lon="1.62807">
        <ele>6.87</ele>
        <time>2024-05-15T08:16:46Z</time>
      </trkpt>
      <trkpt lat="50.51559" lon="1.62798">
        <ele>6.39</ele>
        <time>2024-05-15T08:17:01Z</time>
      </trkpt>
      <trkpt lat="50.51559" lon="1.62798">
        <ele>6.87</ele>
        <time>2024-05-15T08:17:08Z</time>
      </trkpt>
      <trkpt lat="50.51562" lon="1.62793">
        <ele>6.87</ele>
        <time>2024-05-15T08:17:13Z</time>
      </trkpt>
      <trkpt lat="50.51566" lon="1.62788">
        <ele>6.87</ele>
        <time>2024-05-15T08:17:18Z</time>
      </trkpt>
      <trkpt lat="50.51572" lon="1.62775">
        <ele>6.87</ele>
        <time>2024-05-15T08:17:32Z</time>
      </trkpt>
      <trkpt lat="50.51576" lon="1.62768">
        <ele>6.87</ele>
        <time>2024-05-15T08:17:48Z</time>
      </trkpt>
      <trkpt lat="50.51578" lon="1.62767">
        <ele>7.35</ele>
        <time>2024-05-15T08:18:07Z</time>
      </trkpt>
      <trkpt lat="50.51578" lon="1.62767">
        <ele>6.87</ele>
        <time>2024-05-15T08:18:26Z</time>
      </trkpt>
      <trkpt lat="50.51579" lon="1.62766">
        <ele>6.39</ele>
        <time>2024-05-15T08:18:42Z</time>
      </trkpt>
      <trkpt lat="50.51579" lon="1.62765">
        <ele>6.87</ele>
        <time>2024-05-15T08:18:57Z</time>
      </trkpt>
      <trkpt lat="50.51579" lon="1.62764">
        <ele>6.87</ele>
        <time>2024-05-15T08:19:12Z</time>
      </trkpt>
      <trkpt lat="50.51579" lon="1.62764">
        <ele>7.35</ele>
        <time>2024-05-15T08:19:29Z</time>
      </trkpt>
      <trkpt lat="50.51579" lon="1.62764">
        <ele>6.87</ele>
        <time>2024-05-15T08:19:51Z</time>
      </trkpt>
      <trkpt lat="50.51579" lon="1.62764">
        <ele>6.87</ele>
        <time>2024-05-15T08:20:10Z</time>
      </trkpt>
      <trkpt lat="50.51579" lon="1.62764">
        <ele>6.39</ele>
        <time>2024-05-15T08:20:35Z</time>
      </trkpt>
      <trkpt lat="50.51579" lon="1.62764">
        <ele>6.87</ele>
        <time>2024-05-15T08:20:55Z</time>
      </trkpt>
      <trkpt lat="50.51579" lon="1.62764">
        <ele>6.87</ele>
        <time>2024-05-15T08:21:20Z</time>
      </trkpt>
      <trkpt lat="50.51579" lon="1.62764">
        <ele>6.87</ele>
        <time>2024-05-15T08:21:57Z</time>
      </trkpt>
      <trkpt lat="50.51579" lon="1.62764">
        <ele>6.87</ele>
        <time>2024-05-15T08:22:38Z</time>
      </trkpt>
      <trkpt lat="50.51579" lon="1.62764">
        <ele>6.39</ele>
        <time>2024-05-15T08:23:01Z</time>
      </trkpt>
      <trkpt lat="50.51579" lon="1.62764">
        <ele>6.87</ele>
        <time>2024-05-15T08:23:21Z</time>
      </trkpt>
      <trkpt lat="50.5158" lon="1.62764">
        <ele>6.39</ele>
        <time>2024-05-15T08:23:43Z</time>
      </trkpt>
      <trkpt lat="50.5158" lon="1.62762">
        <ele>6.39</ele>
        <time>2024-05-15T08:23:55Z</time>
      </trkpt>
      <trkpt lat="50.51581" lon="1.62762">
        <ele>6.39</ele>
        <time>2024-05-15T08:24:18Z</time>
      </trkpt>
      <trkpt lat="50.51581" lon="1.62762">
        <ele>6.39</ele>
        <time>2024-05-15T08:24:37Z</time>
      </trkpt>
      <trkpt lat="50.51581" lon="1.62764">
        <ele>5.91</ele>
        <time>2024-05-15T08:25:00Z</time>
      </trkpt>
      <trkpt lat="50.5158" lon="1.62765">
        <ele>6.87</ele>
        <time>2024-05-15T08:25:13Z</time>
      </trkpt>
      <trkpt lat="50.5158" lon="1.62765">
        <ele>6.39</ele>
        <time>2024-05-15T08:25:35Z</time>
      </trkpt>
      <trkpt lat="50.51581" lon="1.62764">
        <ele>6.39</ele>
        <time>2024-05-15T08:25:48Z</time>
      </trkpt>
      <trkpt lat="50.5158" lon="1.62765">
        <ele>6.39</ele>
        <time>2024-05-15T08:26:03Z</time>
      </trkpt>
      <trkpt lat="50.51576" lon="1.62772">
        <ele>5.91</ele>
        <time>2024-05-15T08:26:10Z</time>
      </trkpt>
      <trkpt lat="50.51563" lon="1.62794">
        <ele>6.39</ele>
        <time>2024-05-15T08:26:27Z</time>
      </trkpt>
      <trkpt lat="50.5155" lon="1.62813">
        <ele>6.39</ele>
        <time>2024-05-15T08:26:41Z</time>
      </trkpt>
      <trkpt lat="50.51548" lon="1.62817">
        <ele>5.91</ele>
        <time>2024-05-15T08:26:44Z</time>
      </trkpt>
      <trkpt lat="50.51539" lon="1.62832">
        <ele>6.39</ele>
        <time>2024-05-15T08:26:56Z</time>
      </trkpt>
      <trkpt lat="50.51535" lon="1.62836">
        <ele>6.39</ele>
        <time>2024-05-15T08:27:00Z</time>
      </trkpt>
      <trkpt lat="50.51527" lon="1.62855">
        <ele>5.91</ele>
        <time>2024-05-15T08:27:13Z</time>
      </trkpt>
      <trkpt lat="50.51516" lon="1.62872">
        <ele>6.39</ele>
        <time>2024-05-15T08:27:25Z</time>
      </trkpt>
      <trkpt lat="50.51516" lon="1.62874">
        <ele>6.39</ele>
        <time>2024-05-15T08:27:26Z</time>
      </trkpt>
      <trkpt lat="50.51514" lon="1.62877">
        <ele>5.91</ele>
        <time>2024-05-15T08:27:29Z</time>
      </trkpt>
      <trkpt lat="50.51512" lon="1.62879">
        <ele>5.91</ele>
        <time>2024-05-15T08:27:31Z</time>
      </trkpt>
      <trkpt lat="50.51497" lon="1.62901">
        <ele>5.91</ele>
        <time>2024-05-15T08:27:47Z</time>
      </trkpt>
      <trkpt lat="50.51496" lon="1.62902">
        <ele>5.91</ele>
        <time>2024-05-15T08:27:48Z</time>
      </trkpt>
      <trkpt lat="50.51484" lon="1.62919">
        <ele>5.42</ele>
        <time>2024-05-15T08:28:01Z</time>
      </trkpt>
      <trkpt lat="50.5148" lon="1.62925">
        <ele>5.91</ele>
        <time>2024-05-15T08:28:05Z</time>
      </trkpt>
      <trkpt lat="50.51471" lon="1.62941">
        <ele>5.91</ele>
        <time>2024-05-15T08:28:16Z</time>
      </trkpt>
      <trkpt lat="50.51458" lon="1.62959">
        <ele>5.91</ele>
        <time>2024-05-15T08:28:30Z</time>
      </trkpt>
      <trkpt lat="50.51452" lon="1.6297">
        <ele>5.91</ele>
        <time>2024-05-15T08:28:37Z</time>
      </trkpt>
      <trkpt lat="50.51448" lon="1.62976">
        <ele>6.39</ele>
        <time>2024-05-15T08:28:41Z</time>
      </trkpt>
      <trkpt lat="50.51442" lon="1.62989">
        <ele>5.91</ele>
        <time>2024-05-15T08:28:49Z</time>
      </trkpt>
      <trkpt lat="50.51439" lon="1.62993">
        <ele>6.87</ele>
        <time>2024-05-15T08:28:53Z</time>
      </trkpt>
      <trkpt lat="50.51435" lon="1.63002">
        <ele>6.39</ele>
        <time>2024-05-15T08:28:59Z</time>
      </trkpt>
      <trkpt lat="50.51428" lon="1.63015">
        <ele>5.91</ele>
        <time>2024-05-15T08:29:08Z</time>
      </trkpt>
      <trkpt lat="50.51416" lon="1.6303">
        <ele>6.39</ele>
        <time>2024-05-15T08:29:20Z</time>
      </trkpt>
      <trkpt lat="50.51411" lon="1.63039">
        <ele>6.39</ele>
        <time>2024-05-15T08:29:26Z</time>
      </trkpt>
      <trkpt lat="50.51406" lon="1.63041">
        <ele>6.39</ele>
        <time>2024-05-15T08:29:30Z</time>
      </trkpt>
      <trkpt lat="50.51404" lon="1.63049">
        <ele>6.39</ele>
        <time>2024-05-15T08:29:34Z</time>
      </trkpt>
      <trkpt lat="50.51393" lon="1.63067">
        <ele>6.39</ele>
        <time>2024-05-15T08:29:47Z</time>
      </trkpt>
      <trkpt lat="50.51392" lon="1.63068">
        <ele>6.39</ele>
        <time>2024-05-15T08:29:48Z</time>
      </trkpt>
      <trkpt lat="50.5139" lon="1.63072">
        <ele>5.91</ele>
        <time>2024-05-15T08:29:51Z</time>
      </trkpt>
      <trkpt lat="50.51385" lon="1.6308">
        <ele>6.39</ele>
        <time>2024-05-15T08:29:57Z</time>
      </trkpt>
      <trkpt lat="50.51379" lon="1.63086">
        <ele>6.39</ele>
        <time>2024-05-15T08:30:02Z</time>
      </trkpt>
      <trkpt lat="50.51376" lon="1.63093">
        <ele>6.39</ele>
        <time>2024-05-15T08:30:07Z</time>
      </trkpt>
      <trkpt lat="50.51372" lon="1.63098">
        <ele>5.91</ele>
        <time>2024-05-15T08:30:12Z</time>
      </trkpt>
      <trkpt lat="50.5137" lon="1.63103">
        <ele>5.91</ele>
        <time>2024-05-15T08:30:16Z</time>
      </trkpt>
      <trkpt lat="50.51366" lon="1.63106">
        <ele>6.39</ele>
        <time>2024-05-15T08:30:19Z</time>
      </trkpt>
      <trkpt lat="50.51362" lon="1.63114">
        <ele>6.39</ele>
        <time>2024-05-15T08:30:24Z</time>
      </trkpt>
      <trkpt lat="50.51358" lon="1.63118">
        <ele>6.87</ele>
        <time>2024-05-15T08:30:27Z</time>
      </trkpt>
      <trkpt lat="50.51355" lon="1.63123">
        <ele>6.39</ele>
        <time>2024-05-15T08:30:31Z</time>
      </trkpt>
      <trkpt lat="50.51349" lon="1.63137">
        <ele>6.39</ele>
        <time>2024-05-15T08:30:40Z</time>
      </trkpt>
      <trkpt lat="50.51347" lon="1.63139">
        <ele>6.39</ele>
        <time>2024-05-15T08:30:43Z</time>
      </trkpt>
      <trkpt lat="50.51343" lon="1.63147">
        <ele>6.39</ele>
        <time>2024-05-15T08:30:48Z</time>
      </trkpt>
      <trkpt lat="50.51342" lon="1.63149">
        <ele>6.39</ele>
        <time>2024-05-15T08:30:50Z</time>
      </trkpt>
      <trkpt lat="50.51333" lon="1.63159">
        <ele>6.39</ele>
        <time>2024-05-15T08:30:58Z</time>
      </trkpt>
      <trkpt lat="50.51327" lon="1.63168">
        <ele>6.87</ele>
        <time>2024-05-15T08:31:05Z</time>
      </trkpt>
      <trkpt lat="50.51322" lon="1.63179">
        <ele>6.39</ele>
        <time>2024-05-15T08:31:12Z</time>
      </trkpt>
      <trkpt lat="50.5131" lon="1.63199">
        <ele>6.87</ele>
        <time>2024-05-15T08:31:26Z</time>
      </trkpt>
      <trkpt lat="50.51308" lon="1.632">
        <ele>6.39</ele>
        <time>2024-05-15T08:31:33Z</time>
      </trkpt>
      <trkpt lat="50.51312" lon="1.63193">
        <ele>6.39</ele>
        <time>2024-05-15T08:31:42Z</time>
      </trkpt>
      <trkpt lat="50.51299" lon="1.63217">
        <ele>5.91</ele>
        <time>2024-05-15T08:31:56Z</time>
      </trkpt>
      <trkpt lat="50.51289" lon="1.63228">
        <ele>6.39</ele>
        <time>2024-05-15T08:32:09Z</time>
      </trkpt>
      <trkpt lat="50.51288" lon="1.6323">
        <ele>6.39</ele>
        <time>2024-05-15T08:32:14Z</time>
      </trkpt>
      <trkpt lat="50.51287" lon="1.63232">
        <ele>6.87</ele>
        <time>2024-05-15T08:32:16Z</time>
      </trkpt>
      <trkpt lat="50.51281" lon="1.63243">
        <ele>6.39</ele>
        <time>2024-05-15T08:32:26Z</time>
      </trkpt>
      <trkpt lat="50.5127" lon="1.63262">
        <ele>6.39</ele>
        <time>2024-05-15T08:32:39Z</time>
      </trkpt>
      <trkpt lat="50.5127" lon="1.63263">
        <ele>6.39</ele>
        <time>2024-05-15T08:32:40Z</time>
      </trkpt>
      <trkpt lat="50.51266" lon="1.63271">
        <ele>7.35</ele>
        <time>2024-05-15T08:32:45Z</time>
      </trkpt>
      <trkpt lat="50.51254" lon="1.63292">
        <ele>8.79</ele>
        <time>2024-05-15T08:33:02Z</time>
      </trkpt>
      <trkpt lat="50.51253" lon="1.63294">
        <ele>7.83</ele>
        <time>2024-05-15T08:33:05Z</time>
      </trkpt>
      <trkpt lat="50.51244" lon="1.63305">
        <ele>6.87</ele>
        <time>2024-05-15T08:33:13Z</time>
      </trkpt>
      <trkpt lat="50.51241" lon="1.63312">
        <ele>7.83</ele>
        <time>2024-05-15T08:33:17Z</time>
      </trkpt>
      <trkpt lat="50.51234" lon="1.63327">
        <ele>7.83</ele>
        <time>2024-05-15T08:33:26Z</time>
      </trkpt>
      <trkpt lat="50.51227" lon="1.63331">
        <ele>7.83</ele>
        <time>2024-05-15T08:33:31Z</time>
      </trkpt>
      <trkpt lat="50.51212" lon="1.63345">
        <ele>8.31</ele>
        <time>2024-05-15T08:33:45Z</time>
      </trkpt>
      <trkpt lat="50.5121" lon="1.63351">
        <ele>7.83</ele>
        <time>2024-05-15T08:33:51Z</time>
      </trkpt>
      <trkpt lat="50.51205" lon="1.63361">
        <ele>7.83</ele>
        <time>2024-05-15T08:33:56Z</time>
      </trkpt>
      <trkpt lat="50.51202" lon="1.63369">
        <ele>7.83</ele>
        <time>2024-05-15T08:34:01Z</time>
      </trkpt>
      <trkpt lat="50.51193" lon="1.63394">
        <ele>7.83</ele>
        <time>2024-05-15T08:34:14Z</time>
      </trkpt>
      <trkpt lat="50.51185" lon="1.63411">
        <ele>8.79</ele>
        <time>2024-05-15T08:34:26Z</time>
      </trkpt>
      <trkpt lat="50.51179" lon="1.63421">
        <ele>8.79</ele>
        <time>2024-05-15T08:34:34Z</time>
      </trkpt>
      <trkpt lat="50.51178" lon="1.63431">
        <ele>9.27</ele>
        <time>2024-05-15T08:34:45Z</time>
      </trkpt>
      <trkpt lat="50.51179" lon="1.63432">
        <ele>9.27</ele>
        <time>2024-05-15T08:34:52Z</time>
      </trkpt>
      <trkpt lat="50.51194" lon="1.63458">
        <ele>9.75</ele>
        <time>2024-05-15T08:35:08Z</time>
      </trkpt>
      <trkpt lat="50.51208" lon="1.63478">
        <ele>10.23</ele>
        <time>2024-05-15T08:35:22Z</time>
      </trkpt>
      <trkpt lat="50.51222" lon="1.63501">
        <ele>10.71</ele>
        <time>2024-05-15T08:35:38Z</time>
      </trkpt>
      <trkpt lat="50.51235" lon="1.63522">
        <ele>11.19</ele>
        <time>2024-05-15T08:35:52Z</time>
      </trkpt>
      <trkpt lat="50.5124" lon="1.63529">
        <ele>10.71</ele>
        <time>2024-05-15T08:35:58Z</time>
      </trkpt>
      <trkpt lat="50.51251" lon="1.63548">
        <ele>11.19</ele>
        <time>2024-05-15T08:36:13Z</time>
      </trkpt>
      <trkpt lat="50.51251" lon="1.63549">
        <ele>11.19</ele>
        <time>2024-05-15T08:36:19Z</time>
      </trkpt>
      <trkpt lat="50.51265" lon="1.63571">
        <ele>10.71</ele>
        <time>2024-05-15T08:36:34Z</time>
      </trkpt>
      <trkpt lat="50.51278" lon="1.63593">
        <ele>10.71</ele>
        <time>2024-05-15T08:36:47Z</time>
      </trkpt>
      <trkpt lat="50.51284" lon="1.63601">
        <ele>10.71</ele>
        <time>2024-05-15T08:36:52Z</time>
      </trkpt>
      <trkpt lat="50.51297" lon="1.63625">
        <ele>9.27</ele>
        <time>2024-05-15T08:37:07Z</time>
      </trkpt>
      <trkpt lat="50.51305" lon="1.63633">
        <ele>9.27</ele>
        <time>2024-05-15T08:37:15Z</time>
      </trkpt>
      <trkpt lat="50.51308" lon="1.63632">
        <ele>9.27</ele>
        <time>2024-05-15T08:37:18Z</time>
      </trkpt>
      <trkpt lat="50.51314" lon="1.63625">
        <ele>8.79</ele>
        <time>2024-05-15T08:37:25Z</time>
      </trkpt>
      <trkpt lat="50.51317" lon="1.63622">
        <ele>9.75</ele>
        <time>2024-05-15T08:37:28Z</time>
      </trkpt>
      <trkpt lat="50.51319" lon="1.63617">
        <ele>8.79</ele>
        <time>2024-05-15T08:37:31Z</time>
      </trkpt>
      <trkpt lat="50.51328" lon="1.63609">
        <ele>8.79</ele>
        <time>2024-05-15T08:37:44Z</time>
      </trkpt>
      <trkpt lat="50.51336" lon="1.63618">
        <ele>8.31</ele>
        <time>2024-05-15T08:37:52Z</time>
      </trkpt>
      <trkpt lat="50.51344" lon="1.63624">
        <ele>8.79</ele>
        <time>2024-05-15T08:38:00Z</time>
      </trkpt>
      <trkpt lat="50.51351" lon="1.63626">
        <ele>8.31</ele>
        <time>2024-05-15T08:38:07Z</time>
      </trkpt>
      <trkpt lat="50.51358" lon="1.63627">
        <ele>8.31</ele>
        <time>2024-05-15T08:38:22Z</time>
      </trkpt>
      <trkpt lat="50.51362" lon="1.63624">
        <ele>8.31</ele>
        <time>2024-05-15T08:38:34Z</time>
      </trkpt>
      <trkpt lat="50.51368" lon="1.63619">
        <ele>8.31</ele>
        <time>2024-05-15T08:38:39Z</time>
      </trkpt>
      <trkpt lat="50.51374" lon="1.6361">
        <ele>7.83</ele>
        <time>2024-05-15T08:38:44Z</time>
      </trkpt>
      <trkpt lat="50.51388" lon="1.63598">
        <ele>8.31</ele>
        <time>2024-05-15T08:38:55Z</time>
      </trkpt>
      <trkpt lat="50.51403" lon="1.63578">
        <ele>7.83</ele>
        <time>2024-05-15T08:39:11Z</time>
      </trkpt>
      <trkpt lat="50.51405" lon="1.63577">
        <ele>7.35</ele>
        <time>2024-05-15T08:39:12Z</time>
      </trkpt>
      <trkpt lat="50.51421" lon="1.63568">
        <ele>7.35</ele>
        <time>2024-05-15T08:39:26Z</time>
      </trkpt>
      <trkpt lat="50.51426" lon="1.63585">
        <ele>6.39</ele>
        <time>2024-05-15T08:39:40Z</time>
      </trkpt>
      <trkpt lat="50.51411" lon="1.63597">
        <ele>6.87</ele>
        <time>2024-05-15T08:39:53Z</time>
      </trkpt>
      <trkpt lat="50.51408" lon="1.63601">
        <ele>6.87</ele>
        <time>2024-05-15T08:39:56Z</time>
      </trkpt>
      <trkpt lat="50.51404" lon="1.63605">
        <ele>6.39</ele>
        <time>2024-05-15T08:39:58Z</time>
      </trkpt>
      <trkpt lat="50.5139" lon="1.63623">
        <ele>7.35</ele>
        <time>2024-05-15T08:40:13Z</time>
      </trkpt>
      <trkpt lat="50.51383" lon="1.63637">
        <ele>7.35</ele>
        <time>2024-05-15T08:40:23Z</time>
      </trkpt>
      <trkpt lat="50.51371" lon="1.63651">
        <ele>7.35</ele>
        <time>2024-05-15T08:40:36Z</time>
      </trkpt>
      <trkpt lat="50.51365" lon="1.63662">
        <ele>7.35</ele>
        <time>2024-05-15T08:40:44Z</time>
      </trkpt>
      <trkpt lat="50.51358" lon="1.63681">
        <ele>7.35</ele>
        <time>2024-05-15T08:40:57Z</time>
      </trkpt>
      <trkpt lat="50.51352" lon="1.63696">
        <ele>7.35</ele>
        <time>2024-05-15T08:41:06Z</time>
      </trkpt>
      <trkpt lat="50.51363" lon="1.63711">
        <ele>7.35</ele>
        <time>2024-05-15T08:41:20Z</time>
      </trkpt>
      <trkpt lat="50.51366" lon="1.63713">
        <ele>7.35</ele>
        <time>2024-05-15T08:41:23Z</time>
      </trkpt>
      <trkpt lat="50.51373" lon="1.63716">
        <ele>7.35</ele>
        <time>2024-05-15T08:41:29Z</time>
      </trkpt>
      <trkpt lat="50.51377" lon="1.63715">
        <ele>7.35</ele>
        <time>2024-05-15T08:41:50Z</time>
      </trkpt>
      <trkpt lat="50.51377" lon="1.63716">
        <ele>7.35</ele>
        <time>2024-05-15T08:42:14Z</time>
      </trkpt>
      <trkpt lat="50.51377" lon="1.63716">
        <ele>5.91</ele>
        <time>2024-05-15T08:42:20Z</time>
      </trkpt>
      <trkpt lat="50.51367" lon="1.63713">
        <ele>6.39</ele>
        <time>2024-05-15T08:42:34Z</time>
      </trkpt>
      <trkpt lat="50.51365" lon="1.63711">
        <ele>6.87</ele>
        <time>2024-05-15T08:42:54Z</time>
      </trkpt>
      <trkpt lat="50.5136" lon="1.63712">
        <ele>5.91</ele>
        <time>2024-05-15T08:43:04Z</time>
      </trkpt>
      <trkpt lat="50.51351" lon="1.63705">
        <ele>6.39</ele>
        <time>2024-05-15T08:43:10Z</time>
      </trkpt>
      <trkpt lat="50.51349" lon="1.63694">
        <ele>6.39</ele>
        <time>2024-05-15T08:43:15Z</time>
      </trkpt>
      <trkpt lat="50.51363" lon="1.63661">
        <ele>5.91</ele>
        <time>2024-05-15T08:43:31Z</time>
      </trkpt>
      <trkpt lat="50.51379" lon="1.6365">
        <ele>5.91</ele>
        <time>2024-05-15T08:43:44Z</time>
      </trkpt>
      <trkpt lat="50.51382" lon="1.63644">
        <ele>5.42</ele>
        <time>2024-05-15T08:43:48Z</time>
      </trkpt>
      <trkpt lat="50.51389" lon="1.63633">
        <ele>5.42</ele>
        <time>2024-05-15T08:43:54Z</time>
      </trkpt>
      <trkpt lat="50.5141" lon="1.6361">
        <ele>5.91</ele>
        <time>2024-05-15T08:44:10Z</time>
      </trkpt>
      <trkpt lat="50.51426" lon="1.63587">
        <ele>4.94</ele>
        <time>2024-05-15T08:44:22Z</time>
      </trkpt>
      <trkpt lat="50.5143" lon="1.63584">
        <ele>5.42</ele>
        <time>2024-05-15T08:44:25Z</time>
      </trkpt>
      <trkpt lat="50.51437" lon="1.63582">
        <ele>5.42</ele>
        <time>2024-05-15T08:44:30Z</time>
      </trkpt>
      <trkpt lat="50.51442" lon="1.63574">
        <ele>5.42</ele>
        <time>2024-05-15T08:44:35Z</time>
      </trkpt>
      <trkpt lat="50.51449" lon="1.63567">
        <ele>4.94</ele>
        <time>2024-05-15T08:44:41Z</time>
      </trkpt>
      <trkpt lat="50.51454" lon="1.63563">
        <ele>5.42</ele>
        <time>2024-05-15T08:44:44Z</time>
      </trkpt>
      <trkpt lat="50.51458" lon="1.63557">
        <ele>4.94</ele>
        <time>2024-05-15T08:44:48Z</time>
      </trkpt>
      <trkpt lat="50.51472" lon="1.63534">
        <ele>5.42</ele>
        <time>2024-05-15T08:45:02Z</time>
      </trkpt>
      <trkpt lat="50.51473" lon="1.63532">
        <ele>5.42</ele>
        <time>2024-05-15T08:45:03Z</time>
      </trkpt>
      <trkpt lat="50.5148" lon="1.63528">
        <ele>5.42</ele>
        <time>2024-05-15T08:45:09Z</time>
      </trkpt>
      <trkpt lat="50.51485" lon="1.63521">
        <ele>5.42</ele>
        <time>2024-05-15T08:45:13Z</time>
      </trkpt>
      <trkpt lat="50.515" lon="1.63495">
        <ele>4.94</ele>
        <time>2024-05-15T08:45:27Z</time>
      </trkpt>
      <trkpt lat="50.51511" lon="1.63488">
        <ele>4.94</ele>
        <time>2024-05-15T08:45:40Z</time>
      </trkpt>
      <trkpt lat="50.51525" lon="1.63479">
        <ele>5.42</ele>
        <time>2024-05-15T08:45:52Z</time>
      </trkpt>
      <trkpt lat="50.51531" lon="1.6347">
        <ele>4.94</ele>
        <time>2024-05-15T08:45:58Z</time>
      </trkpt>
      <trkpt lat="50.51535" lon="1.63455">
        <ele>4.94</ele>
        <time>2024-05-15T08:46:03Z</time>
      </trkpt>
      <trkpt lat="50.51541" lon="1.63444">
        <ele>4.46</ele>
        <time>2024-05-15T08:46:17Z</time>
      </trkpt>
      <trkpt lat="50.51544" lon="1.6344">
        <ele>5.42</ele>
        <time>2024-05-15T08:46:30Z</time>
      </trkpt>
      <trkpt lat="50.5155" lon="1.63435">
        <ele>4.46</ele>
        <time>2024-05-15T08:46:48Z</time>
      </trkpt>
      <trkpt lat="50.51566" lon="1.63413">
        <ele>4.46</ele>
        <time>2024-05-15T08:47:01Z</time>
      </trkpt>
      <trkpt lat="50.51587" lon="1.63389">
        <ele>4.46</ele>
        <time>2024-05-15T08:47:17Z</time>
      </trkpt>
      <trkpt lat="50.51588" lon="1.63388">
        <ele>4.94</ele>
        <time>2024-05-15T08:47:18Z</time>
      </trkpt>
      <trkpt lat="50.51593" lon="1.63387">
        <ele>4.46</ele>
        <time>2024-05-15T08:47:22Z</time>
      </trkpt>
      <trkpt lat="50.51613" lon="1.63362">
        <ele>3.98</ele>
        <time>2024-05-15T08:47:39Z</time>
      </trkpt>
      <trkpt lat="50.5162" lon="1.63348">
        <ele>3.5</ele>
        <time>2024-05-15T08:47:47Z</time>
      </trkpt>
      <trkpt lat="50.51634" lon="1.63322">
        <ele>3.5</ele>
        <time>2024-05-15T08:48:02Z</time>
      </trkpt>
      <trkpt lat="50.51641" lon="1.63318">
        <ele>3.5</ele>
        <time>2024-05-15T08:48:10Z</time>
      </trkpt>
      <trkpt lat="50.51654" lon="1.63293">
        <ele>3.5</ele>
        <time>2024-05-15T08:48:24Z</time>
      </trkpt>
      <trkpt lat="50.51664" lon="1.63275">
        <ele>3.98</ele>
        <time>2024-05-15T08:48:35Z</time>
      </trkpt>
      <trkpt lat="50.51679" lon="1.63244">
        <ele>3.5</ele>
        <time>2024-05-15T08:48:51Z</time>
      </trkpt>
      <trkpt lat="50.51686" lon="1.6323">
        <ele>3.5</ele>
        <time>2024-05-15T08:48:59Z</time>
      </trkpt>
      <trkpt lat="50.51698" lon="1.6322">
        <ele>3.5</ele>
        <time>2024-05-15T08:49:10Z</time>
      </trkpt>
      <trkpt lat="50.51715" lon="1.63193">
        <ele>3.98</ele>
        <time>2024-05-15T08:49:25Z</time>
      </trkpt>
      <trkpt lat="50.51733" lon="1.63175">
        <ele>3.98</ele>
        <time>2024-05-15T08:49:42Z</time>
      </trkpt>
      <trkpt lat="50.51749" lon="1.63148">
        <ele>3.98</ele>
        <time>2024-05-15T08:49:57Z</time>
      </trkpt>
      <trkpt lat="50.51765" lon="1.63125">
        <ele>3.98</ele>
        <time>2024-05-15T08:50:12Z</time>
      </trkpt>
      <trkpt lat="50.51765" lon="1.63123">
        <ele>3.5</ele>
        <time>2024-05-15T08:50:13Z</time>
      </trkpt>
      <trkpt lat="50.51782" lon="1.63105">
        <ele>3.5</ele>
        <time>2024-05-15T08:50:27Z</time>
      </trkpt>
      <trkpt lat="50.51795" lon="1.63088">
        <ele>3.98</ele>
        <time>2024-05-15T08:50:39Z</time>
      </trkpt>
      <trkpt lat="50.51801" lon="1.6308">
        <ele>3.98</ele>
        <time>2024-05-15T08:50:45Z</time>
      </trkpt>
      <trkpt lat="50.51806" lon="1.63074">
        <ele>3.5</ele>
        <time>2024-05-15T08:50:49Z</time>
      </trkpt>
      <trkpt lat="50.51823" lon="1.63059">
        <ele>3.98</ele>
        <time>2024-05-15T08:51:05Z</time>
      </trkpt>
      <trkpt lat="50.51825" lon="1.63059">
        <ele>3.98</ele>
        <time>2024-05-15T08:51:09Z</time>
      </trkpt>
      <trkpt lat="50.51844" lon="1.63039">
        <ele>3.02</ele>
        <time>2024-05-15T08:51:24Z</time>
      </trkpt>
      <trkpt lat="50.51851" lon="1.63035">
        <ele>3.5</ele>
        <time>2024-05-15T08:51:42Z</time>
      </trkpt>
      <trkpt lat="50.51852" lon="1.63034">
        <ele>3.5</ele>
        <time>2024-05-15T08:51:45Z</time>
      </trkpt>
      <trkpt lat="50.51856" lon="1.63033">
        <ele>7.35</ele>
        <time>2024-05-15T08:51:59Z</time>
      </trkpt>
      <trkpt lat="50.51856" lon="1.63033">
        <ele>2.54</ele>
        <time>2024-05-15T08:52:01Z</time>
      </trkpt>
      <trkpt lat="50.51857" lon="1.63033">
        <ele>3.02</ele>
        <time>2024-05-15T08:52:07Z</time>
      </trkpt>
      <trkpt lat="50.51866" lon="1.63031">
        <ele>3.5</ele>
        <time>2024-05-15T08:52:18Z</time>
      </trkpt>
      <trkpt lat="50.51853" lon="1.63042">
        <ele>3.02</ele>
        <time>2024-05-15T08:52:40Z</time>
      </trkpt>
      <trkpt lat="50.51845" lon="1.63048">
        <ele>3.02</ele>
        <time>2024-05-15T08:53:08Z</time>
      </trkpt>
      <trkpt lat="50.51843" lon="1.63063">
        <ele>3.5</ele>
        <time>2024-05-15T08:54:14Z</time>
      </trkpt>
      <trkpt lat="50.51843" lon="1.63062">
        <ele>3.02</ele>
        <time>2024-05-15T08:54:15Z</time>
      </trkpt>
      <trkpt lat="50.51844" lon="1.6306">
        <ele>3.02</ele>
        <time>2024-05-15T08:54:16Z</time>
      </trkpt>
      <trkpt lat="50.51851" lon="1.63059">
        <ele>3.02</ele>
        <time>2024-05-15T08:54:40Z</time>
      </trkpt>
      <trkpt lat="50.51854" lon="1.63064">
        <ele>3.02</ele>
        <time>2024-05-15T08:55:01Z</time>
      </trkpt>
      <trkpt lat="50.51854" lon="1.63067">
        <ele>3.02</ele>
        <time>2024-05-15T08:55:24Z</time>
      </trkpt>
      <trkpt lat="50.51852" lon="1.63051">
        <ele>3.5</ele>
        <time>2024-05-15T08:55:49Z</time>
      </trkpt>
      <trkpt lat="50.51844" lon="1.63062">
        <ele>3.5</ele>
        <time>2024-05-15T08:56:15Z</time>
      </trkpt>
      <trkpt lat="50.51847" lon="1.6304">
        <ele>3.02</ele>
        <time>2024-05-15T08:56:40Z</time>
      </trkpt>
      <trkpt lat="50.5184" lon="1.6305">
        <ele>3.5</ele>
        <time>2024-05-15T08:56:49Z</time>
      </trkpt>
      <trkpt lat="50.51825" lon="1.63061">
        <ele>3.98</ele>
        <time>2024-05-15T08:57:03Z</time>
      </trkpt>
      <trkpt lat="50.51825" lon="1.6306">
        <ele>3.5</ele>
        <time>2024-05-15T08:57:04Z</time>
      </trkpt>
      <trkpt lat="50.51815" lon="1.63056">
        <ele>3.5</ele>
        <time>2024-05-15T08:57:10Z</time>
      </trkpt>
      <trkpt lat="50.51802" lon="1.63068">
        <ele>3.5</ele>
        <time>2024-05-15T08:57:21Z</time>
      </trkpt>
      <trkpt lat="50.51797" lon="1.63074">
        <ele>3.02</ele>
        <time>2024-05-15T08:57:26Z</time>
      </trkpt>
      <trkpt lat="50.51783" lon="1.63096">
        <ele>3.98</ele>
        <time>2024-05-15T08:57:39Z</time>
      </trkpt>
      <trkpt lat="50.51768" lon="1.6311">
        <ele>3.98</ele>
        <time>2024-05-15T08:57:51Z</time>
      </trkpt>
      <trkpt lat="50.51765" lon="1.63113">
        <ele>-9</ele>
        <time>2024-05-15T08:57:53Z</time>
      </trkpt>
      <trkpt lat="50.51764" lon="1.63114">
        <ele>5.91</ele>
        <time>2024-05-15T08:57:54Z</time>
      </trkpt>
      <trkpt lat="50.51754" lon="1.63125">
        <ele>14.56</ele>
        <time>2024-05-15T08:58:02Z</time>
      </trkpt>
      <trkpt lat="50.51753" lon="1.63127">
        <ele>4.46</ele>
        <time>2024-05-15T08:58:03Z</time>
      </trkpt>
      <trkpt lat="50.51749" lon="1.63132">
        <ele>12.15</ele>
        <time>2024-05-15T08:58:07Z</time>
      </trkpt>
      <trkpt lat="50.51748" lon="1.63133">
        <ele>3.98</ele>
        <time>2024-05-15T08:58:08Z</time>
      </trkpt>
      <trkpt lat="50.51745" lon="1.63136">
        <ele>7.83</ele>
        <time>2024-05-15T08:58:10Z</time>
      </trkpt>
      <trkpt lat="50.51744" lon="1.63138">
        <ele>4.46</ele>
        <time>2024-05-15T08:58:11Z</time>
      </trkpt>
      <trkpt lat="50.51737" lon="1.63146">
        <ele>-2.75</ele>
        <time>2024-05-15T08:58:17Z</time>
      </trkpt>
      <trkpt lat="50.51735" lon="1.63148">
        <ele>4.94</ele>
        <time>2024-05-15T08:58:18Z</time>
      </trkpt>
      <trkpt lat="50.51729" lon="1.63156">
        <ele>10.71</ele>
        <time>2024-05-15T08:58:23Z</time>
      </trkpt>
      <trkpt lat="50.51728" lon="1.63157">
        <ele>4.46</ele>
        <time>2024-05-15T08:58:24Z</time>
      </trkpt>
      <trkpt lat="50.51723" lon="1.63161">
        <ele>4.46</ele>
        <time>2024-05-15T08:58:29Z</time>
      </trkpt>
      <trkpt lat="50.51708" lon="1.63183">
        <ele>4.46</ele>
        <time>2024-05-15T08:58:44Z</time>
      </trkpt>
      <trkpt lat="50.51708" lon="1.63183">
        <ele>3.5</ele>
        <time>2024-05-15T08:58:54Z</time>
      </trkpt>
      <trkpt lat="50.51692" lon="1.63205">
        <ele>4.46</ele>
        <time>2024-05-15T08:59:08Z</time>
      </trkpt>
      <trkpt lat="50.51678" lon="1.63227">
        <ele>3.98</ele>
        <time>2024-05-15T08:59:21Z</time>
      </trkpt>
      <trkpt lat="50.51665" lon="1.63249">
        <ele>3.98</ele>
        <time>2024-05-15T08:59:34Z</time>
      </trkpt>
      <trkpt lat="50.51662" lon="1.6325">
        <ele>3.98</ele>
        <time>2024-05-15T08:59:36Z</time>
      </trkpt>
      <trkpt lat="50.51656" lon="1.63245">
        <ele>3.98</ele>
        <time>2024-05-15T08:59:40Z</time>
      </trkpt>
      <trkpt lat="50.51634" lon="1.63216">
        <ele>3.5</ele>
        <time>2024-05-15T08:59:57Z</time>
      </trkpt>
      <trkpt lat="50.51623" lon="1.63202">
        <ele>3.98</ele>
        <time>2024-05-15T09:00:05Z</time>
      </trkpt>
      <trkpt lat="50.51619" lon="1.63205">
        <ele>3.98</ele>
        <time>2024-05-15T09:00:09Z</time>
      </trkpt>
      <trkpt lat="50.51617" lon="1.63208">
        <ele>3.98</ele>
        <time>2024-05-15T09:00:11Z</time>
      </trkpt>
      <trkpt lat="50.51615" lon="1.63224">
        <ele>3.98</ele>
        <time>2024-05-15T09:00:24Z</time>
      </trkpt>
      <trkpt lat="50.51614" lon="1.63236">
        <ele>3.98</ele>
        <time>2024-05-15T09:00:35Z</time>
      </trkpt>
      <trkpt lat="50.51604" lon="1.63273">
        <ele>3.5</ele>
        <time>2024-05-15T09:00:51Z</time>
      </trkpt>
      <trkpt lat="50.51592" lon="1.633">
        <ele>3.5</ele>
        <time>2024-05-15T09:01:04Z</time>
      </trkpt>
      <trkpt lat="50.51577" lon="1.6332">
        <ele>3.5</ele>
        <time>2024-05-15T09:01:15Z</time>
      </trkpt>
      <trkpt lat="50.51559" lon="1.63347">
        <ele>3.5</ele>
        <time>2024-05-15T09:01:30Z</time>
      </trkpt>
      <trkpt lat="50.51554" lon="1.63375">
        <ele>3.02</ele>
        <time>2024-05-15T09:01:42Z</time>
      </trkpt>
      <trkpt lat="50.51564" lon="1.63394">
        <ele>3.5</ele>
        <time>2024-05-15T09:01:55Z</time>
      </trkpt>
      <trkpt lat="50.51562" lon="1.63399">
        <ele>3.98</ele>
        <time>2024-05-15T09:01:59Z</time>
      </trkpt>
      <trkpt lat="50.51547" lon="1.63417">
        <ele>4.46</ele>
        <time>2024-05-15T09:02:13Z</time>
      </trkpt>
      <trkpt lat="50.51526" lon="1.6344">
        <ele>3.98</ele>
        <time>2024-05-15T09:02:26Z</time>
      </trkpt>
      <trkpt lat="50.5151" lon="1.63462">
        <ele>4.94</ele>
        <time>2024-05-15T09:02:40Z</time>
      </trkpt>
      <trkpt lat="50.51489" lon="1.63489">
        <ele>3.98</ele>
        <time>2024-05-15T09:02:56Z</time>
      </trkpt>
      <trkpt lat="50.5149" lon="1.63495">
        <ele>4.46</ele>
        <time>2024-05-15T09:03:00Z</time>
      </trkpt>
      <trkpt lat="50.51494" lon="1.63501">
        <ele>4.94</ele>
        <time>2024-05-15T09:03:04Z</time>
      </trkpt>
      <trkpt lat="50.51477" lon="1.63522">
        <ele>4.46</ele>
        <time>2024-05-15T09:03:18Z</time>
      </trkpt>
      <trkpt lat="50.51461" lon="1.63541">
        <ele>4.46</ele>
        <time>2024-05-15T09:03:31Z</time>
      </trkpt>
      <trkpt lat="50.51454" lon="1.63549">
        <ele>4.94</ele>
        <time>2024-05-15T09:03:37Z</time>
      </trkpt>
      <trkpt lat="50.51449" lon="1.63555">
        <ele>4.94</ele>
        <time>2024-05-15T09:03:41Z</time>
      </trkpt>
      <trkpt lat="50.51432" lon="1.63578">
        <ele>4.94</ele>
        <time>2024-05-15T09:03:54Z</time>
      </trkpt>
      <trkpt lat="50.51427" lon="1.63584">
        <ele>4.94</ele>
        <time>2024-05-15T09:03:58Z</time>
      </trkpt>
      <trkpt lat="50.51413" lon="1.63601">
        <ele>4.46</ele>
        <time>2024-05-15T09:04:10Z</time>
      </trkpt>
      <trkpt lat="50.51395" lon="1.63625">
        <ele>4.94</ele>
        <time>2024-05-15T09:04:24Z</time>
      </trkpt>
      <trkpt lat="50.51378" lon="1.63647">
        <ele>4.94</ele>
        <time>2024-05-15T09:04:38Z</time>
      </trkpt>
      <trkpt lat="50.51362" lon="1.63667">
        <ele>4.46</ele>
        <time>2024-05-15T09:04:52Z</time>
      </trkpt>
      <trkpt lat="50.5136" lon="1.6367">
        <ele>4.94</ele>
        <time>2024-05-15T09:04:54Z</time>
      </trkpt>
      <trkpt lat="50.51355" lon="1.63681">
        <ele>4.94</ele>
        <time>2024-05-15T09:05:00Z</time>
      </trkpt>
      <trkpt lat="50.51349" lon="1.63695">
        <ele>4.94</ele>
        <time>2024-05-15T09:05:07Z</time>
      </trkpt>
      <trkpt lat="50.51354" lon="1.63717">
        <ele>5.42</ele>
        <time>2024-05-15T09:05:16Z</time>
      </trkpt>
      <trkpt lat="50.51369" lon="1.63749">
        <ele>4.94</ele>
        <time>2024-05-15T09:05:32Z</time>
      </trkpt>
      <trkpt lat="50.51384" lon="1.63772">
        <ele>4.46</ele>
        <time>2024-05-15T09:05:46Z</time>
      </trkpt>
      <trkpt lat="50.51386" lon="1.63777">
        <ele>3.98</ele>
        <time>2024-05-15T09:05:50Z</time>
      </trkpt>
      <trkpt lat="50.51389" lon="1.63785">
        <ele>4.46</ele>
        <time>2024-05-15T09:05:54Z</time>
      </trkpt>
      <trkpt lat="50.51392" lon="1.63796">
        <ele>3.98</ele>
        <time>2024-05-15T09:06:10Z</time>
      </trkpt>
      <trkpt lat="50.51392" lon="1.63796">
        <ele>4.46</ele>
        <time>2024-05-15T09:06:29Z</time>
      </trkpt>
      <trkpt lat="50.51395" lon="1.63797">
        <ele>4.46</ele>
        <time>2024-05-15T09:06:49Z</time>
      </trkpt>
      <trkpt lat="50.51395" lon="1.63797">
        <ele>3.98</ele>
        <time>2024-05-15T09:07:15Z</time>
      </trkpt>
      <trkpt lat="50.51397" lon="1.63796">
        <ele>3.98</ele>
        <time>2024-05-15T09:07:37Z</time>
      </trkpt>
      <trkpt lat="50.51397" lon="1.63796">
        <ele>4.46</ele>
        <time>2024-05-15T09:07:54Z</time>
      </trkpt>
      <trkpt lat="50.51401" lon="1.63795">
        <ele>3.98</ele>
        <time>2024-05-15T09:08:11Z</time>
      </trkpt>
      <trkpt lat="50.51401" lon="1.63795">
        <ele>3.98</ele>
        <time>2024-05-15T09:08:36Z</time>
      </trkpt>
      <trkpt lat="50.51401" lon="1.63796">
        <ele>3.98</ele>
        <time>2024-05-15T09:08:59Z</time>
      </trkpt>
      <trkpt lat="50.51401" lon="1.63796">
        <ele>3.98</ele>
        <time>2024-05-15T09:09:16Z</time>
      </trkpt>
      <trkpt lat="50.51401" lon="1.63796">
        <ele>3.98</ele>
        <time>2024-05-15T09:09:41Z</time>
      </trkpt>
      <trkpt lat="50.51401" lon="1.63796">
        <ele>3.98</ele>
        <time>2024-05-15T09:10:04Z</time>
      </trkpt>
      <trkpt lat="50.51401" lon="1.63796">
        <ele>3.5</ele>
        <time>2024-05-15T09:10:25Z</time>
      </trkpt>
      <trkpt lat="50.51401" lon="1.63796">
        <ele>3.5</ele>
        <time>2024-05-15T09:10:41Z</time>
      </trkpt>
      <trkpt lat="50.51402" lon="1.63796">
        <ele>3.5</ele>
        <time>2024-05-15T09:10:59Z</time>
      </trkpt>
      <trkpt lat="50.51402" lon="1.63796">
        <ele>3.5</ele>
        <time>2024-05-15T09:11:13Z</time>
      </trkpt>
      <trkpt lat="50.514" lon="1.63802">
        <ele>3.98</ele>
        <time>2024-05-15T09:11:19Z</time>
      </trkpt>
      <trkpt lat="50.51401" lon="1.63808">
        <ele>3.98</ele>
        <time>2024-05-15T09:11:32Z</time>
      </trkpt>
      <trkpt lat="50.51402" lon="1.63821">
        <ele>3.5</ele>
        <time>2024-05-15T09:11:36Z</time>
      </trkpt>
      <trkpt lat="50.514" lon="1.63831">
        <ele>3.98</ele>
        <time>2024-05-15T09:11:50Z</time>
      </trkpt>
      <trkpt lat="50.51402" lon="1.63845">
        <ele>3.98</ele>
        <time>2024-05-15T09:12:05Z</time>
      </trkpt>
      <trkpt lat="50.51402" lon="1.63848">
        <ele>3.5</ele>
        <time>2024-05-15T09:12:22Z</time>
      </trkpt>
      <trkpt lat="50.51402" lon="1.63848">
        <ele>3.5</ele>
        <time>2024-05-15T09:12:24Z</time>
      </trkpt>
      <trkpt lat="50.51403" lon="1.63848">
        <ele>3.5</ele>
        <time>2024-05-15T09:12:26Z</time>
      </trkpt>
      <trkpt lat="50.51403" lon="1.63826">
        <ele>3.98</ele>
        <time>2024-05-15T09:12:40Z</time>
      </trkpt>
      <trkpt lat="50.51405" lon="1.63808">
        <ele>3.98</ele>
        <time>2024-05-15T09:12:56Z</time>
      </trkpt>
      <trkpt lat="50.51405" lon="1.63795">
        <ele>3.98</ele>
        <time>2024-05-15T09:13:11Z</time>
      </trkpt>
      <trkpt lat="50.51405" lon="1.63795">
        <ele>3.98</ele>
        <time>2024-05-15T09:13:32Z</time>
      </trkpt>
      <trkpt lat="50.51405" lon="1.63795">
        <ele>3.98</ele>
        <time>2024-05-15T09:13:46Z</time>
      </trkpt>
      <trkpt lat="50.51405" lon="1.63795">
        <ele>3.5</ele>
        <time>2024-05-15T09:14:06Z</time>
      </trkpt>
      <trkpt lat="50.51405" lon="1.63795">
        <ele>4.46</ele>
        <time>2024-05-15T09:14:28Z</time>
      </trkpt>
      <trkpt lat="50.51405" lon="1.63795">
        <ele>3.98</ele>
        <time>2024-05-15T09:14:44Z</time>
      </trkpt>
      <trkpt lat="50.51405" lon="1.63795">
        <ele>3.98</ele>
        <time>2024-05-15T09:15:08Z</time>
      </trkpt>
      <trkpt lat="50.51405" lon="1.63792">
        <ele>4.46</ele>
        <time>2024-05-15T09:15:30Z</time>
      </trkpt>
      <trkpt lat="50.51405" lon="1.63792">
        <ele>4.46</ele>
        <time>2024-05-15T09:15:46Z</time>
      </trkpt>
      <trkpt lat="50.51405" lon="1.63792">
        <ele>4.46</ele>
        <time>2024-05-15T09:16:00Z</time>
      </trkpt>
      <trkpt lat="50.51395" lon="1.63772">
        <ele>4.46</ele>
        <time>2024-05-15T09:16:12Z</time>
      </trkpt>
      <trkpt lat="50.51387" lon="1.63758">
        <ele>4.46</ele>
        <time>2024-05-15T09:16:21Z</time>
      </trkpt>
      <trkpt lat="50.51385" lon="1.63755">
        <ele>4.46</ele>
        <time>2024-05-15T09:16:23Z</time>
      </trkpt>
      <trkpt lat="50.51374" lon="1.63729">
        <ele>4.94</ele>
        <time>2024-05-15T09:16:39Z</time>
      </trkpt>
      <trkpt lat="50.51371" lon="1.63724">
        <ele>4.46</ele>
        <time>2024-05-15T09:16:43Z</time>
      </trkpt>
      <trkpt lat="50.5136" lon="1.6372">
        <ele>4.46</ele>
        <time>2024-05-15T09:16:52Z</time>
      </trkpt>
      <trkpt lat="50.51352" lon="1.63695">
        <ele>4.94</ele>
        <time>2024-05-15T09:17:06Z</time>
      </trkpt>
      <trkpt lat="50.51359" lon="1.63673">
        <ele>3.98</ele>
        <time>2024-05-15T09:17:19Z</time>
      </trkpt>
      <trkpt lat="50.51371" lon="1.63659">
        <ele>4.46</ele>
        <time>2024-05-15T09:17:33Z</time>
      </trkpt>
      <trkpt lat="50.51385" lon="1.63642">
        <ele>4.46</ele>
        <time>2024-05-15T09:17:48Z</time>
      </trkpt>
      <trkpt lat="50.51397" lon="1.63627">
        <ele>3.5</ele>
        <time>2024-05-15T09:18:02Z</time>
      </trkpt>
      <trkpt lat="50.51405" lon="1.63611">
        <ele>4.46</ele>
        <time>2024-05-15T09:18:14Z</time>
      </trkpt>
      <trkpt lat="50.51423" lon="1.63587">
        <ele>3.98</ele>
        <time>2024-05-15T09:18:30Z</time>
      </trkpt>
      <trkpt lat="50.51427" lon="1.63581">
        <ele>3.98</ele>
        <time>2024-05-15T09:18:35Z</time>
      </trkpt>
      <trkpt lat="50.51427" lon="1.63572">
        <ele>3.98</ele>
        <time>2024-05-15T09:18:40Z</time>
      </trkpt>
      <trkpt lat="50.51423" lon="1.6356">
        <ele>3.98</ele>
        <time>2024-05-15T09:18:47Z</time>
      </trkpt>
      <trkpt lat="50.51426" lon="1.6355">
        <ele>3.5</ele>
        <time>2024-05-15T09:18:54Z</time>
      </trkpt>
      <trkpt lat="50.51442" lon="1.63539">
        <ele>4.46</ele>
        <time>2024-05-15T09:19:09Z</time>
      </trkpt>
      <trkpt lat="50.51444" lon="1.63539">
        <ele>3.98</ele>
        <time>2024-05-15T09:19:14Z</time>
      </trkpt>
      <trkpt lat="50.51448" lon="1.63537">
        <ele>3.5</ele>
        <time>2024-05-15T09:19:17Z</time>
      </trkpt>
      <trkpt lat="50.51467" lon="1.63514">
        <ele>3.98</ele>
        <time>2024-05-15T09:19:35Z</time>
      </trkpt>
      <trkpt lat="50.51482" lon="1.63494">
        <ele>3.98</ele>
        <time>2024-05-15T09:19:52Z</time>
      </trkpt>
      <trkpt lat="50.51487" lon="1.63484">
        <ele>3.5</ele>
        <time>2024-05-15T09:20:07Z</time>
      </trkpt>
      <trkpt lat="50.51487" lon="1.63484">
        <ele>3.98</ele>
        <time>2024-05-15T09:20:20Z</time>
      </trkpt>
      <trkpt lat="50.51484" lon="1.63479">
        <ele>3.98</ele>
        <time>2024-05-15T09:20:24Z</time>
      </trkpt>
      <trkpt lat="50.51484" lon="1.63467">
        <ele>3.98</ele>
        <time>2024-05-15T09:20:30Z</time>
      </trkpt>
      <trkpt lat="50.51483" lon="1.63463">
        <ele>3.02</ele>
        <time>2024-05-15T09:20:32Z</time>
      </trkpt>
      <trkpt lat="50.51479" lon="1.63452">
        <ele>3.5</ele>
        <time>2024-05-15T09:20:38Z</time>
      </trkpt>
      <trkpt lat="50.5147" lon="1.63433">
        <ele>3.5</ele>
        <time>2024-05-15T09:20:49Z</time>
      </trkpt>
      <trkpt lat="50.51464" lon="1.63421">
        <ele>3.98</ele>
        <time>2024-05-15T09:20:55Z</time>
      </trkpt>
      <trkpt lat="50.51458" lon="1.63408">
        <ele>3.98</ele>
        <time>2024-05-15T09:21:13Z</time>
      </trkpt>
      <trkpt lat="50.51458" lon="1.63408">
        <ele>4.46</ele>
        <time>2024-05-15T09:21:27Z</time>
      </trkpt>
      <trkpt lat="50.51461" lon="1.63406">
        <ele>3.98</ele>
        <time>2024-05-15T09:21:47Z</time>
      </trkpt>
      <trkpt lat="50.51463" lon="1.63402">
        <ele>3.98</ele>
        <time>2024-05-15T09:21:49Z</time>
      </trkpt>
      <trkpt lat="50.51478" lon="1.63384">
        <ele>4.46</ele>
        <time>2024-05-15T09:22:05Z</time>
      </trkpt>
      <trkpt lat="50.5148" lon="1.63383">
        <ele>4.46</ele>
        <time>2024-05-15T09:22:08Z</time>
      </trkpt>
      <trkpt lat="50.51482" lon="1.63382">
        <ele>3.98</ele>
        <time>2024-05-15T09:22:11Z</time>
      </trkpt>
      <trkpt lat="50.51491" lon="1.63364">
        <ele>3.98</ele>
        <time>2024-05-15T09:22:29Z</time>
      </trkpt>
      <trkpt lat="50.51494" lon="1.63361">
        <ele>3.98</ele>
        <time>2024-05-15T09:22:47Z</time>
      </trkpt>
      <trkpt lat="50.51494" lon="1.63361">
        <ele>4.46</ele>
        <time>2024-05-15T09:23:08Z</time>
      </trkpt>
      <trkpt lat="50.5149" lon="1.63358">
        <ele>4.46</ele>
        <time>2024-05-15T09:23:31Z</time>
      </trkpt>
      <trkpt lat="50.51491" lon="1.63359">
        <ele>3.98</ele>
        <time>2024-05-15T09:23:41Z</time>
      </trkpt>
      <trkpt lat="50.51494" lon="1.63358">
        <ele>3.98</ele>
        <time>2024-05-15T09:23:57Z</time>
      </trkpt>
      <trkpt lat="50.51498" lon="1.63352">
        <ele>4.46</ele>
        <time>2024-05-15T09:24:11Z</time>
      </trkpt>
      <trkpt lat="50.51499" lon="1.63351">
        <ele>3.98</ele>
        <time>2024-05-15T09:24:12Z</time>
      </trkpt>
      <trkpt lat="50.51516" lon="1.63327">
        <ele>3.98</ele>
        <time>2024-05-15T09:24:27Z</time>
      </trkpt>
      <trkpt lat="50.51514" lon="1.63324">
        <ele>3.98</ele>
        <time>2024-05-15T09:24:42Z</time>
      </trkpt>
      <trkpt lat="50.51514" lon="1.63324">
        <ele>3.98</ele>
        <time>2024-05-15T09:24:55Z</time>
      </trkpt>
      <trkpt lat="50.51517" lon="1.63319">
        <ele>3.98</ele>
        <time>2024-05-15T09:24:59Z</time>
      </trkpt>
      <trkpt lat="50.51533" lon="1.63298">
        <ele>3.98</ele>
        <time>2024-05-15T09:25:14Z</time>
      </trkpt>
      <trkpt lat="50.51542" lon="1.6329">
        <ele>3.98</ele>
        <time>2024-05-15T09:25:22Z</time>
      </trkpt>
      <trkpt lat="50.51545" lon="1.63283">
        <ele>3.5</ele>
        <time>2024-05-15T09:25:27Z</time>
      </trkpt>
      <trkpt lat="50.51552" lon="1.6327">
        <ele>3.5</ele>
        <time>2024-05-15T09:25:41Z</time>
      </trkpt>
      <trkpt lat="50.51553" lon="1.63268">
        <ele>3.98</ele>
        <time>2024-05-15T09:25:54Z</time>
      </trkpt>
      <trkpt lat="50.51561" lon="1.63261">
        <ele>3.98</ele>
        <time>2024-05-15T09:26:03Z</time>
      </trkpt>
      <trkpt lat="50.51567" lon="1.63254">
        <ele>4.46</ele>
        <time>2024-05-15T09:26:08Z</time>
      </trkpt>
      <trkpt lat="50.51584" lon="1.6324">
        <ele>4.46</ele>
        <time>2024-05-15T09:26:23Z</time>
      </trkpt>
      <trkpt lat="50.51589" lon="1.63236">
        <ele>4.46</ele>
        <time>2024-05-15T09:26:30Z</time>
      </trkpt>
      <trkpt lat="50.516" lon="1.63227">
        <ele>8.31</ele>
        <time>2024-05-15T09:26:41Z</time>
      </trkpt>
      <trkpt lat="50.51601" lon="1.63226">
        <ele>0.62</ele>
        <time>2024-05-15T09:26:43Z</time>
      </trkpt>
      <trkpt lat="50.51602" lon="1.63226">
        <ele>2.06</ele>
        <time>2024-05-15T09:26:44Z</time>
      </trkpt>
      <trkpt lat="50.51603" lon="1.63225">
        <ele>4.94</ele>
        <time>2024-05-15T09:26:45Z</time>
      </trkpt>
      <trkpt lat="50.51607" lon="1.6322">
        <ele>4.94</ele>
        <time>2024-05-15T09:26:50Z</time>
      </trkpt>
      <trkpt lat="50.5161" lon="1.63218">
        <ele>-3.71</ele>
        <time>2024-05-15T09:26:53Z</time>
      </trkpt>
      <trkpt lat="50.51611" lon="1.63217">
        <ele>10.71</ele>
        <time>2024-05-15T09:26:54Z</time>
      </trkpt>
      <trkpt lat="50.51612" lon="1.63217">
        <ele>6.87</ele>
        <time>2024-05-15T09:26:55Z</time>
      </trkpt>
      <trkpt lat="50.51616" lon="1.63216">
        <ele>4.46</ele>
        <time>2024-05-15T09:27:00Z</time>
      </trkpt>
      <trkpt lat="50.51618" lon="1.63217">
        <ele>4.46</ele>
        <time>2024-05-15T09:27:02Z</time>
      </trkpt>
      <trkpt lat="50.51622" lon="1.63222">
        <ele>4.46</ele>
        <time>2024-05-15T09:27:15Z</time>
      </trkpt>
      <trkpt lat="50.5162" lon="1.63229">
        <ele>4.46</ele>
        <time>2024-05-15T09:27:31Z</time>
      </trkpt>
      <trkpt lat="50.51622" lon="1.63228">
        <ele>4.46</ele>
        <time>2024-05-15T09:27:47Z</time>
      </trkpt>
      <trkpt lat="50.51626" lon="1.63221">
        <ele>8.31</ele>
        <time>2024-05-15T09:28:00Z</time>
      </trkpt>
      <trkpt lat="50.51626" lon="1.63221">
        <ele>4.46</ele>
        <time>2024-05-15T09:28:01Z</time>
      </trkpt>
      <trkpt lat="50.51626" lon="1.63221">
        <ele>11.19</ele>
        <time>2024-05-15T09:28:02Z</time>
      </trkpt>
      <trkpt lat="50.51626" lon="1.63221">
        <ele>5.42</ele>
        <time>2024-05-15T09:28:03Z</time>
      </trkpt>
      <trkpt lat="50.51626" lon="1.63221">
        <ele>-2.27</ele>
        <time>2024-05-15T09:28:04Z</time>
      </trkpt>
      <trkpt lat="50.51626" lon="1.63221">
        <ele>6.87</ele>
        <time>2024-05-15T09:28:05Z</time>
      </trkpt>
      <trkpt lat="50.51626" lon="1.63221">
        <ele>3.5</ele>
        <time>2024-05-15T09:28:06Z</time>
      </trkpt>
      <trkpt lat="50.51626" lon="1.63221">
        <ele>8.79</ele>
        <time>2024-05-15T09:28:09Z</time>
      </trkpt>
      <trkpt lat="50.51626" lon="1.63221">
        <ele>4.94</ele>
        <time>2024-05-15T09:28:11Z</time>
      </trkpt>
      <trkpt lat="50.51626" lon="1.63221">
        <ele>4.94</ele>
        <time>2024-05-15T09:28:13Z</time>
      </trkpt>
      <trkpt lat="50.5163" lon="1.63211">
        <ele>4.46</ele>
        <time>2024-05-15T09:28:21Z</time>
      </trkpt>
      <trkpt lat="50.5163" lon="1.63208">
        <ele>4.46</ele>
        <time>2024-05-15T09:28:23Z</time>
      </trkpt>
      <trkpt lat="50.5163" lon="1.63203">
        <ele>3.5</ele>
        <time>2024-05-15T09:28:38Z</time>
      </trkpt>
      <trkpt lat="50.51629" lon="1.632">
        <ele>4.46</ele>
        <time>2024-05-15T09:28:45Z</time>
      </trkpt>
      <trkpt lat="50.51624" lon="1.63189">
        <ele>3.98</ele>
        <time>2024-05-15T09:28:53Z</time>
      </trkpt>
      <trkpt lat="50.51632" lon="1.6317">
        <ele>3.98</ele>
        <time>2024-05-15T09:29:08Z</time>
      </trkpt>
      <trkpt lat="50.5164" lon="1.63154">
        <ele>4.46</ele>
        <time>2024-05-15T09:29:17Z</time>
      </trkpt>
      <trkpt lat="50.5165" lon="1.63129">
        <ele>3.98</ele>
        <time>2024-05-15T09:29:31Z</time>
      </trkpt>
      <trkpt lat="50.51663" lon="1.63099">
        <ele>4.46</ele>
        <time>2024-05-15T09:29:47Z</time>
      </trkpt>
      <trkpt lat="50.51678" lon="1.63076">
        <ele>4.46</ele>
        <time>2024-05-15T09:30:03Z</time>
      </trkpt>
      <trkpt lat="50.51691" lon="1.63056">
        <ele>4.94</ele>
        <time>2024-05-15T09:30:18Z</time>
      </trkpt>
      <trkpt lat="50.51704" lon="1.63065">
        <ele>4.94</ele>
        <time>2024-05-15T09:30:31Z</time>
      </trkpt>
      <trkpt lat="50.51709" lon="1.63072">
        <ele>5.91</ele>
        <time>2024-05-15T09:30:36Z</time>
      </trkpt>
      <trkpt lat="50.51713" lon="1.63077">
        <ele>4.94</ele>
        <time>2024-05-15T09:30:40Z</time>
      </trkpt>
      <trkpt lat="50.51721" lon="1.63074">
        <ele>-2.75</ele>
        <time>2024-05-15T09:30:44Z</time>
      </trkpt>
      <trkpt lat="50.51722" lon="1.63073">
        <ele>6.87</ele>
        <time>2024-05-15T09:30:45Z</time>
      </trkpt>
      <trkpt lat="50.51723" lon="1.63071">
        <ele>18.88</ele>
        <time>2024-05-15T09:30:47Z</time>
      </trkpt>
      <trkpt lat="50.51723" lon="1.6307">
        <ele>6.39</ele>
        <time>2024-05-15T09:30:48Z</time>
      </trkpt>
      <trkpt lat="50.51723" lon="1.63068">
        <ele>9.75</ele>
        <time>2024-05-15T09:30:49Z</time>
      </trkpt>
      <trkpt lat="50.51723" lon="1.63067">
        <ele>-0.82</ele>
        <time>2024-05-15T09:30:50Z</time>
      </trkpt>
      <trkpt lat="50.51721" lon="1.63064">
        <ele>-2.27</ele>
        <time>2024-05-15T09:30:52Z</time>
      </trkpt>
      <trkpt lat="50.5172" lon="1.63062">
        <ele>4.46</ele>
        <time>2024-05-15T09:30:53Z</time>
      </trkpt>
      <trkpt lat="50.5172" lon="1.63061">
        <ele>9.27</ele>
        <time>2024-05-15T09:30:54Z</time>
      </trkpt>
      <trkpt lat="50.51719" lon="1.63059">
        <ele>6.39</ele>
        <time>2024-05-15T09:30:55Z</time>
      </trkpt>
      <trkpt lat="50.51718" lon="1.63055">
        <ele>-2.27</ele>
        <time>2024-05-15T09:30:57Z</time>
      </trkpt>
      <trkpt lat="50.51718" lon="1.63054">
        <ele>5.91</ele>
        <time>2024-05-15T09:30:58Z</time>
      </trkpt>
      <trkpt lat="50.51717" lon="1.63053">
        <ele>5.91</ele>
        <time>2024-05-15T09:30:59Z</time>
      </trkpt>
      <trkpt lat="50.51716" lon="1.6305">
        <ele>12.15</ele>
        <time>2024-05-15T09:31:01Z</time>
      </trkpt>
      <trkpt lat="50.51715" lon="1.63048">
        <ele>5.42</ele>
        <time>2024-05-15T09:31:02Z</time>
      </trkpt>
      <trkpt lat="50.51713" lon="1.63043">
        <ele>1.1</ele>
        <time>2024-05-15T09:31:05Z</time>
      </trkpt>
      <trkpt lat="50.51714" lon="1.63041">
        <ele>7.83</ele>
        <time>2024-05-15T09:31:06Z</time>
      </trkpt>
      <trkpt lat="50.51717" lon="1.63034">
        <ele>8.79</ele>
        <time>2024-05-15T09:31:11Z</time>
      </trkpt>
      <trkpt lat="50.51719" lon="1.63029">
        <ele>2.54</ele>
        <time>2024-05-15T09:31:14Z</time>
      </trkpt>
      <trkpt lat="50.5172" lon="1.63028">
        <ele>13.12</ele>
        <time>2024-05-15T09:31:15Z</time>
      </trkpt>
      <trkpt lat="50.51721" lon="1.63026">
        <ele>1.1</ele>
        <time>2024-05-15T09:31:16Z</time>
      </trkpt>
      <trkpt lat="50.51722" lon="1.63025">
        <ele>7.83</ele>
        <time>2024-05-15T09:31:17Z</time>
      </trkpt>
      <trkpt lat="50.51727" lon="1.63014">
        <ele>4.94</ele>
        <time>2024-05-15T09:31:24Z</time>
      </trkpt>
      <trkpt lat="50.51738" lon="1.62997">
        <ele>5.42</ele>
        <time>2024-05-15T09:31:37Z</time>
      </trkpt>
      <trkpt lat="50.51752" lon="1.62966">
        <ele>5.42</ele>
        <time>2024-05-15T09:31:57Z</time>
      </trkpt>
      <trkpt lat="50.51762" lon="1.62944">
        <ele>5.42</ele>
        <time>2024-05-15T09:32:10Z</time>
      </trkpt>
      <trkpt lat="50.51769" lon="1.62934">
        <ele>5.42</ele>
        <time>2024-05-15T09:32:24Z</time>
      </trkpt>
      <trkpt lat="50.51769" lon="1.62936">
        <ele>5.42</ele>
        <time>2024-05-15T09:32:37Z</time>
      </trkpt>
      <trkpt lat="50.51769" lon="1.62937">
        <ele>5.42</ele>
        <time>2024-05-15T09:32:49Z</time>
      </trkpt>
      <trkpt lat="50.51769" lon="1.62936">
        <ele>5.91</ele>
        <time>2024-05-15T09:33:02Z</time>
      </trkpt>
      <trkpt lat="50.51769" lon="1.62937">
        <ele>5.91</ele>
        <time>2024-05-15T09:33:16Z</time>
      </trkpt>
      <trkpt lat="50.51769" lon="1.62937">
        <ele>5.42</ele>
        <time>2024-05-15T09:33:23Z</time>
      </trkpt>
      <trkpt lat="50.51774" lon="1.62944">
        <ele>5.91</ele>
        <time>2024-05-15T09:33:29Z</time>
      </trkpt>
      <trkpt lat="50.5178" lon="1.62953">
        <ele>5.91</ele>
        <time>2024-05-15T09:33:36Z</time>
      </trkpt>
      <trkpt lat="50.51781" lon="1.6296">
        <ele>5.91</ele>
        <time>2024-05-15T09:33:41Z</time>
      </trkpt>
      <trkpt lat="50.51794" lon="1.62984">
        <ele>5.42</ele>
        <time>2024-05-15T09:33:58Z</time>
      </trkpt>
      <trkpt lat="50.51798" lon="1.62993">
        <ele>5.42</ele>
        <time>2024-05-15T09:34:13Z</time>
      </trkpt>
      <trkpt lat="50.51795" lon="1.62985">
        <ele>5.42</ele>
        <time>2024-05-15T09:34:26Z</time>
      </trkpt>
      <trkpt lat="50.51795" lon="1.62985">
        <ele>5.42</ele>
        <time>2024-05-15T09:34:38Z</time>
      </trkpt>
      <trkpt lat="50.51786" lon="1.62965">
        <ele>5.91</ele>
        <time>2024-05-15T09:34:52Z</time>
      </trkpt>
      <trkpt lat="50.51786" lon="1.62963">
        <ele>5.91</ele>
        <time>2024-05-15T09:34:53Z</time>
      </trkpt>
      <trkpt lat="50.51799" lon="1.62946">
        <ele>5.42</ele>
        <time>2024-05-15T09:35:06Z</time>
      </trkpt>
      <trkpt lat="50.51811" lon="1.62927">
        <ele>5.42</ele>
        <time>2024-05-15T09:35:19Z</time>
      </trkpt>
      <trkpt lat="50.51823" lon="1.62906">
        <ele>5.42</ele>
        <time>2024-05-15T09:35:33Z</time>
      </trkpt>
      <trkpt lat="50.51833" lon="1.62887">
        <ele>5.42</ele>
        <time>2024-05-15T09:35:46Z</time>
      </trkpt>
      <trkpt lat="50.51846" lon="1.62866">
        <ele>5.42</ele>
        <time>2024-05-15T09:36:01Z</time>
      </trkpt>
      <trkpt lat="50.51859" lon="1.62841">
        <ele>5.42</ele>
        <time>2024-05-15T09:36:16Z</time>
      </trkpt>
      <trkpt lat="50.51865" lon="1.6283">
        <ele>5.42</ele>
        <time>2024-05-15T09:36:28Z</time>
      </trkpt>
      <trkpt lat="50.51883" lon="1.62808">
        <ele>4.94</ele>
        <time>2024-05-15T09:36:44Z</time>
      </trkpt>
      <trkpt lat="50.51899" lon="1.62791">
        <ele>5.42</ele>
        <time>2024-05-15T09:36:58Z</time>
      </trkpt>
      <trkpt lat="50.51915" lon="1.62772">
        <ele>5.42</ele>
        <time>2024-05-15T09:37:13Z</time>
      </trkpt>
      <trkpt lat="50.5192" lon="1.62764">
        <ele>1.58</ele>
        <time>2024-05-15T09:37:18Z</time>
      </trkpt>
      <trkpt lat="50.51921" lon="1.62763">
        <ele>6.87</ele>
        <time>2024-05-15T09:37:19Z</time>
      </trkpt>
      <trkpt lat="50.51922" lon="1.62761">
        <ele>3.5</ele>
        <time>2024-05-15T09:37:20Z</time>
      </trkpt>
      <trkpt lat="50.51923" lon="1.6276">
        <ele>9.75</ele>
        <time>2024-05-15T09:37:21Z</time>
      </trkpt>
      <trkpt lat="50.51926" lon="1.62758">
        <ele>5.91</ele>
        <time>2024-05-15T09:37:23Z</time>
      </trkpt>
      <trkpt lat="50.51926" lon="1.62758">
        <ele>5.91</ele>
        <time>2024-05-15T09:37:24Z</time>
      </trkpt>
      <trkpt lat="50.51934" lon="1.62752">
        <ele>5.91</ele>
        <time>2024-05-15T09:37:38Z</time>
      </trkpt>
      <trkpt lat="50.51938" lon="1.6275">
        <ele>5.91</ele>
        <time>2024-05-15T09:37:47Z</time>
      </trkpt>
      <trkpt lat="50.5194" lon="1.6275">
        <ele>5.91</ele>
        <time>2024-05-15T09:37:49Z</time>
      </trkpt>
      <trkpt lat="50.51944" lon="1.62749">
        <ele>5.91</ele>
        <time>2024-05-15T09:38:01Z</time>
      </trkpt>
      <trkpt lat="50.51946" lon="1.62744">
        <ele>5.91</ele>
        <time>2024-05-15T09:38:04Z</time>
      </trkpt>
      <trkpt lat="50.51962" lon="1.62725">
        <ele>5.42</ele>
        <time>2024-05-15T09:38:18Z</time>
      </trkpt>
      <trkpt lat="50.51978" lon="1.62708">
        <ele>5.42</ele>
        <time>2024-05-15T09:38:32Z</time>
      </trkpt>
      <trkpt lat="50.51987" lon="1.627">
        <ele>5.42</ele>
        <time>2024-05-15T09:38:41Z</time>
      </trkpt>
      <trkpt lat="50.51995" lon="1.62692">
        <ele>5.42</ele>
        <time>2024-05-15T09:38:49Z</time>
      </trkpt>
      <trkpt lat="50.52004" lon="1.62686">
        <ele>4.94</ele>
        <time>2024-05-15T09:38:57Z</time>
      </trkpt>
      <trkpt lat="50.52009" lon="1.62675">
        <ele>4.94</ele>
        <time>2024-05-15T09:39:04Z</time>
      </trkpt>
      <trkpt lat="50.5201" lon="1.62661">
        <ele>4.94</ele>
        <time>2024-05-15T09:39:17Z</time>
      </trkpt>
      <trkpt lat="50.5201" lon="1.62662">
        <ele>5.42</ele>
        <time>2024-05-15T09:39:40Z</time>
      </trkpt>
      <trkpt lat="50.52011" lon="1.62664">
        <ele>4.94</ele>
        <time>2024-05-15T09:40:00Z</time>
      </trkpt>
      <trkpt lat="50.52011" lon="1.62664">
        <ele>4.94</ele>
        <time>2024-05-15T09:40:24Z</time>
      </trkpt>
      <trkpt lat="50.52011" lon="1.62664">
        <ele>5.42</ele>
        <time>2024-05-15T09:40:48Z</time>
      </trkpt>
      <trkpt lat="50.52012" lon="1.62667">
        <ele>4.94</ele>
        <time>2024-05-15T09:41:05Z</time>
      </trkpt>
      <trkpt lat="50.52011" lon="1.62665">
        <ele>4.94</ele>
        <time>2024-05-15T09:41:20Z</time>
      </trkpt>
      <trkpt lat="50.52012" lon="1.62666">
        <ele>4.94</ele>
        <time>2024-05-15T09:41:32Z</time>
      </trkpt>
      <trkpt lat="50.52021" lon="1.62664">
        <ele>4.46</ele>
        <time>2024-05-15T09:41:39Z</time>
      </trkpt>
      <trkpt lat="50.52026" lon="1.62663">
        <ele>4.94</ele>
        <time>2024-05-15T09:41:44Z</time>
      </trkpt>
      <trkpt lat="50.52034" lon="1.62657">
        <ele>5.42</ele>
        <time>2024-05-15T09:41:53Z</time>
      </trkpt>
      <trkpt lat="50.52037" lon="1.62649">
        <ele>5.42</ele>
        <time>2024-05-15T09:42:01Z</time>
      </trkpt>
      <trkpt lat="50.52041" lon="1.62643">
        <ele>5.42</ele>
        <time>2024-05-15T09:42:14Z</time>
      </trkpt>
      <trkpt lat="50.52039" lon="1.62647">
        <ele>5.91</ele>
        <time>2024-05-15T09:42:25Z</time>
      </trkpt>
      <trkpt lat="50.52034" lon="1.62654">
        <ele>5.42</ele>
        <time>2024-05-15T09:42:30Z</time>
      </trkpt>
      <trkpt lat="50.52027" lon="1.62662">
        <ele>5.42</ele>
        <time>2024-05-15T09:42:36Z</time>
      </trkpt>
      <trkpt lat="50.52025" lon="1.62679">
        <ele>5.91</ele>
        <time>2024-05-15T09:42:47Z</time>
      </trkpt>
      <trkpt lat="50.52027" lon="1.62683">
        <ele>5.91</ele>
        <time>2024-05-15T09:42:49Z</time>
      </trkpt>
      <trkpt lat="50.52044" lon="1.62714">
        <ele>5.42</ele>
        <time>2024-05-15T09:43:07Z</time>
      </trkpt>
      <trkpt lat="50.52054" lon="1.62729">
        <ele>5.91</ele>
        <time>2024-05-15T09:43:20Z</time>
      </trkpt>
      <trkpt lat="50.52056" lon="1.62737">
        <ele>5.42</ele>
        <time>2024-05-15T09:43:24Z</time>
      </trkpt>
      <trkpt lat="50.52058" lon="1.62745">
        <ele>5.42</ele>
        <time>2024-05-15T09:43:29Z</time>
      </trkpt>
      <trkpt lat="50.52063" lon="1.62751">
        <ele>5.91</ele>
        <time>2024-05-15T09:43:37Z</time>
      </trkpt>
      <trkpt lat="50.52072" lon="1.62751">
        <ele>5.42</ele>
        <time>2024-05-15T09:43:45Z</time>
      </trkpt>
      <trkpt lat="50.52076" lon="1.62748">
        <ele>5.42</ele>
        <time>2024-05-15T09:43:48Z</time>
      </trkpt>
      <trkpt lat="50.52083" lon="1.6274">
        <ele>5.42</ele>
        <time>2024-05-15T09:43:55Z</time>
      </trkpt>
      <trkpt lat="50.52099" lon="1.62716">
        <ele>4.94</ele>
        <time>2024-05-15T09:44:12Z</time>
      </trkpt>
      <trkpt lat="50.52106" lon="1.6271">
        <ele>5.42</ele>
        <time>2024-05-15T09:44:26Z</time>
      </trkpt>
      <trkpt lat="50.52106" lon="1.6271">
        <ele>4.46</ele>
        <time>2024-05-15T09:44:31Z</time>
      </trkpt>
      <trkpt lat="50.5211" lon="1.62707">
        <ele>4.94</ele>
        <time>2024-05-15T09:44:48Z</time>
      </trkpt>
      <trkpt lat="50.52105" lon="1.62712">
        <ele>4.94</ele>
        <time>2024-05-15T09:45:03Z</time>
      </trkpt>
      <trkpt lat="50.52095" lon="1.62723">
        <ele>4.94</ele>
        <time>2024-05-15T09:45:17Z</time>
      </trkpt>
      <trkpt lat="50.52091" lon="1.62727">
        <ele>4.94</ele>
        <time>2024-05-15T09:45:30Z</time>
      </trkpt>
      <trkpt lat="50.52091" lon="1.62726">
        <ele>4.46</ele>
        <time>2024-05-15T09:45:33Z</time>
      </trkpt>
      <trkpt lat="50.5211" lon="1.62712">
        <ele>5.42</ele>
        <time>2024-05-15T09:45:49Z</time>
      </trkpt>
      <trkpt lat="50.52135" lon="1.62691">
        <ele>4.46</ele>
        <time>2024-05-15T09:46:11Z</time>
      </trkpt>
      <trkpt lat="50.52163" lon="1.62652">
        <ele>4.46</ele>
        <time>2024-05-15T09:46:36Z</time>
      </trkpt>
      <trkpt lat="50.52169" lon="1.62652">
        <ele>4.46</ele>
        <time>2024-05-15T09:46:41Z</time>
      </trkpt>
      <trkpt lat="50.52176" lon="1.62654">
        <ele>-3.71</ele>
        <time>2024-05-15T09:46:45Z</time>
      </trkpt>
      <trkpt lat="50.52177" lon="1.62653">
        <ele>6.39</ele>
        <time>2024-05-15T09:46:46Z</time>
      </trkpt>
      <trkpt lat="50.52178" lon="1.62653">
        <ele>6.39</ele>
        <time>2024-05-15T09:46:47Z</time>
      </trkpt>
      <trkpt lat="50.52185" lon="1.62649">
        <ele>3.02</ele>
        <time>2024-05-15T09:46:53Z</time>
      </trkpt>
      <trkpt lat="50.52188" lon="1.62648">
        <ele>4.94</ele>
        <time>2024-05-15T09:46:56Z</time>
      </trkpt>
      <trkpt lat="50.5219" lon="1.62648">
        <ele>2.54</ele>
        <time>2024-05-15T09:46:58Z</time>
      </trkpt>
      <trkpt lat="50.5219" lon="1.62647">
        <ele>6.39</ele>
        <time>2024-05-15T09:46:59Z</time>
      </trkpt>
      <trkpt lat="50.52191" lon="1.62647">
        <ele>6.39</ele>
        <time>2024-05-15T09:47:00Z</time>
      </trkpt>
      <trkpt lat="50.52203" lon="1.62641">
        <ele>2.06</ele>
        <time>2024-05-15T09:47:10Z</time>
      </trkpt>
      <trkpt lat="50.52205" lon="1.6264">
        <ele>5.42</ele>
        <time>2024-05-15T09:47:11Z</time>
      </trkpt>
      <trkpt lat="50.52209" lon="1.62637">
        <ele>2.06</ele>
        <time>2024-05-15T09:47:14Z</time>
      </trkpt>
      <trkpt lat="50.52214" lon="1.62633">
        <ele>5.91</ele>
        <time>2024-05-15T09:47:18Z</time>
      </trkpt>
      <trkpt lat="50.52217" lon="1.62632">
        <ele>2.54</ele>
        <time>2024-05-15T09:47:20Z</time>
      </trkpt>
      <trkpt lat="50.52221" lon="1.62629">
        <ele>7.35</ele>
        <time>2024-05-15T09:47:23Z</time>
      </trkpt>
      <trkpt lat="50.52226" lon="1.62626">
        <ele>2.54</ele>
        <time>2024-05-15T09:47:27Z</time>
      </trkpt>
      <trkpt lat="50.52227" lon="1.62625">
        <ele>8.31</ele>
        <time>2024-05-15T09:47:28Z</time>
      </trkpt>
      <trkpt lat="50.52228" lon="1.62624">
        <ele>4.46</ele>
        <time>2024-05-15T09:47:29Z</time>
      </trkpt>
      <trkpt lat="50.52231" lon="1.62623">
        <ele>3.98</ele>
        <time>2024-05-15T09:47:31Z</time>
      </trkpt>
      <trkpt lat="50.5224" lon="1.62623">
        <ele>7.35</ele>
        <time>2024-05-15T09:47:37Z</time>
      </trkpt>
      <trkpt lat="50.52245" lon="1.62623">
        <ele>3.5</ele>
        <time>2024-05-15T09:47:41Z</time>
      </trkpt>
      <trkpt lat="50.52252" lon="1.6262">
        <ele>3.5</ele>
        <time>2024-05-15T09:47:48Z</time>
      </trkpt>
      <trkpt lat="50.52256" lon="1.62617">
        <ele>3.98</ele>
        <time>2024-05-15T09:47:51Z</time>
      </trkpt>
      <trkpt lat="50.52261" lon="1.62614">
        <ele>5.91</ele>
        <time>2024-05-15T09:47:55Z</time>
      </trkpt>
      <trkpt lat="50.52272" lon="1.62605">
        <ele>2.06</ele>
        <time>2024-05-15T09:48:04Z</time>
      </trkpt>
      <trkpt lat="50.52275" lon="1.62602">
        <ele>7.83</ele>
        <time>2024-05-15T09:48:06Z</time>
      </trkpt>
      <trkpt lat="50.52276" lon="1.62601">
        <ele>3.98</ele>
        <time>2024-05-15T09:48:07Z</time>
      </trkpt>
      <trkpt lat="50.52281" lon="1.62597">
        <ele>7.35</ele>
        <time>2024-05-15T09:48:11Z</time>
      </trkpt>
      <trkpt lat="50.52284" lon="1.62596">
        <ele>3.98</ele>
        <time>2024-05-15T09:48:13Z</time>
      </trkpt>
      <trkpt lat="50.52285" lon="1.62596">
        <ele>3.98</ele>
        <time>2024-05-15T09:48:14Z</time>
      </trkpt>
      <trkpt lat="50.52293" lon="1.62591">
        <ele>2.54</ele>
        <time>2024-05-15T09:48:20Z</time>
      </trkpt>
      <trkpt lat="50.52302" lon="1.62589">
        <ele>5.91</ele>
        <time>2024-05-15T09:48:27Z</time>
      </trkpt>
      <trkpt lat="50.52308" lon="1.62588">
        <ele>3.02</ele>
        <time>2024-05-15T09:48:32Z</time>
      </trkpt>
      <trkpt lat="50.52327" lon="1.62581">
        <ele>3.02</ele>
        <time>2024-05-15T09:48:47Z</time>
      </trkpt>
      <trkpt lat="50.5233" lon="1.62579">
        <ele>4.46</ele>
        <time>2024-05-15T09:48:50Z</time>
      </trkpt>
      <trkpt lat="50.52361" lon="1.62562">
        <ele>3.5</ele>
        <time>2024-05-15T09:49:13Z</time>
      </trkpt>
      <trkpt lat="50.52372" lon="1.62557">
        <ele>6.39</ele>
        <time>2024-05-15T09:49:23Z</time>
      </trkpt>
      <trkpt lat="50.52374" lon="1.62556">
        <ele>1.58</ele>
        <time>2024-05-15T09:49:24Z</time>
      </trkpt>
      <trkpt lat="50.52375" lon="1.62556">
        <ele>4.94</ele>
        <time>2024-05-15T09:49:25Z</time>
      </trkpt>
      <trkpt lat="50.52382" lon="1.62553">
        <ele>1.1</ele>
        <time>2024-05-15T09:49:31Z</time>
      </trkpt>
      <trkpt lat="50.52383" lon="1.62552">
        <ele>6.39</ele>
        <time>2024-05-15T09:49:32Z</time>
      </trkpt>
      <trkpt lat="50.52385" lon="1.62551">
        <ele>4.46</ele>
        <time>2024-05-15T09:49:33Z</time>
      </trkpt>
      <trkpt lat="50.52395" lon="1.62545">
        <ele>4.94</ele>
        <time>2024-05-15T09:49:42Z</time>
      </trkpt>
      <trkpt lat="50.52411" lon="1.62543">
        <ele>3.98</ele>
        <time>2024-05-15T09:49:55Z</time>
      </trkpt>
      <trkpt lat="50.52416" lon="1.62541">
        <ele>4.46</ele>
        <time>2024-05-15T09:49:59Z</time>
      </trkpt>
      <trkpt lat="50.52439" lon="1.62528">
        <ele>4.46</ele>
        <time>2024-05-15T09:50:19Z</time>
      </trkpt>
      <trkpt lat="50.52471" lon="1.6251">
        <ele>3.5</ele>
        <time>2024-05-15T09:50:44Z</time>
      </trkpt>
      <trkpt lat="50.52499" lon="1.62497">
        <ele>4.46</ele>
        <time>2024-05-15T09:51:08Z</time>
      </trkpt>
      <trkpt lat="50.52522" lon="1.62478">
        <ele>3.5</ele>
        <time>2024-05-15T09:51:29Z</time>
      </trkpt>
      <trkpt lat="50.52545" lon="1.62462">
        <ele>3.02</ele>
        <time>2024-05-15T09:51:45Z</time>
      </trkpt>
      <trkpt lat="50.52565" lon="1.62451">
        <ele>3.5</ele>
        <time>2024-05-15T09:52:00Z</time>
      </trkpt>
      <trkpt lat="50.52581" lon="1.62441">
        <ele>3.98</ele>
        <time>2024-05-15T09:52:15Z</time>
      </trkpt>
      <trkpt lat="50.52593" lon="1.62433">
        <ele>3.5</ele>
        <time>2024-05-15T09:52:27Z</time>
      </trkpt>
      <trkpt lat="50.526" lon="1.62428">
        <ele>3.98</ele>
        <time>2024-05-15T09:52:33Z</time>
      </trkpt>
      <trkpt lat="50.52605" lon="1.62423">
        <ele>3.5</ele>
        <time>2024-05-15T09:52:38Z</time>
      </trkpt>
      <trkpt lat="50.52611" lon="1.62421">
        <ele>3.02</ele>
        <time>2024-05-15T09:52:42Z</time>
      </trkpt>
      <trkpt lat="50.52632" lon="1.62405">
        <ele>3.5</ele>
        <time>2024-05-15T09:53:00Z</time>
      </trkpt>
      <trkpt lat="50.52655" lon="1.62387">
        <ele>3.98</ele>
        <time>2024-05-15T09:53:19Z</time>
      </trkpt>
      <trkpt lat="50.52682" lon="1.62368">
        <ele>2.54</ele>
        <time>2024-05-15T09:53:40Z</time>
      </trkpt>
      <trkpt lat="50.52692" lon="1.62361">
        <ele>3.5</ele>
        <time>2024-05-15T09:53:48Z</time>
      </trkpt>
      <trkpt lat="50.52715" lon="1.62343">
        <ele>3.98</ele>
        <time>2024-05-15T09:54:08Z</time>
      </trkpt>
      <trkpt lat="50.5274" lon="1.62324">
        <ele>4.46</ele>
        <time>2024-05-15T09:54:29Z</time>
      </trkpt>
      <trkpt lat="50.52763" lon="1.62311">
        <ele>3.02</ele>
        <time>2024-05-15T09:54:47Z</time>
      </trkpt>
      <trkpt lat="50.52788" lon="1.623">
        <ele>4.46</ele>
        <time>2024-05-15T09:55:06Z</time>
      </trkpt>
      <trkpt lat="50.5279" lon="1.62298">
        <ele>3.5</ele>
        <time>2024-05-15T09:55:08Z</time>
      </trkpt>
      <trkpt lat="50.52794" lon="1.62296">
        <ele>3.02</ele>
        <time>2024-05-15T09:55:12Z</time>
      </trkpt>
      <trkpt lat="50.52803" lon="1.62296">
        <ele>4.46</ele>
        <time>2024-05-15T09:55:30Z</time>
      </trkpt>
      <trkpt lat="50.52821" lon="1.62276">
        <ele>3.5</ele>
        <time>2024-05-15T09:55:47Z</time>
      </trkpt>
      <trkpt lat="50.52842" lon="1.62258">
        <ele>3.5</ele>
        <time>2024-05-15T09:56:04Z</time>
      </trkpt>
      <trkpt lat="50.5287" lon="1.62243">
        <ele>3.98</ele>
        <time>2024-05-15T09:56:26Z</time>
      </trkpt>
      <trkpt lat="50.52874" lon="1.6224">
        <ele>3.98</ele>
        <time>2024-05-15T09:56:30Z</time>
      </trkpt>
      <trkpt lat="50.52879" lon="1.6223">
        <ele>3.5</ele>
        <time>2024-05-15T09:56:44Z</time>
      </trkpt>
      <trkpt lat="50.5289" lon="1.62221">
        <ele>3.02</ele>
        <time>2024-05-15T09:56:54Z</time>
      </trkpt>
      <trkpt lat="50.52899" lon="1.6222">
        <ele>3.02</ele>
        <time>2024-05-15T09:57:01Z</time>
      </trkpt>
      <trkpt lat="50.52909" lon="1.62215">
        <ele>3.5</ele>
        <time>2024-05-15T09:57:09Z</time>
      </trkpt>
      <trkpt lat="50.52913" lon="1.62214">
        <ele>3.02</ele>
        <time>2024-05-15T09:57:12Z</time>
      </trkpt>
      <trkpt lat="50.52917" lon="1.6221">
        <ele>3.98</ele>
        <time>2024-05-15T09:57:16Z</time>
      </trkpt>
      <trkpt lat="50.52937" lon="1.62199">
        <ele>2.06</ele>
        <time>2024-05-15T09:57:31Z</time>
      </trkpt>
      <trkpt lat="50.52953" lon="1.62191">
        <ele>3.5</ele>
        <time>2024-05-15T09:57:45Z</time>
      </trkpt>
      <trkpt lat="50.52959" lon="1.62187">
        <ele>3.98</ele>
        <time>2024-05-15T09:57:50Z</time>
      </trkpt>
      <trkpt lat="50.5298" lon="1.62181">
        <ele>3.5</ele>
        <time>2024-05-15T09:58:06Z</time>
      </trkpt>
      <trkpt lat="50.52993" lon="1.62176">
        <ele>3.5</ele>
        <time>2024-05-15T09:58:16Z</time>
      </trkpt>
      <trkpt lat="50.53013" lon="1.62171">
        <ele>3.5</ele>
        <time>2024-05-15T09:58:32Z</time>
      </trkpt>
      <trkpt lat="50.5303" lon="1.62165">
        <ele>3.5</ele>
        <time>2024-05-15T09:58:46Z</time>
      </trkpt>
      <trkpt lat="50.53032" lon="1.62165">
        <ele>3.5</ele>
        <time>2024-05-15T09:58:47Z</time>
      </trkpt>
      <trkpt lat="50.53054" lon="1.62154">
        <ele>3.5</ele>
        <time>2024-05-15T09:59:04Z</time>
      </trkpt>
      <trkpt lat="50.53066" lon="1.62148">
        <ele>3.5</ele>
        <time>2024-05-15T09:59:14Z</time>
      </trkpt>
      <trkpt lat="50.53085" lon="1.62144">
        <ele>3.98</ele>
        <time>2024-05-15T09:59:28Z</time>
      </trkpt>
      <trkpt lat="50.53091" lon="1.62142">
        <ele>3.5</ele>
        <time>2024-05-15T09:59:33Z</time>
      </trkpt>
      <trkpt lat="50.53096" lon="1.62142">
        <ele>3.5</ele>
        <time>2024-05-15T09:59:38Z</time>
      </trkpt>
      <trkpt lat="50.53111" lon="1.62136">
        <ele>3.5</ele>
        <time>2024-05-15T09:59:49Z</time>
      </trkpt>
      <trkpt lat="50.53131" lon="1.62129">
        <ele>3.5</ele>
        <time>2024-05-15T10:00:05Z</time>
      </trkpt>
      <trkpt lat="50.53148" lon="1.62123">
        <ele>3.5</ele>
        <time>2024-05-15T10:00:19Z</time>
      </trkpt>
      <trkpt lat="50.53157" lon="1.62121">
        <ele>3.5</ele>
        <time>2024-05-15T10:00:26Z</time>
      </trkpt>
      <trkpt lat="50.53175" lon="1.62114">
        <ele>3.5</ele>
        <time>2024-05-15T10:00:40Z</time>
      </trkpt>
      <trkpt lat="50.53184" lon="1.6211">
        <ele>3.98</ele>
        <time>2024-05-15T10:00:47Z</time>
      </trkpt>
      <trkpt lat="50.53188" lon="1.62107">
        <ele>3.5</ele>
        <time>2024-05-15T10:00:51Z</time>
      </trkpt>
      <trkpt lat="50.53195" lon="1.62106">
        <ele>3.5</ele>
        <time>2024-05-15T10:00:56Z</time>
      </trkpt>
      <trkpt lat="50.53213" lon="1.62096">
        <ele>3.98</ele>
        <time>2024-05-15T10:01:10Z</time>
      </trkpt>
      <trkpt lat="50.53219" lon="1.62094">
        <ele>3.98</ele>
        <time>2024-05-15T10:01:15Z</time>
      </trkpt>
      <trkpt lat="50.53237" lon="1.62083">
        <ele>3.98</ele>
        <time>2024-05-15T10:01:30Z</time>
      </trkpt>
      <trkpt lat="50.53258" lon="1.62072">
        <ele>3.98</ele>
        <time>2024-05-15T10:01:47Z</time>
      </trkpt>
      <trkpt lat="50.53278" lon="1.62061">
        <ele>4.46</ele>
        <time>2024-05-15T10:02:03Z</time>
      </trkpt>
      <trkpt lat="50.533" lon="1.62047">
        <ele>3.98</ele>
        <time>2024-05-15T10:02:21Z</time>
      </trkpt>
      <trkpt lat="50.53317" lon="1.62034">
        <ele>-5.15</ele>
        <time>2024-05-15T10:02:35Z</time>
      </trkpt>
      <trkpt lat="50.53318" lon="1.62034">
        <ele>9.27</ele>
        <time>2024-05-15T10:02:36Z</time>
      </trkpt>
      <trkpt lat="50.53319" lon="1.62033">
        <ele>-1.79</ele>
        <time>2024-05-15T10:02:37Z</time>
      </trkpt>
      <trkpt lat="50.5332" lon="1.62032">
        <ele>4.94</ele>
        <time>2024-05-15T10:02:38Z</time>
      </trkpt>
      <trkpt lat="50.53322" lon="1.6203">
        <ele>-4.19</ele>
        <time>2024-05-15T10:02:40Z</time>
      </trkpt>
      <trkpt lat="50.53323" lon="1.62029">
        <ele>5.91</ele>
        <time>2024-05-15T10:02:41Z</time>
      </trkpt>
      <trkpt lat="50.53327" lon="1.62027">
        <ele>-6.59</ele>
        <time>2024-05-15T10:02:45Z</time>
      </trkpt>
      <trkpt lat="50.53328" lon="1.62026">
        <ele>5.42</ele>
        <time>2024-05-15T10:02:46Z</time>
      </trkpt>
      <trkpt lat="50.5333" lon="1.62024">
        <ele>9.27</ele>
        <time>2024-05-15T10:02:49Z</time>
      </trkpt>
      <trkpt lat="50.53331" lon="1.62024">
        <ele>2.54</ele>
        <time>2024-05-15T10:02:50Z</time>
      </trkpt>
      <trkpt lat="50.53334" lon="1.62022">
        <ele>5.42</ele>
        <time>2024-05-15T10:02:53Z</time>
      </trkpt>
      <trkpt lat="50.53336" lon="1.62022">
        <ele>2.06</ele>
        <time>2024-05-15T10:02:54Z</time>
      </trkpt>
      <trkpt lat="50.53336" lon="1.62021">
        <ele>7.83</ele>
        <time>2024-05-15T10:02:55Z</time>
      </trkpt>
      <trkpt lat="50.53337" lon="1.6202">
        <ele>3.5</ele>
        <time>2024-05-15T10:02:56Z</time>
      </trkpt>
      <trkpt lat="50.53342" lon="1.62015">
        <ele>6.39</ele>
        <time>2024-05-15T10:03:02Z</time>
      </trkpt>
      <trkpt lat="50.53343" lon="1.62014">
        <ele>5.91</ele>
        <time>2024-05-15T10:03:03Z</time>
      </trkpt>
      <trkpt lat="50.53351" lon="1.62002">
        <ele>-1.3</ele>
        <time>2024-05-15T10:03:18Z</time>
      </trkpt>
      <trkpt lat="50.53351" lon="1.62002">
        <ele>2.54</ele>
        <time>2024-05-15T10:03:19Z</time>
      </trkpt>
      <trkpt lat="50.53351" lon="1.62002">
        <ele>7.35</ele>
        <time>2024-05-15T10:03:20Z</time>
      </trkpt>
      <trkpt lat="50.53351" lon="1.62002">
        <ele>-5.63</ele>
        <time>2024-05-15T10:03:21Z</time>
      </trkpt>
      <trkpt lat="50.53351" lon="1.62002">
        <ele>6.39</ele>
        <time>2024-05-15T10:03:22Z</time>
      </trkpt>
      <trkpt lat="50.53351" lon="1.62002">
        <ele>14.08</ele>
        <time>2024-05-15T10:03:23Z</time>
      </trkpt>
      <trkpt lat="50.53351" lon="1.62002">
        <ele>10.71</ele>
        <time>2024-05-15T10:03:24Z</time>
      </trkpt>
      <trkpt lat="50.53351" lon="1.62002">
        <ele>5.91</ele>
        <time>2024-05-15T10:03:25Z</time>
      </trkpt>
      <trkpt lat="50.53351" lon="1.62002">
        <ele>4.46</ele>
        <time>2024-05-15T10:03:27Z</time>
      </trkpt>
      <trkpt lat="50.53352" lon="1.62002">
        <ele>8.31</ele>
        <time>2024-05-15T10:03:35Z</time>
      </trkpt>
      <trkpt lat="50.53354" lon="1.62001">
        <ele>4.46</ele>
        <time>2024-05-15T10:03:36Z</time>
      </trkpt>
      <trkpt lat="50.53356" lon="1.62">
        <ele>-0.82</ele>
        <time>2024-05-15T10:03:37Z</time>
      </trkpt>
      <trkpt lat="50.53357" lon="1.61999">
        <ele>4.94</ele>
        <time>2024-05-15T10:03:38Z</time>
      </trkpt>
      <trkpt lat="50.53366" lon="1.61991">
        <ele>4.46</ele>
        <time>2024-05-15T10:03:47Z</time>
      </trkpt>
      <trkpt lat="50.53377" lon="1.61978">
        <ele>4.94</ele>
        <time>2024-05-15T10:04:00Z</time>
      </trkpt>
      <trkpt lat="50.5338" lon="1.61972">
        <ele>3.98</ele>
        <time>2024-05-15T10:04:11Z</time>
      </trkpt>
      <trkpt lat="50.53383" lon="1.61969">
        <ele>3.98</ele>
        <time>2024-05-15T10:04:14Z</time>
      </trkpt>
      <trkpt lat="50.53388" lon="1.61961">
        <ele>4.46</ele>
        <time>2024-05-15T10:04:19Z</time>
      </trkpt>
      <trkpt lat="50.53391" lon="1.61957">
        <ele>4.46</ele>
        <time>2024-05-15T10:04:23Z</time>
      </trkpt>
      <trkpt lat="50.53396" lon="1.61951">
        <ele>4.46</ele>
        <time>2024-05-15T10:04:27Z</time>
      </trkpt>
      <trkpt lat="50.53406" lon="1.61936">
        <ele>4.46</ele>
        <time>2024-05-15T10:04:38Z</time>
      </trkpt>
      <trkpt lat="50.5341" lon="1.61929">
        <ele>4.46</ele>
        <time>2024-05-15T10:04:43Z</time>
      </trkpt>
      <trkpt lat="50.53415" lon="1.61922">
        <ele>4.46</ele>
        <time>2024-05-15T10:04:51Z</time>
      </trkpt>
      <trkpt lat="50.53428" lon="1.61898">
        <ele>4.46</ele>
        <time>2024-05-15T10:05:08Z</time>
      </trkpt>
      <trkpt lat="50.53437" lon="1.61879">
        <ele>3.98</ele>
        <time>2024-05-15T10:05:22Z</time>
      </trkpt>
      <trkpt lat="50.53441" lon="1.61868">
        <ele>4.46</ele>
        <time>2024-05-15T10:05:31Z</time>
      </trkpt>
      <trkpt lat="50.53444" lon="1.61859">
        <ele>3.5</ele>
        <time>2024-05-15T10:05:36Z</time>
      </trkpt>
      <trkpt lat="50.53455" lon="1.61839">
        <ele>3.98</ele>
        <time>2024-05-15T10:05:49Z</time>
      </trkpt>
      <trkpt lat="50.5347" lon="1.61822">
        <ele>4.46</ele>
        <time>2024-05-15T10:06:02Z</time>
      </trkpt>
      <trkpt lat="50.53483" lon="1.61811">
        <ele>3.5</ele>
        <time>2024-05-15T10:06:14Z</time>
      </trkpt>
      <trkpt lat="50.535" lon="1.61813">
        <ele>3.98</ele>
        <time>2024-05-15T10:06:28Z</time>
      </trkpt>
      <trkpt lat="50.53514" lon="1.61808">
        <ele>3.98</ele>
        <time>2024-05-15T10:06:40Z</time>
      </trkpt>
      <trkpt lat="50.53519" lon="1.61803">
        <ele>3.98</ele>
        <time>2024-05-15T10:06:47Z</time>
      </trkpt>
      <trkpt lat="50.53518" lon="1.61788">
        <ele>4.46</ele>
        <time>2024-05-15T10:06:56Z</time>
      </trkpt>
      <trkpt lat="50.53525" lon="1.61777">
        <ele>4.46</ele>
        <time>2024-05-15T10:07:05Z</time>
      </trkpt>
      <trkpt lat="50.53535" lon="1.6178">
        <ele>4.94</ele>
        <time>2024-05-15T10:07:13Z</time>
      </trkpt>
      <trkpt lat="50.53545" lon="1.61784">
        <ele>4.94</ele>
        <time>2024-05-15T10:07:25Z</time>
      </trkpt>
      <trkpt lat="50.53547" lon="1.61785">
        <ele>5.42</ele>
        <time>2024-05-15T10:07:27Z</time>
      </trkpt>
      <trkpt lat="50.53556" lon="1.61784">
        <ele>5.42</ele>
        <time>2024-05-15T10:07:40Z</time>
      </trkpt>
      <trkpt lat="50.53569" lon="1.61782">
        <ele>4.94</ele>
        <time>2024-05-15T10:07:54Z</time>
      </trkpt>
      <trkpt lat="50.53582" lon="1.61783">
        <ele>4.94</ele>
        <time>2024-05-15T10:08:05Z</time>
      </trkpt>
      <trkpt lat="50.53595" lon="1.61785">
        <ele>0.14</ele>
        <time>2024-05-15T10:08:15Z</time>
      </trkpt>
      <trkpt lat="50.53597" lon="1.61785">
        <ele>5.91</ele>
        <time>2024-05-15T10:08:16Z</time>
      </trkpt>
      <trkpt lat="50.5361" lon="1.61794">
        <ele>4.94</ele>
        <time>2024-05-15T10:08:28Z</time>
      </trkpt>
      <trkpt lat="50.53626" lon="1.61814">
        <ele>4.46</ele>
        <time>2024-05-15T10:08:43Z</time>
      </trkpt>
      <trkpt lat="50.53634" lon="1.61833">
        <ele>4.94</ele>
        <time>2024-05-15T10:08:57Z</time>
      </trkpt>
      <trkpt lat="50.53634" lon="1.61833">
        <ele>4.46</ele>
        <time>2024-05-15T10:08:59Z</time>
      </trkpt>
      <trkpt lat="50.53636" lon="1.61834">
        <ele>4.94</ele>
        <time>2024-05-15T10:09:01Z</time>
      </trkpt>
      <trkpt lat="50.5364" lon="1.61834">
        <ele>4.94</ele>
        <time>2024-05-15T10:09:15Z</time>
      </trkpt>
      <trkpt lat="50.53648" lon="1.61831">
        <ele>5.42</ele>
        <time>2024-05-15T10:09:21Z</time>
      </trkpt>
      <trkpt lat="50.53674" lon="1.61834">
        <ele>4.94</ele>
        <time>2024-05-15T10:09:37Z</time>
      </trkpt>
      <trkpt lat="50.53688" lon="1.61832">
        <ele>5.42</ele>
        <time>2024-05-15T10:09:51Z</time>
      </trkpt>
      <trkpt lat="50.5369" lon="1.6183">
        <ele>4.94</ele>
        <time>2024-05-15T10:10:13Z</time>
      </trkpt>
      <trkpt lat="50.53691" lon="1.6183">
        <ele>5.42</ele>
        <time>2024-05-15T10:10:16Z</time>
      </trkpt>
      <trkpt lat="50.53694" lon="1.61824">
        <ele>4.94</ele>
        <time>2024-05-15T10:10:21Z</time>
      </trkpt>
      <trkpt lat="50.53696" lon="1.61822">
        <ele>5.42</ele>
        <time>2024-05-15T10:10:25Z</time>
      </trkpt>
      <trkpt lat="50.53724" lon="1.61797">
        <ele>4.94</ele>
        <time>2024-05-15T10:10:40Z</time>
      </trkpt>
      <trkpt lat="50.53727" lon="1.61793">
        <ele>5.42</ele>
        <time>2024-05-15T10:10:44Z</time>
      </trkpt>
      <trkpt lat="50.53734" lon="1.61791">
        <ele>4.94</ele>
        <time>2024-05-15T10:10:54Z</time>
      </trkpt>
      <trkpt lat="50.53753" lon="1.61783">
        <ele>5.42</ele>
        <time>2024-05-15T10:11:05Z</time>
      </trkpt>
      <trkpt lat="50.53769" lon="1.61776">
        <ele>5.91</ele>
        <time>2024-05-15T10:11:17Z</time>
      </trkpt>
      <trkpt lat="50.53783" lon="1.61767">
        <ele>5.42</ele>
        <time>2024-05-15T10:11:28Z</time>
      </trkpt>
      <trkpt lat="50.53794" lon="1.61756">
        <ele>5.91</ele>
        <time>2024-05-15T10:11:44Z</time>
      </trkpt>
      <trkpt lat="50.53797" lon="1.61752">
        <ele>5.42</ele>
        <time>2024-05-15T10:11:48Z</time>
      </trkpt>
      <trkpt lat="50.53838" lon="1.61736">
        <ele>4.94</ele>
        <time>2024-05-15T10:12:05Z</time>
      </trkpt>
      <trkpt lat="50.5384" lon="1.61736">
        <ele>4.46</ele>
        <time>2024-05-15T10:12:06Z</time>
      </trkpt>
      <trkpt lat="50.53851" lon="1.61735">
        <ele>4.94</ele>
        <time>2024-05-15T10:12:15Z</time>
      </trkpt>
      <trkpt lat="50.53853" lon="1.61735">
        <ele>4.94</ele>
        <time>2024-05-15T10:12:19Z</time>
      </trkpt>
      <trkpt lat="50.53857" lon="1.61736">
        <ele>5.91</ele>
        <time>2024-05-15T10:12:23Z</time>
      </trkpt>
      <trkpt lat="50.53861" lon="1.61738">
        <ele>5.42</ele>
        <time>2024-05-15T10:12:26Z</time>
      </trkpt>
      <trkpt lat="50.53864" lon="1.6174">
        <ele>5.91</ele>
        <time>2024-05-15T10:12:28Z</time>
      </trkpt>
      <trkpt lat="50.53878" lon="1.61751">
        <ele>4.94</ele>
        <time>2024-05-15T10:12:38Z</time>
      </trkpt>
      <trkpt lat="50.5388" lon="1.61753">
        <ele>5.42</ele>
        <time>2024-05-15T10:12:41Z</time>
      </trkpt>
      <trkpt lat="50.53885" lon="1.61753">
        <ele>5.91</ele>
        <time>2024-05-15T10:12:44Z</time>
      </trkpt>
      <trkpt lat="50.53888" lon="1.61753">
        <ele>5.91</ele>
        <time>2024-05-15T10:12:47Z</time>
      </trkpt>
      <trkpt lat="50.53896" lon="1.61751">
        <ele>6.39</ele>
        <time>2024-05-15T10:12:52Z</time>
      </trkpt>
      <trkpt lat="50.53909" lon="1.61753">
        <ele>5.91</ele>
        <time>2024-05-15T10:12:59Z</time>
      </trkpt>
      <trkpt lat="50.53914" lon="1.61754">
        <ele>5.91</ele>
        <time>2024-05-15T10:13:09Z</time>
      </trkpt>
      <trkpt lat="50.53918" lon="1.61757">
        <ele>4.94</ele>
        <time>2024-05-15T10:13:12Z</time>
      </trkpt>
      <trkpt lat="50.53923" lon="1.61757">
        <ele>5.91</ele>
        <time>2024-05-15T10:13:15Z</time>
      </trkpt>
      <trkpt lat="50.53943" lon="1.61754">
        <ele>5.91</ele>
        <time>2024-05-15T10:13:30Z</time>
      </trkpt>
      <trkpt lat="50.53952" lon="1.61754">
        <ele>5.91</ele>
        <time>2024-05-15T10:13:34Z</time>
      </trkpt>
      <trkpt lat="50.53962" lon="1.61754">
        <ele>6.39</ele>
        <time>2024-05-15T10:13:40Z</time>
      </trkpt>
      <trkpt lat="50.53964" lon="1.61754">
        <ele>5.42</ele>
        <time>2024-05-15T10:13:42Z</time>
      </trkpt>
      <trkpt lat="50.53967" lon="1.61755">
        <ele>5.91</ele>
        <time>2024-05-15T10:13:47Z</time>
      </trkpt>
      <trkpt lat="50.5397" lon="1.61753">
        <ele>5.91</ele>
        <time>2024-05-15T10:13:49Z</time>
      </trkpt>
      <trkpt lat="50.53971" lon="1.61753">
        <ele>5.42</ele>
        <time>2024-05-15T10:13:51Z</time>
      </trkpt>
      <trkpt lat="50.53976" lon="1.61751">
        <ele>5.91</ele>
        <time>2024-05-15T10:13:55Z</time>
      </trkpt>
      <trkpt lat="50.5399" lon="1.61748">
        <ele>5.91</ele>
        <time>2024-05-15T10:14:03Z</time>
      </trkpt>
      <trkpt lat="50.53997" lon="1.6175">
        <ele>5.42</ele>
        <time>2024-05-15T10:14:09Z</time>
      </trkpt>
      <trkpt lat="50.53999" lon="1.61752">
        <ele>5.42</ele>
        <time>2024-05-15T10:14:12Z</time>
      </trkpt>
      <trkpt lat="50.54004" lon="1.61752">
        <ele>5.42</ele>
        <time>2024-05-15T10:14:25Z</time>
      </trkpt>
      <trkpt lat="50.5401" lon="1.61752">
        <ele>5.42</ele>
        <time>2024-05-15T10:14:35Z</time>
      </trkpt>
      <trkpt lat="50.54013" lon="1.61751">
        <ele>5.42</ele>
        <time>2024-05-15T10:14:37Z</time>
      </trkpt>
      <trkpt lat="50.54017" lon="1.6175">
        <ele>5.91</ele>
        <time>2024-05-15T10:14:54Z</time>
      </trkpt>
      <trkpt lat="50.54019" lon="1.61747">
        <ele>5.42</ele>
        <time>2024-05-15T10:15:13Z</time>
      </trkpt>
      <trkpt lat="50.54022" lon="1.61745">
        <ele>5.42</ele>
        <time>2024-05-15T10:15:16Z</time>
      </trkpt>
      <trkpt lat="50.54033" lon="1.61731">
        <ele>5.42</ele>
        <time>2024-05-15T10:15:30Z</time>
      </trkpt>
      <trkpt lat="50.54041" lon="1.61731">
        <ele>5.42</ele>
        <time>2024-05-15T10:15:37Z</time>
      </trkpt>
      <trkpt lat="50.5405" lon="1.61733">
        <ele>5.91</ele>
        <time>2024-05-15T10:15:42Z</time>
      </trkpt>
      <trkpt lat="50.54051" lon="1.61734">
        <ele>5.42</ele>
        <time>2024-05-15T10:16:09Z</time>
      </trkpt>
      <trkpt lat="50.54051" lon="1.61734">
        <ele>6.39</ele>
        <time>2024-05-15T10:16:28Z</time>
      </trkpt>
      <trkpt lat="50.54051" lon="1.61735">
        <ele>6.39</ele>
        <time>2024-05-15T10:16:33Z</time>
      </trkpt>
      <trkpt lat="50.54053" lon="1.61751">
        <ele>6.39</ele>
        <time>2024-05-15T10:16:49Z</time>
      </trkpt>
      <trkpt lat="50.54054" lon="1.61754">
        <ele>6.39</ele>
        <time>2024-05-15T10:16:52Z</time>
      </trkpt>
      <trkpt lat="50.54054" lon="1.61757">
        <ele>6.87</ele>
        <time>2024-05-15T10:16:54Z</time>
      </trkpt>
      <trkpt lat="50.54057" lon="1.61769">
        <ele>7.35</ele>
        <time>2024-05-15T10:17:10Z</time>
      </trkpt>
      <trkpt lat="50.54057" lon="1.6177">
        <ele>7.35</ele>
        <time>2024-05-15T10:17:11Z</time>
      </trkpt>
      <trkpt lat="50.54059" lon="1.61777">
        <ele>7.83</ele>
        <time>2024-05-15T10:17:20Z</time>
      </trkpt>
      <trkpt lat="50.54061" lon="1.61787">
        <ele>14.56</ele>
        <time>2024-05-15T10:17:28Z</time>
      </trkpt>
      <trkpt lat="50.54063" lon="1.61798">
        <ele>8.31</ele>
        <time>2024-05-15T10:17:35Z</time>
      </trkpt>
      <trkpt lat="50.54065" lon="1.61806">
        <ele>9.27</ele>
        <time>2024-05-15T10:17:39Z</time>
      </trkpt>
      <trkpt lat="50.54068" lon="1.61815">
        <ele>9.27</ele>
        <time>2024-05-15T10:17:44Z</time>
      </trkpt>
      <trkpt lat="50.54074" lon="1.61828">
        <ele>9.27</ele>
        <time>2024-05-15T10:17:51Z</time>
      </trkpt>
      <trkpt lat="50.54075" lon="1.61846">
        <ele>10.71</ele>
        <time>2024-05-15T10:18:05Z</time>
      </trkpt>
      <trkpt lat="50.54076" lon="1.61857">
        <ele>11.19</ele>
        <time>2024-05-15T10:18:12Z</time>
      </trkpt>
      <trkpt lat="50.54079" lon="1.61865">
        <ele>11.67</ele>
        <time>2024-05-15T10:18:18Z</time>
      </trkpt>
      <trkpt lat="50.54088" lon="1.6189">
        <ele>12.15</ele>
        <time>2024-05-15T10:18:33Z</time>
      </trkpt>
      <trkpt lat="50.54091" lon="1.61902">
        <ele>12.63</ele>
        <time>2024-05-15T10:18:40Z</time>
      </trkpt>
      <trkpt lat="50.54091" lon="1.61907">
        <ele>12.63</ele>
        <time>2024-05-15T10:18:43Z</time>
      </trkpt>
      <trkpt lat="50.54097" lon="1.61935">
        <ele>13.6</ele>
        <time>2024-05-15T10:18:59Z</time>
      </trkpt>
      <trkpt lat="50.54101" lon="1.61954">
        <ele>14.56</ele>
        <time>2024-05-15T10:19:10Z</time>
      </trkpt>
      <trkpt lat="50.54102" lon="1.61958">
        <ele>14.56</ele>
        <time>2024-05-15T10:19:13Z</time>
      </trkpt>
      <trkpt lat="50.54108" lon="1.61989">
        <ele>15.52</ele>
        <time>2024-05-15T10:19:29Z</time>
      </trkpt>
      <trkpt lat="50.5411" lon="1.62011">
        <ele>16.48</ele>
        <time>2024-05-15T10:19:42Z</time>
      </trkpt>
      <trkpt lat="50.54112" lon="1.62034">
        <ele>17.44</ele>
        <time>2024-05-15T10:19:55Z</time>
      </trkpt>
      <trkpt lat="50.54114" lon="1.62046">
        <ele>17.92</ele>
        <time>2024-05-15T10:20:03Z</time>
      </trkpt>
      <trkpt lat="50.54114" lon="1.62049">
        <ele>18.4</ele>
        <time>2024-05-15T10:20:05Z</time>
      </trkpt>
      <trkpt lat="50.54117" lon="1.62071">
        <ele>19.36</ele>
        <time>2024-05-15T10:20:17Z</time>
      </trkpt>
      <trkpt lat="50.5412" lon="1.62097">
        <ele>19.84</ele>
        <time>2024-05-15T10:20:33Z</time>
      </trkpt>
      <trkpt lat="50.54125" lon="1.62121">
        <ele>21.29</ele>
        <time>2024-05-15T10:20:46Z</time>
      </trkpt>
      <trkpt lat="50.54126" lon="1.62126">
        <ele>21.77</ele>
        <time>2024-05-15T10:20:49Z</time>
      </trkpt>
      <trkpt lat="50.54126" lon="1.62131">
        <ele>21.77</ele>
        <time>2024-05-15T10:20:52Z</time>
      </trkpt>
      <trkpt lat="50.54126" lon="1.62138">
        <ele>22.73</ele>
        <time>2024-05-15T10:20:56Z</time>
      </trkpt>
      <trkpt lat="50.54127" lon="1.62152">
        <ele>23.21</ele>
        <time>2024-05-15T10:21:04Z</time>
      </trkpt>
      <trkpt lat="50.54126" lon="1.62159">
        <ele>22.73</ele>
        <time>2024-05-15T10:21:07Z</time>
      </trkpt>
      <trkpt lat="50.54126" lon="1.62177">
        <ele>24.17</ele>
        <time>2024-05-15T10:21:16Z</time>
      </trkpt>
      <trkpt lat="50.54128" lon="1.62183">
        <ele>24.65</ele>
        <time>2024-05-15T10:21:19Z</time>
      </trkpt>
      <trkpt lat="50.54126" lon="1.62196">
        <ele>25.61</ele>
        <time>2024-05-15T10:21:27Z</time>
      </trkpt>
      <trkpt lat="50.54135" lon="1.6221">
        <ele>26.57</ele>
        <time>2024-05-15T10:21:42Z</time>
      </trkpt>
      <trkpt lat="50.5414" lon="1.62206">
        <ele>26.57</ele>
        <time>2024-05-15T10:21:48Z</time>
      </trkpt>
      <trkpt lat="50.54146" lon="1.62202">
        <ele>27.05</ele>
        <time>2024-05-15T10:21:54Z</time>
      </trkpt>
      <trkpt lat="50.54159" lon="1.62199">
        <ele>27.53</ele>
        <time>2024-05-15T10:22:07Z</time>
      </trkpt>
      <trkpt lat="50.54171" lon="1.62215">
        <ele>27.53</ele>
        <time>2024-05-15T10:22:21Z</time>
      </trkpt>
      <trkpt lat="50.54172" lon="1.62216">
        <ele>28.5</ele>
        <time>2024-05-15T10:22:28Z</time>
      </trkpt>
      <trkpt lat="50.54173" lon="1.62221">
        <ele>28.98</ele>
        <time>2024-05-15T10:22:32Z</time>
      </trkpt>
      <trkpt lat="50.54179" lon="1.62235">
        <ele>30.42</ele>
        <time>2024-05-15T10:22:44Z</time>
      </trkpt>
      <trkpt lat="50.54193" lon="1.62244">
        <ele>31.86</ele>
        <time>2024-05-15T10:22:59Z</time>
      </trkpt>
      <trkpt lat="50.54201" lon="1.62268">
        <ele>32.82</ele>
        <time>2024-05-15T10:23:15Z</time>
      </trkpt>
      <trkpt lat="50.54207" lon="1.62281">
        <ele>36.19</ele>
        <time>2024-05-15T10:23:32Z</time>
      </trkpt>
      <trkpt lat="50.54208" lon="1.62283">
        <ele>40.51</ele>
        <time>2024-05-15T10:23:33Z</time>
      </trkpt>
      <trkpt lat="50.54208" lon="1.62284">
        <ele>36.19</ele>
        <time>2024-05-15T10:23:34Z</time>
      </trkpt>
      <trkpt lat="50.54214" lon="1.62301">
        <ele>37.15</ele>
        <time>2024-05-15T10:23:46Z</time>
      </trkpt>
      <trkpt lat="50.54215" lon="1.62309">
        <ele>37.15</ele>
        <time>2024-05-15T10:23:52Z</time>
      </trkpt>
      <trkpt lat="50.54217" lon="1.6232">
        <ele>38.11</ele>
        <time>2024-05-15T10:23:58Z</time>
      </trkpt>
      <trkpt lat="50.54224" lon="1.6233">
        <ele>40.99</ele>
        <time>2024-05-15T10:24:11Z</time>
      </trkpt>
      <trkpt lat="50.54227" lon="1.62341">
        <ele>42.44</ele>
        <time>2024-05-15T10:24:20Z</time>
      </trkpt>
      <trkpt lat="50.54229" lon="1.62351">
        <ele>43.4</ele>
        <time>2024-05-15T10:24:28Z</time>
      </trkpt>
      <trkpt lat="50.54236" lon="1.62366">
        <ele>44.36</ele>
        <time>2024-05-15T10:24:44Z</time>
      </trkpt>
      <trkpt lat="50.5424" lon="1.62378">
        <ele>46.28</ele>
        <time>2024-05-15T10:24:54Z</time>
      </trkpt>
      <trkpt lat="50.54243" lon="1.62385">
        <ele>47.24</ele>
        <time>2024-05-15T10:24:59Z</time>
      </trkpt>
      <trkpt lat="50.54244" lon="1.62394">
        <ele>48.68</ele>
        <time>2024-05-15T10:25:07Z</time>
      </trkpt>
      <trkpt lat="50.54243" lon="1.62402">
        <ele>52.53</ele>
        <time>2024-05-15T10:25:22Z</time>
      </trkpt>
      <trkpt lat="50.54245" lon="1.62411">
        <ele>53.01</ele>
        <time>2024-05-15T10:25:27Z</time>
      </trkpt>
      <trkpt lat="50.54246" lon="1.62415">
        <ele>53.01</ele>
        <time>2024-05-15T10:25:30Z</time>
      </trkpt>
      <trkpt lat="50.54247" lon="1.6242">
        <ele>54.45</ele>
        <time>2024-05-15T10:25:44Z</time>
      </trkpt>
      <trkpt lat="50.5425" lon="1.62426">
        <ele>55.89</ele>
        <time>2024-05-15T10:25:51Z</time>
      </trkpt>
      <trkpt lat="50.54255" lon="1.62436">
        <ele>56.37</ele>
        <time>2024-05-15T10:25:56Z</time>
      </trkpt>
      <trkpt lat="50.5427" lon="1.62453">
        <ele>58.78</ele>
        <time>2024-05-15T10:26:13Z</time>
      </trkpt>
      <trkpt lat="50.54283" lon="1.62459">
        <ele>59.26</ele>
        <time>2024-05-15T10:26:29Z</time>
      </trkpt>
      <trkpt lat="50.54288" lon="1.62457">
        <ele>59.26</ele>
        <time>2024-05-15T10:26:35Z</time>
      </trkpt>
      <trkpt lat="50.54291" lon="1.62452">
        <ele>59.26</ele>
        <time>2024-05-15T10:26:38Z</time>
      </trkpt>
      <trkpt lat="50.54292" lon="1.62451">
        <ele>59.26</ele>
        <time>2024-05-15T10:26:40Z</time>
      </trkpt>
      <trkpt lat="50.543" lon="1.62449">
        <ele>58.3</ele>
        <time>2024-05-15T10:26:47Z</time>
      </trkpt>
      <trkpt lat="50.54302" lon="1.62447">
        <ele>58.3</ele>
        <time>2024-05-15T10:26:49Z</time>
      </trkpt>
      <trkpt lat="50.54306" lon="1.62441">
        <ele>57.34</ele>
        <time>2024-05-15T10:26:58Z</time>
      </trkpt>
      <trkpt lat="50.54317" lon="1.6243">
        <ele>55.41</ele>
        <time>2024-05-15T10:27:07Z</time>
      </trkpt>
      <trkpt lat="50.54319" lon="1.62426">
        <ele>55.41</ele>
        <time>2024-05-15T10:27:10Z</time>
      </trkpt>
      <trkpt lat="50.54335" lon="1.62419">
        <ele>54.45</ele>
        <time>2024-05-15T10:27:25Z</time>
      </trkpt>
      <trkpt lat="50.54339" lon="1.62417">
        <ele>54.45</ele>
        <time>2024-05-15T10:27:28Z</time>
      </trkpt>
      <trkpt lat="50.54341" lon="1.62417">
        <ele>54.93</ele>
        <time>2024-05-15T10:27:30Z</time>
      </trkpt>
      <trkpt lat="50.5436" lon="1.62411">
        <ele>54.45</ele>
        <time>2024-05-15T10:27:46Z</time>
      </trkpt>
      <trkpt lat="50.54372" lon="1.62407">
        <ele>53.97</ele>
        <time>2024-05-15T10:27:56Z</time>
      </trkpt>
      <trkpt lat="50.54375" lon="1.62406">
        <ele>53.97</ele>
        <time>2024-05-15T10:28:01Z</time>
      </trkpt>
      <trkpt lat="50.54382" lon="1.62405">
        <ele>53.97</ele>
        <time>2024-05-15T10:28:14Z</time>
      </trkpt>
      <trkpt lat="50.54382" lon="1.62405">
        <ele>53.97</ele>
        <time>2024-05-15T10:28:15Z</time>
      </trkpt>
      <trkpt lat="50.54387" lon="1.62405">
        <ele>54.45</ele>
        <time>2024-05-15T10:28:19Z</time>
      </trkpt>
      <trkpt lat="50.54403" lon="1.62406">
        <ele>54.45</ele>
        <time>2024-05-15T10:28:34Z</time>
      </trkpt>
      <trkpt lat="50.54414" lon="1.62404">
        <ele>54.93</ele>
        <time>2024-05-15T10:28:43Z</time>
      </trkpt>
      <trkpt lat="50.54421" lon="1.624">
        <ele>54.93</ele>
        <time>2024-05-15T10:28:47Z</time>
      </trkpt>
      <trkpt lat="50.54429" lon="1.62395">
        <ele>60.7</ele>
        <time>2024-05-15T10:28:50Z</time>
      </trkpt>
      <trkpt lat="50.54432" lon="1.62395">
        <ele>49.65</ele>
        <time>2024-05-15T10:28:51Z</time>
      </trkpt>
      <trkpt lat="50.54443" lon="1.62394">
        <ele>50.13</ele>
        <time>2024-05-15T10:28:57Z</time>
      </trkpt>
      <trkpt lat="50.54443" lon="1.62394">
        <ele>51.09</ele>
        <time>2024-05-15T10:28:58Z</time>
      </trkpt>
      <trkpt lat="50.54445" lon="1.62395">
        <ele>55.89</ele>
        <time>2024-05-15T10:28:59Z</time>
      </trkpt>
      <trkpt lat="50.54446" lon="1.62395">
        <ele>59.26</ele>
        <time>2024-05-15T10:29:01Z</time>
      </trkpt>
      <trkpt lat="50.54448" lon="1.62395">
        <ele>55.41</ele>
        <time>2024-05-15T10:29:02Z</time>
      </trkpt>
      <trkpt lat="50.54457" lon="1.62393">
        <ele>55.89</ele>
        <time>2024-05-15T10:29:15Z</time>
      </trkpt>
      <trkpt lat="50.54459" lon="1.62393">
        <ele>56.37</ele>
        <time>2024-05-15T10:29:17Z</time>
      </trkpt>
      <trkpt lat="50.5447" lon="1.62391">
        <ele>57.34</ele>
        <time>2024-05-15T10:29:25Z</time>
      </trkpt>
      <trkpt lat="50.54475" lon="1.62392">
        <ele>57.82</ele>
        <time>2024-05-15T10:29:32Z</time>
      </trkpt>
      <trkpt lat="50.5448" lon="1.62392">
        <ele>58.3</ele>
        <time>2024-05-15T10:29:44Z</time>
      </trkpt>
      <trkpt lat="50.54483" lon="1.62392">
        <ele>58.3</ele>
        <time>2024-05-15T10:29:49Z</time>
      </trkpt>
      <trkpt lat="50.54491" lon="1.62385">
        <ele>59.26</ele>
        <time>2024-05-15T10:29:59Z</time>
      </trkpt>
      <trkpt lat="50.54493" lon="1.62383">
        <ele>59.26</ele>
        <time>2024-05-15T10:30:18Z</time>
      </trkpt>
      <trkpt lat="50.54495" lon="1.62383">
        <ele>59.74</ele>
        <time>2024-05-15T10:30:36Z</time>
      </trkpt>
      <trkpt lat="50.54495" lon="1.62383">
        <ele>59.74</ele>
        <time>2024-05-15T10:30:46Z</time>
      </trkpt>
      <trkpt lat="50.54499" lon="1.62386">
        <ele>59.74</ele>
        <time>2024-05-15T10:31:02Z</time>
      </trkpt>
      <trkpt lat="50.54499" lon="1.62385">
        <ele>59.74</ele>
        <time>2024-05-15T10:31:03Z</time>
      </trkpt>
      <trkpt lat="50.54502" lon="1.62384">
        <ele>60.22</ele>
        <time>2024-05-15T10:31:06Z</time>
      </trkpt>
      <trkpt lat="50.54509" lon="1.62386">
        <ele>59.74</ele>
        <time>2024-05-15T10:31:16Z</time>
      </trkpt>
      <trkpt lat="50.54511" lon="1.62387">
        <ele>60.22</ele>
        <time>2024-05-15T10:31:23Z</time>
      </trkpt>
      <trkpt lat="50.54518" lon="1.6239">
        <ele>60.7</ele>
        <time>2024-05-15T10:31:27Z</time>
      </trkpt>
      <trkpt lat="50.54524" lon="1.62395">
        <ele>61.18</ele>
        <time>2024-05-15T10:31:31Z</time>
      </trkpt>
      <trkpt lat="50.5453" lon="1.62401">
        <ele>61.18</ele>
        <time>2024-05-15T10:31:37Z</time>
      </trkpt>
      <trkpt lat="50.54543" lon="1.62415">
        <ele>62.14</ele>
        <time>2024-05-15T10:31:49Z</time>
      </trkpt>
      <trkpt lat="50.54553" lon="1.62426">
        <ele>63.1</ele>
        <time>2024-05-15T10:32:05Z</time>
      </trkpt>
      <trkpt lat="50.54553" lon="1.62426">
        <ele>63.1</ele>
        <time>2024-05-15T10:32:09Z</time>
      </trkpt>
      <trkpt lat="50.54561" lon="1.62428">
        <ele>64.55</ele>
        <time>2024-05-15T10:32:19Z</time>
      </trkpt>
      <trkpt lat="50.54567" lon="1.62427">
        <ele>64.07</ele>
        <time>2024-05-15T10:32:25Z</time>
      </trkpt>
      <trkpt lat="50.54581" lon="1.62419">
        <ele>62.14</ele>
        <time>2024-05-15T10:32:41Z</time>
      </trkpt>
      <trkpt lat="50.54586" lon="1.62421">
        <ele>60.7</ele>
        <time>2024-05-15T10:32:46Z</time>
      </trkpt>
      <trkpt lat="50.54594" lon="1.62407">
        <ele>61.18</ele>
        <time>2024-05-15T10:32:56Z</time>
      </trkpt>
      <trkpt lat="50.54599" lon="1.62399">
        <ele>60.7</ele>
        <time>2024-05-15T10:33:02Z</time>
      </trkpt>
      <trkpt lat="50.546" lon="1.62396">
        <ele>60.22</ele>
        <time>2024-05-15T10:33:04Z</time>
      </trkpt>
      <trkpt lat="50.54602" lon="1.62391">
        <ele>60.22</ele>
        <time>2024-05-15T10:33:08Z</time>
      </trkpt>
      <trkpt lat="50.54605" lon="1.62387">
        <ele>59.26</ele>
        <time>2024-05-15T10:33:13Z</time>
      </trkpt>
      <trkpt lat="50.54608" lon="1.62381">
        <ele>59.26</ele>
        <time>2024-05-15T10:33:16Z</time>
      </trkpt>
      <trkpt lat="50.54615" lon="1.62358">
        <ele>58.3</ele>
        <time>2024-05-15T10:33:27Z</time>
      </trkpt>
      <trkpt lat="50.54615" lon="1.62355">
        <ele>57.82</ele>
        <time>2024-05-15T10:33:29Z</time>
      </trkpt>
      <trkpt lat="50.54614" lon="1.62343">
        <ele>57.82</ele>
        <time>2024-05-15T10:33:35Z</time>
      </trkpt>
      <trkpt lat="50.54602" lon="1.62328">
        <ele>56.86</ele>
        <time>2024-05-15T10:33:50Z</time>
      </trkpt>
      <trkpt lat="50.54596" lon="1.62315">
        <ele>53.01</ele>
        <time>2024-05-15T10:34:05Z</time>
      </trkpt>
      <trkpt lat="50.54602" lon="1.62305">
        <ele>49.65</ele>
        <time>2024-05-15T10:34:17Z</time>
      </trkpt>
      <trkpt lat="50.54604" lon="1.62302">
        <ele>49.65</ele>
        <time>2024-05-15T10:34:20Z</time>
      </trkpt>
      <trkpt lat="50.54609" lon="1.62296">
        <ele>49.16</ele>
        <time>2024-05-15T10:34:24Z</time>
      </trkpt>
      <trkpt lat="50.54612" lon="1.62292">
        <ele>48.2</ele>
        <time>2024-05-15T10:34:31Z</time>
      </trkpt>
      <trkpt lat="50.54615" lon="1.62288">
        <ele>47.72</ele>
        <time>2024-05-15T10:34:34Z</time>
      </trkpt>
      <trkpt lat="50.5462" lon="1.62282">
        <ele>46.76</ele>
        <time>2024-05-15T10:34:40Z</time>
      </trkpt>
      <trkpt lat="50.54623" lon="1.62277">
        <ele>46.28</ele>
        <time>2024-05-15T10:34:43Z</time>
      </trkpt>
      <trkpt lat="50.5463" lon="1.62269">
        <ele>44.84</ele>
        <time>2024-05-15T10:34:49Z</time>
      </trkpt>
      <trkpt lat="50.54633" lon="1.62267">
        <ele>44.84</ele>
        <time>2024-05-15T10:34:52Z</time>
      </trkpt>
      <trkpt lat="50.54645" lon="1.62254">
        <ele>42.44</ele>
        <time>2024-05-15T10:35:04Z</time>
      </trkpt>
      <trkpt lat="50.54649" lon="1.6225">
        <ele>41.95</ele>
        <time>2024-05-15T10:35:07Z</time>
      </trkpt>
      <trkpt lat="50.54656" lon="1.62244">
        <ele>41.47</ele>
        <time>2024-05-15T10:35:13Z</time>
      </trkpt>
      <trkpt lat="50.54662" lon="1.62244">
        <ele>41.47</ele>
        <time>2024-05-15T10:35:18Z</time>
      </trkpt>
      <trkpt lat="50.5467" lon="1.62243">
        <ele>40.99</ele>
        <time>2024-05-15T10:35:25Z</time>
      </trkpt>
      <trkpt lat="50.54679" lon="1.62239">
        <ele>40.03</ele>
        <time>2024-05-15T10:35:36Z</time>
      </trkpt>
      <trkpt lat="50.54701" lon="1.62236">
        <ele>40.03</ele>
        <time>2024-05-15T10:35:55Z</time>
      </trkpt>
      <trkpt lat="50.54701" lon="1.62236">
        <ele>40.03</ele>
        <time>2024-05-15T10:35:56Z</time>
      </trkpt>
      <trkpt lat="50.54707" lon="1.62234">
        <ele>39.55</ele>
        <time>2024-05-15T10:36:02Z</time>
      </trkpt>
      <trkpt lat="50.54717" lon="1.6223">
        <ele>38.59</ele>
        <time>2024-05-15T10:36:08Z</time>
      </trkpt>
      <trkpt lat="50.54725" lon="1.62227">
        <ele>38.11</ele>
        <time>2024-05-15T10:36:14Z</time>
      </trkpt>
      <trkpt lat="50.54744" lon="1.62229">
        <ele>37.63</ele>
        <time>2024-05-15T10:36:30Z</time>
      </trkpt>
      <trkpt lat="50.54762" lon="1.62233">
        <ele>38.59</ele>
        <time>2024-05-15T10:36:48Z</time>
      </trkpt>
      <trkpt lat="50.54765" lon="1.62234">
        <ele>39.07</ele>
        <time>2024-05-15T10:36:52Z</time>
      </trkpt>
      <trkpt lat="50.54768" lon="1.62235">
        <ele>38.59</ele>
        <time>2024-05-15T10:36:56Z</time>
      </trkpt>
      <trkpt lat="50.54775" lon="1.62238">
        <ele>40.51</ele>
        <time>2024-05-15T10:37:03Z</time>
      </trkpt>
      <trkpt lat="50.54781" lon="1.62243">
        <ele>44.36</ele>
        <time>2024-05-15T10:37:13Z</time>
      </trkpt>
      <trkpt lat="50.54788" lon="1.62243">
        <ele>42.44</ele>
        <time>2024-05-15T10:37:25Z</time>
      </trkpt>
      <trkpt lat="50.54803" lon="1.62255">
        <ele>41.47</ele>
        <time>2024-05-15T10:37:39Z</time>
      </trkpt>
      <trkpt lat="50.54816" lon="1.62266">
        <ele>42.92</ele>
        <time>2024-05-15T10:37:55Z</time>
      </trkpt>
      <trkpt lat="50.54828" lon="1.62279">
        <ele>44.84</ele>
        <time>2024-05-15T10:38:11Z</time>
      </trkpt>
      <trkpt lat="50.54842" lon="1.62297">
        <ele>47.24</ele>
        <time>2024-05-15T10:38:28Z</time>
      </trkpt>
      <trkpt lat="50.54854" lon="1.62309">
        <ele>48.2</ele>
        <time>2024-05-15T10:38:43Z</time>
      </trkpt>
      <trkpt lat="50.54862" lon="1.62318">
        <ele>50.61</ele>
        <time>2024-05-15T10:38:55Z</time>
      </trkpt>
      <trkpt lat="50.54876" lon="1.62332">
        <ele>51.57</ele>
        <time>2024-05-15T10:39:07Z</time>
      </trkpt>
      <trkpt lat="50.54879" lon="1.62333">
        <ele>51.57</ele>
        <time>2024-05-15T10:39:09Z</time>
      </trkpt>
      <trkpt lat="50.54892" lon="1.62337">
        <ele>54.93</ele>
        <time>2024-05-15T10:39:24Z</time>
      </trkpt>
      <trkpt lat="50.54896" lon="1.62338">
        <ele>54.93</ele>
        <time>2024-05-15T10:39:28Z</time>
      </trkpt>
      <trkpt lat="50.549" lon="1.62336">
        <ele>54.93</ele>
        <time>2024-05-15T10:39:32Z</time>
      </trkpt>
      <trkpt lat="50.54905" lon="1.62336">
        <ele>55.41</ele>
        <time>2024-05-15T10:39:38Z</time>
      </trkpt>
      <trkpt lat="50.54907" lon="1.62336">
        <ele>55.89</ele>
        <time>2024-05-15T10:39:40Z</time>
      </trkpt>
      <trkpt lat="50.54927" lon="1.62332">
        <ele>56.86</ele>
        <time>2024-05-15T10:40:00Z</time>
      </trkpt>
      <trkpt lat="50.54945" lon="1.62315">
        <ele>58.78</ele>
        <time>2024-05-15T10:40:19Z</time>
      </trkpt>
      <trkpt lat="50.54947" lon="1.62309">
        <ele>59.26</ele>
        <time>2024-05-15T10:40:24Z</time>
      </trkpt>
      <trkpt lat="50.54948" lon="1.62306">
        <ele>59.74</ele>
        <time>2024-05-15T10:40:26Z</time>
      </trkpt>
      <trkpt lat="50.54952" lon="1.623">
        <ele>59.74</ele>
        <time>2024-05-15T10:40:31Z</time>
      </trkpt>
      <trkpt lat="50.54969" lon="1.62281">
        <ele>61.18</ele>
        <time>2024-05-15T10:40:48Z</time>
      </trkpt>
      <trkpt lat="50.54969" lon="1.62279">
        <ele>61.18</ele>
        <time>2024-05-15T10:40:49Z</time>
      </trkpt>
      <trkpt lat="50.54974" lon="1.62271">
        <ele>61.66</ele>
        <time>2024-05-15T10:40:56Z</time>
      </trkpt>
      <trkpt lat="50.54985" lon="1.62272">
        <ele>61.66</ele>
        <time>2024-05-15T10:41:06Z</time>
      </trkpt>
      <trkpt lat="50.5499" lon="1.62272">
        <ele>61.18</ele>
        <time>2024-05-15T10:41:09Z</time>
      </trkpt>
      <trkpt lat="50.54995" lon="1.6227">
        <ele>61.66</ele>
        <time>2024-05-15T10:41:12Z</time>
      </trkpt>
      <trkpt lat="50.55002" lon="1.62261">
        <ele>62.62</ele>
        <time>2024-05-15T10:41:21Z</time>
      </trkpt>
      <trkpt lat="50.55007" lon="1.62255">
        <ele>61.66</ele>
        <time>2024-05-15T10:41:27Z</time>
      </trkpt>
      <trkpt lat="50.55024" lon="1.62235">
        <ele>63.1</ele>
        <time>2024-05-15T10:41:45Z</time>
      </trkpt>
      <trkpt lat="50.55039" lon="1.62225">
        <ele>64.55</ele>
        <time>2024-05-15T10:42:00Z</time>
      </trkpt>
      <trkpt lat="50.55043" lon="1.62205">
        <ele>65.03</ele>
        <time>2024-05-15T10:42:10Z</time>
      </trkpt>
      <trkpt lat="50.55049" lon="1.62173">
        <ele>64.07</ele>
        <time>2024-05-15T10:42:29Z</time>
      </trkpt>
      <trkpt lat="50.55059" lon="1.62164">
        <ele>65.03</ele>
        <time>2024-05-15T10:42:44Z</time>
      </trkpt>
      <trkpt lat="50.55069" lon="1.62157">
        <ele>67.43</ele>
        <time>2024-05-15T10:43:00Z</time>
      </trkpt>
      <trkpt lat="50.55071" lon="1.62152">
        <ele>67.43</ele>
        <time>2024-05-15T10:43:15Z</time>
      </trkpt>
      <trkpt lat="50.55072" lon="1.62151">
        <ele>67.43</ele>
        <time>2024-05-15T10:43:32Z</time>
      </trkpt>
      <trkpt lat="50.55072" lon="1.6215">
        <ele>73.68</ele>
        <time>2024-05-15T10:43:40Z</time>
      </trkpt>
      <trkpt lat="50.55072" lon="1.6215">
        <ele>68.39</ele>
        <time>2024-05-15T10:43:41Z</time>
      </trkpt>
      <trkpt lat="50.55071" lon="1.6215">
        <ele>67.91</ele>
        <time>2024-05-15T10:43:58Z</time>
      </trkpt>
      <trkpt lat="50.55071" lon="1.6215">
        <ele>67.91</ele>
        <time>2024-05-15T10:44:23Z</time>
      </trkpt>
      <trkpt lat="50.55074" lon="1.62154">
        <ele>67.91</ele>
        <time>2024-05-15T10:44:43Z</time>
      </trkpt>
      <trkpt lat="50.55077" lon="1.62158">
        <ele>68.39</ele>
        <time>2024-05-15T10:44:58Z</time>
      </trkpt>
      <trkpt lat="50.55074" lon="1.62151">
        <ele>67.91</ele>
        <time>2024-05-15T10:45:10Z</time>
      </trkpt>
      <trkpt lat="50.55074" lon="1.62151">
        <ele>67.91</ele>
        <time>2024-05-15T10:45:29Z</time>
      </trkpt>
      <trkpt lat="50.55074" lon="1.6215">
        <ele>68.39</ele>
        <time>2024-05-15T10:45:50Z</time>
      </trkpt>
      <trkpt lat="50.55074" lon="1.6215">
        <ele>68.39</ele>
        <time>2024-05-15T10:46:20Z</time>
      </trkpt>
      <trkpt lat="50.55074" lon="1.6215">
        <ele>68.39</ele>
        <time>2024-05-15T10:46:49Z</time>
      </trkpt>
      <trkpt lat="50.55074" lon="1.6215">
        <ele>68.39</ele>
        <time>2024-05-15T10:47:17Z</time>
      </trkpt>
      <trkpt lat="50.55075" lon="1.62151">
        <ele>68.87</ele>
        <time>2024-05-15T10:47:41Z</time>
      </trkpt>
      <trkpt lat="50.55075" lon="1.62151">
        <ele>68.39</ele>
        <time>2024-05-15T10:48:08Z</time>
      </trkpt>
      <trkpt lat="50.55075" lon="1.62151">
        <ele>68.39</ele>
        <time>2024-05-15T10:48:36Z</time>
      </trkpt>
      <trkpt lat="50.55075" lon="1.62151">
        <ele>68.87</ele>
        <time>2024-05-15T10:49:08Z</time>
      </trkpt>
      <trkpt lat="50.55075" lon="1.62151">
        <ele>68.39</ele>
        <time>2024-05-15T10:49:40Z</time>
      </trkpt>
      <trkpt lat="50.55075" lon="1.62151">
        <ele>68.87</ele>
        <time>2024-05-15T10:50:12Z</time>
      </trkpt>
      <trkpt lat="50.55075" lon="1.62151">
        <ele>69.35</ele>
        <time>2024-05-15T10:50:45Z</time>
      </trkpt>
      <trkpt lat="50.55075" lon="1.62151">
        <ele>69.35</ele>
        <time>2024-05-15T10:51:17Z</time>
      </trkpt>
      <trkpt lat="50.55075" lon="1.62152">
        <ele>69.83</ele>
        <time>2024-05-15T10:51:44Z</time>
      </trkpt>
      <trkpt lat="50.55075" lon="1.62152">
        <ele>69.83</ele>
        <time>2024-05-15T10:52:13Z</time>
      </trkpt>
      <trkpt lat="50.55075" lon="1.62152">
        <ele>69.35</ele>
        <time>2024-05-15T10:52:48Z</time>
      </trkpt>
      <trkpt lat="50.55076" lon="1.62152">
        <ele>69.35</ele>
        <time>2024-05-15T10:53:25Z</time>
      </trkpt>
      <trkpt lat="50.55076" lon="1.62152">
        <ele>69.83</ele>
        <time>2024-05-15T10:53:57Z</time>
      </trkpt>
      <trkpt lat="50.55076" lon="1.62152">
        <ele>69.83</ele>
        <time>2024-05-15T10:54:29Z</time>
      </trkpt>
      <trkpt lat="50.55076" lon="1.62153">
        <ele>69.35</ele>
        <time>2024-05-15T10:55:03Z</time>
      </trkpt>
      <trkpt lat="50.55076" lon="1.62153">
        <ele>69.35</ele>
        <time>2024-05-15T10:55:34Z</time>
      </trkpt>
      <trkpt lat="50.55076" lon="1.62153">
        <ele>69.35</ele>
        <time>2024-05-15T10:56:03Z</time>
      </trkpt>
      <trkpt lat="50.55076" lon="1.62153">
        <ele>70.31</ele>
        <time>2024-05-15T10:56:30Z</time>
      </trkpt>
      <trkpt lat="50.55076" lon="1.62153">
        <ele>69.83</ele>
        <time>2024-05-15T10:56:59Z</time>
      </trkpt>
      <trkpt lat="50.55076" lon="1.62153">
        <ele>70.31</ele>
        <time>2024-05-15T10:57:27Z</time>
      </trkpt>
      <trkpt lat="50.55076" lon="1.62154">
        <ele>70.31</ele>
        <time>2024-05-15T10:58:02Z</time>
      </trkpt>
      <trkpt lat="50.55076" lon="1.62154">
        <ele>70.31</ele>
        <time>2024-05-15T10:58:40Z</time>
      </trkpt>
      <trkpt lat="50.55076" lon="1.62155">
        <ele>70.79</ele>
        <time>2024-05-15T10:59:16Z</time>
      </trkpt>
      <trkpt lat="50.55076" lon="1.62155">
        <ele>70.79</ele>
        <time>2024-05-15T10:59:47Z</time>
      </trkpt>
      <trkpt lat="50.55076" lon="1.62155">
        <ele>70.31</ele>
        <time>2024-05-15T11:00:22Z</time>
      </trkpt>
      <trkpt lat="50.55076" lon="1.62155">
        <ele>70.79</ele>
        <time>2024-05-15T11:00:57Z</time>
      </trkpt>
      <trkpt lat="50.55076" lon="1.62154">
        <ele>70.79</ele>
        <time>2024-05-15T11:01:25Z</time>
      </trkpt>
      <trkpt lat="50.55076" lon="1.62154">
        <ele>71.27</ele>
        <time>2024-05-15T11:01:54Z</time>
      </trkpt>
      <trkpt lat="50.55075" lon="1.62154">
        <ele>71.27</ele>
        <time>2024-05-15T11:02:22Z</time>
      </trkpt>
      <trkpt lat="50.55075" lon="1.62154">
        <ele>70.79</ele>
        <time>2024-05-15T11:02:50Z</time>
      </trkpt>
      <trkpt lat="50.55075" lon="1.62154">
        <ele>71.27</ele>
        <time>2024-05-15T11:03:22Z</time>
      </trkpt>
      <trkpt lat="50.55075" lon="1.62154">
        <ele>71.27</ele>
        <time>2024-05-15T11:03:52Z</time>
      </trkpt>
      <trkpt lat="50.55075" lon="1.62154">
        <ele>71.27</ele>
        <time>2024-05-15T11:04:21Z</time>
      </trkpt>
      <trkpt lat="50.55075" lon="1.62154">
        <ele>71.76</ele>
        <time>2024-05-15T11:04:51Z</time>
      </trkpt>
      <trkpt lat="50.55075" lon="1.62154">
        <ele>71.27</ele>
        <time>2024-05-15T11:05:19Z</time>
      </trkpt>
      <trkpt lat="50.55075" lon="1.62153">
        <ele>71.27</ele>
        <time>2024-05-15T11:05:49Z</time>
      </trkpt>
      <trkpt lat="50.55075" lon="1.62154">
        <ele>72.24</ele>
        <time>2024-05-15T11:06:13Z</time>
      </trkpt>
      <trkpt lat="50.55076" lon="1.62153">
        <ele>72.24</ele>
        <time>2024-05-15T11:06:35Z</time>
      </trkpt>
      <trkpt lat="50.55076" lon="1.62153">
        <ele>72.24</ele>
        <time>2024-05-15T11:06:59Z</time>
      </trkpt>
      <trkpt lat="50.55076" lon="1.62152">
        <ele>72.24</ele>
        <time>2024-05-15T11:07:27Z</time>
      </trkpt>
      <trkpt lat="50.55076" lon="1.62152">
        <ele>72.24</ele>
        <time>2024-05-15T11:07:56Z</time>
      </trkpt>
      <trkpt lat="50.55076" lon="1.62152">
        <ele>72.24</ele>
        <time>2024-05-15T11:08:24Z</time>
      </trkpt>
      <trkpt lat="50.55076" lon="1.62152">
        <ele>72.24</ele>
        <time>2024-05-15T11:08:49Z</time>
      </trkpt>
      <trkpt lat="50.55076" lon="1.62152">
        <ele>73.2</ele>
        <time>2024-05-15T11:09:22Z</time>
      </trkpt>
      <trkpt lat="50.55076" lon="1.62152">
        <ele>72.72</ele>
        <time>2024-05-15T11:09:52Z</time>
      </trkpt>
      <trkpt lat="50.55076" lon="1.62151">
        <ele>72.72</ele>
        <time>2024-05-15T11:10:22Z</time>
      </trkpt>
      <trkpt lat="50.55076" lon="1.62151">
        <ele>73.2</ele>
        <time>2024-05-15T11:10:58Z</time>
      </trkpt>
      <trkpt lat="50.55076" lon="1.62151">
        <ele>72.72</ele>
        <time>2024-05-15T11:11:27Z</time>
      </trkpt>
      <trkpt lat="50.55076" lon="1.62151">
        <ele>72.72</ele>
        <time>2024-05-15T11:11:57Z</time>
      </trkpt>
      <trkpt lat="50.55076" lon="1.62151">
        <ele>72.24</ele>
        <time>2024-05-15T11:12:18Z</time>
      </trkpt>
      <trkpt lat="50.55076" lon="1.62151">
        <ele>72.24</ele>
        <time>2024-05-15T11:12:52Z</time>
      </trkpt>
      <trkpt lat="50.55076" lon="1.62151">
        <ele>72.72</ele>
        <time>2024-05-15T11:13:18Z</time>
      </trkpt>
      <trkpt lat="50.55076" lon="1.62151">
        <ele>72.72</ele>
        <time>2024-05-15T11:13:46Z</time>
      </trkpt>
      <trkpt lat="50.55073" lon="1.62151">
        <ele>72.72</ele>
        <time>2024-05-15T11:14:07Z</time>
      </trkpt>
      <trkpt lat="50.55072" lon="1.6215">
        <ele>73.2</ele>
        <time>2024-05-15T11:14:27Z</time>
      </trkpt>
      <trkpt lat="50.55072" lon="1.6215">
        <ele>73.2</ele>
        <time>2024-05-15T11:14:57Z</time>
      </trkpt>
      <trkpt lat="50.55074" lon="1.62152">
        <ele>73.2</ele>
        <time>2024-05-15T11:15:15Z</time>
      </trkpt>
      <trkpt lat="50.55074" lon="1.62152">
        <ele>69.83</ele>
        <time>2024-05-15T11:15:40Z</time>
      </trkpt>
      <trkpt lat="50.55074" lon="1.62152">
        <ele>73.68</ele>
        <time>2024-05-15T11:15:41Z</time>
      </trkpt>
      <trkpt lat="50.55074" lon="1.62152">
        <ele>72.72</ele>
        <time>2024-05-15T11:16:00Z</time>
      </trkpt>
      <trkpt lat="50.55074" lon="1.62152">
        <ele>73.2</ele>
        <time>2024-05-15T11:16:33Z</time>
      </trkpt>
      <trkpt lat="50.55074" lon="1.62152">
        <ele>73.2</ele>
        <time>2024-05-15T11:16:54Z</time>
      </trkpt>
      <trkpt lat="50.55072" lon="1.6215">
        <ele>73.2</ele>
        <time>2024-05-15T11:17:13Z</time>
      </trkpt>
      <trkpt lat="50.55072" lon="1.6215">
        <ele>72.72</ele>
        <time>2024-05-15T11:17:38Z</time>
      </trkpt>
      <trkpt lat="50.55072" lon="1.6215">
        <ele>73.2</ele>
        <time>2024-05-15T11:17:47Z</time>
      </trkpt>
      <trkpt lat="50.55073" lon="1.62153">
        <ele>73.2</ele>
        <time>2024-05-15T11:17:49Z</time>
      </trkpt>
      <trkpt lat="50.55074" lon="1.62156">
        <ele>73.68</ele>
        <time>2024-05-15T11:17:53Z</time>
      </trkpt>
      <trkpt lat="50.55079" lon="1.62173">
        <ele>73.68</ele>
        <time>2024-05-15T11:18:07Z</time>
      </trkpt>
      <trkpt lat="50.55094" lon="1.62177">
        <ele>72.72</ele>
        <time>2024-05-15T11:18:22Z</time>
      </trkpt>
      <trkpt lat="50.55098" lon="1.62178">
        <ele>71.76</ele>
        <time>2024-05-15T11:18:26Z</time>
      </trkpt>
      <trkpt lat="50.55101" lon="1.6218">
        <ele>72.24</ele>
        <time>2024-05-15T11:18:28Z</time>
      </trkpt>
      <trkpt lat="50.55104" lon="1.62184">
        <ele>71.27</ele>
        <time>2024-05-15T11:18:34Z</time>
      </trkpt>
      <trkpt lat="50.5511" lon="1.6219">
        <ele>70.79</ele>
        <time>2024-05-15T11:18:40Z</time>
      </trkpt>
      <trkpt lat="50.55125" lon="1.622">
        <ele>70.79</ele>
        <time>2024-05-15T11:18:55Z</time>
      </trkpt>
      <trkpt lat="50.55137" lon="1.62189">
        <ele>71.27</ele>
        <time>2024-05-15T11:19:09Z</time>
      </trkpt>
      <trkpt lat="50.55143" lon="1.62172">
        <ele>71.27</ele>
        <time>2024-05-15T11:19:21Z</time>
      </trkpt>
      <trkpt lat="50.55156" lon="1.62165">
        <ele>69.35</ele>
        <time>2024-05-15T11:19:38Z</time>
      </trkpt>
      <trkpt lat="50.55161" lon="1.62164">
        <ele>67.91</ele>
        <time>2024-05-15T11:19:45Z</time>
      </trkpt>
      <trkpt lat="50.5518" lon="1.62163">
        <ele>66.47</ele>
        <time>2024-05-15T11:20:02Z</time>
      </trkpt>
      <trkpt lat="50.55181" lon="1.62163">
        <ele>65.51</ele>
        <time>2024-05-15T11:20:05Z</time>
      </trkpt>
      <trkpt lat="50.55182" lon="1.6216">
        <ele>65.03</ele>
        <time>2024-05-15T11:20:07Z</time>
      </trkpt>
      <trkpt lat="50.55185" lon="1.62156">
        <ele>65.03</ele>
        <time>2024-05-15T11:20:10Z</time>
      </trkpt>
      <trkpt lat="50.5519" lon="1.62149">
        <ele>62.14</ele>
        <time>2024-05-15T11:20:24Z</time>
      </trkpt>
      <trkpt lat="50.5519" lon="1.62148">
        <ele>62.14</ele>
        <time>2024-05-15T11:20:25Z</time>
      </trkpt>
      <trkpt lat="50.5519" lon="1.62143">
        <ele>62.14</ele>
        <time>2024-05-15T11:20:28Z</time>
      </trkpt>
      <trkpt lat="50.55189" lon="1.62133">
        <ele>61.18</ele>
        <time>2024-05-15T11:20:33Z</time>
      </trkpt>
      <trkpt lat="50.55188" lon="1.62129">
        <ele>61.18</ele>
        <time>2024-05-15T11:20:36Z</time>
      </trkpt>
      <trkpt lat="50.5518" lon="1.62102">
        <ele>58.3</ele>
        <time>2024-05-15T11:20:47Z</time>
      </trkpt>
      <trkpt lat="50.55177" lon="1.62098">
        <ele>57.82</ele>
        <time>2024-05-15T11:20:50Z</time>
      </trkpt>
      <trkpt lat="50.55158" lon="1.62085">
        <ele>56.86</ele>
        <time>2024-05-15T11:21:07Z</time>
      </trkpt>
      <trkpt lat="50.55156" lon="1.62075">
        <ele>54.93</ele>
        <time>2024-05-15T11:21:14Z</time>
      </trkpt>
      <trkpt lat="50.55154" lon="1.62066">
        <ele>53.97</ele>
        <time>2024-05-15T11:21:20Z</time>
      </trkpt>
      <trkpt lat="50.55151" lon="1.62057">
        <ele>53.49</ele>
        <time>2024-05-15T11:21:24Z</time>
      </trkpt>
      <trkpt lat="50.55145" lon="1.62036">
        <ele>53.01</ele>
        <time>2024-05-15T11:21:38Z</time>
      </trkpt>
      <trkpt lat="50.55145" lon="1.62036">
        <ele>52.53</ele>
        <time>2024-05-15T11:21:57Z</time>
      </trkpt>
      <trkpt lat="50.5514" lon="1.62025">
        <ele>51.57</ele>
        <time>2024-05-15T11:22:19Z</time>
      </trkpt>
      <trkpt lat="50.55131" lon="1.61999">
        <ele>49.65</ele>
        <time>2024-05-15T11:22:32Z</time>
      </trkpt>
      <trkpt lat="50.55132" lon="1.61984">
        <ele>46.28</ele>
        <time>2024-05-15T11:22:47Z</time>
      </trkpt>
      <trkpt lat="50.55133" lon="1.61982">
        <ele>46.28</ele>
        <time>2024-05-15T11:22:48Z</time>
      </trkpt>
      <trkpt lat="50.55122" lon="1.61965">
        <ele>43.88</ele>
        <time>2024-05-15T11:23:04Z</time>
      </trkpt>
      <trkpt lat="50.55121" lon="1.61951">
        <ele>40.99</ele>
        <time>2024-05-15T11:23:16Z</time>
      </trkpt>
      <trkpt lat="50.55133" lon="1.61947">
        <ele>39.07</ele>
        <time>2024-05-15T11:23:32Z</time>
      </trkpt>
      <trkpt lat="50.55136" lon="1.61948">
        <ele>38.59</ele>
        <time>2024-05-15T11:23:34Z</time>
      </trkpt>
      <trkpt lat="50.5515" lon="1.61937">
        <ele>36.67</ele>
        <time>2024-05-15T11:23:49Z</time>
      </trkpt>
      <trkpt lat="50.5515" lon="1.61935">
        <ele>36.67</ele>
        <time>2024-05-15T11:23:50Z</time>
      </trkpt>
      <trkpt lat="50.55148" lon="1.6192">
        <ele>34.26</ele>
        <time>2024-05-15T11:24:04Z</time>
      </trkpt>
      <trkpt lat="50.55148" lon="1.61919">
        <ele>34.26</ele>
        <time>2024-05-15T11:24:26Z</time>
      </trkpt>
      <trkpt lat="50.55148" lon="1.6192">
        <ele>34.74</ele>
        <time>2024-05-15T11:24:44Z</time>
      </trkpt>
      <trkpt lat="50.55148" lon="1.6192">
        <ele>34.26</ele>
        <time>2024-05-15T11:25:03Z</time>
      </trkpt>
      <trkpt lat="50.55148" lon="1.61918">
        <ele>33.78</ele>
        <time>2024-05-15T11:25:17Z</time>
      </trkpt>
      <trkpt lat="50.55148" lon="1.61911">
        <ele>33.3</ele>
        <time>2024-05-15T11:25:19Z</time>
      </trkpt>
      <trkpt lat="50.55152" lon="1.61903">
        <ele>32.34</ele>
        <time>2024-05-15T11:25:30Z</time>
      </trkpt>
      <trkpt lat="50.55164" lon="1.61912">
        <ele>33.78</ele>
        <time>2024-05-15T11:25:41Z</time>
      </trkpt>
      <trkpt lat="50.55176" lon="1.61919">
        <ele>34.74</ele>
        <time>2024-05-15T11:25:52Z</time>
      </trkpt>
      <trkpt lat="50.55182" lon="1.61921">
        <ele>33.78</ele>
        <time>2024-05-15T11:25:57Z</time>
      </trkpt>
      <trkpt lat="50.55195" lon="1.61914">
        <ele>33.3</ele>
        <time>2024-05-15T11:26:10Z</time>
      </trkpt>
      <trkpt lat="50.55195" lon="1.61905">
        <ele>40.03</ele>
        <time>2024-05-15T11:26:16Z</time>
      </trkpt>
      <trkpt lat="50.55195" lon="1.61904">
        <ele>33.78</ele>
        <time>2024-05-15T11:26:17Z</time>
      </trkpt>
      <trkpt lat="50.55195" lon="1.61902">
        <ele>27.05</ele>
        <time>2024-05-15T11:26:18Z</time>
      </trkpt>
      <trkpt lat="50.55195" lon="1.619">
        <ele>38.11</ele>
        <time>2024-05-15T11:26:19Z</time>
      </trkpt>
      <trkpt lat="50.55195" lon="1.61899">
        <ele>32.34</ele>
        <time>2024-05-15T11:26:20Z</time>
      </trkpt>
      <trkpt lat="50.55195" lon="1.61896">
        <ele>32.82</ele>
        <time>2024-05-15T11:26:22Z</time>
      </trkpt>
      <trkpt lat="50.55195" lon="1.61891">
        <ele>31.86</ele>
        <time>2024-05-15T11:26:35Z</time>
      </trkpt>
      <trkpt lat="50.55194" lon="1.61894">
        <ele>32.34</ele>
        <time>2024-05-15T11:26:48Z</time>
      </trkpt>
      <trkpt lat="50.55205" lon="1.61879">
        <ele>32.34</ele>
        <time>2024-05-15T11:27:01Z</time>
      </trkpt>
      <trkpt lat="50.55209" lon="1.61882">
        <ele>32.82</ele>
        <time>2024-05-15T11:27:05Z</time>
      </trkpt>
      <trkpt lat="50.55211" lon="1.61883">
        <ele>26.09</ele>
        <time>2024-05-15T11:27:07Z</time>
      </trkpt>
      <trkpt lat="50.55212" lon="1.61883">
        <ele>36.19</ele>
        <time>2024-05-15T11:27:08Z</time>
      </trkpt>
      <trkpt lat="50.55214" lon="1.61883">
        <ele>32.82</ele>
        <time>2024-05-15T11:27:09Z</time>
      </trkpt>
      <trkpt lat="50.55215" lon="1.61883">
        <ele>29.46</ele>
        <time>2024-05-15T11:27:10Z</time>
      </trkpt>
      <trkpt lat="50.55216" lon="1.61884">
        <ele>34.74</ele>
        <time>2024-05-15T11:27:11Z</time>
      </trkpt>
      <trkpt lat="50.5522" lon="1.61887">
        <ele>14.08</ele>
        <time>2024-05-15T11:27:14Z</time>
      </trkpt>
      <trkpt lat="50.55221" lon="1.61887">
        <ele>38.11</ele>
        <time>2024-05-15T11:27:15Z</time>
      </trkpt>
      <trkpt lat="50.55222" lon="1.61887">
        <ele>33.3</ele>
        <time>2024-05-15T11:27:16Z</time>
      </trkpt>
      <trkpt lat="50.55224" lon="1.61888">
        <ele>39.07</ele>
        <time>2024-05-15T11:27:18Z</time>
      </trkpt>
      <trkpt lat="50.55225" lon="1.61888">
        <ele>32.82</ele>
        <time>2024-05-15T11:27:19Z</time>
      </trkpt>
      <trkpt lat="50.55229" lon="1.61888">
        <ele>27.05</ele>
        <time>2024-05-15T11:27:22Z</time>
      </trkpt>
      <trkpt lat="50.5523" lon="1.61889">
        <ele>27.53</ele>
        <time>2024-05-15T11:27:23Z</time>
      </trkpt>
      <trkpt lat="50.55231" lon="1.61889">
        <ele>37.15</ele>
        <time>2024-05-15T11:27:24Z</time>
      </trkpt>
      <trkpt lat="50.55233" lon="1.61889">
        <ele>33.3</ele>
        <time>2024-05-15T11:27:25Z</time>
      </trkpt>
      <trkpt lat="50.55253" lon="1.61895">
        <ele>34.26</ele>
        <time>2024-05-15T11:27:41Z</time>
      </trkpt>
      <trkpt lat="50.55273" lon="1.619">
        <ele>34.74</ele>
        <time>2024-05-15T11:27:57Z</time>
      </trkpt>
      <trkpt lat="50.55279" lon="1.61901">
        <ele>38.59</ele>
        <time>2024-05-15T11:28:03Z</time>
      </trkpt>
      <trkpt lat="50.55283" lon="1.61904">
        <ele>34.74</ele>
        <time>2024-05-15T11:28:07Z</time>
      </trkpt>
      <trkpt lat="50.55286" lon="1.61903">
        <ele>34.74</ele>
        <time>2024-05-15T11:28:10Z</time>
      </trkpt>
      <trkpt lat="50.553" lon="1.61905">
        <ele>35.71</ele>
        <time>2024-05-15T11:28:25Z</time>
      </trkpt>
      <trkpt lat="50.55303" lon="1.61906">
        <ele>36.19</ele>
        <time>2024-05-15T11:28:31Z</time>
      </trkpt>
      <trkpt lat="50.55309" lon="1.61908">
        <ele>36.67</ele>
        <time>2024-05-15T11:28:35Z</time>
      </trkpt>
      <trkpt lat="50.55323" lon="1.6191">
        <ele>36.67</ele>
        <time>2024-05-15T11:28:45Z</time>
      </trkpt>
      <trkpt lat="50.55344" lon="1.61914">
        <ele>38.11</ele>
        <time>2024-05-15T11:29:03Z</time>
      </trkpt>
      <trkpt lat="50.55366" lon="1.61921">
        <ele>37.63</ele>
        <time>2024-05-15T11:29:18Z</time>
      </trkpt>
      <trkpt lat="50.55383" lon="1.61921">
        <ele>37.15</ele>
        <time>2024-05-15T11:29:33Z</time>
      </trkpt>
      <trkpt lat="50.55384" lon="1.61921">
        <ele>37.15</ele>
        <time>2024-05-15T11:29:34Z</time>
      </trkpt>
      <trkpt lat="50.55406" lon="1.6192">
        <ele>37.15</ele>
        <time>2024-05-15T11:29:50Z</time>
      </trkpt>
      <trkpt lat="50.55418" lon="1.61918">
        <ele>33.78</ele>
        <time>2024-05-15T11:30:00Z</time>
      </trkpt>
      <trkpt lat="50.55419" lon="1.61918">
        <ele>38.59</ele>
        <time>2024-05-15T11:30:01Z</time>
      </trkpt>
      <trkpt lat="50.55438" lon="1.61914">
        <ele>36.67</ele>
        <time>2024-05-15T11:30:17Z</time>
      </trkpt>
      <trkpt lat="50.55465" lon="1.61913">
        <ele>36.19</ele>
        <time>2024-05-15T11:30:36Z</time>
      </trkpt>
      <trkpt lat="50.55487" lon="1.61907">
        <ele>35.71</ele>
        <time>2024-05-15T11:30:54Z</time>
      </trkpt>
      <trkpt lat="50.55511" lon="1.61902">
        <ele>35.71</ele>
        <time>2024-05-15T11:31:11Z</time>
      </trkpt>
      <trkpt lat="50.55538" lon="1.61898">
        <ele>35.71</ele>
        <time>2024-05-15T11:31:29Z</time>
      </trkpt>
      <trkpt lat="50.55557" lon="1.61896">
        <ele>35.23</ele>
        <time>2024-05-15T11:31:44Z</time>
      </trkpt>
      <trkpt lat="50.55573" lon="1.6189">
        <ele>29.94</ele>
        <time>2024-05-15T11:31:57Z</time>
      </trkpt>
      <trkpt lat="50.55575" lon="1.6189">
        <ele>35.71</ele>
        <time>2024-05-15T11:31:58Z</time>
      </trkpt>
      <trkpt lat="50.55576" lon="1.6189">
        <ele>28.98</ele>
        <time>2024-05-15T11:31:59Z</time>
      </trkpt>
      <trkpt lat="50.55578" lon="1.6189">
        <ele>32.82</ele>
        <time>2024-05-15T11:32:00Z</time>
      </trkpt>
      <trkpt lat="50.55579" lon="1.6189">
        <ele>38.59</ele>
        <time>2024-05-15T11:32:01Z</time>
      </trkpt>
      <trkpt lat="50.5558" lon="1.61889">
        <ele>25.13</ele>
        <time>2024-05-15T11:32:02Z</time>
      </trkpt>
      <trkpt lat="50.55581" lon="1.61889">
        <ele>35.71</ele>
        <time>2024-05-15T11:32:03Z</time>
      </trkpt>
      <trkpt lat="50.55582" lon="1.61889">
        <ele>43.4</ele>
        <time>2024-05-15T11:32:04Z</time>
      </trkpt>
      <trkpt lat="50.55585" lon="1.61889">
        <ele>35.71</ele>
        <time>2024-05-15T11:32:06Z</time>
      </trkpt>
      <trkpt lat="50.55588" lon="1.61888">
        <ele>35.23</ele>
        <time>2024-05-15T11:32:08Z</time>
      </trkpt>
      <trkpt lat="50.55608" lon="1.61886">
        <ele>35.23</ele>
        <time>2024-05-15T11:32:24Z</time>
      </trkpt>
      <trkpt lat="50.5563" lon="1.61879">
        <ele>35.71</ele>
        <time>2024-05-15T11:32:40Z</time>
      </trkpt>
      <trkpt lat="50.55645" lon="1.61878">
        <ele>36.67</ele>
        <time>2024-05-15T11:32:53Z</time>
      </trkpt>
      <trkpt lat="50.55668" lon="1.61874">
        <ele>35.71</ele>
        <time>2024-05-15T11:33:10Z</time>
      </trkpt>
      <trkpt lat="50.55681" lon="1.61872">
        <ele>35.71</ele>
        <time>2024-05-15T11:33:20Z</time>
      </trkpt>
      <trkpt lat="50.55687" lon="1.61871">
        <ele>35.23</ele>
        <time>2024-05-15T11:33:25Z</time>
      </trkpt>
      <trkpt lat="50.55714" lon="1.61866">
        <ele>35.71</ele>
        <time>2024-05-15T11:33:44Z</time>
      </trkpt>
      <trkpt lat="50.55737" lon="1.61862">
        <ele>35.23</ele>
        <time>2024-05-15T11:34:00Z</time>
      </trkpt>
      <trkpt lat="50.55759" lon="1.61858">
        <ele>34.74</ele>
        <time>2024-05-15T11:34:16Z</time>
      </trkpt>
      <trkpt lat="50.55766" lon="1.61856">
        <ele>34.74</ele>
        <time>2024-05-15T11:34:21Z</time>
      </trkpt>
      <trkpt lat="50.55782" lon="1.61854">
        <ele>35.23</ele>
        <time>2024-05-15T11:34:33Z</time>
      </trkpt>
      <trkpt lat="50.55802" lon="1.6185">
        <ele>34.74</ele>
        <time>2024-05-15T11:34:49Z</time>
      </trkpt>
      <trkpt lat="50.55827" lon="1.61844">
        <ele>35.23</ele>
        <time>2024-05-15T11:35:06Z</time>
      </trkpt>
      <trkpt lat="50.55847" lon="1.61839">
        <ele>35.71</ele>
        <time>2024-05-15T11:35:22Z</time>
      </trkpt>
      <trkpt lat="50.55865" lon="1.61836">
        <ele>35.71</ele>
        <time>2024-05-15T11:35:38Z</time>
      </trkpt>
      <trkpt lat="50.55883" lon="1.61835">
        <ele>35.23</ele>
        <time>2024-05-15T11:35:53Z</time>
      </trkpt>
      <trkpt lat="50.559" lon="1.61829">
        <ele>36.19</ele>
        <time>2024-05-15T11:36:08Z</time>
      </trkpt>
      <trkpt lat="50.5592" lon="1.61818">
        <ele>35.23</ele>
        <time>2024-05-15T11:36:25Z</time>
      </trkpt>
      <trkpt lat="50.55924" lon="1.61813">
        <ele>39.07</ele>
        <time>2024-05-15T11:36:31Z</time>
      </trkpt>
      <trkpt lat="50.55925" lon="1.61812">
        <ele>33.78</ele>
        <time>2024-05-15T11:36:32Z</time>
      </trkpt>
      <trkpt lat="50.55931" lon="1.61801">
        <ele>33.3</ele>
        <time>2024-05-15T11:36:40Z</time>
      </trkpt>
      <trkpt lat="50.55944" lon="1.61777">
        <ele>32.34</ele>
        <time>2024-05-15T11:36:57Z</time>
      </trkpt>
      <trkpt lat="50.55944" lon="1.61775">
        <ele>32.34</ele>
        <time>2024-05-15T11:36:59Z</time>
      </trkpt>
      <trkpt lat="50.55954" lon="1.61756">
        <ele>30.9</ele>
        <time>2024-05-15T11:37:11Z</time>
      </trkpt>
      <trkpt lat="50.55966" lon="1.61729">
        <ele>30.42</ele>
        <time>2024-05-15T11:37:27Z</time>
      </trkpt>
      <trkpt lat="50.55968" lon="1.61724">
        <ele>29.94</ele>
        <time>2024-05-15T11:37:30Z</time>
      </trkpt>
      <trkpt lat="50.55968" lon="1.61717">
        <ele>29.46</ele>
        <time>2024-05-15T11:37:32Z</time>
      </trkpt>
      <trkpt lat="50.55981" lon="1.61693">
        <ele>29.46</ele>
        <time>2024-05-15T11:37:47Z</time>
      </trkpt>
      <trkpt lat="50.55984" lon="1.61686">
        <ele>28.5</ele>
        <time>2024-05-15T11:37:51Z</time>
      </trkpt>
      <trkpt lat="50.55985" lon="1.6168">
        <ele>28.02</ele>
        <time>2024-05-15T11:37:54Z</time>
      </trkpt>
      <trkpt lat="50.55985" lon="1.61672">
        <ele>28.02</ele>
        <time>2024-05-15T11:37:58Z</time>
      </trkpt>
      <trkpt lat="50.55988" lon="1.61666">
        <ele>27.53</ele>
        <time>2024-05-15T11:38:03Z</time>
      </trkpt>
      <trkpt lat="50.55996" lon="1.61642">
        <ele>27.05</ele>
        <time>2024-05-15T11:38:17Z</time>
      </trkpt>
      <trkpt lat="50.55997" lon="1.61637">
        <ele>26.57</ele>
        <time>2024-05-15T11:38:21Z</time>
      </trkpt>
      <trkpt lat="50.56" lon="1.61631">
        <ele>26.57</ele>
        <time>2024-05-15T11:38:25Z</time>
      </trkpt>
      <trkpt lat="50.56007" lon="1.61614">
        <ele>25.61</ele>
        <time>2024-05-15T11:38:34Z</time>
      </trkpt>
      <trkpt lat="50.56015" lon="1.61576">
        <ele>24.65</ele>
        <time>2024-05-15T11:38:50Z</time>
      </trkpt>
      <trkpt lat="50.56015" lon="1.61574">
        <ele>24.65</ele>
        <time>2024-05-15T11:38:51Z</time>
      </trkpt>
      <trkpt lat="50.56018" lon="1.61566">
        <ele>24.17</ele>
        <time>2024-05-15T11:38:56Z</time>
      </trkpt>
      <trkpt lat="50.56024" lon="1.61557">
        <ele>24.17</ele>
        <time>2024-05-15T11:39:02Z</time>
      </trkpt>
      <trkpt lat="50.56029" lon="1.61541">
        <ele>23.21</ele>
        <time>2024-05-15T11:39:10Z</time>
      </trkpt>
      <trkpt lat="50.56031" lon="1.61534">
        <ele>22.25</ele>
        <time>2024-05-15T11:39:15Z</time>
      </trkpt>
      <trkpt lat="50.56038" lon="1.61504">
        <ele>23.21</ele>
        <time>2024-05-15T11:39:31Z</time>
      </trkpt>
      <trkpt lat="50.56038" lon="1.61502">
        <ele>23.21</ele>
        <time>2024-05-15T11:39:32Z</time>
      </trkpt>
      <trkpt lat="50.56041" lon="1.61494">
        <ele>22.25</ele>
        <time>2024-05-15T11:39:36Z</time>
      </trkpt>
      <trkpt lat="50.56049" lon="1.61465">
        <ele>22.25</ele>
        <time>2024-05-15T11:39:52Z</time>
      </trkpt>
      <trkpt lat="50.56056" lon="1.61438">
        <ele>21.77</ele>
        <time>2024-05-15T11:40:05Z</time>
      </trkpt>
      <trkpt lat="50.56059" lon="1.61427">
        <ele>21.77</ele>
        <time>2024-05-15T11:40:11Z</time>
      </trkpt>
      <trkpt lat="50.5607" lon="1.61405">
        <ele>21.77</ele>
        <time>2024-05-15T11:40:26Z</time>
      </trkpt>
      <trkpt lat="50.56077" lon="1.61401">
        <ele>21.77</ele>
        <time>2024-05-15T11:40:31Z</time>
      </trkpt>
      <trkpt lat="50.56083" lon="1.61401">
        <ele>21.77</ele>
        <time>2024-05-15T11:40:35Z</time>
      </trkpt>
      <trkpt lat="50.56091" lon="1.61399">
        <ele>21.77</ele>
        <time>2024-05-15T11:40:40Z</time>
      </trkpt>
      <trkpt lat="50.56102" lon="1.61402">
        <ele>26.57</ele>
        <time>2024-05-15T11:40:47Z</time>
      </trkpt>
      <trkpt lat="50.56104" lon="1.61402">
        <ele>22.73</ele>
        <time>2024-05-15T11:40:48Z</time>
      </trkpt>
      <trkpt lat="50.56105" lon="1.61403">
        <ele>19.36</ele>
        <time>2024-05-15T11:40:49Z</time>
      </trkpt>
      <trkpt lat="50.56107" lon="1.61403">
        <ele>23.21</ele>
        <time>2024-05-15T11:40:50Z</time>
      </trkpt>
      <trkpt lat="50.56108" lon="1.61403">
        <ele>15.52</ele>
        <time>2024-05-15T11:40:51Z</time>
      </trkpt>
      <trkpt lat="50.56109" lon="1.61404">
        <ele>24.65</ele>
        <time>2024-05-15T11:40:52Z</time>
      </trkpt>
      <trkpt lat="50.5611" lon="1.61404">
        <ele>15.04</ele>
        <time>2024-05-15T11:40:53Z</time>
      </trkpt>
      <trkpt lat="50.56111" lon="1.61405">
        <ele>27.05</ele>
        <time>2024-05-15T11:40:54Z</time>
      </trkpt>
      <trkpt lat="50.56112" lon="1.61405">
        <ele>22.73</ele>
        <time>2024-05-15T11:40:55Z</time>
      </trkpt>
      <trkpt lat="50.56118" lon="1.61407">
        <ele>22.73</ele>
        <time>2024-05-15T11:41:00Z</time>
      </trkpt>
      <trkpt lat="50.56126" lon="1.61415">
        <ele>22.73</ele>
        <time>2024-05-15T11:41:08Z</time>
      </trkpt>
      <trkpt lat="50.56145" lon="1.6142">
        <ele>23.21</ele>
        <time>2024-05-15T11:41:20Z</time>
      </trkpt>
      <trkpt lat="50.56166" lon="1.61421">
        <ele>23.69</ele>
        <time>2024-05-15T11:41:36Z</time>
      </trkpt>
      <trkpt lat="50.56173" lon="1.61424">
        <ele>23.69</ele>
        <time>2024-05-15T11:41:42Z</time>
      </trkpt>
      <trkpt lat="50.56186" lon="1.61423">
        <ele>24.65</ele>
        <time>2024-05-15T11:41:56Z</time>
      </trkpt>
      <trkpt lat="50.56189" lon="1.61415">
        <ele>24.65</ele>
        <time>2024-05-15T11:42:05Z</time>
      </trkpt>
      <trkpt lat="50.5619" lon="1.61399">
        <ele>24.65</ele>
        <time>2024-05-15T11:42:13Z</time>
      </trkpt>
      <trkpt lat="50.56198" lon="1.61382">
        <ele>24.17</ele>
        <time>2024-05-15T11:42:24Z</time>
      </trkpt>
      <trkpt lat="50.56203" lon="1.61377">
        <ele>23.69</ele>
        <time>2024-05-15T11:42:29Z</time>
      </trkpt>
      <trkpt lat="50.56215" lon="1.61367">
        <ele>23.21</ele>
        <time>2024-05-15T11:42:39Z</time>
      </trkpt>
      <trkpt lat="50.56228" lon="1.61357">
        <ele>22.25</ele>
        <time>2024-05-15T11:42:53Z</time>
      </trkpt>
      <trkpt lat="50.56236" lon="1.61356">
        <ele>21.77</ele>
        <time>2024-05-15T11:43:10Z</time>
      </trkpt>
      <trkpt lat="50.56246" lon="1.61357">
        <ele>21.29</ele>
        <time>2024-05-15T11:43:18Z</time>
      </trkpt>
      <trkpt lat="50.56263" lon="1.61352">
        <ele>20.81</ele>
        <time>2024-05-15T11:43:32Z</time>
      </trkpt>
      <trkpt lat="50.56271" lon="1.61352">
        <ele>20.81</ele>
        <time>2024-05-15T11:43:37Z</time>
      </trkpt>
      <trkpt lat="50.5628" lon="1.61351">
        <ele>20.32</ele>
        <time>2024-05-15T11:43:42Z</time>
      </trkpt>
      <trkpt lat="50.56291" lon="1.61348">
        <ele>20.32</ele>
        <time>2024-05-15T11:43:51Z</time>
      </trkpt>
      <trkpt lat="50.56307" lon="1.61347">
        <ele>19.84</ele>
        <time>2024-05-15T11:44:03Z</time>
      </trkpt>
      <trkpt lat="50.56314" lon="1.61347">
        <ele>20.32</ele>
        <time>2024-05-15T11:44:09Z</time>
      </trkpt>
      <trkpt lat="50.56321" lon="1.61348">
        <ele>20.32</ele>
        <time>2024-05-15T11:44:14Z</time>
      </trkpt>
      <trkpt lat="50.56332" lon="1.61347">
        <ele>20.32</ele>
        <time>2024-05-15T11:44:21Z</time>
      </trkpt>
      <trkpt lat="50.56352" lon="1.61348">
        <ele>20.32</ele>
        <time>2024-05-15T11:44:35Z</time>
      </trkpt>
      <trkpt lat="50.56371" lon="1.61343">
        <ele>19.84</ele>
        <time>2024-05-15T11:44:49Z</time>
      </trkpt>
      <trkpt lat="50.56381" lon="1.61345">
        <ele>19.84</ele>
        <time>2024-05-15T11:44:59Z</time>
      </trkpt>
      <trkpt lat="50.56397" lon="1.61351">
        <ele>26.09</ele>
        <time>2024-05-15T11:45:10Z</time>
      </trkpt>
      <trkpt lat="50.56398" lon="1.61351">
        <ele>21.29</ele>
        <time>2024-05-15T11:45:11Z</time>
      </trkpt>
      <trkpt lat="50.56399" lon="1.61351">
        <ele>24.17</ele>
        <time>2024-05-15T11:45:12Z</time>
      </trkpt>
      <trkpt lat="50.56401" lon="1.61351">
        <ele>20.81</ele>
        <time>2024-05-15T11:45:13Z</time>
      </trkpt>
      <trkpt lat="50.56406" lon="1.61349">
        <ele>25.13</ele>
        <time>2024-05-15T11:45:18Z</time>
      </trkpt>
      <trkpt lat="50.56407" lon="1.61349">
        <ele>22.25</ele>
        <time>2024-05-15T11:45:19Z</time>
      </trkpt>
      <trkpt lat="50.56409" lon="1.61348">
        <ele>26.57</ele>
        <time>2024-05-15T11:45:20Z</time>
      </trkpt>
      <trkpt lat="50.5641" lon="1.61348">
        <ele>22.25</ele>
        <time>2024-05-15T11:45:21Z</time>
      </trkpt>
      <trkpt lat="50.56411" lon="1.61348">
        <ele>15.52</ele>
        <time>2024-05-15T11:45:22Z</time>
      </trkpt>
      <trkpt lat="50.56413" lon="1.61348">
        <ele>24.65</ele>
        <time>2024-05-15T11:45:23Z</time>
      </trkpt>
      <trkpt lat="50.56414" lon="1.61348">
        <ele>28.5</ele>
        <time>2024-05-15T11:45:24Z</time>
      </trkpt>
      <trkpt lat="50.56415" lon="1.61348">
        <ele>22.25</ele>
        <time>2024-05-15T11:45:25Z</time>
      </trkpt>
      <trkpt lat="50.5642" lon="1.61349">
        <ele>11.67</ele>
        <time>2024-05-15T11:45:29Z</time>
      </trkpt>
      <trkpt lat="50.56422" lon="1.61349">
        <ele>30.42</ele>
        <time>2024-05-15T11:45:30Z</time>
      </trkpt>
      <trkpt lat="50.56423" lon="1.61349">
        <ele>22.73</ele>
        <time>2024-05-15T11:45:31Z</time>
      </trkpt>
      <trkpt lat="50.56426" lon="1.61349">
        <ele>21.29</ele>
        <time>2024-05-15T11:45:33Z</time>
      </trkpt>
      <trkpt lat="50.56437" lon="1.61349">
        <ele>21.29</ele>
        <time>2024-05-15T11:45:44Z</time>
      </trkpt>
      <trkpt lat="50.56457" lon="1.61347">
        <ele>20.81</ele>
        <time>2024-05-15T11:45:58Z</time>
      </trkpt>
      <trkpt lat="50.56462" lon="1.61348">
        <ele>21.29</ele>
        <time>2024-05-15T11:46:02Z</time>
      </trkpt>
      <trkpt lat="50.56475" lon="1.61347">
        <ele>21.77</ele>
        <time>2024-05-15T11:46:13Z</time>
      </trkpt>
      <trkpt lat="50.56495" lon="1.61346">
        <ele>21.77</ele>
        <time>2024-05-15T11:46:27Z</time>
      </trkpt>
      <trkpt lat="50.56499" lon="1.61346">
        <ele>21.77</ele>
        <time>2024-05-15T11:46:31Z</time>
      </trkpt>
      <trkpt lat="50.56509" lon="1.61345">
        <ele>21.29</ele>
        <time>2024-05-15T11:46:40Z</time>
      </trkpt>
      <trkpt lat="50.56512" lon="1.61345">
        <ele>21.29</ele>
        <time>2024-05-15T11:46:42Z</time>
      </trkpt>
      <trkpt lat="50.56516" lon="1.61344">
        <ele>21.29</ele>
        <time>2024-05-15T11:46:46Z</time>
      </trkpt>
      <trkpt lat="50.56521" lon="1.6134">
        <ele>21.29</ele>
        <time>2024-05-15T11:46:50Z</time>
      </trkpt>
      <trkpt lat="50.56533" lon="1.6134">
        <ele>21.77</ele>
        <time>2024-05-15T11:46:59Z</time>
      </trkpt>
      <trkpt lat="50.56555" lon="1.61346">
        <ele>22.25</ele>
        <time>2024-05-15T11:47:15Z</time>
      </trkpt>
      <trkpt lat="50.56576" lon="1.61351">
        <ele>21.77</ele>
        <time>2024-05-15T11:47:30Z</time>
      </trkpt>
      <trkpt lat="50.56579" lon="1.6135">
        <ele>22.25</ele>
        <time>2024-05-15T11:47:33Z</time>
      </trkpt>
      <trkpt lat="50.56584" lon="1.61353">
        <ele>22.25</ele>
        <time>2024-05-15T11:47:37Z</time>
      </trkpt>
      <trkpt lat="50.56601" lon="1.61351">
        <ele>22.73</ele>
        <time>2024-05-15T11:47:53Z</time>
      </trkpt>
      <trkpt lat="50.56605" lon="1.6135">
        <ele>22.25</ele>
        <time>2024-05-15T11:47:57Z</time>
      </trkpt>
      <trkpt lat="50.56615" lon="1.61353">
        <ele>22.73</ele>
        <time>2024-05-15T11:48:06Z</time>
      </trkpt>
      <trkpt lat="50.56635" lon="1.61357">
        <ele>22.73</ele>
        <time>2024-05-15T11:48:23Z</time>
      </trkpt>
      <trkpt lat="50.56637" lon="1.61358">
        <ele>22.25</ele>
        <time>2024-05-15T11:48:25Z</time>
      </trkpt>
      <trkpt lat="50.56659" lon="1.61362">
        <ele>22.25</ele>
        <time>2024-05-15T11:48:37Z</time>
      </trkpt>
      <trkpt lat="50.56669" lon="1.61365">
        <ele>22.25</ele>
        <time>2024-05-15T11:48:43Z</time>
      </trkpt>
      <trkpt lat="50.5668" lon="1.61363">
        <ele>21.77</ele>
        <time>2024-05-15T11:48:50Z</time>
      </trkpt>
      <trkpt lat="50.56682" lon="1.61364">
        <ele>21.77</ele>
        <time>2024-05-15T11:48:52Z</time>
      </trkpt>
      <trkpt lat="50.56685" lon="1.61365">
        <ele>21.77</ele>
        <time>2024-05-15T11:48:55Z</time>
      </trkpt>
      <trkpt lat="50.56692" lon="1.61366">
        <ele>21.77</ele>
        <time>2024-05-15T11:49:00Z</time>
      </trkpt>
      <trkpt lat="50.56711" lon="1.61364">
        <ele>21.29</ele>
        <time>2024-05-15T11:49:15Z</time>
      </trkpt>
      <trkpt lat="50.56733" lon="1.61366">
        <ele>21.29</ele>
        <time>2024-05-15T11:49:31Z</time>
      </trkpt>
      <trkpt lat="50.56748" lon="1.61364">
        <ele>21.29</ele>
        <time>2024-05-15T11:49:46Z</time>
      </trkpt>
      <trkpt lat="50.5676" lon="1.61365">
        <ele>21.29</ele>
        <time>2024-05-15T11:49:54Z</time>
      </trkpt>
      <trkpt lat="50.56784" lon="1.61369">
        <ele>21.29</ele>
        <time>2024-05-15T11:50:09Z</time>
      </trkpt>
      <trkpt lat="50.56803" lon="1.6137">
        <ele>22.25</ele>
        <time>2024-05-15T11:50:23Z</time>
      </trkpt>
      <trkpt lat="50.56807" lon="1.61368">
        <ele>22.25</ele>
        <time>2024-05-15T11:50:27Z</time>
      </trkpt>
      <trkpt lat="50.56812" lon="1.61364">
        <ele>22.73</ele>
        <time>2024-05-15T11:50:31Z</time>
      </trkpt>
      <trkpt lat="50.56822" lon="1.61359">
        <ele>22.25</ele>
        <time>2024-05-15T11:50:45Z</time>
      </trkpt>
      <trkpt lat="50.56847" lon="1.61362">
        <ele>22.73</ele>
        <time>2024-05-15T11:51:00Z</time>
      </trkpt>
      <trkpt lat="50.5685" lon="1.61359">
        <ele>22.73</ele>
        <time>2024-05-15T11:51:04Z</time>
      </trkpt>
      <trkpt lat="50.5685" lon="1.6136">
        <ele>22.25</ele>
        <time>2024-05-15T11:51:15Z</time>
      </trkpt>
      <trkpt lat="50.56849" lon="1.61364">
        <ele>22.73</ele>
        <time>2024-05-15T11:51:18Z</time>
      </trkpt>
      <trkpt lat="50.56848" lon="1.61367">
        <ele>22.73</ele>
        <time>2024-05-15T11:51:31Z</time>
      </trkpt>
      <trkpt lat="50.56846" lon="1.61369">
        <ele>22.25</ele>
        <time>2024-05-15T11:51:47Z</time>
      </trkpt>
      <trkpt lat="50.56846" lon="1.61369">
        <ele>22.73</ele>
        <time>2024-05-15T11:52:09Z</time>
      </trkpt>
      <trkpt lat="50.56846" lon="1.61369">
        <ele>22.73</ele>
        <time>2024-05-15T11:52:34Z</time>
      </trkpt>
      <trkpt lat="50.56846" lon="1.61369">
        <ele>22.25</ele>
        <time>2024-05-15T11:52:58Z</time>
      </trkpt>
      <trkpt lat="50.56847" lon="1.6137">
        <ele>20.32</ele>
        <time>2024-05-15T11:53:27Z</time>
      </trkpt>
      <trkpt lat="50.56847" lon="1.6137">
        <ele>23.21</ele>
        <time>2024-05-15T11:53:28Z</time>
      </trkpt>
      <trkpt lat="50.56846" lon="1.61373">
        <ele>22.73</ele>
        <time>2024-05-15T11:53:52Z</time>
      </trkpt>
      <trkpt lat="50.56839" lon="1.6137">
        <ele>23.21</ele>
        <time>2024-05-15T11:53:57Z</time>
      </trkpt>
      <trkpt lat="50.56836" lon="1.61368">
        <ele>22.25</ele>
        <time>2024-05-15T11:54:21Z</time>
      </trkpt>
      <trkpt lat="50.56836" lon="1.61368">
        <ele>22.73</ele>
        <time>2024-05-15T11:54:52Z</time>
      </trkpt>
      <trkpt lat="50.56835" lon="1.61365">
        <ele>22.73</ele>
        <time>2024-05-15T11:55:14Z</time>
      </trkpt>
      <trkpt lat="50.56835" lon="1.61366">
        <ele>22.73</ele>
        <time>2024-05-15T11:55:37Z</time>
      </trkpt>
      <trkpt lat="50.56841" lon="1.61372">
        <ele>22.73</ele>
        <time>2024-05-15T11:56:00Z</time>
      </trkpt>
      <trkpt lat="50.56841" lon="1.61371">
        <ele>22.73</ele>
        <time>2024-05-15T11:56:23Z</time>
      </trkpt>
      <trkpt lat="50.5684" lon="1.61372">
        <ele>22.73</ele>
        <time>2024-05-15T11:56:52Z</time>
      </trkpt>
      <trkpt lat="50.5684" lon="1.61372">
        <ele>22.73</ele>
        <time>2024-05-15T11:57:17Z</time>
      </trkpt>
      <trkpt lat="50.5684" lon="1.61372">
        <ele>22.73</ele>
        <time>2024-05-15T11:57:49Z</time>
      </trkpt>
      <trkpt lat="50.5684" lon="1.61374">
        <ele>22.73</ele>
        <time>2024-05-15T11:58:19Z</time>
      </trkpt>
      <trkpt lat="50.5684" lon="1.61374">
        <ele>22.25</ele>
        <time>2024-05-15T11:58:50Z</time>
      </trkpt>
      <trkpt lat="50.56839" lon="1.61373">
        <ele>22.25</ele>
        <time>2024-05-15T11:59:15Z</time>
      </trkpt>
      <trkpt lat="50.56839" lon="1.61373">
        <ele>22.25</ele>
        <time>2024-05-15T11:59:50Z</time>
      </trkpt>
      <trkpt lat="50.56839" lon="1.61377">
        <ele>22.25</ele>
        <time>2024-05-15T12:00:16Z</time>
      </trkpt>
      <trkpt lat="50.56841" lon="1.61375">
        <ele>22.25</ele>
        <time>2024-05-15T12:00:21Z</time>
      </trkpt>
      <trkpt lat="50.5684" lon="1.61371">
        <ele>22.73</ele>
        <time>2024-05-15T12:00:42Z</time>
      </trkpt>
      <trkpt lat="50.56838" lon="1.61371">
        <ele>22.25</ele>
        <time>2024-05-15T12:00:59Z</time>
      </trkpt>
      <trkpt lat="50.56836" lon="1.61376">
        <ele>22.25</ele>
        <time>2024-05-15T12:01:27Z</time>
      </trkpt>
      <trkpt lat="50.56836" lon="1.61376">
        <ele>22.73</ele>
        <time>2024-05-15T12:01:52Z</time>
      </trkpt>
      <trkpt lat="50.56836" lon="1.61375">
        <ele>21.77</ele>
        <time>2024-05-15T12:02:19Z</time>
      </trkpt>
      <trkpt lat="50.56836" lon="1.61375">
        <ele>22.25</ele>
        <time>2024-05-15T12:02:47Z</time>
      </trkpt>
      <trkpt lat="50.56839" lon="1.61373">
        <ele>22.73</ele>
        <time>2024-05-15T12:03:12Z</time>
      </trkpt>
      <trkpt lat="50.56839" lon="1.61373">
        <ele>22.25</ele>
        <time>2024-05-15T12:03:37Z</time>
      </trkpt>
      <trkpt lat="50.56846" lon="1.61367">
        <ele>21.77</ele>
        <time>2024-05-15T12:04:11Z</time>
      </trkpt>
      <trkpt lat="50.56846" lon="1.61365">
        <ele>22.73</ele>
        <time>2024-05-15T12:04:37Z</time>
      </trkpt>
      <trkpt lat="50.56841" lon="1.61365">
        <ele>22.25</ele>
        <time>2024-05-15T12:05:03Z</time>
      </trkpt>
      <trkpt lat="50.56836" lon="1.61365">
        <ele>22.25</ele>
        <time>2024-05-15T12:05:36Z</time>
      </trkpt>
      <trkpt lat="50.56836" lon="1.61359">
        <ele>22.25</ele>
        <time>2024-05-15T12:06:00Z</time>
      </trkpt>
      <trkpt lat="50.56835" lon="1.61364">
        <ele>22.25</ele>
        <time>2024-05-15T12:06:28Z</time>
      </trkpt>
      <trkpt lat="50.56838" lon="1.61369">
        <ele>21.77</ele>
        <time>2024-05-15T12:06:52Z</time>
      </trkpt>
      <trkpt lat="50.56838" lon="1.61378">
        <ele>22.25</ele>
        <time>2024-05-15T12:07:17Z</time>
      </trkpt>
      <trkpt lat="50.56838" lon="1.61378">
        <ele>22.73</ele>
        <time>2024-05-15T12:07:46Z</time>
      </trkpt>
      <trkpt lat="50.56836" lon="1.61374">
        <ele>22.25</ele>
        <time>2024-05-15T12:08:05Z</time>
      </trkpt>
      <trkpt lat="50.56861" lon="1.61369">
        <ele>21.77</ele>
        <time>2024-05-15T12:08:28Z</time>
      </trkpt>
      <trkpt lat="50.56845" lon="1.61373">
        <ele>23.21</ele>
        <time>2024-05-15T12:09:34Z</time>
      </trkpt>
      <trkpt lat="50.56842" lon="1.61363">
        <ele>23.69</ele>
        <time>2024-05-15T12:10:01Z</time>
      </trkpt>
      <trkpt lat="50.56843" lon="1.61364">
        <ele>23.69</ele>
        <time>2024-05-15T12:10:09Z</time>
      </trkpt>
      <trkpt lat="50.56848" lon="1.61361">
        <ele>23.21</ele>
        <time>2024-05-15T12:10:20Z</time>
      </trkpt>
      <trkpt lat="50.56853" lon="1.61359">
        <ele>22.73</ele>
        <time>2024-05-15T12:10:36Z</time>
      </trkpt>
      <trkpt lat="50.5686" lon="1.61349">
        <ele>22.73</ele>
        <time>2024-05-15T12:10:52Z</time>
      </trkpt>
      <trkpt lat="50.5686" lon="1.61345">
        <ele>22.25</ele>
        <time>2024-05-15T12:10:58Z</time>
      </trkpt>
      <trkpt lat="50.5686" lon="1.61326">
        <ele>22.73</ele>
        <time>2024-05-15T12:11:13Z</time>
      </trkpt>
      <trkpt lat="50.5686" lon="1.61324">
        <ele>22.25</ele>
        <time>2024-05-15T12:11:14Z</time>
      </trkpt>
      <trkpt lat="50.5686" lon="1.61317">
        <ele>22.25</ele>
        <time>2024-05-15T12:11:18Z</time>
      </trkpt>
      <trkpt lat="50.5686" lon="1.61312">
        <ele>22.25</ele>
        <time>2024-05-15T12:11:21Z</time>
      </trkpt>
      <trkpt lat="50.56861" lon="1.61299">
        <ele>21.29</ele>
        <time>2024-05-15T12:11:28Z</time>
      </trkpt>
      <trkpt lat="50.56861" lon="1.61288">
        <ele>21.77</ele>
        <time>2024-05-15T12:11:34Z</time>
      </trkpt>
      <trkpt lat="50.56866" lon="1.61268">
        <ele>21.29</ele>
        <time>2024-05-15T12:11:46Z</time>
      </trkpt>
      <trkpt lat="50.56868" lon="1.61238">
        <ele>20.32</ele>
        <time>2024-05-15T12:12:02Z</time>
      </trkpt>
      <trkpt lat="50.56873" lon="1.61223">
        <ele>20.32</ele>
        <time>2024-05-15T12:12:11Z</time>
      </trkpt>
      <trkpt lat="50.56875" lon="1.61201">
        <ele>20.32</ele>
        <time>2024-05-15T12:12:21Z</time>
      </trkpt>
      <trkpt lat="50.56877" lon="1.61196">
        <ele>20.32</ele>
        <time>2024-05-15T12:12:24Z</time>
      </trkpt>
      <trkpt lat="50.56884" lon="1.61169">
        <ele>19.84</ele>
        <time>2024-05-15T12:12:39Z</time>
      </trkpt>
      <trkpt lat="50.56884" lon="1.61161">
        <ele>20.32</ele>
        <time>2024-05-15T12:12:43Z</time>
      </trkpt>
      <trkpt lat="50.56886" lon="1.61151">
        <ele>20.32</ele>
        <time>2024-05-15T12:12:48Z</time>
      </trkpt>
      <trkpt lat="50.56889" lon="1.6114">
        <ele>19.84</ele>
        <time>2024-05-15T12:12:53Z</time>
      </trkpt>
      <trkpt lat="50.5689" lon="1.61132">
        <ele>11.67</ele>
        <time>2024-05-15T12:12:57Z</time>
      </trkpt>
      <trkpt lat="50.5689" lon="1.6113">
        <ele>22.25</ele>
        <time>2024-05-15T12:12:58Z</time>
      </trkpt>
      <trkpt lat="50.5689" lon="1.61129">
        <ele>28.5</ele>
        <time>2024-05-15T12:12:59Z</time>
      </trkpt>
      <trkpt lat="50.5689" lon="1.61127">
        <ele>20.32</ele>
        <time>2024-05-15T12:13:00Z</time>
      </trkpt>
      <trkpt lat="50.5689" lon="1.61125">
        <ele>10.71</ele>
        <time>2024-05-15T12:13:01Z</time>
      </trkpt>
      <trkpt lat="50.5689" lon="1.61123">
        <ele>25.61</ele>
        <time>2024-05-15T12:13:02Z</time>
      </trkpt>
      <trkpt lat="50.5689" lon="1.61121">
        <ele>20.32</ele>
        <time>2024-05-15T12:13:03Z</time>
      </trkpt>
      <trkpt lat="50.56891" lon="1.61119">
        <ele>28.02</ele>
        <time>2024-05-15T12:13:04Z</time>
      </trkpt>
      <trkpt lat="50.56891" lon="1.61118">
        <ele>20.32</ele>
        <time>2024-05-15T12:13:05Z</time>
      </trkpt>
      <trkpt lat="50.56891" lon="1.61116">
        <ele>5.42</ele>
        <time>2024-05-15T12:13:06Z</time>
      </trkpt>
      <trkpt lat="50.56891" lon="1.61114">
        <ele>30.42</ele>
        <time>2024-05-15T12:13:07Z</time>
      </trkpt>
      <trkpt lat="50.56892" lon="1.61112">
        <ele>20.81</ele>
        <time>2024-05-15T12:13:08Z</time>
      </trkpt>
      <trkpt lat="50.56891" lon="1.61091">
        <ele>12.63</ele>
        <time>2024-05-15T12:13:19Z</time>
      </trkpt>
      <trkpt lat="50.56891" lon="1.61089">
        <ele>30.9</ele>
        <time>2024-05-15T12:13:20Z</time>
      </trkpt>
      <trkpt lat="50.56891" lon="1.61087">
        <ele>20.81</ele>
        <time>2024-05-15T12:13:21Z</time>
      </trkpt>
      <trkpt lat="50.56891" lon="1.61082">
        <ele>5.42</ele>
        <time>2024-05-15T12:13:24Z</time>
      </trkpt>
      <trkpt lat="50.56891" lon="1.6108">
        <ele>21.29</ele>
        <time>2024-05-15T12:13:25Z</time>
      </trkpt>
      <trkpt lat="50.56891" lon="1.61078">
        <ele>16.96</ele>
        <time>2024-05-15T12:13:26Z</time>
      </trkpt>
      <trkpt lat="50.56891" lon="1.61077">
        <ele>20.32</ele>
        <time>2024-05-15T12:13:27Z</time>
      </trkpt>
      <trkpt lat="50.56887" lon="1.61052">
        <ele>19.36</ele>
        <time>2024-05-15T12:13:41Z</time>
      </trkpt>
      <trkpt lat="50.56887" lon="1.61045">
        <ele>19.36</ele>
        <time>2024-05-15T12:13:45Z</time>
      </trkpt>
      <trkpt lat="50.56886" lon="1.61036">
        <ele>19.36</ele>
        <time>2024-05-15T12:13:49Z</time>
      </trkpt>
      <trkpt lat="50.56885" lon="1.61021">
        <ele>18.88</ele>
        <time>2024-05-15T12:13:58Z</time>
      </trkpt>
      <trkpt lat="50.56883" lon="1.61">
        <ele>19.84</ele>
        <time>2024-05-15T12:14:08Z</time>
      </trkpt>
      <trkpt lat="50.56882" lon="1.60996">
        <ele>19.36</ele>
        <time>2024-05-15T12:14:10Z</time>
      </trkpt>
      <trkpt lat="50.56881" lon="1.60986">
        <ele>20.32</ele>
        <time>2024-05-15T12:14:15Z</time>
      </trkpt>
      <trkpt lat="50.56878" lon="1.60977">
        <ele>19.36</ele>
        <time>2024-05-15T12:14:20Z</time>
      </trkpt>
      <trkpt lat="50.56879" lon="1.60967">
        <ele>20.32</ele>
        <time>2024-05-15T12:14:24Z</time>
      </trkpt>
      <trkpt lat="50.56878" lon="1.60964">
        <ele>19.84</ele>
        <time>2024-05-15T12:14:26Z</time>
      </trkpt>
      <trkpt lat="50.56875" lon="1.6094">
        <ele>20.32</ele>
        <time>2024-05-15T12:14:41Z</time>
      </trkpt>
      <trkpt lat="50.56873" lon="1.60926">
        <ele>19.84</ele>
        <time>2024-05-15T12:14:50Z</time>
      </trkpt>
      <trkpt lat="50.56873" lon="1.60917">
        <ele>19.84</ele>
        <time>2024-05-15T12:14:54Z</time>
      </trkpt>
      <trkpt lat="50.5687" lon="1.60905">
        <ele>19.84</ele>
        <time>2024-05-15T12:15:01Z</time>
      </trkpt>
      <trkpt lat="50.56871" lon="1.60882">
        <ele>19.84</ele>
        <time>2024-05-15T12:15:11Z</time>
      </trkpt>
      <trkpt lat="50.56872" lon="1.60868">
        <ele>20.32</ele>
        <time>2024-05-15T12:15:18Z</time>
      </trkpt>
      <trkpt lat="50.56872" lon="1.60863">
        <ele>19.84</ele>
        <time>2024-05-15T12:15:20Z</time>
      </trkpt>
      <trkpt lat="50.56867" lon="1.60851">
        <ele>19.84</ele>
        <time>2024-05-15T12:15:27Z</time>
      </trkpt>
      <trkpt lat="50.56868" lon="1.60821">
        <ele>19.84</ele>
        <time>2024-05-15T12:15:40Z</time>
      </trkpt>
      <trkpt lat="50.56867" lon="1.60806">
        <ele>19.36</ele>
        <time>2024-05-15T12:15:47Z</time>
      </trkpt>
      <trkpt lat="50.56871" lon="1.6079">
        <ele>19.84</ele>
        <time>2024-05-15T12:15:55Z</time>
      </trkpt>
      <trkpt lat="50.56875" lon="1.60763">
        <ele>19.84</ele>
        <time>2024-05-15T12:16:09Z</time>
      </trkpt>
      <trkpt lat="50.56878" lon="1.60729">
        <ele>20.32</ele>
        <time>2024-05-15T12:16:24Z</time>
      </trkpt>
      <trkpt lat="50.56878" lon="1.60717">
        <ele>19.84</ele>
        <time>2024-05-15T12:16:29Z</time>
      </trkpt>
      <trkpt lat="50.56883" lon="1.60696">
        <ele>19.36</ele>
        <time>2024-05-15T12:16:39Z</time>
      </trkpt>
      <trkpt lat="50.56883" lon="1.60688">
        <ele>19.36</ele>
        <time>2024-05-15T12:16:43Z</time>
      </trkpt>
      <trkpt lat="50.56886" lon="1.60655">
        <ele>18.88</ele>
        <time>2024-05-15T12:16:58Z</time>
      </trkpt>
      <trkpt lat="50.5689" lon="1.60634">
        <ele>18.88</ele>
        <time>2024-05-15T12:17:08Z</time>
      </trkpt>
      <trkpt lat="50.56892" lon="1.60625">
        <ele>19.36</ele>
        <time>2024-05-15T12:17:12Z</time>
      </trkpt>
      <trkpt lat="50.56893" lon="1.60615">
        <ele>19.84</ele>
        <time>2024-05-15T12:17:17Z</time>
      </trkpt>
      <trkpt lat="50.56894" lon="1.606">
        <ele>19.36</ele>
        <time>2024-05-15T12:17:24Z</time>
      </trkpt>
      <trkpt lat="50.56898" lon="1.60573">
        <ele>19.36</ele>
        <time>2024-05-15T12:17:37Z</time>
      </trkpt>
      <trkpt lat="50.56902" lon="1.60554">
        <ele>18.88</ele>
        <time>2024-05-15T12:17:47Z</time>
      </trkpt>
      <trkpt lat="50.56903" lon="1.60538">
        <ele>18.88</ele>
        <time>2024-05-15T12:17:54Z</time>
      </trkpt>
      <trkpt lat="50.56904" lon="1.60526">
        <ele>19.36</ele>
        <time>2024-05-15T12:18:01Z</time>
      </trkpt>
      <trkpt lat="50.56908" lon="1.60499">
        <ele>18.88</ele>
        <time>2024-05-15T12:18:15Z</time>
      </trkpt>
      <trkpt lat="50.56915" lon="1.60469">
        <ele>18.88</ele>
        <time>2024-05-15T12:18:29Z</time>
      </trkpt>
      <trkpt lat="50.56916" lon="1.60466">
        <ele>18.88</ele>
        <time>2024-05-15T12:18:30Z</time>
      </trkpt>
      <trkpt lat="50.56914" lon="1.60448">
        <ele>18.4</ele>
        <time>2024-05-15T12:18:39Z</time>
      </trkpt>
      <trkpt lat="50.56913" lon="1.60442">
        <ele>18.4</ele>
        <time>2024-05-15T12:18:42Z</time>
      </trkpt>
      <trkpt lat="50.56916" lon="1.60432">
        <ele>18.4</ele>
        <time>2024-05-15T12:18:48Z</time>
      </trkpt>
      <trkpt lat="50.56917" lon="1.60422">
        <ele>18.4</ele>
        <time>2024-05-15T12:18:53Z</time>
      </trkpt>
      <trkpt lat="50.56918" lon="1.60408">
        <ele>18.4</ele>
        <time>2024-05-15T12:18:59Z</time>
      </trkpt>
      <trkpt lat="50.56923" lon="1.60394">
        <ele>18.4</ele>
        <time>2024-05-15T12:19:07Z</time>
      </trkpt>
      <trkpt lat="50.56923" lon="1.60381">
        <ele>17.92</ele>
        <time>2024-05-15T12:19:14Z</time>
      </trkpt>
      <trkpt lat="50.56923" lon="1.60365">
        <ele>18.88</ele>
        <time>2024-05-15T12:19:23Z</time>
      </trkpt>
      <trkpt lat="50.56924" lon="1.60355">
        <ele>17.92</ele>
        <time>2024-05-15T12:19:27Z</time>
      </trkpt>
      <trkpt lat="50.56928" lon="1.60343">
        <ele>18.4</ele>
        <time>2024-05-15T12:19:33Z</time>
      </trkpt>
      <trkpt lat="50.56928" lon="1.60334">
        <ele>17.92</ele>
        <time>2024-05-15T12:19:36Z</time>
      </trkpt>
      <trkpt lat="50.56931" lon="1.60321">
        <ele>18.4</ele>
        <time>2024-05-15T12:19:41Z</time>
      </trkpt>
      <trkpt lat="50.5694" lon="1.60294">
        <ele>18.4</ele>
        <time>2024-05-15T12:19:55Z</time>
      </trkpt>
      <trkpt lat="50.56942" lon="1.60281">
        <ele>18.4</ele>
        <time>2024-05-15T12:20:01Z</time>
      </trkpt>
      <trkpt lat="50.56947" lon="1.60256">
        <ele>17.92</ele>
        <time>2024-05-15T12:20:14Z</time>
      </trkpt>
      <trkpt lat="50.56947" lon="1.60251">
        <ele>17.92</ele>
        <time>2024-05-15T12:20:16Z</time>
      </trkpt>
      <trkpt lat="50.56948" lon="1.60246">
        <ele>18.4</ele>
        <time>2024-05-15T12:20:19Z</time>
      </trkpt>
      <trkpt lat="50.56955" lon="1.60218">
        <ele>17.92</ele>
        <time>2024-05-15T12:20:33Z</time>
      </trkpt>
      <trkpt lat="50.56962" lon="1.60193">
        <ele>17.92</ele>
        <time>2024-05-15T12:20:45Z</time>
      </trkpt>
      <trkpt lat="50.5697" lon="1.60161">
        <ele>17.92</ele>
        <time>2024-05-15T12:20:59Z</time>
      </trkpt>
      <trkpt lat="50.56974" lon="1.60149">
        <ele>17.92</ele>
        <time>2024-05-15T12:21:05Z</time>
      </trkpt>
      <trkpt lat="50.56979" lon="1.60122">
        <ele>17.92</ele>
        <time>2024-05-15T12:21:18Z</time>
      </trkpt>
      <trkpt lat="50.56981" lon="1.60116">
        <ele>17.92</ele>
        <time>2024-05-15T12:21:22Z</time>
      </trkpt>
      <trkpt lat="50.56987" lon="1.60089">
        <ele>19.84</ele>
        <time>2024-05-15T12:21:36Z</time>
      </trkpt>
      <trkpt lat="50.56988" lon="1.60088">
        <ele>8.79</ele>
        <time>2024-05-15T12:21:37Z</time>
      </trkpt>
      <trkpt lat="50.56989" lon="1.60086">
        <ele>17.44</ele>
        <time>2024-05-15T12:21:38Z</time>
      </trkpt>
      <trkpt lat="50.5699" lon="1.60079">
        <ele>26.09</ele>
        <time>2024-05-15T12:21:41Z</time>
      </trkpt>
      <trkpt lat="50.56991" lon="1.60077">
        <ele>17.92</ele>
        <time>2024-05-15T12:21:42Z</time>
      </trkpt>
      <trkpt lat="50.56991" lon="1.60075">
        <ele>29.94</ele>
        <time>2024-05-15T12:21:43Z</time>
      </trkpt>
      <trkpt lat="50.56992" lon="1.60073">
        <ele>18.4</ele>
        <time>2024-05-15T12:21:44Z</time>
      </trkpt>
      <trkpt lat="50.56994" lon="1.60063">
        <ele>25.61</ele>
        <time>2024-05-15T12:21:49Z</time>
      </trkpt>
      <trkpt lat="50.56995" lon="1.60061">
        <ele>18.88</ele>
        <time>2024-05-15T12:21:50Z</time>
      </trkpt>
      <trkpt lat="50.56996" lon="1.60057">
        <ele>18.4</ele>
        <time>2024-05-15T12:21:52Z</time>
      </trkpt>
      <trkpt lat="50.57001" lon="1.6003">
        <ele>18.4</ele>
        <time>2024-05-15T12:22:05Z</time>
      </trkpt>
      <trkpt lat="50.57004" lon="1.60008">
        <ele>18.4</ele>
        <time>2024-05-15T12:22:15Z</time>
      </trkpt>
      <trkpt lat="50.57004" lon="1.59992">
        <ele>18.4</ele>
        <time>2024-05-15T12:22:23Z</time>
      </trkpt>
      <trkpt lat="50.57007" lon="1.59981">
        <ele>18.4</ele>
        <time>2024-05-15T12:22:28Z</time>
      </trkpt>
      <trkpt lat="50.57006" lon="1.5996">
        <ele>17.92</ele>
        <time>2024-05-15T12:22:37Z</time>
      </trkpt>
      <trkpt lat="50.57008" lon="1.59952">
        <ele>17.92</ele>
        <time>2024-05-15T12:22:40Z</time>
      </trkpt>
      <trkpt lat="50.57008" lon="1.59937">
        <ele>17.92</ele>
        <time>2024-05-15T12:22:47Z</time>
      </trkpt>
      <trkpt lat="50.57013" lon="1.59911">
        <ele>17.92</ele>
        <time>2024-05-15T12:22:59Z</time>
      </trkpt>
      <trkpt lat="50.5701" lon="1.59899">
        <ele>18.4</ele>
        <time>2024-05-15T12:23:04Z</time>
      </trkpt>
      <trkpt lat="50.57009" lon="1.59893">
        <ele>17.92</ele>
        <time>2024-05-15T12:23:07Z</time>
      </trkpt>
      <trkpt lat="50.57008" lon="1.59866">
        <ele>17.92</ele>
        <time>2024-05-15T12:23:19Z</time>
      </trkpt>
      <trkpt lat="50.57009" lon="1.59854">
        <ele>17.44</ele>
        <time>2024-05-15T12:23:24Z</time>
      </trkpt>
      <trkpt lat="50.57009" lon="1.59842">
        <ele>18.4</ele>
        <time>2024-05-15T12:23:30Z</time>
      </trkpt>
      <trkpt lat="50.57008" lon="1.59835">
        <ele>17.92</ele>
        <time>2024-05-15T12:23:33Z</time>
      </trkpt>
      <trkpt lat="50.57008" lon="1.598">
        <ele>18.4</ele>
        <time>2024-05-15T12:23:49Z</time>
      </trkpt>
      <trkpt lat="50.57007" lon="1.59782">
        <ele>17.92</ele>
        <time>2024-05-15T12:23:59Z</time>
      </trkpt>
      <trkpt lat="50.57003" lon="1.59753">
        <ele>16.48</ele>
        <time>2024-05-15T12:24:14Z</time>
      </trkpt>
      <trkpt lat="50.57004" lon="1.59718">
        <ele>18.4</ele>
        <time>2024-05-15T12:24:27Z</time>
      </trkpt>
      <trkpt lat="50.57005" lon="1.59697">
        <ele>17.92</ele>
        <time>2024-05-15T12:24:37Z</time>
      </trkpt>
      <trkpt lat="50.57005" lon="1.59682">
        <ele>17.44</ele>
        <time>2024-05-15T12:24:45Z</time>
      </trkpt>
      <trkpt lat="50.57005" lon="1.59668">
        <ele>17.92</ele>
        <time>2024-05-15T12:24:51Z</time>
      </trkpt>
      <trkpt lat="50.57007" lon="1.59644">
        <ele>17.44</ele>
        <time>2024-05-15T12:25:02Z</time>
      </trkpt>
      <trkpt lat="50.57006" lon="1.59635">
        <ele>16.96</ele>
        <time>2024-05-15T12:25:06Z</time>
      </trkpt>
      <trkpt lat="50.57006" lon="1.59621">
        <ele>17.44</ele>
        <time>2024-05-15T12:25:11Z</time>
      </trkpt>
      <trkpt lat="50.57003" lon="1.59606">
        <ele>16.96</ele>
        <time>2024-05-15T12:25:17Z</time>
      </trkpt>
      <trkpt lat="50.57004" lon="1.59589">
        <ele>17.44</ele>
        <time>2024-05-15T12:25:25Z</time>
      </trkpt>
      <trkpt lat="50.57005" lon="1.59582">
        <ele>17.44</ele>
        <time>2024-05-15T12:25:29Z</time>
      </trkpt>
      <trkpt lat="50.57005" lon="1.59575">
        <ele>17.44</ele>
        <time>2024-05-15T12:25:32Z</time>
      </trkpt>
      <trkpt lat="50.57003" lon="1.59544">
        <ele>16.96</ele>
        <time>2024-05-15T12:25:46Z</time>
      </trkpt>
      <trkpt lat="50.57003" lon="1.5954">
        <ele>17.44</ele>
        <time>2024-05-15T12:25:48Z</time>
      </trkpt>
      <trkpt lat="50.56997" lon="1.59521">
        <ele>16.48</ele>
        <time>2024-05-15T12:25:57Z</time>
      </trkpt>
      <trkpt lat="50.56996" lon="1.59513">
        <ele>16.96</ele>
        <time>2024-05-15T12:26:01Z</time>
      </trkpt>
      <trkpt lat="50.56994" lon="1.59505">
        <ele>16.96</ele>
        <time>2024-05-15T12:26:05Z</time>
      </trkpt>
      <trkpt lat="50.5699" lon="1.59498">
        <ele>16.96</ele>
        <time>2024-05-15T12:26:09Z</time>
      </trkpt>
      <trkpt lat="50.56987" lon="1.59474">
        <ele>16.48</ele>
        <time>2024-05-15T12:26:21Z</time>
      </trkpt>
      <trkpt lat="50.5699" lon="1.59451">
        <ele>16.48</ele>
        <time>2024-05-15T12:26:31Z</time>
      </trkpt>
      <trkpt lat="50.56986" lon="1.59444">
        <ele>16.48</ele>
        <time>2024-05-15T12:26:35Z</time>
      </trkpt>
      <trkpt lat="50.56985" lon="1.59436">
        <ele>23.21</ele>
        <time>2024-05-15T12:26:39Z</time>
      </trkpt>
      <trkpt lat="50.56984" lon="1.59434">
        <ele>16.96</ele>
        <time>2024-05-15T12:26:40Z</time>
      </trkpt>
      <trkpt lat="50.56984" lon="1.59429">
        <ele>12.15</ele>
        <time>2024-05-15T12:26:42Z</time>
      </trkpt>
      <trkpt lat="50.56984" lon="1.59426">
        <ele>17.92</ele>
        <time>2024-05-15T12:26:43Z</time>
      </trkpt>
      <trkpt lat="50.56984" lon="1.59421">
        <ele>8.31</ele>
        <time>2024-05-15T12:26:45Z</time>
      </trkpt>
      <trkpt lat="50.56985" lon="1.5942">
        <ele>17.44</ele>
        <time>2024-05-15T12:26:46Z</time>
      </trkpt>
      <trkpt lat="50.56985" lon="1.59413">
        <ele>1.1</ele>
        <time>2024-05-15T12:26:49Z</time>
      </trkpt>
      <trkpt lat="50.56984" lon="1.59411">
        <ele>19.36</ele>
        <time>2024-05-15T12:26:50Z</time>
      </trkpt>
      <trkpt lat="50.56982" lon="1.59406">
        <ele>16</ele>
        <time>2024-05-15T12:26:53Z</time>
      </trkpt>
      <trkpt lat="50.56981" lon="1.59404">
        <ele>16.48</ele>
        <time>2024-05-15T12:26:54Z</time>
      </trkpt>
      <trkpt lat="50.56976" lon="1.59378">
        <ele>16.48</ele>
        <time>2024-05-15T12:27:05Z</time>
      </trkpt>
      <trkpt lat="50.56976" lon="1.59368">
        <ele>16</ele>
        <time>2024-05-15T12:27:10Z</time>
      </trkpt>
      <trkpt lat="50.56973" lon="1.59337">
        <ele>16</ele>
        <time>2024-05-15T12:27:25Z</time>
      </trkpt>
      <trkpt lat="50.56974" lon="1.59329">
        <ele>16</ele>
        <time>2024-05-15T12:27:29Z</time>
      </trkpt>
      <trkpt lat="50.56971" lon="1.59309">
        <ele>15.52</ele>
        <time>2024-05-15T12:27:39Z</time>
      </trkpt>
      <trkpt lat="50.56959" lon="1.5928">
        <ele>15.52</ele>
        <time>2024-05-15T12:27:53Z</time>
      </trkpt>
      <trkpt lat="50.56958" lon="1.59276">
        <ele>16</ele>
        <time>2024-05-15T12:27:55Z</time>
      </trkpt>
      <trkpt lat="50.56958" lon="1.5927">
        <ele>15.04</ele>
        <time>2024-05-15T12:27:58Z</time>
      </trkpt>
      <trkpt lat="50.56959" lon="1.59236">
        <ele>16</ele>
        <time>2024-05-15T12:28:13Z</time>
      </trkpt>
      <trkpt lat="50.56953" lon="1.59219">
        <ele>14.56</ele>
        <time>2024-05-15T12:28:22Z</time>
      </trkpt>
      <trkpt lat="50.56948" lon="1.59206">
        <ele>14.08</ele>
        <time>2024-05-15T12:28:28Z</time>
      </trkpt>
      <trkpt lat="50.56947" lon="1.59195">
        <ele>14.08</ele>
        <time>2024-05-15T12:28:33Z</time>
      </trkpt>
      <trkpt lat="50.56945" lon="1.59161">
        <ele>14.08</ele>
        <time>2024-05-15T12:28:47Z</time>
      </trkpt>
      <trkpt lat="50.56942" lon="1.59133">
        <ele>12.63</ele>
        <time>2024-05-15T12:29:02Z</time>
      </trkpt>
      <trkpt lat="50.56941" lon="1.59123">
        <ele>14.08</ele>
        <time>2024-05-15T12:29:13Z</time>
      </trkpt>
      <trkpt lat="50.56941" lon="1.59116">
        <ele>12.63</ele>
        <time>2024-05-15T12:29:27Z</time>
      </trkpt>
      <trkpt lat="50.5694" lon="1.59116">
        <ele>12.63</ele>
        <time>2024-05-15T12:29:43Z</time>
      </trkpt>
      <trkpt lat="50.56942" lon="1.59112">
        <ele>13.12</ele>
        <time>2024-05-15T12:29:49Z</time>
      </trkpt>
      <trkpt lat="50.56946" lon="1.59087">
        <ele>12.15</ele>
        <time>2024-05-15T12:30:01Z</time>
      </trkpt>
      <trkpt lat="50.56948" lon="1.59082">
        <ele>12.15</ele>
        <time>2024-05-15T12:30:03Z</time>
      </trkpt>
      <trkpt lat="50.56955" lon="1.59053">
        <ele>11.19</ele>
        <time>2024-05-15T12:30:18Z</time>
      </trkpt>
      <trkpt lat="50.56961" lon="1.59035">
        <ele>11.67</ele>
        <time>2024-05-15T12:30:28Z</time>
      </trkpt>
      <trkpt lat="50.56962" lon="1.5903">
        <ele>11.67</ele>
        <time>2024-05-15T12:30:30Z</time>
      </trkpt>
      <trkpt lat="50.56965" lon="1.59008">
        <ele>11.19</ele>
        <time>2024-05-15T12:30:39Z</time>
      </trkpt>
      <trkpt lat="50.56975" lon="1.58976">
        <ele>10.23</ele>
        <time>2024-05-15T12:30:55Z</time>
      </trkpt>
      <trkpt lat="50.56976" lon="1.5897">
        <ele>10.23</ele>
        <time>2024-05-15T12:30:58Z</time>
      </trkpt>
      <trkpt lat="50.56976" lon="1.58957">
        <ele>9.75</ele>
        <time>2024-05-15T12:31:04Z</time>
      </trkpt>
      <trkpt lat="50.56982" lon="1.58947">
        <ele>10.23</ele>
        <time>2024-05-15T12:31:10Z</time>
      </trkpt>
      <trkpt lat="50.56984" lon="1.5893">
        <ele>9.75</ele>
        <time>2024-05-15T12:31:18Z</time>
      </trkpt>
      <trkpt lat="50.56988" lon="1.58907">
        <ele>9.75</ele>
        <time>2024-05-15T12:31:30Z</time>
      </trkpt>
      <trkpt lat="50.56989" lon="1.58902">
        <ele>9.75</ele>
        <time>2024-05-15T12:31:33Z</time>
      </trkpt>
      <trkpt lat="50.5699" lon="1.58893">
        <ele>9.27</ele>
        <time>2024-05-15T12:31:38Z</time>
      </trkpt>
      <trkpt lat="50.56993" lon="1.58883">
        <ele>10.23</ele>
        <time>2024-05-15T12:31:42Z</time>
      </trkpt>
      <trkpt lat="50.56997" lon="1.58853">
        <ele>9.75</ele>
        <time>2024-05-15T12:31:55Z</time>
      </trkpt>
      <trkpt lat="50.56997" lon="1.58837">
        <ele>9.27</ele>
        <time>2024-05-15T12:32:04Z</time>
      </trkpt>
      <trkpt lat="50.56997" lon="1.58811">
        <ele>9.75</ele>
        <time>2024-05-15T12:32:17Z</time>
      </trkpt>
      <trkpt lat="50.56995" lon="1.58803">
        <ele>9.75</ele>
        <time>2024-05-15T12:32:21Z</time>
      </trkpt>
      <trkpt lat="50.56997" lon="1.58791">
        <ele>8.79</ele>
        <time>2024-05-15T12:32:27Z</time>
      </trkpt>
      <trkpt lat="50.57003" lon="1.5876">
        <ele>9.27</ele>
        <time>2024-05-15T12:32:42Z</time>
      </trkpt>
      <trkpt lat="50.57005" lon="1.58744">
        <ele>10.23</ele>
        <time>2024-05-15T12:32:49Z</time>
      </trkpt>
      <trkpt lat="50.5701" lon="1.58723">
        <ele>9.27</ele>
        <time>2024-05-15T12:32:58Z</time>
      </trkpt>
      <trkpt lat="50.57012" lon="1.58692">
        <ele>10.23</ele>
        <time>2024-05-15T12:33:10Z</time>
      </trkpt>
      <trkpt lat="50.57015" lon="1.58683">
        <ele>9.27</ele>
        <time>2024-05-15T12:33:15Z</time>
      </trkpt>
      <trkpt lat="50.57015" lon="1.58679">
        <ele>9.27</ele>
        <time>2024-05-15T12:33:17Z</time>
      </trkpt>
      <trkpt lat="50.57017" lon="1.58655">
        <ele>10.23</ele>
        <time>2024-05-15T12:33:28Z</time>
      </trkpt>
      <trkpt lat="50.57017" lon="1.58646">
        <ele>9.27</ele>
        <time>2024-05-15T12:33:33Z</time>
      </trkpt>
      <trkpt lat="50.57018" lon="1.58638">
        <ele>9.27</ele>
        <time>2024-05-15T12:33:37Z</time>
      </trkpt>
      <trkpt lat="50.5702" lon="1.58628">
        <ele>8.79</ele>
        <time>2024-05-15T12:33:42Z</time>
      </trkpt>
      <trkpt lat="50.5702" lon="1.58618">
        <ele>9.27</ele>
        <time>2024-05-15T12:33:47Z</time>
      </trkpt>
      <trkpt lat="50.57025" lon="1.58588">
        <ele>8.79</ele>
        <time>2024-05-15T12:34:02Z</time>
      </trkpt>
      <trkpt lat="50.57024" lon="1.58584">
        <ele>8.79</ele>
        <time>2024-05-15T12:34:09Z</time>
      </trkpt>
      <trkpt lat="50.57027" lon="1.58552">
        <ele>9.27</ele>
        <time>2024-05-15T12:34:23Z</time>
      </trkpt>
      <trkpt lat="50.57026" lon="1.58549">
        <ele>8.79</ele>
        <time>2024-05-15T12:34:24Z</time>
      </trkpt>
      <trkpt lat="50.57026" lon="1.58544">
        <ele>9.27</ele>
        <time>2024-05-15T12:34:26Z</time>
      </trkpt>
      <trkpt lat="50.57029" lon="1.58534">
        <ele>9.27</ele>
        <time>2024-05-15T12:34:30Z</time>
      </trkpt>
      <trkpt lat="50.57031" lon="1.58527">
        <ele>9.27</ele>
        <time>2024-05-15T12:34:33Z</time>
      </trkpt>
      <trkpt lat="50.57033" lon="1.58501">
        <ele>9.27</ele>
        <time>2024-05-15T12:34:45Z</time>
      </trkpt>
      <trkpt lat="50.57035" lon="1.5848">
        <ele>9.27</ele>
        <time>2024-05-15T12:34:54Z</time>
      </trkpt>
      <trkpt lat="50.57036" lon="1.5847">
        <ele>10.23</ele>
        <time>2024-05-15T12:34:58Z</time>
      </trkpt>
      <trkpt lat="50.57037" lon="1.58458">
        <ele>8.31</ele>
        <time>2024-05-15T12:35:04Z</time>
      </trkpt>
      <trkpt lat="50.57039" lon="1.5845">
        <ele>8.79</ele>
        <time>2024-05-15T12:35:08Z</time>
      </trkpt>
      <trkpt lat="50.57038" lon="1.58439">
        <ele>8.79</ele>
        <time>2024-05-15T12:35:13Z</time>
      </trkpt>
      <trkpt lat="50.5704" lon="1.58428">
        <ele>8.31</ele>
        <time>2024-05-15T12:35:18Z</time>
      </trkpt>
      <trkpt lat="50.5704" lon="1.58405">
        <ele>7.83</ele>
        <time>2024-05-15T12:35:29Z</time>
      </trkpt>
      <trkpt lat="50.57044" lon="1.5838">
        <ele>7.83</ele>
        <time>2024-05-15T12:35:41Z</time>
      </trkpt>
      <trkpt lat="50.57048" lon="1.58366">
        <ele>7.35</ele>
        <time>2024-05-15T12:35:48Z</time>
      </trkpt>
      <trkpt lat="50.5705" lon="1.58333">
        <ele>7.83</ele>
        <time>2024-05-15T12:36:02Z</time>
      </trkpt>
      <trkpt lat="50.5705" lon="1.5832">
        <ele>7.83</ele>
        <time>2024-05-15T12:36:08Z</time>
      </trkpt>
      <trkpt lat="50.57055" lon="1.58291">
        <ele>7.35</ele>
        <time>2024-05-15T12:36:22Z</time>
      </trkpt>
      <trkpt lat="50.57056" lon="1.58266">
        <ele>6.87</ele>
        <time>2024-05-15T12:36:33Z</time>
      </trkpt>
      <trkpt lat="50.57062" lon="1.58252">
        <ele>6.87</ele>
        <time>2024-05-15T12:36:41Z</time>
      </trkpt>
      <trkpt lat="50.57062" lon="1.58239">
        <ele>6.39</ele>
        <time>2024-05-15T12:36:47Z</time>
      </trkpt>
      <trkpt lat="50.57064" lon="1.58231">
        <ele>6.39</ele>
        <time>2024-05-15T12:36:51Z</time>
      </trkpt>
      <trkpt lat="50.57065" lon="1.58227">
        <ele>6.87</ele>
        <time>2024-05-15T12:36:53Z</time>
      </trkpt>
      <trkpt lat="50.57066" lon="1.58212">
        <ele>6.39</ele>
        <time>2024-05-15T12:36:59Z</time>
      </trkpt>
      <trkpt lat="50.57069" lon="1.58189">
        <ele>3.02</ele>
        <time>2024-05-15T12:37:09Z</time>
      </trkpt>
      <trkpt lat="50.5707" lon="1.58187">
        <ele>6.39</ele>
        <time>2024-05-15T12:37:10Z</time>
      </trkpt>
      <trkpt lat="50.5707" lon="1.58185">
        <ele>-10.92</ele>
        <time>2024-05-15T12:37:11Z</time>
      </trkpt>
      <trkpt lat="50.5707" lon="1.58182">
        <ele>8.79</ele>
        <time>2024-05-15T12:37:12Z</time>
      </trkpt>
      <trkpt lat="50.57072" lon="1.58154">
        <ele>6.87</ele>
        <time>2024-05-15T12:37:26Z</time>
      </trkpt>
      <trkpt lat="50.57075" lon="1.58129">
        <ele>6.39</ele>
        <time>2024-05-15T12:37:38Z</time>
      </trkpt>
      <trkpt lat="50.57077" lon="1.58111">
        <ele>6.39</ele>
        <time>2024-05-15T12:37:46Z</time>
      </trkpt>
      <trkpt lat="50.57078" lon="1.58107">
        <ele>6.39</ele>
        <time>2024-05-15T12:37:48Z</time>
      </trkpt>
      <trkpt lat="50.57079" lon="1.58083">
        <ele>6.87</ele>
        <time>2024-05-15T12:38:00Z</time>
      </trkpt>
      <trkpt lat="50.57083" lon="1.58052">
        <ele>5.91</ele>
        <time>2024-05-15T12:38:13Z</time>
      </trkpt>
      <trkpt lat="50.57086" lon="1.58026">
        <ele>6.39</ele>
        <time>2024-05-15T12:38:25Z</time>
      </trkpt>
      <trkpt lat="50.57088" lon="1.57998">
        <ele>5.91</ele>
        <time>2024-05-15T12:38:39Z</time>
      </trkpt>
      <trkpt lat="50.57089" lon="1.57982">
        <ele>5.91</ele>
        <time>2024-05-15T12:38:46Z</time>
      </trkpt>
      <trkpt lat="50.57085" lon="1.57956">
        <ele>6.39</ele>
        <time>2024-05-15T12:38:58Z</time>
      </trkpt>
      <trkpt lat="50.57084" lon="1.57951">
        <ele>5.91</ele>
        <time>2024-05-15T12:39:00Z</time>
      </trkpt>
      <trkpt lat="50.57081" lon="1.57944">
        <ele>5.91</ele>
        <time>2024-05-15T12:39:04Z</time>
      </trkpt>
      <trkpt lat="50.57079" lon="1.57941">
        <ele>5.91</ele>
        <time>2024-05-15T12:39:06Z</time>
      </trkpt>
      <trkpt lat="50.57078" lon="1.57909">
        <ele>5.42</ele>
        <time>2024-05-15T12:39:19Z</time>
      </trkpt>
      <trkpt lat="50.57079" lon="1.5789">
        <ele>5.91</ele>
        <time>2024-05-15T12:39:28Z</time>
      </trkpt>
      <trkpt lat="50.57076" lon="1.57879">
        <ele>5.42</ele>
        <time>2024-05-15T12:39:33Z</time>
      </trkpt>
      <trkpt lat="50.57077" lon="1.57864">
        <ele>5.91</ele>
        <time>2024-05-15T12:39:40Z</time>
      </trkpt>
      <trkpt lat="50.57076" lon="1.57853">
        <ele>4.94</ele>
        <time>2024-05-15T12:39:45Z</time>
      </trkpt>
      <trkpt lat="50.57074" lon="1.57845">
        <ele>4.94</ele>
        <time>2024-05-15T12:39:49Z</time>
      </trkpt>
      <trkpt lat="50.57071" lon="1.57819">
        <ele>4.94</ele>
        <time>2024-05-15T12:40:02Z</time>
      </trkpt>
      <trkpt lat="50.57069" lon="1.57798">
        <ele>4.46</ele>
        <time>2024-05-15T12:40:12Z</time>
      </trkpt>
      <trkpt lat="50.57069" lon="1.57789">
        <ele>4.94</ele>
        <time>2024-05-15T12:40:17Z</time>
      </trkpt>
      <trkpt lat="50.57068" lon="1.57779">
        <ele>4.94</ele>
        <time>2024-05-15T12:40:22Z</time>
      </trkpt>
      <trkpt lat="50.57067" lon="1.57774">
        <ele>4.46</ele>
        <time>2024-05-15T12:40:24Z</time>
      </trkpt>
      <trkpt lat="50.57063" lon="1.57757">
        <ele>4.94</ele>
        <time>2024-05-15T12:40:33Z</time>
      </trkpt>
      <trkpt lat="50.57055" lon="1.57736">
        <ele>3.98</ele>
        <time>2024-05-15T12:40:44Z</time>
      </trkpt>
      <trkpt lat="50.57055" lon="1.57721">
        <ele>3.98</ele>
        <time>2024-05-15T12:40:52Z</time>
      </trkpt>
      <trkpt lat="50.57054" lon="1.57718">
        <ele>3.5</ele>
        <time>2024-05-15T12:40:54Z</time>
      </trkpt>
      <trkpt lat="50.5705" lon="1.577">
        <ele>1.1</ele>
        <time>2024-05-15T12:41:07Z</time>
      </trkpt>
      <trkpt lat="50.57049" lon="1.57688">
        <ele>1.1</ele>
        <time>2024-05-15T12:41:15Z</time>
      </trkpt>
      <trkpt lat="50.5705" lon="1.57685">
        <ele>-1.3</ele>
        <time>2024-05-15T12:41:18Z</time>
      </trkpt>
      <trkpt lat="50.5705" lon="1.57681">
        <ele>0.14</ele>
        <time>2024-05-15T12:41:21Z</time>
      </trkpt>
      <trkpt lat="50.57051" lon="1.57681">
        <ele>-1.3</ele>
        <time>2024-05-15T12:41:36Z</time>
      </trkpt>
      <trkpt lat="50.57053" lon="1.57682">
        <ele>-0.82</ele>
        <time>2024-05-15T12:41:39Z</time>
      </trkpt>
      <trkpt lat="50.57059" lon="1.57685">
        <ele>-0.82</ele>
        <time>2024-05-15T12:41:44Z</time>
      </trkpt>
      <trkpt lat="50.5707" lon="1.57688">
        <ele>0.62</ele>
        <time>2024-05-15T12:41:56Z</time>
      </trkpt>
      <trkpt lat="50.57069" lon="1.5769">
        <ele>0.14</ele>
        <time>2024-05-15T12:42:09Z</time>
      </trkpt>
      <trkpt lat="50.57072" lon="1.57693">
        <ele>0.62</ele>
        <time>2024-05-15T12:42:29Z</time>
      </trkpt>
      <trkpt lat="50.57074" lon="1.57694">
        <ele>-0.34</ele>
        <time>2024-05-15T12:42:31Z</time>
      </trkpt>
      <trkpt lat="50.57077" lon="1.57694">
        <ele>0.14</ele>
        <time>2024-05-15T12:42:34Z</time>
      </trkpt>
      <trkpt lat="50.57085" lon="1.57695">
        <ele>0.14</ele>
        <time>2024-05-15T12:42:45Z</time>
      </trkpt>
      <trkpt lat="50.57089" lon="1.57692">
        <ele>0.14</ele>
        <time>2024-05-15T12:42:50Z</time>
      </trkpt>
      <trkpt lat="50.57095" lon="1.57693">
        <ele>0.62</ele>
        <time>2024-05-15T12:42:57Z</time>
      </trkpt>
      <trkpt lat="50.57099" lon="1.57697">
        <ele>1.1</ele>
        <time>2024-05-15T12:43:14Z</time>
      </trkpt>
      <trkpt lat="50.57098" lon="1.57694">
        <ele>1.58</ele>
        <time>2024-05-15T12:43:28Z</time>
      </trkpt>
      <trkpt lat="50.5709" lon="1.57685">
        <ele>0.62</ele>
        <time>2024-05-15T12:43:41Z</time>
      </trkpt>
      <trkpt lat="50.57091" lon="1.57684">
        <ele>-0.34</ele>
        <time>2024-05-15T12:43:50Z</time>
      </trkpt>
      <trkpt lat="50.57096" lon="1.57683">
        <ele>-0.34</ele>
        <time>2024-05-15T12:43:55Z</time>
      </trkpt>
      <trkpt lat="50.57112" lon="1.57682">
        <ele>0.14</ele>
        <time>2024-05-15T12:44:08Z</time>
      </trkpt>
      <trkpt lat="50.57115" lon="1.57682">
        <ele>-0.34</ele>
        <time>2024-05-15T12:44:11Z</time>
      </trkpt>
      <trkpt lat="50.57132" lon="1.5768">
        <ele>-0.82</ele>
        <time>2024-05-15T12:44:26Z</time>
      </trkpt>
      <trkpt lat="50.57151" lon="1.57676">
        <ele>-0.82</ele>
        <time>2024-05-15T12:44:42Z</time>
      </trkpt>
      <trkpt lat="50.5717" lon="1.57671">
        <ele>-0.82</ele>
        <time>2024-05-15T12:44:58Z</time>
      </trkpt>
      <trkpt lat="50.5719" lon="1.57669">
        <ele>-0.82</ele>
        <time>2024-05-15T12:45:14Z</time>
      </trkpt>
      <trkpt lat="50.5721" lon="1.57662">
        <ele>-0.82</ele>
        <time>2024-05-15T12:45:31Z</time>
      </trkpt>
      <trkpt lat="50.5723" lon="1.57649">
        <ele>-0.82</ele>
        <time>2024-05-15T12:45:48Z</time>
      </trkpt>
      <trkpt lat="50.57251" lon="1.57641">
        <ele>-0.82</ele>
        <time>2024-05-15T12:46:05Z</time>
      </trkpt>
      <trkpt lat="50.57272" lon="1.57635">
        <ele>-0.82</ele>
        <time>2024-05-15T12:46:22Z</time>
      </trkpt>
      <trkpt lat="50.57292" lon="1.5763">
        <ele>-0.82</ele>
        <time>2024-05-15T12:46:37Z</time>
      </trkpt>
      <trkpt lat="50.57311" lon="1.5762">
        <ele>-0.34</ele>
        <time>2024-05-15T12:46:53Z</time>
      </trkpt>
      <trkpt lat="50.57333" lon="1.57612">
        <ele>-0.82</ele>
        <time>2024-05-15T12:47:11Z</time>
      </trkpt>
      <trkpt lat="50.57352" lon="1.57604">
        <ele>-0.82</ele>
        <time>2024-05-15T12:47:26Z</time>
      </trkpt>
      <trkpt lat="50.57363" lon="1.576">
        <ele>1.1</ele>
        <time>2024-05-15T12:47:37Z</time>
      </trkpt>
      <trkpt lat="50.57365" lon="1.57599">
        <ele>-0.34</ele>
        <time>2024-05-15T12:47:42Z</time>
      </trkpt>
      <trkpt lat="50.57384" lon="1.57594">
        <ele>0.14</ele>
        <time>2024-05-15T12:47:59Z</time>
      </trkpt>
      <trkpt lat="50.57392" lon="1.57593">
        <ele>-0.34</ele>
        <time>2024-05-15T12:48:06Z</time>
      </trkpt>
      <trkpt lat="50.57414" lon="1.57592">
        <ele>-0.82</ele>
        <time>2024-05-15T12:48:22Z</time>
      </trkpt>
      <trkpt lat="50.57437" lon="1.57591">
        <ele>-0.82</ele>
        <time>2024-05-15T12:48:39Z</time>
      </trkpt>
      <trkpt lat="50.57459" lon="1.57589">
        <ele>-0.82</ele>
        <time>2024-05-15T12:48:56Z</time>
      </trkpt>
      <trkpt lat="50.57481" lon="1.57591">
        <ele>-0.34</ele>
        <time>2024-05-15T12:49:13Z</time>
      </trkpt>
      <trkpt lat="50.57494" lon="1.57597">
        <ele>-0.34</ele>
        <time>2024-05-15T12:49:26Z</time>
      </trkpt>
      <trkpt lat="50.57515" lon="1.57603">
        <ele>0.62</ele>
        <time>2024-05-15T12:49:43Z</time>
      </trkpt>
      <trkpt lat="50.57537" lon="1.57605">
        <ele>0.14</ele>
        <time>2024-05-15T12:50:00Z</time>
      </trkpt>
      <trkpt lat="50.57557" lon="1.57604">
        <ele>0.14</ele>
        <time>2024-05-15T12:50:17Z</time>
      </trkpt>
      <trkpt lat="50.57562" lon="1.57606">
        <ele>1.58</ele>
        <time>2024-05-15T12:50:21Z</time>
      </trkpt>
      <trkpt lat="50.57578" lon="1.57609">
        <ele>1.1</ele>
        <time>2024-05-15T12:50:34Z</time>
      </trkpt>
      <trkpt lat="50.57584" lon="1.57608">
        <ele>-1.79</ele>
        <time>2024-05-15T12:50:39Z</time>
      </trkpt>
      <trkpt lat="50.57585" lon="1.57608">
        <ele>1.58</ele>
        <time>2024-05-15T12:50:40Z</time>
      </trkpt>
      <trkpt lat="50.57591" lon="1.57608">
        <ele>1.1</ele>
        <time>2024-05-15T12:50:45Z</time>
      </trkpt>
      <trkpt lat="50.57597" lon="1.57608">
        <ele>0.62</ele>
        <time>2024-05-15T12:50:50Z</time>
      </trkpt>
      <trkpt lat="50.5761" lon="1.5761">
        <ele>0.62</ele>
        <time>2024-05-15T12:51:04Z</time>
      </trkpt>
      <trkpt lat="50.57627" lon="1.57613">
        <ele>1.58</ele>
        <time>2024-05-15T12:51:20Z</time>
      </trkpt>
      <trkpt lat="50.57645" lon="1.57619">
        <ele>0.14</ele>
        <time>2024-05-15T12:51:36Z</time>
      </trkpt>
      <trkpt lat="50.57674" lon="1.57622">
        <ele>1.1</ele>
        <time>2024-05-15T12:52:00Z</time>
      </trkpt>
      <trkpt lat="50.57685" lon="1.57616">
        <ele>2.54</ele>
        <time>2024-05-15T12:52:15Z</time>
      </trkpt>
      <trkpt lat="50.57686" lon="1.57615">
        <ele>1.58</ele>
        <time>2024-05-15T12:52:16Z</time>
      </trkpt>
      <trkpt lat="50.57707" lon="1.57614">
        <ele>1.1</ele>
        <time>2024-05-15T12:52:35Z</time>
      </trkpt>
      <trkpt lat="50.57725" lon="1.57617">
        <ele>0.62</ele>
        <time>2024-05-15T12:52:51Z</time>
      </trkpt>
      <trkpt lat="50.57743" lon="1.57621">
        <ele>0.14</ele>
        <time>2024-05-15T12:53:08Z</time>
      </trkpt>
      <trkpt lat="50.57769" lon="1.57625">
        <ele>0.62</ele>
        <time>2024-05-15T12:53:29Z</time>
      </trkpt>
      <trkpt lat="50.57774" lon="1.57627">
        <ele>1.1</ele>
        <time>2024-05-15T12:53:35Z</time>
      </trkpt>
      <trkpt lat="50.578" lon="1.57631">
        <ele>0.62</ele>
        <time>2024-05-15T12:53:57Z</time>
      </trkpt>
      <trkpt lat="50.57822" lon="1.57634">
        <ele>0.62</ele>
        <time>2024-05-15T12:54:16Z</time>
      </trkpt>
      <trkpt lat="50.57852" lon="1.57642">
        <ele>0.62</ele>
        <time>2024-05-15T12:54:39Z</time>
      </trkpt>
      <trkpt lat="50.57856" lon="1.57641">
        <ele>2.54</ele>
        <time>2024-05-15T12:54:42Z</time>
      </trkpt>
      <trkpt lat="50.57858" lon="1.57643">
        <ele>1.1</ele>
        <time>2024-05-15T12:54:47Z</time>
      </trkpt>
      <trkpt lat="50.5788" lon="1.57649">
        <ele>1.1</ele>
        <time>2024-05-15T12:55:08Z</time>
      </trkpt>
      <trkpt lat="50.57885" lon="1.5765">
        <ele>2.54</ele>
        <time>2024-05-15T12:55:12Z</time>
      </trkpt>
      <trkpt lat="50.57913" lon="1.57656">
        <ele>1.1</ele>
        <time>2024-05-15T12:55:35Z</time>
      </trkpt>
      <trkpt lat="50.57936" lon="1.5766">
        <ele>1.58</ele>
        <time>2024-05-15T12:55:55Z</time>
      </trkpt>
      <trkpt lat="50.57953" lon="1.57663">
        <ele>3.02</ele>
        <time>2024-05-15T12:56:09Z</time>
      </trkpt>
      <trkpt lat="50.57953" lon="1.57664">
        <ele>3.5</ele>
        <time>2024-05-15T12:56:11Z</time>
      </trkpt>
      <trkpt lat="50.57962" lon="1.57665">
        <ele>2.06</ele>
        <time>2024-05-15T12:56:20Z</time>
      </trkpt>
      <trkpt lat="50.57988" lon="1.57676">
        <ele>1.58</ele>
        <time>2024-05-15T12:56:42Z</time>
      </trkpt>
      <trkpt lat="50.58013" lon="1.57686">
        <ele>1.58</ele>
        <time>2024-05-15T12:57:03Z</time>
      </trkpt>
      <trkpt lat="50.5804" lon="1.57687">
        <ele>1.58</ele>
        <time>2024-05-15T12:57:25Z</time>
      </trkpt>
      <trkpt lat="50.58065" lon="1.57691">
        <ele>2.06</ele>
        <time>2024-05-15T12:57:46Z</time>
      </trkpt>
      <trkpt lat="50.58073" lon="1.57696">
        <ele>2.54</ele>
        <time>2024-05-15T12:57:55Z</time>
      </trkpt>
      <trkpt lat="50.58091" lon="1.57699">
        <ele>2.06</ele>
        <time>2024-05-15T12:58:11Z</time>
      </trkpt>
      <trkpt lat="50.58107" lon="1.57703">
        <ele>5.42</ele>
        <time>2024-05-15T12:58:24Z</time>
      </trkpt>
      <trkpt lat="50.58114" lon="1.57705">
        <ele>2.06</ele>
        <time>2024-05-15T12:58:30Z</time>
      </trkpt>
      <trkpt lat="50.58128" lon="1.57706">
        <ele>3.02</ele>
        <time>2024-05-15T12:58:44Z</time>
      </trkpt>
      <trkpt lat="50.58135" lon="1.57707">
        <ele>2.06</ele>
        <time>2024-05-15T12:58:56Z</time>
      </trkpt>
      <trkpt lat="50.58154" lon="1.57708">
        <ele>1.58</ele>
        <time>2024-05-15T12:59:13Z</time>
      </trkpt>
      <trkpt lat="50.58174" lon="1.57712">
        <ele>1.1</ele>
        <time>2024-05-15T12:59:30Z</time>
      </trkpt>
      <trkpt lat="50.58197" lon="1.57712">
        <ele>1.58</ele>
        <time>2024-05-15T12:59:48Z</time>
      </trkpt>
      <trkpt lat="50.58219" lon="1.57712">
        <ele>1.58</ele>
        <time>2024-05-15T13:00:05Z</time>
      </trkpt>
      <trkpt lat="50.5824" lon="1.5771">
        <ele>1.58</ele>
        <time>2024-05-15T13:00:22Z</time>
      </trkpt>
      <trkpt lat="50.58262" lon="1.57712">
        <ele>1.58</ele>
        <time>2024-05-15T13:00:39Z</time>
      </trkpt>
      <trkpt lat="50.58287" lon="1.57712">
        <ele>2.54</ele>
        <time>2024-05-15T13:00:58Z</time>
      </trkpt>
      <trkpt lat="50.58309" lon="1.57709">
        <ele>1.58</ele>
        <time>2024-05-15T13:01:16Z</time>
      </trkpt>
      <trkpt lat="50.58329" lon="1.57709">
        <ele>0.62</ele>
        <time>2024-05-15T13:01:33Z</time>
      </trkpt>
      <trkpt lat="50.58354" lon="1.57711">
        <ele>1.58</ele>
        <time>2024-05-15T13:01:52Z</time>
      </trkpt>
      <trkpt lat="50.58361" lon="1.57712">
        <ele>1.1</ele>
        <time>2024-05-15T13:01:58Z</time>
      </trkpt>
      <trkpt lat="50.58368" lon="1.57708">
        <ele>0.62</ele>
        <time>2024-05-15T13:02:03Z</time>
      </trkpt>
      <trkpt lat="50.58373" lon="1.57709">
        <ele>1.58</ele>
        <time>2024-05-15T13:02:07Z</time>
      </trkpt>
      <trkpt lat="50.58389" lon="1.57708">
        <ele>1.58</ele>
        <time>2024-05-15T13:02:19Z</time>
      </trkpt>
      <trkpt lat="50.58399" lon="1.57704">
        <ele>0.62</ele>
        <time>2024-05-15T13:02:27Z</time>
      </trkpt>
      <trkpt lat="50.58415" lon="1.57704">
        <ele>2.06</ele>
        <time>2024-05-15T13:02:40Z</time>
      </trkpt>
      <trkpt lat="50.58418" lon="1.57706">
        <ele>3.5</ele>
        <time>2024-05-15T13:02:57Z</time>
      </trkpt>
      <trkpt lat="50.58419" lon="1.57707">
        <ele>3.02</ele>
        <time>2024-05-15T13:03:05Z</time>
      </trkpt>
      <trkpt lat="50.58421" lon="1.57708">
        <ele>1.58</ele>
        <time>2024-05-15T13:03:07Z</time>
      </trkpt>
      <trkpt lat="50.58423" lon="1.57708">
        <ele>1.1</ele>
        <time>2024-05-15T13:03:08Z</time>
      </trkpt>
      <trkpt lat="50.58433" lon="1.57708">
        <ele>1.1</ele>
        <time>2024-05-15T13:03:16Z</time>
      </trkpt>
      <trkpt lat="50.58441" lon="1.57709">
        <ele>1.58</ele>
        <time>2024-05-15T13:03:22Z</time>
      </trkpt>
      <trkpt lat="50.5845" lon="1.5771">
        <ele>2.06</ele>
        <time>2024-05-15T13:03:29Z</time>
      </trkpt>
      <trkpt lat="50.58469" lon="1.57712">
        <ele>1.1</ele>
        <time>2024-05-15T13:03:45Z</time>
      </trkpt>
      <trkpt lat="50.58477" lon="1.57713">
        <ele>1.58</ele>
        <time>2024-05-15T13:03:53Z</time>
      </trkpt>
      <trkpt lat="50.58496" lon="1.57712">
        <ele>0.62</ele>
        <time>2024-05-15T13:04:08Z</time>
      </trkpt>
      <trkpt lat="50.58514" lon="1.57709">
        <ele>1.58</ele>
        <time>2024-05-15T13:04:22Z</time>
      </trkpt>
      <trkpt lat="50.5853" lon="1.57709">
        <ele>0.62</ele>
        <time>2024-05-15T13:04:35Z</time>
      </trkpt>
      <trkpt lat="50.5854" lon="1.5771">
        <ele>1.1</ele>
        <time>2024-05-15T13:04:44Z</time>
      </trkpt>
      <trkpt lat="50.58549" lon="1.57711">
        <ele>1.58</ele>
        <time>2024-05-15T13:04:50Z</time>
      </trkpt>
      <trkpt lat="50.58566" lon="1.57707">
        <ele>1.1</ele>
        <time>2024-05-15T13:05:02Z</time>
      </trkpt>
      <trkpt lat="50.58575" lon="1.57706">
        <ele>1.1</ele>
        <time>2024-05-15T13:05:10Z</time>
      </trkpt>
      <trkpt lat="50.5858" lon="1.57703">
        <ele>0.62</ele>
        <time>2024-05-15T13:05:15Z</time>
      </trkpt>
      <trkpt lat="50.58596" lon="1.57699">
        <ele>1.58</ele>
        <time>2024-05-15T13:05:29Z</time>
      </trkpt>
      <trkpt lat="50.58612" lon="1.57698">
        <ele>1.1</ele>
        <time>2024-05-15T13:05:44Z</time>
      </trkpt>
      <trkpt lat="50.58622" lon="1.57697">
        <ele>1.1</ele>
        <time>2024-05-15T13:05:52Z</time>
      </trkpt>
      <trkpt lat="50.58624" lon="1.57695">
        <ele>1.58</ele>
        <time>2024-05-15T13:05:54Z</time>
      </trkpt>
      <trkpt lat="50.58633" lon="1.57694">
        <ele>1.58</ele>
        <time>2024-05-15T13:06:02Z</time>
      </trkpt>
      <trkpt lat="50.58648" lon="1.57702">
        <ele>2.06</ele>
        <time>2024-05-15T13:06:15Z</time>
      </trkpt>
      <trkpt lat="50.58655" lon="1.57704">
        <ele>2.06</ele>
        <time>2024-05-15T13:06:24Z</time>
      </trkpt>
      <trkpt lat="50.58669" lon="1.57714">
        <ele>3.02</ele>
        <time>2024-05-15T13:06:38Z</time>
      </trkpt>
      <trkpt lat="50.58683" lon="1.57722">
        <ele>3.02</ele>
        <time>2024-05-15T13:06:50Z</time>
      </trkpt>
      <trkpt lat="50.58686" lon="1.57725">
        <ele>3.02</ele>
        <time>2024-05-15T13:06:53Z</time>
      </trkpt>
      <trkpt lat="50.58695" lon="1.57732">
        <ele>2.54</ele>
        <time>2024-05-15T13:07:01Z</time>
      </trkpt>
      <trkpt lat="50.58703" lon="1.5774">
        <ele>2.06</ele>
        <time>2024-05-15T13:07:08Z</time>
      </trkpt>
      <trkpt lat="50.58707" lon="1.57743">
        <ele>3.02</ele>
        <time>2024-05-15T13:07:12Z</time>
      </trkpt>
      <trkpt lat="50.58721" lon="1.57755">
        <ele>3.02</ele>
        <time>2024-05-15T13:07:26Z</time>
      </trkpt>
      <trkpt lat="50.5873" lon="1.57775">
        <ele>3.5</ele>
        <time>2024-05-15T13:07:39Z</time>
      </trkpt>
      <trkpt lat="50.58744" lon="1.57788">
        <ele>2.54</ele>
        <time>2024-05-15T13:07:52Z</time>
      </trkpt>
      <trkpt lat="50.58746" lon="1.57788">
        <ele>2.54</ele>
        <time>2024-05-15T13:07:53Z</time>
      </trkpt>
      <trkpt lat="50.58764" lon="1.57783">
        <ele>2.06</ele>
        <time>2024-05-15T13:08:07Z</time>
      </trkpt>
      <trkpt lat="50.58772" lon="1.57781">
        <ele>2.06</ele>
        <time>2024-05-15T13:08:15Z</time>
      </trkpt>
      <trkpt lat="50.58778" lon="1.57781">
        <ele>3.5</ele>
        <time>2024-05-15T13:08:21Z</time>
      </trkpt>
      <trkpt lat="50.58782" lon="1.57776">
        <ele>4.46</ele>
        <time>2024-05-15T13:08:31Z</time>
      </trkpt>
      <trkpt lat="50.58783" lon="1.57788">
        <ele>3.98</ele>
        <time>2024-05-15T13:08:38Z</time>
      </trkpt>
      <trkpt lat="50.58784" lon="1.57792">
        <ele>4.46</ele>
        <time>2024-05-15T13:08:48Z</time>
      </trkpt>
      <trkpt lat="50.58783" lon="1.57787">
        <ele>3.98</ele>
        <time>2024-05-15T13:08:51Z</time>
      </trkpt>
      <trkpt lat="50.58782" lon="1.57777">
        <ele>2.54</ele>
        <time>2024-05-15T13:09:00Z</time>
      </trkpt>
      <trkpt lat="50.5879" lon="1.57773">
        <ele>3.5</ele>
        <time>2024-05-15T13:09:15Z</time>
      </trkpt>
      <trkpt lat="50.58791" lon="1.57772">
        <ele>4.46</ele>
        <time>2024-05-15T13:09:20Z</time>
      </trkpt>
      <trkpt lat="50.58793" lon="1.57783">
        <ele>3.02</ele>
        <time>2024-05-15T13:09:33Z</time>
      </trkpt>
      <trkpt lat="50.58789" lon="1.57789">
        <ele>3.98</ele>
        <time>2024-05-15T13:09:43Z</time>
      </trkpt>
      <trkpt lat="50.58789" lon="1.578">
        <ele>3.5</ele>
        <time>2024-05-15T13:09:57Z</time>
      </trkpt>
      <trkpt lat="50.58789" lon="1.57803">
        <ele>4.94</ele>
        <time>2024-05-15T13:10:01Z</time>
      </trkpt>
      <trkpt lat="50.58794" lon="1.57828">
        <ele>4.46</ele>
        <time>2024-05-15T13:10:16Z</time>
      </trkpt>
      <trkpt lat="50.58794" lon="1.57825">
        <ele>3.5</ele>
        <time>2024-05-15T13:10:20Z</time>
      </trkpt>
      <trkpt lat="50.58791" lon="1.57805">
        <ele>3.5</ele>
        <time>2024-05-15T13:10:34Z</time>
      </trkpt>
      <trkpt lat="50.58791" lon="1.578">
        <ele>3.5</ele>
        <time>2024-05-15T13:10:46Z</time>
      </trkpt>
      <trkpt lat="50.58794" lon="1.578">
        <ele>3.98</ele>
        <time>2024-05-15T13:10:54Z</time>
      </trkpt>
      <trkpt lat="50.588" lon="1.57799">
        <ele>3.5</ele>
        <time>2024-05-15T13:10:59Z</time>
      </trkpt>
      <trkpt lat="50.58802" lon="1.57794">
        <ele>3.5</ele>
        <time>2024-05-15T13:11:03Z</time>
      </trkpt>
      <trkpt lat="50.58818" lon="1.57795">
        <ele>3.98</ele>
        <time>2024-05-15T13:11:17Z</time>
      </trkpt>
      <trkpt lat="50.58836" lon="1.57806">
        <ele>3.02</ele>
        <time>2024-05-15T13:11:31Z</time>
      </trkpt>
      <trkpt lat="50.58851" lon="1.57813">
        <ele>-0.82</ele>
        <time>2024-05-15T13:11:43Z</time>
      </trkpt>
      <trkpt lat="50.58852" lon="1.57815">
        <ele>3.5</ele>
        <time>2024-05-15T13:11:44Z</time>
      </trkpt>
      <trkpt lat="50.58857" lon="1.5782">
        <ele>-3.23</ele>
        <time>2024-05-15T13:11:49Z</time>
      </trkpt>
      <trkpt lat="50.58859" lon="1.5782">
        <ele>5.42</ele>
        <time>2024-05-15T13:11:50Z</time>
      </trkpt>
      <trkpt lat="50.58878" lon="1.57821">
        <ele>3.02</ele>
        <time>2024-05-15T13:12:06Z</time>
      </trkpt>
      <trkpt lat="50.58899" lon="1.57818">
        <ele>3.02</ele>
        <time>2024-05-15T13:12:23Z</time>
      </trkpt>
      <trkpt lat="50.58921" lon="1.57813">
        <ele>3.98</ele>
        <time>2024-05-15T13:12:40Z</time>
      </trkpt>
      <trkpt lat="50.58945" lon="1.57811">
        <ele>3.02</ele>
        <time>2024-05-15T13:12:57Z</time>
      </trkpt>
      <trkpt lat="50.58963" lon="1.57809">
        <ele>3.5</ele>
        <time>2024-05-15T13:13:11Z</time>
      </trkpt>
      <trkpt lat="50.58981" lon="1.57803">
        <ele>3.98</ele>
        <time>2024-05-15T13:13:25Z</time>
      </trkpt>
      <trkpt lat="50.58983" lon="1.57802">
        <ele>-9.48</ele>
        <time>2024-05-15T13:13:26Z</time>
      </trkpt>
      <trkpt lat="50.58984" lon="1.57802">
        <ele>6.87</ele>
        <time>2024-05-15T13:13:27Z</time>
      </trkpt>
      <trkpt lat="50.58986" lon="1.57801">
        <ele>3.5</ele>
        <time>2024-05-15T13:13:29Z</time>
      </trkpt>
      <trkpt lat="50.58987" lon="1.578">
        <ele>3.5</ele>
        <time>2024-05-15T13:13:30Z</time>
      </trkpt>
      <trkpt lat="50.58994" lon="1.57797">
        <ele>10.71</ele>
        <time>2024-05-15T13:13:36Z</time>
      </trkpt>
      <trkpt lat="50.58996" lon="1.57796">
        <ele>3.5</ele>
        <time>2024-05-15T13:13:37Z</time>
      </trkpt>
      <trkpt lat="50.58997" lon="1.57796">
        <ele>-6.11</ele>
        <time>2024-05-15T13:13:38Z</time>
      </trkpt>
      <trkpt lat="50.58998" lon="1.57796">
        <ele>6.87</ele>
        <time>2024-05-15T13:13:39Z</time>
      </trkpt>
      <trkpt lat="50.59002" lon="1.57795">
        <ele>3.5</ele>
        <time>2024-05-15T13:13:42Z</time>
      </trkpt>
      <trkpt lat="50.59023" lon="1.57791">
        <ele>3.5</ele>
        <time>2024-05-15T13:13:57Z</time>
      </trkpt>
      <trkpt lat="50.59041" lon="1.57789">
        <ele>3.98</ele>
        <time>2024-05-15T13:14:11Z</time>
      </trkpt>
      <trkpt lat="50.5906" lon="1.57786">
        <ele>3.98</ele>
        <time>2024-05-15T13:14:26Z</time>
      </trkpt>
      <trkpt lat="50.5908" lon="1.57786">
        <ele>3.02</ele>
        <time>2024-05-15T13:14:41Z</time>
      </trkpt>
      <trkpt lat="50.59101" lon="1.57785">
        <ele>3.5</ele>
        <time>2024-05-15T13:14:57Z</time>
      </trkpt>
      <trkpt lat="50.59125" lon="1.57783">
        <ele>3.5</ele>
        <time>2024-05-15T13:15:14Z</time>
      </trkpt>
      <trkpt lat="50.59147" lon="1.57785">
        <ele>3.02</ele>
        <time>2024-05-15T13:15:30Z</time>
      </trkpt>
      <trkpt lat="50.59166" lon="1.57783">
        <ele>3.5</ele>
        <time>2024-05-15T13:15:45Z</time>
      </trkpt>
      <trkpt lat="50.59186" lon="1.57781">
        <ele>3.5</ele>
        <time>2024-05-15T13:16:00Z</time>
      </trkpt>
      <trkpt lat="50.59206" lon="1.57783">
        <ele>4.94</ele>
        <time>2024-05-15T13:16:16Z</time>
      </trkpt>
      <trkpt lat="50.59222" lon="1.57798">
        <ele>4.46</ele>
        <time>2024-05-15T13:16:31Z</time>
      </trkpt>
      <trkpt lat="50.59237" lon="1.57808">
        <ele>5.42</ele>
        <time>2024-05-15T13:16:44Z</time>
      </trkpt>
      <trkpt lat="50.5926" lon="1.57806">
        <ele>4.46</ele>
        <time>2024-05-15T13:17:02Z</time>
      </trkpt>
      <trkpt lat="50.59283" lon="1.57808">
        <ele>4.94</ele>
        <time>2024-05-15T13:17:20Z</time>
      </trkpt>
      <trkpt lat="50.59306" lon="1.57816">
        <ele>5.42</ele>
        <time>2024-05-15T13:17:38Z</time>
      </trkpt>
      <trkpt lat="50.59315" lon="1.57816">
        <ele>4.94</ele>
        <time>2024-05-15T13:17:45Z</time>
      </trkpt>
      <trkpt lat="50.59336" lon="1.57811">
        <ele>5.42</ele>
        <time>2024-05-15T13:18:02Z</time>
      </trkpt>
      <trkpt lat="50.59353" lon="1.57804">
        <ele>4.94</ele>
        <time>2024-05-15T13:18:16Z</time>
      </trkpt>
      <trkpt lat="50.59372" lon="1.5779">
        <ele>4.46</ele>
        <time>2024-05-15T13:18:33Z</time>
      </trkpt>
      <trkpt lat="50.59386" lon="1.57792">
        <ele>-10.44</ele>
        <time>2024-05-15T13:18:44Z</time>
      </trkpt>
      <trkpt lat="50.59388" lon="1.57793">
        <ele>7.83</ele>
        <time>2024-05-15T13:18:45Z</time>
      </trkpt>
      <trkpt lat="50.59389" lon="1.57793">
        <ele>4.94</ele>
        <time>2024-05-15T13:18:46Z</time>
      </trkpt>
      <trkpt lat="50.59408" lon="1.57791">
        <ele>4.46</ele>
        <time>2024-05-15T13:19:01Z</time>
      </trkpt>
      <trkpt lat="50.59427" lon="1.57787">
        <ele>4.94</ele>
        <time>2024-05-15T13:19:16Z</time>
      </trkpt>
      <trkpt lat="50.59449" lon="1.57787">
        <ele>4.46</ele>
        <time>2024-05-15T13:19:33Z</time>
      </trkpt>
      <trkpt lat="50.59466" lon="1.57775">
        <ele>3.98</ele>
        <time>2024-05-15T13:19:47Z</time>
      </trkpt>
      <trkpt lat="50.59484" lon="1.57769">
        <ele>4.46</ele>
        <time>2024-05-15T13:20:01Z</time>
      </trkpt>
      <trkpt lat="50.59485" lon="1.57769">
        <ele>4.46</ele>
        <time>2024-05-15T13:20:02Z</time>
      </trkpt>
      <trkpt lat="50.59504" lon="1.5777">
        <ele>5.91</ele>
        <time>2024-05-15T13:20:17Z</time>
      </trkpt>
      <trkpt lat="50.59524" lon="1.57775">
        <ele>14.56</ele>
        <time>2024-05-15T13:20:33Z</time>
      </trkpt>
      <trkpt lat="50.59525" lon="1.57775">
        <ele>5.42</ele>
        <time>2024-05-15T13:20:34Z</time>
      </trkpt>
      <trkpt lat="50.59528" lon="1.57776">
        <ele>4.46</ele>
        <time>2024-05-15T13:20:36Z</time>
      </trkpt>
      <trkpt lat="50.59529" lon="1.57776">
        <ele>10.71</ele>
        <time>2024-05-15T13:20:37Z</time>
      </trkpt>
      <trkpt lat="50.5953" lon="1.57776">
        <ele>5.42</ele>
        <time>2024-05-15T13:20:38Z</time>
      </trkpt>
      <trkpt lat="50.59532" lon="1.57776">
        <ele>3.98</ele>
        <time>2024-05-15T13:20:40Z</time>
      </trkpt>
      <trkpt lat="50.59554" lon="1.57775">
        <ele>4.46</ele>
        <time>2024-05-15T13:20:56Z</time>
      </trkpt>
      <trkpt lat="50.59562" lon="1.57774">
        <ele>4.46</ele>
        <time>2024-05-15T13:21:03Z</time>
      </trkpt>
      <trkpt lat="50.59565" lon="1.57776">
        <ele>4.94</ele>
        <time>2024-05-15T13:21:06Z</time>
      </trkpt>
      <trkpt lat="50.59571" lon="1.57774">
        <ele>4.46</ele>
        <time>2024-05-15T13:21:10Z</time>
      </trkpt>
      <trkpt lat="50.59593" lon="1.57775">
        <ele>3.98</ele>
        <time>2024-05-15T13:21:26Z</time>
      </trkpt>
      <trkpt lat="50.59598" lon="1.57776">
        <ele>4.94</ele>
        <time>2024-05-15T13:21:30Z</time>
      </trkpt>
      <trkpt lat="50.59617" lon="1.57778">
        <ele>4.46</ele>
        <time>2024-05-15T13:21:45Z</time>
      </trkpt>
      <trkpt lat="50.59627" lon="1.57778">
        <ele>4.46</ele>
        <time>2024-05-15T13:21:52Z</time>
      </trkpt>
      <trkpt lat="50.5965" lon="1.57782">
        <ele>4.46</ele>
        <time>2024-05-15T13:22:09Z</time>
      </trkpt>
      <trkpt lat="50.59673" lon="1.57783">
        <ele>4.94</ele>
        <time>2024-05-15T13:22:25Z</time>
      </trkpt>
      <trkpt lat="50.59692" lon="1.57784">
        <ele>4.94</ele>
        <time>2024-05-15T13:22:39Z</time>
      </trkpt>
      <trkpt lat="50.59716" lon="1.57784">
        <ele>4.94</ele>
        <time>2024-05-15T13:22:56Z</time>
      </trkpt>
      <trkpt lat="50.59738" lon="1.57784">
        <ele>5.91</ele>
        <time>2024-05-15T13:23:12Z</time>
      </trkpt>
      <trkpt lat="50.59755" lon="1.57786">
        <ele>4.46</ele>
        <time>2024-05-15T13:23:25Z</time>
      </trkpt>
      <trkpt lat="50.59773" lon="1.5778">
        <ele>3.98</ele>
        <time>2024-05-15T13:23:40Z</time>
      </trkpt>
      <trkpt lat="50.59786" lon="1.57776">
        <ele>5.91</ele>
        <time>2024-05-15T13:23:54Z</time>
      </trkpt>
      <trkpt lat="50.59787" lon="1.57777">
        <ele>3.98</ele>
        <time>2024-05-15T13:23:57Z</time>
      </trkpt>
      <trkpt lat="50.5979" lon="1.57781">
        <ele>6.39</ele>
        <time>2024-05-15T13:24:00Z</time>
      </trkpt>
      <trkpt lat="50.59795" lon="1.57788">
        <ele>4.94</ele>
        <time>2024-05-15T13:24:06Z</time>
      </trkpt>
      <trkpt lat="50.59798" lon="1.57786">
        <ele>3.5</ele>
        <time>2024-05-15T13:24:09Z</time>
      </trkpt>
      <trkpt lat="50.59802" lon="1.57782">
        <ele>6.39</ele>
        <time>2024-05-15T13:24:13Z</time>
      </trkpt>
      <trkpt lat="50.59802" lon="1.57782">
        <ele>6.39</ele>
        <time>2024-05-15T13:24:14Z</time>
      </trkpt>
      <trkpt lat="50.59802" lon="1.57782">
        <ele>4.46</ele>
        <time>2024-05-15T13:24:19Z</time>
      </trkpt>
      <trkpt lat="50.59803" lon="1.57782">
        <ele>3.98</ele>
        <time>2024-05-15T13:24:21Z</time>
      </trkpt>
      <trkpt lat="50.59824" lon="1.57782">
        <ele>4.46</ele>
        <time>2024-05-15T13:24:37Z</time>
      </trkpt>
      <trkpt lat="50.59844" lon="1.57787">
        <ele>4.94</ele>
        <time>2024-05-15T13:24:52Z</time>
      </trkpt>
      <trkpt lat="50.59863" lon="1.57798">
        <ele>-0.34</ele>
        <time>2024-05-15T13:25:08Z</time>
      </trkpt>
      <trkpt lat="50.59864" lon="1.57799">
        <ele>8.31</ele>
        <time>2024-05-15T13:25:09Z</time>
      </trkpt>
      <trkpt lat="50.59865" lon="1.578">
        <ele>4.94</ele>
        <time>2024-05-15T13:25:10Z</time>
      </trkpt>
      <trkpt lat="50.59866" lon="1.578">
        <ele>5.42</ele>
        <time>2024-05-15T13:25:11Z</time>
      </trkpt>
      <trkpt lat="50.59872" lon="1.57802">
        <ele>4.94</ele>
        <time>2024-05-15T13:25:16Z</time>
      </trkpt>
      <trkpt lat="50.59892" lon="1.57808">
        <ele>4.94</ele>
        <time>2024-05-15T13:25:32Z</time>
      </trkpt>
      <trkpt lat="50.59912" lon="1.5781">
        <ele>5.91</ele>
        <time>2024-05-15T13:25:48Z</time>
      </trkpt>
      <trkpt lat="50.59932" lon="1.57812">
        <ele>5.42</ele>
        <time>2024-05-15T13:26:04Z</time>
      </trkpt>
      <trkpt lat="50.59951" lon="1.57811">
        <ele>5.91</ele>
        <time>2024-05-15T13:26:19Z</time>
      </trkpt>
      <trkpt lat="50.59955" lon="1.57813">
        <ele>7.83</ele>
        <time>2024-05-15T13:26:31Z</time>
      </trkpt>
      <trkpt lat="50.59955" lon="1.57813">
        <ele>5.91</ele>
        <time>2024-05-15T13:26:33Z</time>
      </trkpt>
      <trkpt lat="50.59961" lon="1.57812">
        <ele>4.94</ele>
        <time>2024-05-15T13:26:38Z</time>
      </trkpt>
      <trkpt lat="50.59984" lon="1.57814">
        <ele>4.94</ele>
        <time>2024-05-15T13:26:55Z</time>
      </trkpt>
      <trkpt lat="50.60003" lon="1.57814">
        <ele>5.91</ele>
        <time>2024-05-15T13:27:10Z</time>
      </trkpt>
      <trkpt lat="50.60019" lon="1.57815">
        <ele>5.42</ele>
        <time>2024-05-15T13:27:23Z</time>
      </trkpt>
      <trkpt lat="50.60038" lon="1.57815">
        <ele>5.91</ele>
        <time>2024-05-15T13:27:38Z</time>
      </trkpt>
      <trkpt lat="50.60061" lon="1.57813">
        <ele>6.39</ele>
        <time>2024-05-15T13:27:55Z</time>
      </trkpt>
      <trkpt lat="50.60062" lon="1.57817">
        <ele>7.83</ele>
        <time>2024-05-15T13:27:58Z</time>
      </trkpt>
      <trkpt lat="50.60064" lon="1.57818">
        <ele>5.91</ele>
        <time>2024-05-15T13:28:00Z</time>
      </trkpt>
      <trkpt lat="50.60082" lon="1.57812">
        <ele>5.42</ele>
        <time>2024-05-15T13:28:15Z</time>
      </trkpt>
      <trkpt lat="50.60093" lon="1.57814">
        <ele>7.83</ele>
        <time>2024-05-15T13:28:24Z</time>
      </trkpt>
      <trkpt lat="50.60094" lon="1.57814">
        <ele>5.91</ele>
        <time>2024-05-15T13:28:26Z</time>
      </trkpt>
      <trkpt lat="50.60096" lon="1.57815">
        <ele>5.91</ele>
        <time>2024-05-15T13:28:28Z</time>
      </trkpt>
      <trkpt lat="50.6011" lon="1.57817">
        <ele>5.91</ele>
        <time>2024-05-15T13:28:40Z</time>
      </trkpt>
      <trkpt lat="50.60115" lon="1.57814">
        <ele>5.91</ele>
        <time>2024-05-15T13:28:48Z</time>
      </trkpt>
      <trkpt lat="50.60121" lon="1.57814">
        <ele>4.46</ele>
        <time>2024-05-15T13:28:53Z</time>
      </trkpt>
      <trkpt lat="50.60142" lon="1.57812">
        <ele>5.91</ele>
        <time>2024-05-15T13:29:11Z</time>
      </trkpt>
      <trkpt lat="50.60143" lon="1.57812">
        <ele>5.42</ele>
        <time>2024-05-15T13:29:12Z</time>
      </trkpt>
      <trkpt lat="50.60147" lon="1.57813">
        <ele>6.39</ele>
        <time>2024-05-15T13:29:15Z</time>
      </trkpt>
      <trkpt lat="50.60151" lon="1.57813">
        <ele>5.42</ele>
        <time>2024-05-15T13:29:18Z</time>
      </trkpt>
      <trkpt lat="50.60157" lon="1.57814">
        <ele>4.94</ele>
        <time>2024-05-15T13:29:23Z</time>
      </trkpt>
      <trkpt lat="50.60168" lon="1.57814">
        <ele>8.79</ele>
        <time>2024-05-15T13:29:32Z</time>
      </trkpt>
      <trkpt lat="50.60171" lon="1.57814">
        <ele>4.94</ele>
        <time>2024-05-15T13:29:35Z</time>
      </trkpt>
      <trkpt lat="50.60189" lon="1.57816">
        <ele>5.42</ele>
        <time>2024-05-15T13:29:49Z</time>
      </trkpt>
      <trkpt lat="50.60209" lon="1.57818">
        <ele>5.42</ele>
        <time>2024-05-15T13:30:05Z</time>
      </trkpt>
      <trkpt lat="50.60226" lon="1.57819">
        <ele>0.14</ele>
        <time>2024-05-15T13:30:18Z</time>
      </trkpt>
      <trkpt lat="50.60228" lon="1.57819">
        <ele>12.63</ele>
        <time>2024-05-15T13:30:20Z</time>
      </trkpt>
      <trkpt lat="50.60229" lon="1.57819">
        <ele>-3.71</ele>
        <time>2024-05-15T13:30:21Z</time>
      </trkpt>
      <trkpt lat="50.60231" lon="1.57819">
        <ele>6.87</ele>
        <time>2024-05-15T13:30:22Z</time>
      </trkpt>
      <trkpt lat="50.60248" lon="1.5782">
        <ele>5.42</ele>
        <time>2024-05-15T13:30:37Z</time>
      </trkpt>
      <trkpt lat="50.60268" lon="1.57821">
        <ele>4.94</ele>
        <time>2024-05-15T13:30:52Z</time>
      </trkpt>
      <trkpt lat="50.60291" lon="1.57822">
        <ele>5.42</ele>
        <time>2024-05-15T13:31:10Z</time>
      </trkpt>
      <trkpt lat="50.60313" lon="1.57828">
        <ele>4.46</ele>
        <time>2024-05-15T13:31:28Z</time>
      </trkpt>
      <trkpt lat="50.60334" lon="1.57833">
        <ele>6.39</ele>
        <time>2024-05-15T13:31:44Z</time>
      </trkpt>
      <trkpt lat="50.6035" lon="1.57824">
        <ele>4.94</ele>
        <time>2024-05-15T13:31:59Z</time>
      </trkpt>
      <trkpt lat="50.60367" lon="1.57812">
        <ele>5.91</ele>
        <time>2024-05-15T13:32:15Z</time>
      </trkpt>
      <trkpt lat="50.60368" lon="1.57812">
        <ele>5.91</ele>
        <time>2024-05-15T13:32:16Z</time>
      </trkpt>
      <trkpt lat="50.60373" lon="1.57816">
        <ele>4.94</ele>
        <time>2024-05-15T13:32:21Z</time>
      </trkpt>
      <trkpt lat="50.60378" lon="1.57815">
        <ele>4.46</ele>
        <time>2024-05-15T13:32:25Z</time>
      </trkpt>
      <trkpt lat="50.60383" lon="1.57813">
        <ele>4.46</ele>
        <time>2024-05-15T13:32:29Z</time>
      </trkpt>
      <trkpt lat="50.60395" lon="1.57813">
        <ele>5.42</ele>
        <time>2024-05-15T13:32:39Z</time>
      </trkpt>
      <trkpt lat="50.60399" lon="1.5781">
        <ele>4.94</ele>
        <time>2024-05-15T13:32:43Z</time>
      </trkpt>
      <trkpt lat="50.60413" lon="1.57805">
        <ele>4.94</ele>
        <time>2024-05-15T13:32:56Z</time>
      </trkpt>
      <trkpt lat="50.60419" lon="1.57805">
        <ele>5.42</ele>
        <time>2024-05-15T13:33:01Z</time>
      </trkpt>
      <trkpt lat="50.60421" lon="1.57805">
        <ele>4.94</ele>
        <time>2024-05-15T13:33:03Z</time>
      </trkpt>
      <trkpt lat="50.60424" lon="1.57805">
        <ele>8.79</ele>
        <time>2024-05-15T13:33:05Z</time>
      </trkpt>
      <trkpt lat="50.60424" lon="1.57806">
        <ele>4.94</ele>
        <time>2024-05-15T13:33:06Z</time>
      </trkpt>
      <trkpt lat="50.60431" lon="1.57806">
        <ele>4.94</ele>
        <time>2024-05-15T13:33:14Z</time>
      </trkpt>
      <trkpt lat="50.60434" lon="1.57805">
        <ele>4.94</ele>
        <time>2024-05-15T13:33:17Z</time>
      </trkpt>
      <trkpt lat="50.60438" lon="1.57804">
        <ele>5.42</ele>
        <time>2024-05-15T13:33:21Z</time>
      </trkpt>
      <trkpt lat="50.60456" lon="1.57802">
        <ele>4.94</ele>
        <time>2024-05-15T13:33:37Z</time>
      </trkpt>
      <trkpt lat="50.60466" lon="1.57802">
        <ele>4.94</ele>
        <time>2024-05-15T13:33:52Z</time>
      </trkpt>
      <trkpt lat="50.60467" lon="1.57802">
        <ele>5.42</ele>
        <time>2024-05-15T13:33:57Z</time>
      </trkpt>
      <trkpt lat="50.60471" lon="1.57803">
        <ele>4.94</ele>
        <time>2024-05-15T13:34:01Z</time>
      </trkpt>
      <trkpt lat="50.60474" lon="1.57804">
        <ele>4.94</ele>
        <time>2024-05-15T13:34:03Z</time>
      </trkpt>
      <trkpt lat="50.6048" lon="1.57804">
        <ele>5.42</ele>
        <time>2024-05-15T13:34:08Z</time>
      </trkpt>
      <trkpt lat="50.60486" lon="1.57802">
        <ele>0.62</ele>
        <time>2024-05-15T13:34:19Z</time>
      </trkpt>
      <trkpt lat="50.60486" lon="1.57802">
        <ele>6.87</ele>
        <time>2024-05-15T13:34:21Z</time>
      </trkpt>
      <trkpt lat="50.60486" lon="1.57802">
        <ele>6.87</ele>
        <time>2024-05-15T13:34:22Z</time>
      </trkpt>
      <trkpt lat="50.6049" lon="1.57802">
        <ele>5.42</ele>
        <time>2024-05-15T13:34:26Z</time>
      </trkpt>
      <trkpt lat="50.60502" lon="1.57803">
        <ele>6.39</ele>
        <time>2024-05-15T13:34:36Z</time>
      </trkpt>
      <trkpt lat="50.60502" lon="1.57806">
        <ele>7.35</ele>
        <time>2024-05-15T13:34:38Z</time>
      </trkpt>
      <trkpt lat="50.60506" lon="1.57812">
        <ele>7.35</ele>
        <time>2024-05-15T13:34:43Z</time>
      </trkpt>
      <trkpt lat="50.6051" lon="1.57814">
        <ele>6.39</ele>
        <time>2024-05-15T13:34:47Z</time>
      </trkpt>
      <trkpt lat="50.6053" lon="1.57816">
        <ele>4.94</ele>
        <time>2024-05-15T13:35:03Z</time>
      </trkpt>
      <trkpt lat="50.60538" lon="1.57816">
        <ele>4.94</ele>
        <time>2024-05-15T13:35:10Z</time>
      </trkpt>
      <trkpt lat="50.60547" lon="1.57818">
        <ele>7.35</ele>
        <time>2024-05-15T13:35:20Z</time>
      </trkpt>
      <trkpt lat="50.60563" lon="1.57816">
        <ele>4.94</ele>
        <time>2024-05-15T13:35:35Z</time>
      </trkpt>
      <trkpt lat="50.60579" lon="1.57815">
        <ele>4.46</ele>
        <time>2024-05-15T13:35:49Z</time>
      </trkpt>
      <trkpt lat="50.60589" lon="1.57829">
        <ele>6.39</ele>
        <time>2024-05-15T13:36:01Z</time>
      </trkpt>
      <trkpt lat="50.60596" lon="1.57838">
        <ele>7.35</ele>
        <time>2024-05-15T13:36:09Z</time>
      </trkpt>
      <trkpt lat="50.60601" lon="1.57846">
        <ele>3.98</ele>
        <time>2024-05-15T13:36:18Z</time>
      </trkpt>
      <trkpt lat="50.60601" lon="1.57846">
        <ele>7.35</ele>
        <time>2024-05-15T13:36:19Z</time>
      </trkpt>
      <trkpt lat="50.60601" lon="1.57846">
        <ele>-4.67</ele>
        <time>2024-05-15T13:36:20Z</time>
      </trkpt>
      <trkpt lat="50.60601" lon="1.57846">
        <ele>10.23</ele>
        <time>2024-05-15T13:36:21Z</time>
      </trkpt>
      <trkpt lat="50.60601" lon="1.57846">
        <ele>17.44</ele>
        <time>2024-05-15T13:36:22Z</time>
      </trkpt>
      <trkpt lat="50.60601" lon="1.57846">
        <ele>-3.23</ele>
        <time>2024-05-15T13:36:23Z</time>
      </trkpt>
      <trkpt lat="50.60601" lon="1.57846">
        <ele>3.02</ele>
        <time>2024-05-15T13:36:24Z</time>
      </trkpt>
      <trkpt lat="50.60601" lon="1.57846">
        <ele>6.87</ele>
        <time>2024-05-15T13:36:25Z</time>
      </trkpt>
      <trkpt lat="50.60601" lon="1.57846">
        <ele>-2.27</ele>
        <time>2024-05-15T13:36:26Z</time>
      </trkpt>
      <trkpt lat="50.60601" lon="1.57846">
        <ele>8.31</ele>
        <time>2024-05-15T13:36:27Z</time>
      </trkpt>
      <trkpt lat="50.60601" lon="1.57846">
        <ele>2.54</ele>
        <time>2024-05-15T13:36:28Z</time>
      </trkpt>
      <trkpt lat="50.60601" lon="1.57846">
        <ele>6.39</ele>
        <time>2024-05-15T13:36:29Z</time>
      </trkpt>
      <trkpt lat="50.60601" lon="1.57846">
        <ele>7.35</ele>
        <time>2024-05-15T13:36:48Z</time>
      </trkpt>
      <trkpt lat="50.606" lon="1.57837">
        <ele>7.35</ele>
        <time>2024-05-15T13:37:01Z</time>
      </trkpt>
      <trkpt lat="50.606" lon="1.57837">
        <ele>5.42</ele>
        <time>2024-05-15T13:37:09Z</time>
      </trkpt>
      <trkpt lat="50.60611" lon="1.57833">
        <ele>6.39</ele>
        <time>2024-05-15T13:37:18Z</time>
      </trkpt>
      <trkpt lat="50.60629" lon="1.57832">
        <ele>5.42</ele>
        <time>2024-05-15T13:37:33Z</time>
      </trkpt>
      <trkpt lat="50.60647" lon="1.57837">
        <ele>6.39</ele>
        <time>2024-05-15T13:37:48Z</time>
      </trkpt>
      <trkpt lat="50.60665" lon="1.57838">
        <ele>5.42</ele>
        <time>2024-05-15T13:38:04Z</time>
      </trkpt>
      <trkpt lat="50.60671" lon="1.57838">
        <ele>7.35</ele>
        <time>2024-05-15T13:38:09Z</time>
      </trkpt>
      <trkpt lat="50.60682" lon="1.57842">
        <ele>6.87</ele>
        <time>2024-05-15T13:38:22Z</time>
      </trkpt>
      <trkpt lat="50.6068" lon="1.57848">
        <ele>5.91</ele>
        <time>2024-05-15T13:38:30Z</time>
      </trkpt>
      <trkpt lat="50.60688" lon="1.57842">
        <ele>5.42</ele>
        <time>2024-05-15T13:38:39Z</time>
      </trkpt>
      <trkpt lat="50.60695" lon="1.57835">
        <ele>4.94</ele>
        <time>2024-05-15T13:38:53Z</time>
      </trkpt>
      <trkpt lat="50.60695" lon="1.57834">
        <ele>7.35</ele>
        <time>2024-05-15T13:38:55Z</time>
      </trkpt>
      <trkpt lat="50.60696" lon="1.57831">
        <ele>6.39</ele>
        <time>2024-05-15T13:38:57Z</time>
      </trkpt>
      <trkpt lat="50.60713" lon="1.57823">
        <ele>4.46</ele>
        <time>2024-05-15T13:39:14Z</time>
      </trkpt>
      <trkpt lat="50.60715" lon="1.57824">
        <ele>5.91</ele>
        <time>2024-05-15T13:39:16Z</time>
      </trkpt>
      <trkpt lat="50.60721" lon="1.57822">
        <ele>5.91</ele>
        <time>2024-05-15T13:39:22Z</time>
      </trkpt>
      <trkpt lat="50.60728" lon="1.57825">
        <ele>5.42</ele>
        <time>2024-05-15T13:39:28Z</time>
      </trkpt>
      <trkpt lat="50.60736" lon="1.57822">
        <ele>4.94</ele>
        <time>2024-05-15T13:39:35Z</time>
      </trkpt>
      <trkpt lat="50.6074" lon="1.5782">
        <ele>5.42</ele>
        <time>2024-05-15T13:39:39Z</time>
      </trkpt>
      <trkpt lat="50.60743" lon="1.57816">
        <ele>4.94</ele>
        <time>2024-05-15T13:39:44Z</time>
      </trkpt>
      <trkpt lat="50.60749" lon="1.57814">
        <ele>4.94</ele>
        <time>2024-05-15T13:39:50Z</time>
      </trkpt>
      <trkpt lat="50.6077" lon="1.57814">
        <ele>3.98</ele>
        <time>2024-05-15T13:40:06Z</time>
      </trkpt>
      <trkpt lat="50.60788" lon="1.57815">
        <ele>4.46</ele>
        <time>2024-05-15T13:40:22Z</time>
      </trkpt>
      <trkpt lat="50.60788" lon="1.57815">
        <ele>5.42</ele>
        <time>2024-05-15T13:40:23Z</time>
      </trkpt>
      <trkpt lat="50.6079" lon="1.57812">
        <ele>3.98</ele>
        <time>2024-05-15T13:40:25Z</time>
      </trkpt>
      <trkpt lat="50.60791" lon="1.57796">
        <ele>4.46</ele>
        <time>2024-05-15T13:40:40Z</time>
      </trkpt>
      <trkpt lat="50.60791" lon="1.57796">
        <ele>3.98</ele>
        <time>2024-05-15T13:40:41Z</time>
      </trkpt>
      <trkpt lat="50.60791" lon="1.57793">
        <ele>5.91</ele>
        <time>2024-05-15T13:40:43Z</time>
      </trkpt>
      <trkpt lat="50.60797" lon="1.5778">
        <ele>3.98</ele>
        <time>2024-05-15T13:40:57Z</time>
      </trkpt>
      <trkpt lat="50.60801" lon="1.5778">
        <ele>3.5</ele>
        <time>2024-05-15T13:41:05Z</time>
      </trkpt>
      <trkpt lat="50.60804" lon="1.57778">
        <ele>3.02</ele>
        <time>2024-05-15T13:41:08Z</time>
      </trkpt>
      <trkpt lat="50.60822" lon="1.57765">
        <ele>3.02</ele>
        <time>2024-05-15T13:41:24Z</time>
      </trkpt>
      <trkpt lat="50.60825" lon="1.57762">
        <ele>3.5</ele>
        <time>2024-05-15T13:41:28Z</time>
      </trkpt>
      <trkpt lat="50.60838" lon="1.5775">
        <ele>3.02</ele>
        <time>2024-05-15T13:41:41Z</time>
      </trkpt>
      <trkpt lat="50.60844" lon="1.57743">
        <ele>3.5</ele>
        <time>2024-05-15T13:41:48Z</time>
      </trkpt>
      <trkpt lat="50.60875" lon="1.57732">
        <ele>3.02</ele>
        <time>2024-05-15T13:42:14Z</time>
      </trkpt>
      <trkpt lat="50.60899" lon="1.57728">
        <ele>3.02</ele>
        <time>2024-05-15T13:42:33Z</time>
      </trkpt>
      <trkpt lat="50.60921" lon="1.57719">
        <ele>2.06</ele>
        <time>2024-05-15T13:42:51Z</time>
      </trkpt>
      <trkpt lat="50.60945" lon="1.57714">
        <ele>1.58</ele>
        <time>2024-05-15T13:43:10Z</time>
      </trkpt>
      <trkpt lat="50.60967" lon="1.5771">
        <ele>3.02</ele>
        <time>2024-05-15T13:43:30Z</time>
      </trkpt>
      <trkpt lat="50.60988" lon="1.57706">
        <ele>3.5</ele>
        <time>2024-05-15T13:43:48Z</time>
      </trkpt>
      <trkpt lat="50.61011" lon="1.57697">
        <ele>4.46</ele>
        <time>2024-05-15T13:44:07Z</time>
      </trkpt>
      <trkpt lat="50.61037" lon="1.57692">
        <ele>2.54</ele>
        <time>2024-05-15T13:44:28Z</time>
      </trkpt>
      <trkpt lat="50.61059" lon="1.57689">
        <ele>2.54</ele>
        <time>2024-05-15T13:44:47Z</time>
      </trkpt>
      <trkpt lat="50.6108" lon="1.57688">
        <ele>3.02</ele>
        <time>2024-05-15T13:45:05Z</time>
      </trkpt>
      <trkpt lat="50.61089" lon="1.57684">
        <ele>3.02</ele>
        <time>2024-05-15T13:45:12Z</time>
      </trkpt>
      <trkpt lat="50.61097" lon="1.57684">
        <ele>4.94</ele>
        <time>2024-05-15T13:45:19Z</time>
      </trkpt>
      <trkpt lat="50.611" lon="1.57683">
        <ele>1.58</ele>
        <time>2024-05-15T13:45:22Z</time>
      </trkpt>
      <trkpt lat="50.61106" lon="1.57683">
        <ele>3.02</ele>
        <time>2024-05-15T13:45:27Z</time>
      </trkpt>
      <trkpt lat="50.6111" lon="1.57681">
        <ele>3.02</ele>
        <time>2024-05-15T13:45:31Z</time>
      </trkpt>
      <trkpt lat="50.61125" lon="1.57681">
        <ele>3.5</ele>
        <time>2024-05-15T13:45:42Z</time>
      </trkpt>
      <trkpt lat="50.61144" lon="1.57679">
        <ele>3.02</ele>
        <time>2024-05-15T13:45:58Z</time>
      </trkpt>
      <trkpt lat="50.61146" lon="1.57679">
        <ele>-0.82</ele>
        <time>2024-05-15T13:46:00Z</time>
      </trkpt>
      <trkpt lat="50.61148" lon="1.57679">
        <ele>3.5</ele>
        <time>2024-05-15T13:46:01Z</time>
      </trkpt>
      <trkpt lat="50.61149" lon="1.57678">
        <ele>9.75</ele>
        <time>2024-05-15T13:46:02Z</time>
      </trkpt>
      <trkpt lat="50.6115" lon="1.57678">
        <ele>-1.79</ele>
        <time>2024-05-15T13:46:03Z</time>
      </trkpt>
      <trkpt lat="50.61151" lon="1.57678">
        <ele>3.98</ele>
        <time>2024-05-15T13:46:04Z</time>
      </trkpt>
      <trkpt lat="50.61155" lon="1.57677">
        <ele>-1.79</ele>
        <time>2024-05-15T13:46:07Z</time>
      </trkpt>
      <trkpt lat="50.61157" lon="1.57677">
        <ele>3.98</ele>
        <time>2024-05-15T13:46:08Z</time>
      </trkpt>
      <trkpt lat="50.61163" lon="1.57677">
        <ele>13.6</ele>
        <time>2024-05-15T13:46:14Z</time>
      </trkpt>
      <trkpt lat="50.61164" lon="1.57677">
        <ele>3.98</ele>
        <time>2024-05-15T13:46:15Z</time>
      </trkpt>
      <trkpt lat="50.61171" lon="1.57678">
        <ele>9.75</ele>
        <time>2024-05-15T13:46:20Z</time>
      </trkpt>
      <trkpt lat="50.61172" lon="1.57678">
        <ele>3.98</ele>
        <time>2024-05-15T13:46:21Z</time>
      </trkpt>
      <trkpt lat="50.61185" lon="1.57678">
        <ele>-0.82</ele>
        <time>2024-05-15T13:46:32Z</time>
      </trkpt>
      <trkpt lat="50.61187" lon="1.57679">
        <ele>10.71</ele>
        <time>2024-05-15T13:46:33Z</time>
      </trkpt>
      <trkpt lat="50.61188" lon="1.57679">
        <ele>3.5</ele>
        <time>2024-05-15T13:46:34Z</time>
      </trkpt>
      <trkpt lat="50.6119" lon="1.5768">
        <ele>3.02</ele>
        <time>2024-05-15T13:46:36Z</time>
      </trkpt>
      <trkpt lat="50.61191" lon="1.5768">
        <ele>-0.82</ele>
        <time>2024-05-15T13:46:37Z</time>
      </trkpt>
      <trkpt lat="50.61192" lon="1.5768">
        <ele>22.25</ele>
        <time>2024-05-15T13:46:38Z</time>
      </trkpt>
      <trkpt lat="50.61194" lon="1.5768">
        <ele>3.98</ele>
        <time>2024-05-15T13:46:39Z</time>
      </trkpt>
      <trkpt lat="50.61197" lon="1.57681">
        <ele>0.14</ele>
        <time>2024-05-15T13:46:42Z</time>
      </trkpt>
      <trkpt lat="50.61198" lon="1.57681">
        <ele>5.42</ele>
        <time>2024-05-15T13:46:43Z</time>
      </trkpt>
      <trkpt lat="50.61207" lon="1.57681">
        <ele>-11.4</ele>
        <time>2024-05-15T13:46:50Z</time>
      </trkpt>
      <trkpt lat="50.61208" lon="1.57681">
        <ele>7.35</ele>
        <time>2024-05-15T13:46:51Z</time>
      </trkpt>
      <trkpt lat="50.61211" lon="1.57681">
        <ele>3.02</ele>
        <time>2024-05-15T13:46:53Z</time>
      </trkpt>
      <trkpt lat="50.61212" lon="1.5768">
        <ele>3.5</ele>
        <time>2024-05-15T13:46:54Z</time>
      </trkpt>
      <trkpt lat="50.61213" lon="1.5768">
        <ele>7.83</ele>
        <time>2024-05-15T13:46:55Z</time>
      </trkpt>
      <trkpt lat="50.61214" lon="1.5768">
        <ele>3.5</ele>
        <time>2024-05-15T13:46:56Z</time>
      </trkpt>
      <trkpt lat="50.61219" lon="1.57681">
        <ele>-1.79</ele>
        <time>2024-05-15T13:47:00Z</time>
      </trkpt>
      <trkpt lat="50.6122" lon="1.57681">
        <ele>3.5</ele>
        <time>2024-05-15T13:47:01Z</time>
      </trkpt>
      <trkpt lat="50.6123" lon="1.57682">
        <ele>0.14</ele>
        <time>2024-05-15T13:47:09Z</time>
      </trkpt>
      <trkpt lat="50.61231" lon="1.57682">
        <ele>4.46</ele>
        <time>2024-05-15T13:47:10Z</time>
      </trkpt>
      <trkpt lat="50.61239" lon="1.57679">
        <ele>-1.3</ele>
        <time>2024-05-15T13:47:17Z</time>
      </trkpt>
      <trkpt lat="50.6124" lon="1.57679">
        <ele>3.02</ele>
        <time>2024-05-15T13:47:18Z</time>
      </trkpt>
      <trkpt lat="50.61258" lon="1.57676">
        <ele>7.35</ele>
        <time>2024-05-15T13:47:33Z</time>
      </trkpt>
      <trkpt lat="50.6126" lon="1.57677">
        <ele>3.02</ele>
        <time>2024-05-15T13:47:34Z</time>
      </trkpt>
      <trkpt lat="50.61275" lon="1.57678">
        <ele>-3.23</ele>
        <time>2024-05-15T13:47:46Z</time>
      </trkpt>
      <trkpt lat="50.61276" lon="1.57677">
        <ele>10.71</ele>
        <time>2024-05-15T13:47:47Z</time>
      </trkpt>
      <trkpt lat="50.61277" lon="1.57677">
        <ele>3.5</ele>
        <time>2024-05-15T13:47:48Z</time>
      </trkpt>
      <trkpt lat="50.61285" lon="1.57679">
        <ele>0.14</ele>
        <time>2024-05-15T13:47:56Z</time>
      </trkpt>
      <trkpt lat="50.61286" lon="1.57679">
        <ele>4.94</ele>
        <time>2024-05-15T13:47:57Z</time>
      </trkpt>
      <trkpt lat="50.6129" lon="1.57678">
        <ele>-7.07</ele>
        <time>2024-05-15T13:48:01Z</time>
      </trkpt>
      <trkpt lat="50.61292" lon="1.57678">
        <ele>5.42</ele>
        <time>2024-05-15T13:48:02Z</time>
      </trkpt>
      <trkpt lat="50.61297" lon="1.57677">
        <ele>9.75</ele>
        <time>2024-05-15T13:48:07Z</time>
      </trkpt>
      <trkpt lat="50.61298" lon="1.57677">
        <ele>3.5</ele>
        <time>2024-05-15T13:48:08Z</time>
      </trkpt>
      <trkpt lat="50.61303" lon="1.57675">
        <ele>11.67</ele>
        <time>2024-05-15T13:48:12Z</time>
      </trkpt>
      <trkpt lat="50.61303" lon="1.57675">
        <ele>3.98</ele>
        <time>2024-05-15T13:48:13Z</time>
      </trkpt>
      <trkpt lat="50.61308" lon="1.57672">
        <ele>-4.67</ele>
        <time>2024-05-15T13:48:17Z</time>
      </trkpt>
      <trkpt lat="50.61309" lon="1.57671">
        <ele>4.46</ele>
        <time>2024-05-15T13:48:18Z</time>
      </trkpt>
      <trkpt lat="50.61313" lon="1.57671">
        <ele>5.91</ele>
        <time>2024-05-15T13:48:22Z</time>
      </trkpt>
      <trkpt lat="50.61317" lon="1.5767">
        <ele>2.54</ele>
        <time>2024-05-15T13:48:26Z</time>
      </trkpt>
      <trkpt lat="50.61344" lon="1.57669">
        <ele>3.02</ele>
        <time>2024-05-15T13:48:47Z</time>
      </trkpt>
      <trkpt lat="50.61364" lon="1.57666">
        <ele>3.02</ele>
        <time>2024-05-15T13:49:03Z</time>
      </trkpt>
      <trkpt lat="50.61366" lon="1.57666">
        <ele>3.5</ele>
        <time>2024-05-15T13:49:05Z</time>
      </trkpt>
      <trkpt lat="50.61368" lon="1.57664">
        <ele>3.5</ele>
        <time>2024-05-15T13:49:07Z</time>
      </trkpt>
      <trkpt lat="50.6139" lon="1.57664">
        <ele>3.5</ele>
        <time>2024-05-15T13:49:25Z</time>
      </trkpt>
      <trkpt lat="50.61413" lon="1.57661">
        <ele>3.5</ele>
        <time>2024-05-15T13:49:43Z</time>
      </trkpt>
      <trkpt lat="50.61427" lon="1.57661">
        <ele>8.79</ele>
        <time>2024-05-15T13:49:54Z</time>
      </trkpt>
      <trkpt lat="50.61429" lon="1.5766">
        <ele>4.46</ele>
        <time>2024-05-15T13:49:55Z</time>
      </trkpt>
      <trkpt lat="50.61454" lon="1.57664">
        <ele>3.98</ele>
        <time>2024-05-15T13:50:15Z</time>
      </trkpt>
      <trkpt lat="50.61459" lon="1.57666">
        <ele>3.5</ele>
        <time>2024-05-15T13:50:21Z</time>
      </trkpt>
      <trkpt lat="50.61466" lon="1.57665">
        <ele>3.5</ele>
        <time>2024-05-15T13:50:27Z</time>
      </trkpt>
      <trkpt lat="50.61472" lon="1.57664">
        <ele>3.02</ele>
        <time>2024-05-15T13:50:32Z</time>
      </trkpt>
      <trkpt lat="50.61494" lon="1.57664">
        <ele>3.98</ele>
        <time>2024-05-15T13:50:50Z</time>
      </trkpt>
      <trkpt lat="50.61516" lon="1.57665">
        <ele>3.5</ele>
        <time>2024-05-15T13:51:07Z</time>
      </trkpt>
      <trkpt lat="50.61537" lon="1.5767">
        <ele>3.98</ele>
        <time>2024-05-15T13:51:25Z</time>
      </trkpt>
      <trkpt lat="50.61557" lon="1.57667">
        <ele>3.5</ele>
        <time>2024-05-15T13:51:42Z</time>
      </trkpt>
      <trkpt lat="50.61568" lon="1.57665">
        <ele>-7.55</ele>
        <time>2024-05-15T13:51:50Z</time>
      </trkpt>
      <trkpt lat="50.61569" lon="1.57664">
        <ele>-6.59</ele>
        <time>2024-05-15T13:51:51Z</time>
      </trkpt>
      <trkpt lat="50.6157" lon="1.57664">
        <ele>5.91</ele>
        <time>2024-05-15T13:51:52Z</time>
      </trkpt>
      <trkpt lat="50.61572" lon="1.57664">
        <ele>3.98</ele>
        <time>2024-05-15T13:51:53Z</time>
      </trkpt>
      <trkpt lat="50.61574" lon="1.57663">
        <ele>14.56</ele>
        <time>2024-05-15T13:51:55Z</time>
      </trkpt>
      <trkpt lat="50.61575" lon="1.57663">
        <ele>4.46</ele>
        <time>2024-05-15T13:51:56Z</time>
      </trkpt>
      <trkpt lat="50.61576" lon="1.57663">
        <ele>0.62</ele>
        <time>2024-05-15T13:51:57Z</time>
      </trkpt>
      <trkpt lat="50.61577" lon="1.57663">
        <ele>14.56</ele>
        <time>2024-05-15T13:51:58Z</time>
      </trkpt>
      <trkpt lat="50.61578" lon="1.57662">
        <ele>4.94</ele>
        <time>2024-05-15T13:51:59Z</time>
      </trkpt>
      <trkpt lat="50.61581" lon="1.57662">
        <ele>3.98</ele>
        <time>2024-05-15T13:52:01Z</time>
      </trkpt>
      <trkpt lat="50.61582" lon="1.57662">
        <ele>0.62</ele>
        <time>2024-05-15T13:52:02Z</time>
      </trkpt>
      <trkpt lat="50.61583" lon="1.57662">
        <ele>10.71</ele>
        <time>2024-05-15T13:52:03Z</time>
      </trkpt>
      <trkpt lat="50.61585" lon="1.57662">
        <ele>-6.11</ele>
        <time>2024-05-15T13:52:04Z</time>
      </trkpt>
      <trkpt lat="50.61586" lon="1.57662">
        <ele>6.39</ele>
        <time>2024-05-15T13:52:05Z</time>
      </trkpt>
      <trkpt lat="50.61593" lon="1.57662">
        <ele>3.5</ele>
        <time>2024-05-15T13:52:11Z</time>
      </trkpt>
      <trkpt lat="50.61615" lon="1.57657">
        <ele>3.02</ele>
        <time>2024-05-15T13:52:29Z</time>
      </trkpt>
      <trkpt lat="50.61628" lon="1.57655">
        <ele>3.5</ele>
        <time>2024-05-15T13:52:40Z</time>
      </trkpt>
      <trkpt lat="50.61629" lon="1.57656">
        <ele>3.5</ele>
        <time>2024-05-15T13:52:42Z</time>
      </trkpt>
      <trkpt lat="50.61634" lon="1.57656">
        <ele>3.5</ele>
        <time>2024-05-15T13:52:47Z</time>
      </trkpt>
      <trkpt lat="50.61657" lon="1.57653">
        <ele>3.02</ele>
        <time>2024-05-15T13:53:04Z</time>
      </trkpt>
      <trkpt lat="50.61684" lon="1.57649">
        <ele>3.5</ele>
        <time>2024-05-15T13:53:26Z</time>
      </trkpt>
      <trkpt lat="50.61687" lon="1.57648">
        <ele>3.5</ele>
        <time>2024-05-15T13:53:29Z</time>
      </trkpt>
      <trkpt lat="50.61709" lon="1.57645">
        <ele>3.02</ele>
        <time>2024-05-15T13:53:46Z</time>
      </trkpt>
      <trkpt lat="50.61715" lon="1.57643">
        <ele>3.98</ele>
        <time>2024-05-15T13:53:53Z</time>
      </trkpt>
      <trkpt lat="50.61734" lon="1.57639">
        <ele>3.5</ele>
        <time>2024-05-15T13:54:09Z</time>
      </trkpt>
      <trkpt lat="50.61756" lon="1.57629">
        <ele>3.98</ele>
        <time>2024-05-15T13:54:29Z</time>
      </trkpt>
      <trkpt lat="50.61759" lon="1.57625">
        <ele>3.98</ele>
        <time>2024-05-15T13:54:32Z</time>
      </trkpt>
      <trkpt lat="50.61761" lon="1.57624">
        <ele>3.5</ele>
        <time>2024-05-15T13:54:34Z</time>
      </trkpt>
      <trkpt lat="50.61768" lon="1.57626">
        <ele>3.5</ele>
        <time>2024-05-15T13:54:43Z</time>
      </trkpt>
      <trkpt lat="50.61785" lon="1.57626">
        <ele>3.5</ele>
        <time>2024-05-15T13:54:57Z</time>
      </trkpt>
      <trkpt lat="50.61795" lon="1.57628">
        <ele>3.98</ele>
        <time>2024-05-15T13:55:09Z</time>
      </trkpt>
      <trkpt lat="50.61806" lon="1.57629">
        <ele>3.5</ele>
        <time>2024-05-15T13:55:18Z</time>
      </trkpt>
      <trkpt lat="50.61821" lon="1.57629">
        <ele>4.46</ele>
        <time>2024-05-15T13:55:31Z</time>
      </trkpt>
      <trkpt lat="50.61821" lon="1.5763">
        <ele>4.46</ele>
        <time>2024-05-15T13:55:39Z</time>
      </trkpt>
      <trkpt lat="50.61826" lon="1.57631">
        <ele>2.54</ele>
        <time>2024-05-15T13:55:43Z</time>
      </trkpt>
      <trkpt lat="50.61843" lon="1.57627">
        <ele>3.5</ele>
        <time>2024-05-15T13:55:58Z</time>
      </trkpt>
      <trkpt lat="50.61859" lon="1.57623">
        <ele>3.5</ele>
        <time>2024-05-15T13:56:11Z</time>
      </trkpt>
      <trkpt lat="50.61875" lon="1.57624">
        <ele>3.5</ele>
        <time>2024-05-15T13:56:24Z</time>
      </trkpt>
      <trkpt lat="50.61889" lon="1.57629">
        <ele>3.98</ele>
        <time>2024-05-15T13:56:37Z</time>
      </trkpt>
      <trkpt lat="50.6189" lon="1.57629">
        <ele>3.5</ele>
        <time>2024-05-15T13:56:43Z</time>
      </trkpt>
      <trkpt lat="50.61903" lon="1.57633">
        <ele>3.02</ele>
        <time>2024-05-15T13:56:54Z</time>
      </trkpt>
      <trkpt lat="50.61919" lon="1.57632">
        <ele>3.02</ele>
        <time>2024-05-15T13:57:07Z</time>
      </trkpt>
      <trkpt lat="50.61926" lon="1.57632">
        <ele>3.02</ele>
        <time>2024-05-15T13:57:12Z</time>
      </trkpt>
      <trkpt lat="50.61939" lon="1.57634">
        <ele>3.02</ele>
        <time>2024-05-15T13:57:23Z</time>
      </trkpt>
      <trkpt lat="50.6195" lon="1.57638">
        <ele>4.46</ele>
        <time>2024-05-15T13:57:38Z</time>
      </trkpt>
      <trkpt lat="50.61951" lon="1.57641">
        <ele>3.98</ele>
        <time>2024-05-15T13:57:51Z</time>
      </trkpt>
      <trkpt lat="50.61952" lon="1.57642">
        <ele>3.98</ele>
        <time>2024-05-15T13:57:52Z</time>
      </trkpt>
      <trkpt lat="50.61959" lon="1.57645">
        <ele>4.46</ele>
        <time>2024-05-15T13:57:58Z</time>
      </trkpt>
      <trkpt lat="50.61964" lon="1.57647">
        <ele>4.94</ele>
        <time>2024-05-15T13:58:10Z</time>
      </trkpt>
      <trkpt lat="50.61965" lon="1.57647">
        <ele>3.5</ele>
        <time>2024-05-15T13:58:12Z</time>
      </trkpt>
      <trkpt lat="50.61971" lon="1.57649">
        <ele>3.02</ele>
        <time>2024-05-15T13:58:17Z</time>
      </trkpt>
      <trkpt lat="50.61973" lon="1.57651">
        <ele>3.98</ele>
        <time>2024-05-15T13:58:19Z</time>
      </trkpt>
      <trkpt lat="50.61992" lon="1.57653">
        <ele>3.5</ele>
        <time>2024-05-15T13:58:33Z</time>
      </trkpt>
      <trkpt lat="50.62008" lon="1.57655">
        <ele>3.02</ele>
        <time>2024-05-15T13:58:47Z</time>
      </trkpt>
      <trkpt lat="50.62015" lon="1.57654">
        <ele>3.02</ele>
        <time>2024-05-15T13:58:52Z</time>
      </trkpt>
      <trkpt lat="50.62032" lon="1.57654">
        <ele>3.5</ele>
        <time>2024-05-15T13:59:08Z</time>
      </trkpt>
      <trkpt lat="50.6204" lon="1.57657">
        <ele>3.02</ele>
        <time>2024-05-15T13:59:15Z</time>
      </trkpt>
      <trkpt lat="50.62047" lon="1.57657">
        <ele>3.5</ele>
        <time>2024-05-15T13:59:21Z</time>
      </trkpt>
      <trkpt lat="50.62058" lon="1.57654">
        <ele>3.5</ele>
        <time>2024-05-15T13:59:31Z</time>
      </trkpt>
      <trkpt lat="50.62063" lon="1.57653">
        <ele>3.5</ele>
        <time>2024-05-15T13:59:35Z</time>
      </trkpt>
      <trkpt lat="50.62074" lon="1.57649">
        <ele>3.5</ele>
        <time>2024-05-15T13:59:46Z</time>
      </trkpt>
      <trkpt lat="50.62085" lon="1.5765">
        <ele>3.5</ele>
        <time>2024-05-15T13:59:55Z</time>
      </trkpt>
      <trkpt lat="50.62103" lon="1.57652">
        <ele>3.02</ele>
        <time>2024-05-15T14:00:09Z</time>
      </trkpt>
      <trkpt lat="50.6212" lon="1.57656">
        <ele>3.02</ele>
        <time>2024-05-15T14:00:23Z</time>
      </trkpt>
      <trkpt lat="50.62127" lon="1.57658">
        <ele>3.5</ele>
        <time>2024-05-15T14:00:29Z</time>
      </trkpt>
      <trkpt lat="50.62131" lon="1.57657">
        <ele>3.98</ele>
        <time>2024-05-15T14:00:32Z</time>
      </trkpt>
      <trkpt lat="50.6214" lon="1.57658">
        <ele>3.02</ele>
        <time>2024-05-15T14:00:39Z</time>
      </trkpt>
      <trkpt lat="50.62145" lon="1.57658">
        <ele>3.5</ele>
        <time>2024-05-15T14:00:43Z</time>
      </trkpt>
      <trkpt lat="50.62154" lon="1.57664">
        <ele>3.98</ele>
        <time>2024-05-15T14:00:51Z</time>
      </trkpt>
      <trkpt lat="50.6216" lon="1.5767">
        <ele>3.5</ele>
        <time>2024-05-15T14:00:57Z</time>
      </trkpt>
      <trkpt lat="50.62161" lon="1.57671">
        <ele>3.5</ele>
        <time>2024-05-15T14:00:58Z</time>
      </trkpt>
      <trkpt lat="50.62166" lon="1.57678">
        <ele>3.5</ele>
        <time>2024-05-15T14:01:03Z</time>
      </trkpt>
      <trkpt lat="50.62175" lon="1.5768">
        <ele>3.5</ele>
        <time>2024-05-15T14:01:10Z</time>
      </trkpt>
      <trkpt lat="50.6219" lon="1.57689">
        <ele>4.46</ele>
        <time>2024-05-15T14:01:23Z</time>
      </trkpt>
      <trkpt lat="50.62192" lon="1.57689">
        <ele>3.98</ele>
        <time>2024-05-15T14:01:24Z</time>
      </trkpt>
      <trkpt lat="50.62195" lon="1.57691">
        <ele>4.46</ele>
        <time>2024-05-15T14:01:27Z</time>
      </trkpt>
      <trkpt lat="50.62201" lon="1.57694">
        <ele>4.46</ele>
        <time>2024-05-15T14:01:32Z</time>
      </trkpt>
      <trkpt lat="50.62211" lon="1.57705">
        <ele>3.98</ele>
        <time>2024-05-15T14:01:42Z</time>
      </trkpt>
      <trkpt lat="50.62225" lon="1.57722">
        <ele>4.94</ele>
        <time>2024-05-15T14:01:55Z</time>
      </trkpt>
      <trkpt lat="50.6224" lon="1.57736">
        <ele>4.94</ele>
        <time>2024-05-15T14:02:09Z</time>
      </trkpt>
      <trkpt lat="50.62243" lon="1.5774">
        <ele>3.98</ele>
        <time>2024-05-15T14:02:13Z</time>
      </trkpt>
      <trkpt lat="50.62249" lon="1.57742">
        <ele>4.94</ele>
        <time>2024-05-15T14:02:18Z</time>
      </trkpt>
      <trkpt lat="50.62254" lon="1.57746">
        <ele>5.42</ele>
        <time>2024-05-15T14:02:22Z</time>
      </trkpt>
      <trkpt lat="50.62264" lon="1.57755">
        <ele>5.91</ele>
        <time>2024-05-15T14:02:31Z</time>
      </trkpt>
      <trkpt lat="50.62267" lon="1.57758">
        <ele>5.42</ele>
        <time>2024-05-15T14:02:35Z</time>
      </trkpt>
      <trkpt lat="50.6227" lon="1.57758">
        <ele>4.94</ele>
        <time>2024-05-15T14:02:38Z</time>
      </trkpt>
      <trkpt lat="50.62289" lon="1.57763">
        <ele>5.42</ele>
        <time>2024-05-15T14:02:52Z</time>
      </trkpt>
      <trkpt lat="50.6229" lon="1.57763">
        <ele>5.91</ele>
        <time>2024-05-15T14:02:53Z</time>
      </trkpt>
      <trkpt lat="50.62301" lon="1.57758">
        <ele>4.94</ele>
        <time>2024-05-15T14:03:02Z</time>
      </trkpt>
      <trkpt lat="50.62313" lon="1.57749">
        <ele>4.94</ele>
        <time>2024-05-15T14:03:12Z</time>
      </trkpt>
      <trkpt lat="50.62317" lon="1.5775">
        <ele>5.91</ele>
        <time>2024-05-15T14:03:16Z</time>
      </trkpt>
      <trkpt lat="50.62325" lon="1.5775">
        <ele>4.46</ele>
        <time>2024-05-15T14:03:23Z</time>
      </trkpt>
      <trkpt lat="50.6233" lon="1.57747">
        <ele>4.46</ele>
        <time>2024-05-15T14:03:28Z</time>
      </trkpt>
      <trkpt lat="50.62335" lon="1.57746">
        <ele>3.5</ele>
        <time>2024-05-15T14:03:32Z</time>
      </trkpt>
      <trkpt lat="50.62339" lon="1.57744">
        <ele>5.42</ele>
        <time>2024-05-15T14:03:35Z</time>
      </trkpt>
      <trkpt lat="50.62341" lon="1.57743">
        <ele>5.42</ele>
        <time>2024-05-15T14:03:36Z</time>
      </trkpt>
      <trkpt lat="50.62347" lon="1.57742">
        <ele>4.94</ele>
        <time>2024-05-15T14:03:41Z</time>
      </trkpt>
      <trkpt lat="50.62354" lon="1.57736">
        <ele>4.94</ele>
        <time>2024-05-15T14:03:47Z</time>
      </trkpt>
      <trkpt lat="50.62364" lon="1.57732">
        <ele>4.46</ele>
        <time>2024-05-15T14:03:56Z</time>
      </trkpt>
      <trkpt lat="50.6237" lon="1.57732">
        <ele>4.46</ele>
        <time>2024-05-15T14:04:00Z</time>
      </trkpt>
      <trkpt lat="50.62385" lon="1.57734">
        <ele>4.46</ele>
        <time>2024-05-15T14:04:14Z</time>
      </trkpt>
      <trkpt lat="50.62391" lon="1.57733">
        <ele>4.46</ele>
        <time>2024-05-15T14:04:19Z</time>
      </trkpt>
      <trkpt lat="50.62405" lon="1.57735">
        <ele>4.94</ele>
        <time>2024-05-15T14:04:32Z</time>
      </trkpt>
      <trkpt lat="50.62425" lon="1.57736">
        <ele>4.46</ele>
        <time>2024-05-15T14:04:47Z</time>
      </trkpt>
      <trkpt lat="50.62434" lon="1.57733">
        <ele>4.46</ele>
        <time>2024-05-15T14:04:55Z</time>
      </trkpt>
      <trkpt lat="50.62437" lon="1.57735">
        <ele>4.94</ele>
        <time>2024-05-15T14:04:58Z</time>
      </trkpt>
      <trkpt lat="50.62443" lon="1.57735">
        <ele>3.98</ele>
        <time>2024-05-15T14:05:03Z</time>
      </trkpt>
      <trkpt lat="50.62454" lon="1.57737">
        <ele>4.94</ele>
        <time>2024-05-15T14:05:11Z</time>
      </trkpt>
      <trkpt lat="50.62455" lon="1.57742">
        <ele>6.87</ele>
        <time>2024-05-15T14:05:16Z</time>
      </trkpt>
      <trkpt lat="50.62455" lon="1.57747">
        <ele>8.31</ele>
        <time>2024-05-15T14:05:23Z</time>
      </trkpt>
      <trkpt lat="50.62455" lon="1.57749">
        <ele>8.79</ele>
        <time>2024-05-15T14:05:26Z</time>
      </trkpt>
      <trkpt lat="50.62454" lon="1.57756">
        <ele>9.75</ele>
        <time>2024-05-15T14:05:35Z</time>
      </trkpt>
      <trkpt lat="50.62445" lon="1.57758">
        <ele>9.75</ele>
        <time>2024-05-15T14:05:46Z</time>
      </trkpt>
      <trkpt lat="50.62433" lon="1.57757">
        <ele>9.75</ele>
        <time>2024-05-15T14:06:00Z</time>
      </trkpt>
      <trkpt lat="50.62422" lon="1.57759">
        <ele>9.75</ele>
        <time>2024-05-15T14:06:14Z</time>
      </trkpt>
      <trkpt lat="50.62417" lon="1.57761">
        <ele>10.23</ele>
        <time>2024-05-15T14:06:20Z</time>
      </trkpt>
      <trkpt lat="50.62407" lon="1.57765">
        <ele>10.23</ele>
        <time>2024-05-15T14:06:33Z</time>
      </trkpt>
      <trkpt lat="50.624" lon="1.57773">
        <ele>10.23</ele>
        <time>2024-05-15T14:06:46Z</time>
      </trkpt>
      <trkpt lat="50.62399" lon="1.57775">
        <ele>9.75</ele>
        <time>2024-05-15T14:06:59Z</time>
      </trkpt>
      <trkpt lat="50.62399" lon="1.57775">
        <ele>9.27</ele>
        <time>2024-05-15T14:07:16Z</time>
      </trkpt>
      <trkpt lat="50.62399" lon="1.57776">
        <ele>10.23</ele>
        <time>2024-05-15T14:07:36Z</time>
      </trkpt>
      <trkpt lat="50.62399" lon="1.57776">
        <ele>10.71</ele>
        <time>2024-05-15T14:08:00Z</time>
      </trkpt>
      <trkpt lat="50.62398" lon="1.57775">
        <ele>10.71</ele>
        <time>2024-05-15T14:08:25Z</time>
      </trkpt>
      <trkpt lat="50.62398" lon="1.57775">
        <ele>10.23</ele>
        <time>2024-05-15T14:08:51Z</time>
      </trkpt>
      <trkpt lat="50.62398" lon="1.57775">
        <ele>9.75</ele>
        <time>2024-05-15T14:09:17Z</time>
      </trkpt>
      <trkpt lat="50.62398" lon="1.57775">
        <ele>10.71</ele>
        <time>2024-05-15T14:09:33Z</time>
      </trkpt>
      <trkpt lat="50.62397" lon="1.57774">
        <ele>10.23</ele>
        <time>2024-05-15T14:09:50Z</time>
      </trkpt>
      <trkpt lat="50.62397" lon="1.57774">
        <ele>10.71</ele>
        <time>2024-05-15T14:09:58Z</time>
      </trkpt>
      <trkpt lat="50.62419" lon="1.57765">
        <ele>10.23</ele>
        <time>2024-05-15T14:10:15Z</time>
      </trkpt>
      <trkpt lat="50.62431" lon="1.57763">
        <ele>11.19</ele>
        <time>2024-05-15T14:10:25Z</time>
      </trkpt>
      <trkpt lat="50.62434" lon="1.57763">
        <ele>9.75</ele>
        <time>2024-05-15T14:10:27Z</time>
      </trkpt>
      <trkpt lat="50.62454" lon="1.57758">
        <ele>10.23</ele>
        <time>2024-05-15T14:10:43Z</time>
      </trkpt>
      <trkpt lat="50.62474" lon="1.57759">
        <ele>9.27</ele>
        <time>2024-05-15T14:11:00Z</time>
      </trkpt>
      <trkpt lat="50.62496" lon="1.57758">
        <ele>8.79</ele>
        <time>2024-05-15T14:11:19Z</time>
      </trkpt>
      <trkpt lat="50.62502" lon="1.57757">
        <ele>8.79</ele>
        <time>2024-05-15T14:11:24Z</time>
      </trkpt>
      <trkpt lat="50.62519" lon="1.57755">
        <ele>9.75</ele>
        <time>2024-05-15T14:11:39Z</time>
      </trkpt>
      <trkpt lat="50.62537" lon="1.57753">
        <ele>9.27</ele>
        <time>2024-05-15T14:11:53Z</time>
      </trkpt>
      <trkpt lat="50.62556" lon="1.57751">
        <ele>9.75</ele>
        <time>2024-05-15T14:12:07Z</time>
      </trkpt>
      <trkpt lat="50.62574" lon="1.57752">
        <ele>9.27</ele>
        <time>2024-05-15T14:12:22Z</time>
      </trkpt>
      <trkpt lat="50.62595" lon="1.57769">
        <ele>9.75</ele>
        <time>2024-05-15T14:12:38Z</time>
      </trkpt>
      <trkpt lat="50.62611" lon="1.57785">
        <ele>10.23</ele>
        <time>2024-05-15T14:12:53Z</time>
      </trkpt>
      <trkpt lat="50.62615" lon="1.57788">
        <ele>10.23</ele>
        <time>2024-05-15T14:13:12Z</time>
      </trkpt>
      <trkpt lat="50.62618" lon="1.57788">
        <ele>10.23</ele>
        <time>2024-05-15T14:13:37Z</time>
      </trkpt>
      <trkpt lat="50.62619" lon="1.57787">
        <ele>9.75</ele>
        <time>2024-05-15T14:13:42Z</time>
      </trkpt>
      <trkpt lat="50.62623" lon="1.57784">
        <ele>9.27</ele>
        <time>2024-05-15T14:13:46Z</time>
      </trkpt>
      <trkpt lat="50.62628" lon="1.57779">
        <ele>9.75</ele>
        <time>2024-05-15T14:13:50Z</time>
      </trkpt>
      <trkpt lat="50.62648" lon="1.57771">
        <ele>12.15</ele>
        <time>2024-05-15T14:14:06Z</time>
      </trkpt>
      <trkpt lat="50.62655" lon="1.57771">
        <ele>10.71</ele>
        <time>2024-05-15T14:14:11Z</time>
      </trkpt>
      <trkpt lat="50.62672" lon="1.5777">
        <ele>14.08</ele>
        <time>2024-05-15T14:14:27Z</time>
      </trkpt>
      <trkpt lat="50.62674" lon="1.57771">
        <ele>10.71</ele>
        <time>2024-05-15T14:14:28Z</time>
      </trkpt>
      <trkpt lat="50.62695" lon="1.57779">
        <ele>12.15</ele>
        <time>2024-05-15T14:14:45Z</time>
      </trkpt>
      <trkpt lat="50.62716" lon="1.57774">
        <ele>11.67</ele>
        <time>2024-05-15T14:15:01Z</time>
      </trkpt>
      <trkpt lat="50.62734" lon="1.57772">
        <ele>11.19</ele>
        <time>2024-05-15T14:15:16Z</time>
      </trkpt>
      <trkpt lat="50.62759" lon="1.5777">
        <ele>12.15</ele>
        <time>2024-05-15T14:15:34Z</time>
      </trkpt>
      <trkpt lat="50.62775" lon="1.57767">
        <ele>12.15</ele>
        <time>2024-05-15T14:15:48Z</time>
      </trkpt>
      <trkpt lat="50.62785" lon="1.57761">
        <ele>11.67</ele>
        <time>2024-05-15T14:16:01Z</time>
      </trkpt>
      <trkpt lat="50.62785" lon="1.57758">
        <ele>11.19</ele>
        <time>2024-05-15T14:16:05Z</time>
      </trkpt>
      <trkpt lat="50.62785" lon="1.57738">
        <ele>9.75</ele>
        <time>2024-05-15T14:16:25Z</time>
      </trkpt>
      <trkpt lat="50.62785" lon="1.57737">
        <ele>9.27</ele>
        <time>2024-05-15T14:16:26Z</time>
      </trkpt>
      <trkpt lat="50.62787" lon="1.57725">
        <ele>7.83</ele>
        <time>2024-05-15T14:16:32Z</time>
      </trkpt>
      <trkpt lat="50.628" lon="1.57726">
        <ele>7.83</ele>
        <time>2024-05-15T14:16:45Z</time>
      </trkpt>
      <trkpt lat="50.62804" lon="1.57723">
        <ele>8.31</ele>
        <time>2024-05-15T14:16:50Z</time>
      </trkpt>
      <trkpt lat="50.62814" lon="1.57717">
        <ele>8.31</ele>
        <time>2024-05-15T14:16:57Z</time>
      </trkpt>
      <trkpt lat="50.62832" lon="1.57711">
        <ele>8.79</ele>
        <time>2024-05-15T14:17:12Z</time>
      </trkpt>
      <trkpt lat="50.62855" lon="1.57712">
        <ele>7.83</ele>
        <time>2024-05-15T14:17:29Z</time>
      </trkpt>
      <trkpt lat="50.62874" lon="1.5771">
        <ele>8.31</ele>
        <time>2024-05-15T14:17:45Z</time>
      </trkpt>
      <trkpt lat="50.62892" lon="1.57711">
        <ele>10.23</ele>
        <time>2024-05-15T14:18:00Z</time>
      </trkpt>
      <trkpt lat="50.62909" lon="1.57714">
        <ele>10.71</ele>
        <time>2024-05-15T14:18:15Z</time>
      </trkpt>
      <trkpt lat="50.62919" lon="1.5771">
        <ele>10.23</ele>
        <time>2024-05-15T14:18:25Z</time>
      </trkpt>
      <trkpt lat="50.6294" lon="1.57709">
        <ele>9.75</ele>
        <time>2024-05-15T14:18:43Z</time>
      </trkpt>
      <trkpt lat="50.62959" lon="1.57709">
        <ele>11.19</ele>
        <time>2024-05-15T14:18:58Z</time>
      </trkpt>
      <trkpt lat="50.62974" lon="1.57712">
        <ele>9.75</ele>
        <time>2024-05-15T14:19:09Z</time>
      </trkpt>
      <trkpt lat="50.62984" lon="1.57714">
        <ele>10.23</ele>
        <time>2024-05-15T14:19:15Z</time>
      </trkpt>
      <trkpt lat="50.62987" lon="1.57713">
        <ele>10.23</ele>
        <time>2024-05-15T14:19:18Z</time>
      </trkpt>
      <trkpt lat="50.62994" lon="1.57705">
        <ele>10.71</ele>
        <time>2024-05-15T14:19:29Z</time>
      </trkpt>
      <trkpt lat="50.63015" lon="1.57701">
        <ele>10.71</ele>
        <time>2024-05-15T14:19:45Z</time>
      </trkpt>
      <trkpt lat="50.63037" lon="1.57706">
        <ele>9.75</ele>
        <time>2024-05-15T14:19:58Z</time>
      </trkpt>
      <trkpt lat="50.63055" lon="1.57703">
        <ele>9.75</ele>
        <time>2024-05-15T14:20:14Z</time>
      </trkpt>
      <trkpt lat="50.63073" lon="1.57703">
        <ele>10.71</ele>
        <time>2024-05-15T14:20:28Z</time>
      </trkpt>
      <trkpt lat="50.63093" lon="1.57703">
        <ele>10.23</ele>
        <time>2024-05-15T14:20:44Z</time>
      </trkpt>
      <trkpt lat="50.6311" lon="1.57699">
        <ele>11.67</ele>
        <time>2024-05-15T14:20:58Z</time>
      </trkpt>
      <trkpt lat="50.63114" lon="1.57699">
        <ele>10.23</ele>
        <time>2024-05-15T14:21:01Z</time>
      </trkpt>
      <trkpt lat="50.63132" lon="1.57697">
        <ele>10.71</ele>
        <time>2024-05-15T14:21:15Z</time>
      </trkpt>
      <trkpt lat="50.63136" lon="1.57697">
        <ele>10.71</ele>
        <time>2024-05-15T14:21:19Z</time>
      </trkpt>
      <trkpt lat="50.63155" lon="1.57692">
        <ele>10.23</ele>
        <time>2024-05-15T14:21:34Z</time>
      </trkpt>
      <trkpt lat="50.63175" lon="1.57696">
        <ele>10.71</ele>
        <time>2024-05-15T14:21:49Z</time>
      </trkpt>
      <trkpt lat="50.63183" lon="1.57694">
        <ele>10.23</ele>
        <time>2024-05-15T14:21:56Z</time>
      </trkpt>
      <trkpt lat="50.63202" lon="1.5769">
        <ele>11.19</ele>
        <time>2024-05-15T14:22:12Z</time>
      </trkpt>
      <trkpt lat="50.6322" lon="1.57692">
        <ele>11.19</ele>
        <time>2024-05-15T14:22:27Z</time>
      </trkpt>
      <trkpt lat="50.63237" lon="1.57692">
        <ele>11.19</ele>
        <time>2024-05-15T14:22:42Z</time>
      </trkpt>
      <trkpt lat="50.63257" lon="1.57689">
        <ele>11.67</ele>
        <time>2024-05-15T14:22:57Z</time>
      </trkpt>
      <trkpt lat="50.63274" lon="1.57688">
        <ele>11.67</ele>
        <time>2024-05-15T14:23:11Z</time>
      </trkpt>
      <trkpt lat="50.63297" lon="1.57691">
        <ele>11.19</ele>
        <time>2024-05-15T14:23:27Z</time>
      </trkpt>
      <trkpt lat="50.63319" lon="1.57688">
        <ele>12.15</ele>
        <time>2024-05-15T14:23:42Z</time>
      </trkpt>
      <trkpt lat="50.63323" lon="1.57685">
        <ele>12.15</ele>
        <time>2024-05-15T14:23:45Z</time>
      </trkpt>
      <trkpt lat="50.63343" lon="1.5768">
        <ele>11.67</ele>
        <time>2024-05-15T14:24:00Z</time>
      </trkpt>
      <trkpt lat="50.63346" lon="1.5768">
        <ele>12.15</ele>
        <time>2024-05-15T14:24:04Z</time>
      </trkpt>
      <trkpt lat="50.6335" lon="1.57679">
        <ele>11.67</ele>
        <time>2024-05-15T14:24:07Z</time>
      </trkpt>
      <trkpt lat="50.63366" lon="1.57684">
        <ele>12.63</ele>
        <time>2024-05-15T14:24:22Z</time>
      </trkpt>
      <trkpt lat="50.63382" lon="1.57683">
        <ele>12.15</ele>
        <time>2024-05-15T14:24:37Z</time>
      </trkpt>
      <trkpt lat="50.63401" lon="1.57682">
        <ele>12.63</ele>
        <time>2024-05-15T14:24:53Z</time>
      </trkpt>
      <trkpt lat="50.63408" lon="1.57681">
        <ele>12.15</ele>
        <time>2024-05-15T14:25:01Z</time>
      </trkpt>
      <trkpt lat="50.63421" lon="1.57677">
        <ele>11.67</ele>
        <time>2024-05-15T14:25:16Z</time>
      </trkpt>
      <trkpt lat="50.63439" lon="1.57674">
        <ele>11.67</ele>
        <time>2024-05-15T14:25:32Z</time>
      </trkpt>
      <trkpt lat="50.63446" lon="1.57672">
        <ele>12.15</ele>
        <time>2024-05-15T14:25:37Z</time>
      </trkpt>
      <trkpt lat="50.6347" lon="1.57676">
        <ele>11.19</ele>
        <time>2024-05-15T14:25:52Z</time>
      </trkpt>
      <trkpt lat="50.63483" lon="1.57676">
        <ele>12.15</ele>
        <time>2024-05-15T14:26:07Z</time>
      </trkpt>
      <trkpt lat="50.63487" lon="1.57676">
        <ele>11.67</ele>
        <time>2024-05-15T14:26:11Z</time>
      </trkpt>
      <trkpt lat="50.6349" lon="1.57678">
        <ele>12.15</ele>
        <time>2024-05-15T14:26:15Z</time>
      </trkpt>
      <trkpt lat="50.63509" lon="1.57676">
        <ele>12.15</ele>
        <time>2024-05-15T14:26:33Z</time>
      </trkpt>
      <trkpt lat="50.63522" lon="1.57667">
        <ele>12.15</ele>
        <time>2024-05-15T14:26:49Z</time>
      </trkpt>
      <trkpt lat="50.63525" lon="1.57667">
        <ele>15.04</ele>
        <time>2024-05-15T14:27:00Z</time>
      </trkpt>
      <trkpt lat="50.63522" lon="1.57663">
        <ele>14.08</ele>
        <time>2024-05-15T14:27:18Z</time>
      </trkpt>
      <trkpt lat="50.63525" lon="1.57662">
        <ele>15.04</ele>
        <time>2024-05-15T14:27:36Z</time>
      </trkpt>
      <trkpt lat="50.63527" lon="1.57667">
        <ele>12.63</ele>
        <time>2024-05-15T14:27:44Z</time>
      </trkpt>
      <trkpt lat="50.6353" lon="1.57668">
        <ele>13.12</ele>
        <time>2024-05-15T14:27:58Z</time>
      </trkpt>
      <trkpt lat="50.6353" lon="1.57668">
        <ele>12.63</ele>
        <time>2024-05-15T14:28:00Z</time>
      </trkpt>
      <trkpt lat="50.63535" lon="1.57672">
        <ele>12.63</ele>
        <time>2024-05-15T14:28:06Z</time>
      </trkpt>
      <trkpt lat="50.63548" lon="1.57686">
        <ele>11.67</ele>
        <time>2024-05-15T14:28:21Z</time>
      </trkpt>
      <trkpt lat="50.63567" lon="1.57683">
        <ele>13.12</ele>
        <time>2024-05-15T14:28:35Z</time>
      </trkpt>
      <trkpt lat="50.63583" lon="1.57683">
        <ele>11.67</ele>
        <time>2024-05-15T14:28:49Z</time>
      </trkpt>
      <trkpt lat="50.63585" lon="1.57683">
        <ele>12.15</ele>
        <time>2024-05-15T14:28:51Z</time>
      </trkpt>
      <trkpt lat="50.63592" lon="1.57689">
        <ele>13.12</ele>
        <time>2024-05-15T14:29:04Z</time>
      </trkpt>
      <trkpt lat="50.63594" lon="1.57689">
        <ele>12.63</ele>
        <time>2024-05-15T14:29:11Z</time>
      </trkpt>
      <trkpt lat="50.63594" lon="1.57689">
        <ele>13.12</ele>
        <time>2024-05-15T14:29:33Z</time>
      </trkpt>
      <trkpt lat="50.63593" lon="1.57689">
        <ele>11.19</ele>
        <time>2024-05-15T14:29:46Z</time>
      </trkpt>
      <trkpt lat="50.63591" lon="1.57688">
        <ele>14.08</ele>
        <time>2024-05-15T14:29:48Z</time>
      </trkpt>
      <trkpt lat="50.63584" lon="1.57685">
        <ele>13.12</ele>
        <time>2024-05-15T14:29:56Z</time>
      </trkpt>
      <trkpt lat="50.63566" lon="1.5769">
        <ele>11.67</ele>
        <time>2024-05-15T14:30:12Z</time>
      </trkpt>
      <trkpt lat="50.63554" lon="1.5769">
        <ele>12.63</ele>
        <time>2024-05-15T14:30:21Z</time>
      </trkpt>
      <trkpt lat="50.63541" lon="1.57705">
        <ele>12.63</ele>
        <time>2024-05-15T14:30:37Z</time>
      </trkpt>
      <trkpt lat="50.63539" lon="1.57716">
        <ele>12.15</ele>
        <time>2024-05-15T14:30:54Z</time>
      </trkpt>
      <trkpt lat="50.6354" lon="1.57719">
        <ele>13.6</ele>
        <time>2024-05-15T14:31:15Z</time>
      </trkpt>
      <trkpt lat="50.63544" lon="1.5773">
        <ele>12.15</ele>
        <time>2024-05-15T14:31:32Z</time>
      </trkpt>
      <trkpt lat="50.63544" lon="1.5773">
        <ele>13.12</ele>
        <time>2024-05-15T14:31:51Z</time>
      </trkpt>
      <trkpt lat="50.63545" lon="1.5773">
        <ele>12.15</ele>
        <time>2024-05-15T14:32:15Z</time>
      </trkpt>
      <trkpt lat="50.63532" lon="1.57722">
        <ele>12.15</ele>
        <time>2024-05-15T14:32:29Z</time>
      </trkpt>
      <trkpt lat="50.63525" lon="1.57729">
        <ele>13.6</ele>
        <time>2024-05-15T14:32:36Z</time>
      </trkpt>
      <trkpt lat="50.63506" lon="1.57735">
        <ele>11.67</ele>
        <time>2024-05-15T14:32:52Z</time>
      </trkpt>
      <trkpt lat="50.63503" lon="1.57739">
        <ele>14.08</ele>
        <time>2024-05-15T14:32:57Z</time>
      </trkpt>
      <trkpt lat="50.63505" lon="1.57767">
        <ele>14.56</ele>
        <time>2024-05-15T14:33:13Z</time>
      </trkpt>
      <trkpt lat="50.63506" lon="1.57788">
        <ele>13.6</ele>
        <time>2024-05-15T14:33:28Z</time>
      </trkpt>
      <trkpt lat="50.63507" lon="1.57789">
        <ele>13.6</ele>
        <time>2024-05-15T14:33:46Z</time>
      </trkpt>
      <trkpt lat="50.63507" lon="1.57787">
        <ele>13.6</ele>
        <time>2024-05-15T14:34:01Z</time>
      </trkpt>
      <trkpt lat="50.63503" lon="1.57792">
        <ele>13.6</ele>
        <time>2024-05-15T14:34:16Z</time>
      </trkpt>
      <trkpt lat="50.63491" lon="1.5781">
        <ele>13.6</ele>
        <time>2024-05-15T14:34:33Z</time>
      </trkpt>
      <trkpt lat="50.63488" lon="1.57812">
        <ele>14.56</ele>
        <time>2024-05-15T14:34:48Z</time>
      </trkpt>
      <trkpt lat="50.63487" lon="1.57813">
        <ele>14.56</ele>
        <time>2024-05-15T14:34:49Z</time>
      </trkpt>
      <trkpt lat="50.63474" lon="1.57824">
        <ele>13.6</ele>
        <time>2024-05-15T14:35:02Z</time>
      </trkpt>
      <trkpt lat="50.63471" lon="1.57828">
        <ele>13.6</ele>
        <time>2024-05-15T14:35:06Z</time>
      </trkpt>
      <trkpt lat="50.63463" lon="1.57841">
        <ele>14.08</ele>
        <time>2024-05-15T14:35:22Z</time>
      </trkpt>
      <trkpt lat="50.63462" lon="1.5784">
        <ele>13.12</ele>
        <time>2024-05-15T14:35:25Z</time>
      </trkpt>
      <trkpt lat="50.6346" lon="1.57834">
        <ele>13.6</ele>
        <time>2024-05-15T14:35:28Z</time>
      </trkpt>
      <trkpt lat="50.63448" lon="1.57825">
        <ele>13.6</ele>
        <time>2024-05-15T14:35:39Z</time>
      </trkpt>
      <trkpt lat="50.63436" lon="1.57841">
        <ele>13.12</ele>
        <time>2024-05-15T14:35:56Z</time>
      </trkpt>
      <trkpt lat="50.63435" lon="1.57841">
        <ele>13.6</ele>
        <time>2024-05-15T14:35:57Z</time>
      </trkpt>
      <trkpt lat="50.63431" lon="1.57844">
        <ele>13.12</ele>
        <time>2024-05-15T14:36:14Z</time>
      </trkpt>
      <trkpt lat="50.63427" lon="1.57863">
        <ele>14.56</ele>
        <time>2024-05-15T14:36:28Z</time>
      </trkpt>
      <trkpt lat="50.63425" lon="1.57876">
        <ele>13.6</ele>
        <time>2024-05-15T14:36:36Z</time>
      </trkpt>
      <trkpt lat="50.63422" lon="1.57897">
        <ele>15.52</ele>
        <time>2024-05-15T14:36:52Z</time>
      </trkpt>
      <trkpt lat="50.63422" lon="1.57896">
        <ele>14.56</ele>
        <time>2024-05-15T14:37:07Z</time>
      </trkpt>
      <trkpt lat="50.63421" lon="1.57901">
        <ele>15.52</ele>
        <time>2024-05-15T14:37:19Z</time>
      </trkpt>
      <trkpt lat="50.63423" lon="1.57908">
        <ele>14.08</ele>
        <time>2024-05-15T14:37:23Z</time>
      </trkpt>
      <trkpt lat="50.63427" lon="1.57935">
        <ele>15.04</ele>
        <time>2024-05-15T14:37:38Z</time>
      </trkpt>
      <trkpt lat="50.63435" lon="1.5796">
        <ele>15.04</ele>
        <time>2024-05-15T14:37:53Z</time>
      </trkpt>
      <trkpt lat="50.63435" lon="1.57964">
        <ele>16.48</ele>
        <time>2024-05-15T14:37:56Z</time>
      </trkpt>
      <trkpt lat="50.63427" lon="1.57982">
        <ele>15.52</ele>
        <time>2024-05-15T14:38:16Z</time>
      </trkpt>
      <trkpt lat="50.63424" lon="1.57982">
        <ele>16.48</ele>
        <time>2024-05-15T14:38:34Z</time>
      </trkpt>
      <trkpt lat="50.63408" lon="1.57989">
        <ele>15.52</ele>
        <time>2024-05-15T14:38:47Z</time>
      </trkpt>
      <trkpt lat="50.63398" lon="1.57988">
        <ele>14.56</ele>
        <time>2024-05-15T14:38:55Z</time>
      </trkpt>
      <trkpt lat="50.63397" lon="1.57988">
        <ele>17.44</ele>
        <time>2024-05-15T14:38:56Z</time>
      </trkpt>
      <trkpt lat="50.63395" lon="1.57987">
        <ele>14.56</ele>
        <time>2024-05-15T14:38:57Z</time>
      </trkpt>
      <trkpt lat="50.63394" lon="1.57986">
        <ele>16.48</ele>
        <time>2024-05-15T14:38:59Z</time>
      </trkpt>
      <trkpt lat="50.63379" lon="1.58018">
        <ele>16</ele>
        <time>2024-05-15T14:39:19Z</time>
      </trkpt>
      <trkpt lat="50.63364" lon="1.58037">
        <ele>14.08</ele>
        <time>2024-05-15T14:39:32Z</time>
      </trkpt>
      <trkpt lat="50.63342" lon="1.58058">
        <ele>15.04</ele>
        <time>2024-05-15T14:39:50Z</time>
      </trkpt>
      <trkpt lat="50.63331" lon="1.58062">
        <ele>15.04</ele>
        <time>2024-05-15T14:40:03Z</time>
      </trkpt>
      <trkpt lat="50.63321" lon="1.5806">
        <ele>15.04</ele>
        <time>2024-05-15T14:40:13Z</time>
      </trkpt>
      <trkpt lat="50.63318" lon="1.58059">
        <ele>14.56</ele>
        <time>2024-05-15T14:40:16Z</time>
      </trkpt>
      <trkpt lat="50.63305" lon="1.58056">
        <ele>15.04</ele>
        <time>2024-05-15T14:40:30Z</time>
      </trkpt>
      <trkpt lat="50.63295" lon="1.58055">
        <ele>15.04</ele>
        <time>2024-05-15T14:40:46Z</time>
      </trkpt>
      <trkpt lat="50.63293" lon="1.58058">
        <ele>14.56</ele>
        <time>2024-05-15T14:40:49Z</time>
      </trkpt>
      <trkpt lat="50.63278" lon="1.58075">
        <ele>14.08</ele>
        <time>2024-05-15T14:41:04Z</time>
      </trkpt>
      <trkpt lat="50.63269" lon="1.58087">
        <ele>14.56</ele>
        <time>2024-05-15T14:41:19Z</time>
      </trkpt>
      <trkpt lat="50.63264" lon="1.58084">
        <ele>13.6</ele>
        <time>2024-05-15T14:41:34Z</time>
      </trkpt>
      <trkpt lat="50.63264" lon="1.58084">
        <ele>14.56</ele>
        <time>2024-05-15T14:41:36Z</time>
      </trkpt>
      <trkpt lat="50.63264" lon="1.58084">
        <ele>15.52</ele>
        <time>2024-05-15T14:42:01Z</time>
      </trkpt>
      <trkpt lat="50.63264" lon="1.58084">
        <ele>14.56</ele>
        <time>2024-05-15T14:42:02Z</time>
      </trkpt>
      <trkpt lat="50.63264" lon="1.58084">
        <ele>16</ele>
        <time>2024-05-15T14:42:32Z</time>
      </trkpt>
      <trkpt lat="50.63264" lon="1.58084">
        <ele>13.6</ele>
        <time>2024-05-15T14:42:45Z</time>
      </trkpt>
      <trkpt lat="50.63265" lon="1.58083">
        <ele>14.08</ele>
        <time>2024-05-15T14:43:01Z</time>
      </trkpt>
      <trkpt lat="50.63265" lon="1.58083">
        <ele>14.56</ele>
        <time>2024-05-15T14:43:17Z</time>
      </trkpt>
      <trkpt lat="50.63266" lon="1.58082">
        <ele>14.56</ele>
        <time>2024-05-15T14:43:29Z</time>
      </trkpt>
      <trkpt lat="50.63269" lon="1.58082">
        <ele>14.56</ele>
        <time>2024-05-15T14:43:43Z</time>
      </trkpt>
      <trkpt lat="50.63269" lon="1.58082">
        <ele>14.08</ele>
        <time>2024-05-15T14:43:50Z</time>
      </trkpt>
      <trkpt lat="50.63271" lon="1.58103">
        <ele>14.56</ele>
        <time>2024-05-15T14:44:03Z</time>
      </trkpt>
      <trkpt lat="50.63267" lon="1.58115">
        <ele>14.56</ele>
        <time>2024-05-15T14:44:14Z</time>
      </trkpt>
      <trkpt lat="50.63266" lon="1.58132">
        <ele>14.08</ele>
        <time>2024-05-15T14:44:23Z</time>
      </trkpt>
      <trkpt lat="50.63265" lon="1.58145">
        <ele>15.04</ele>
        <time>2024-05-15T14:44:31Z</time>
      </trkpt>
      <trkpt lat="50.63261" lon="1.58168">
        <ele>15.04</ele>
        <time>2024-05-15T14:44:46Z</time>
      </trkpt>
      <trkpt lat="50.63258" lon="1.58192">
        <ele>14.56</ele>
        <time>2024-05-15T14:44:59Z</time>
      </trkpt>
      <trkpt lat="50.63259" lon="1.58201">
        <ele>15.04</ele>
        <time>2024-05-15T14:45:05Z</time>
      </trkpt>
      <trkpt lat="50.63258" lon="1.58207">
        <ele>15.04</ele>
        <time>2024-05-15T14:45:08Z</time>
      </trkpt>
      <trkpt lat="50.63255" lon="1.58227">
        <ele>15.04</ele>
        <time>2024-05-15T14:45:24Z</time>
      </trkpt>
      <trkpt lat="50.6325" lon="1.5825">
        <ele>14.56</ele>
        <time>2024-05-15T14:45:39Z</time>
      </trkpt>
      <trkpt lat="50.63248" lon="1.58253">
        <ele>15.52</ele>
        <time>2024-05-15T14:45:41Z</time>
      </trkpt>
      <trkpt lat="50.63247" lon="1.58264">
        <ele>14.56</ele>
        <time>2024-05-15T14:45:57Z</time>
      </trkpt>
      <trkpt lat="50.63245" lon="1.5827">
        <ele>15.04</ele>
        <time>2024-05-15T14:46:00Z</time>
      </trkpt>
      <trkpt lat="50.6324" lon="1.58289">
        <ele>15.04</ele>
        <time>2024-05-15T14:46:10Z</time>
      </trkpt>
      <trkpt lat="50.63236" lon="1.58303">
        <ele>15.04</ele>
        <time>2024-05-15T14:46:20Z</time>
      </trkpt>
      <trkpt lat="50.63232" lon="1.58311">
        <ele>15.52</ele>
        <time>2024-05-15T14:46:25Z</time>
      </trkpt>
      <trkpt lat="50.63231" lon="1.58314">
        <ele>15.52</ele>
        <time>2024-05-15T14:46:28Z</time>
      </trkpt>
      <trkpt lat="50.63222" lon="1.58321">
        <ele>15.52</ele>
        <time>2024-05-15T14:46:46Z</time>
      </trkpt>
      <trkpt lat="50.63222" lon="1.58321">
        <ele>15.52</ele>
        <time>2024-05-15T14:47:05Z</time>
      </trkpt>
      <trkpt lat="50.63222" lon="1.58321">
        <ele>15.04</ele>
        <time>2024-05-15T14:47:30Z</time>
      </trkpt>
      <trkpt lat="50.63221" lon="1.5832">
        <ele>14.56</ele>
        <time>2024-05-15T14:47:50Z</time>
      </trkpt>
      <trkpt lat="50.63221" lon="1.5832">
        <ele>14.56</ele>
        <time>2024-05-15T14:48:10Z</time>
      </trkpt>
      <trkpt lat="50.63221" lon="1.5832">
        <ele>14.08</ele>
        <time>2024-05-15T14:48:38Z</time>
      </trkpt>
      <trkpt lat="50.63221" lon="1.5832">
        <ele>13.6</ele>
        <time>2024-05-15T14:49:03Z</time>
      </trkpt>
      <trkpt lat="50.63221" lon="1.58322">
        <ele>13.6</ele>
        <time>2024-05-15T14:49:22Z</time>
      </trkpt>
      <trkpt lat="50.63228" lon="1.58321">
        <ele>14.08</ele>
        <time>2024-05-15T14:50:00Z</time>
      </trkpt>
    </trkseg>
  </trk>
</gpx>